# Wetter Temperatur Luftdruck Luftfeuchtigkeit Sichtweite Windgeschwindigkeit Windrichtung Zeit
1 Clouds 23 1011 88 10000 1.5 70 19:56 17.10.2019
2 Clear 24 1011 83 10000 1.5 90 19:37 17.10.2019
3 Clear 24 1011 83 10000 1.5 90 19:18 17.10.2019
4 Clouds 25 1011 83 10000 1 330 18:42 17.10.2019
5 Clouds 25 1011 83 10000 1 330 18:21 17.10.2019
6 Clear 26 1011 78 10000 1.5 330 17:55 17.10.2019
7 Clear 26 1011 78 10000 2.1 330 17:37 17.10.2019
8 Clear 26 1011 78 10000 2.1 330 17:19 17.10.2019
9 Clouds 26 1012 74 10000 2.6 330 16:55 17.10.2019
10 -273 0 0 0 0 0 16:36 17.10.2019
11 Clouds 26 1012 78 10000 2.1 310 16:18 17.10.2019
12 Clouds 27 1012 78 10000 3.6 310 15:41 17.10.2019
13 Clouds 27 1012 78 10000 3.6 310 15:21 17.10.2019
14 Clouds 27 1012 69 10000 3.6 360 14:59 17.10.2019
15 Clouds 27 1011 62 10000 2.6 350 14:41 17.10.2019
16 Clouds 28 1011 62 10000 2.6 350 14:23 17.10.2019
17 Clouds 27 1011 54 10000 3.1 20 13:42 17.10.2019
18 Clouds 28 1011 54 10000 3.1 20 13:21 17.10.2019
19 Clouds 29 1011 48 10000 3.6 20 12:59 17.10.2019
20 Clouds 29 1011 51 10000 2.6 10 12:40 17.10.2019
21 Clouds 29 1011 51 10000 2.6 10 12:20 17.10.2019
22 Clouds 30 1010 43 10000 3.6 40 11:57 17.10.2019
23 Clouds 31 1010 38 10000 4.1 30 11:39 17.10.2019
24 Clouds 31 1010 38 10000 4.1 30 11:18 17.10.2019
25 Clouds 33 1010 29 10000 6.2 60 10:42 17.10.2019
26 Clouds 33 1010 29 10000 6.2 60 10:21 17.10.2019
27 Clouds 33 1010 29 10000 6.2 60 10:20 17.10.2019
28 Clouds 34 1009 26 10000 6.7 40 09:59 17.10.2019
29 Clouds 34 1009 34 10000 5.7 30 09:41 17.10.2019
30 Clouds 34 1009 34 10000 5.7 30 09:41 17.10.2019
31 Clouds 34 1009 34 10000 5.7 30 09:21 17.10.2019
32 Clouds 34 1009 41 10000 6.7 10 08:58 17.10.2019
33 Clouds 34 1009 41 10000 6.7 10 08:58 17.10.2019
34 Clouds 34 1009 46 10000 6.7 10 08:39 17.10.2019
35 Clouds 34 1009 46 10000 6.7 10 08:20 17.10.2019
36 -273 0 0 0 0 0 07:54 17.10.2019
37 Clouds 34 1010 46 10000 6.7 360 07:36 17.10.2019
38 Clouds 34 1010 46 10000 6.7 360 07:18 17.10.2019
39 Clouds 34 1010 49 10000 7.2 10 06:39 17.10.2019
40 Clouds 34 1010 49 10000 7.2 10 06:20 17.10.2019
41 Clouds 33 1011 55 10000 7.2 330 05:49 17.10.2019
42 Clouds 34 1011 52 10000 7.7 360 05:30 17.10.2019
43 Clouds 34 1011 49 10000 6.2 360 04:51 17.10.2019
44 Clouds 34 1012 43 10000 4.1 50 03:54 17.10.2019
45 Clouds 31 1013 58 10000 3.6 50 02:36 17.10.2019
46 Clear 28 1012 69 10000 2.1 70 00:56 17.10.2019
47 Clear 26 1012 78 10000 1.5 80 00:38 17.10.2019
48 Clear 26 1012 78 10000 1.5 80 00:18 17.10.2019
49 Smoke 23 1011 88 1500 2.1 110 23:42 16.10.2019
50 Smoke 23 1011 88 1500 2.1 110 23:21 16.10.2019
51 Smoke 23 1011 88 1500 2.1 110 23:21 16.10.2019
52 Smoke 22 1010 94 1200 1.5 70 22:55 16.10.2019
53 Clear 23 1011 88 10000 1 60 22:36 16.10.2019
54 Clear 23 1011 88 10000 1 60 22:18 16.10.2019
55 -273 0 0 0 0 0 21:56 16.10.2019
56 Clouds 23 1010 88 10000 1 90 21:37 16.10.2019
57 Clear 23 1010 88 10000 1 90 21:18 16.10.2019
58 Clear 23 1010 88 10000 1 70 20:57 16.10.2019
59 Clear 23 1010 88 4500 1.5 60 20:38 16.10.2019
60 Clear 23 1010 88 4500 1.5 60 20:20 16.10.2019
61 Clear 24 1010 88 6000 1 80 19:57 16.10.2019
62 Clear 24 1010 83 10000 1 130 19:38 16.10.2019
63 Clear 24 1010 83 10000 1 130 19:20 16.10.2019
64 Clear 25 1011 78 10000 1.5 210 18:39 16.10.2019
65 Clear 25 1011 78 10000 1.5 210 18:39 16.10.2019
66 Clear 25 1011 78 10000 1.5 210 18:19 16.10.2019
67 Clear 25 1011 78 10000 1.5 210 17:57 16.10.2019
68 -273 0 0 0 0 0 17:39 16.10.2019
69 Clear 26 1011 78 10000 1.5 210 17:21 16.10.2019
70 Clear 26 1011 78 10000 3.1 220 16:59 16.10.2019
71 Clear 26 1011 78 10000 3.1 230 16:41 16.10.2019
72 Clear 26 1011 78 10000 3.1 230 16:41 16.10.2019
73 Clear 26 1011 78 10000 3.1 230 16:20 16.10.2019
74 Clear 27 1012 69 10000 2.6 240 15:56 16.10.2019
75 Clear 27 1012 69 10000 2.6 240 15:56 16.10.2019
76 Clear 27 1012 69 10000 3.1 250 15:37 16.10.2019
77 Clear 27 1012 69 10000 3.1 250 15:18 16.10.2019
78 Clear 27 1012 69 10000 3.1 250 14:56 16.10.2019
79 Clear 27 1012 69 10000 3.1 250 14:38 16.10.2019
80 Clear 27 1011 69 10000 3.1 260 14:18 16.10.2019
81 Clear 27 1011 69 10000 3.1 260 13:56 16.10.2019
82 Clear 27 1011 69 10000 3.1 260 13:56 16.10.2019
83 Clear 27 1011 69 10000 3.1 260 13:37 16.10.2019
84 Clear 28 1011 69 10000 3.6 260 13:18 16.10.2019
85 Clear 28 1010 69 10000 3.6 270 12:41 16.10.2019
86 Clear 28 1010 62 10000 4.1 270 12:19 16.10.2019
87 Clear 29 1010 62 10000 5.1 280 11:43 16.10.2019
88 Smoke 29 1010 62 10000 6.2 290 11:18 16.10.2019
89 Smoke 30 1010 55 10000 6.2 290 10:40 16.10.2019
90 Smoke 31 1009 48 10000 6.2 290 10:22 16.10.2019
91 Smoke 31 1009 55 10000 6.7 290 09:58 16.10.2019
92 Smoke 32 1009 55 10000 6.7 290 09:38 16.10.2019
93 Smoke 32 1009 46 10000 6.7 290 09:20 16.10.2019
94 Smoke 33 1009 49 10000 7.2 290 08:43 16.10.2019
95 Smoke 33 1009 52 10000 7.2 290 08:25 16.10.2019
96 -273 0 0 0 0 0 07:56 16.10.2019
97 Smoke 33 1009 55 10000 8.2 290 07:56 16.10.2019
98 Smoke 33 1010 52 10000 8.2 300 07:38 16.10.2019
99 Smoke 33 1010 52 10000 8.2 300 07:19 16.10.2019
100 Smoke 33 1010 52 10000 7.7 300 06:40 16.10.2019
101 Smoke 34 1011 52 10000 7.2 290 06:19 16.10.2019
102 Clouds 31 1013 62 10000 6.7 320 03:33 16.10.2019
103 Clouds 31 1013 62 10000 6.7 320 02:50 16.10.2019
104 Clouds 29 1013 62 10000 1.5 250 01:20 16.10.2019
105 Clouds 28 1013 69 10000 0.5 60 00:56 16.10.2019
106 Clouds 26 1012 78 10000 0.5 40 00:37 16.10.2019
107 Clouds 24 1012 83 10000 1 250 23:42 15.10.2019
108 Clouds 23 1012 83 10000 1.5 270 23:22 15.10.2019
109 Clouds 24 1011 83 10000 2.1 270 22:58 15.10.2019
110 Clouds 24 1011 83 10000 2.1 270 22:40 15.10.2019
111 Clouds 24 1011 78 10000 2.1 270 22:21 15.10.2019
112 Clouds 25 1011 78 10000 2.6 270 21:57 15.10.2019
113 Clouds 24 1011 78 10000 2.6 270 21:38 15.10.2019
114 Clouds 25 1011 78 10000 2.1 270 21:20 15.10.2019
115 Clouds 25 1011 78 10000 2.6 270 20:58 15.10.2019
116 Clouds 25 1011 78 10000 2.6 270 20:40 15.10.2019
117 Clouds 25 1011 78 10000 2.6 270 20:40 15.10.2019
118 Clouds 25 1011 78 10000 2.6 280 20:21 15.10.2019
119 Clouds 25 1011 78 10000 3.1 280 19:59 15.10.2019
120 Clouds 25 1011 78 10000 3.1 280 19:41 15.10.2019
121 Clouds 25 1011 78 10000 3.1 280 19:41 15.10.2019
122 Clouds 26 1011 74 10000 3.1 280 19:20 15.10.2019
123 Clouds 26 1011 74 10000 3.1 280 18:55 15.10.2019
124 Clouds 26 1011 74 10000 3.1 280 18:37 15.10.2019
125 Clouds 26 1011 74 10000 3.1 290 18:19 15.10.2019
126 Clouds 26 1012 74 10000 3.6 290 17:42 15.10.2019
127 Clouds 26 1012 74 10000 4.1 280 17:21 15.10.2019
128 Clouds 26 1012 78 10000 3.6 260 16:59 15.10.2019
129 Clouds 26 1012 78 10000 3.6 260 16:41 15.10.2019
130 Clouds 27 1012 78 10000 3.1 260 16:21 15.10.2019
131 Clouds 27 1012 78 10000 3.1 260 15:55 15.10.2019
132 Clouds 27 1012 78 10000 3.1 260 15:37 15.10.2019
133 Clouds 27 1012 78 10000 3.6 260 15:19 15.10.2019
134 Clouds 27 1012 74 10000 3.1 260 14:54 15.10.2019
135 Clear 27 1011 74 10000 3.1 270 14:36 15.10.2019
136 Clear 27 1011 74 10000 3.1 270 14:18 15.10.2019
137 Clear 27 1011 65 10000 3.1 260 13:43 15.10.2019
138 Clear 28 1011 65 10000 3.6 260 13:20 15.10.2019
139 Clear 28 1010 65 10000 4.1 260 12:46 15.10.2019
140 Clear 28 1010 58 10000 4.6 270 12:23 15.10.2019
141 Clear 29 1009 51 10000 4.6 360 11:59 15.10.2019
142 Clear 30 1009 51 10000 4.6 360 11:40 15.10.2019
143 Clear 30 1009 45 10000 4.6 10 11:20 15.10.2019
144 Clear 32 1009 35 10000 6.2 20 10:46 15.10.2019
145 Clear 32 1009 35 10000 6.2 20 10:46 15.10.2019
146 Clear 32 1009 33 10000 6.7 20 10:24 15.10.2019
147 Clear 33 1009 33 10000 6.7 20 09:59 15.10.2019
148 Clear 33 1009 29 10000 7.7 10 09:40 15.10.2019
149 Clear 34 1009 29 10000 7.7 10 09:21 15.10.2019
150 Clear 34 1009 29 10000 7.7 10 09:21 15.10.2019
151 Clear 34 1009 21 10000 7.2 10 08:58 15.10.2019
152 Clear 34 1009 20 10000 6.7 360 08:39 15.10.2019
153 -273 0 0 0 0 0 08:19 15.10.2019
154 Clear 35 1010 26 10000 6.2 360 07:43 15.10.2019
155 Clear 35 1010 30 10000 5.7 340 07:23 15.10.2019
156 Clear 35 1010 36 10000 6.2 350 06:57 15.10.2019
157 Clear 34 1010 36 10000 6.2 350 06:39 15.10.2019
158 Clear 34 1011 41 10000 6.7 340 05:56 15.10.2019
159 Clear 34 1011 43 10000 5.7 350 05:36 15.10.2019
160 Clouds 34 1012 41 10000 5.7 330 04:49 15.10.2019
161 Clouds 34 1013 49 10000 4.6 330 04:19 15.10.2019
162 Clear 33 1013 45 10000 5.1 350 03:35 15.10.2019
163 Clouds 30 1014 58 10000 5.1 350 01:57 15.10.2019
164 Clouds 30 1014 58 10000 5.1 350 01:39 15.10.2019
165 Clouds 28 1013 69 10000 0.5 170 00:59 15.10.2019
166 Clear 26 1013 74 10000 1 120 00:25 15.10.2019
167 Clear 23 1013 88 10000 1 130 23:59 14.10.2019
168 Clear 22 1013 88 10000 1 130 23:37 14.10.2019
169 Clear 22 1013 88 10000 1 130 23:37 14.10.2019
170 Clear 21 1012 88 10000 1 110 23:18 14.10.2019
171 Clear 22 1012 78 10000 0.5 70 22:39 14.10.2019
172 Clear 22 1012 78 10000 0.5 70 22:21 14.10.2019
173 Clouds 22 1012 78 10000 1 170 21:58 14.10.2019
174 Clouds 22 1012 78 10000 1 170 21:40 14.10.2019
175 Clouds 22 1012 78 10000 1.5 200 21:21 14.10.2019
176 Clouds 23 1012 73 10000 1.5 210 20:58 14.10.2019
177 Clouds 23 1012 73 10000 1.5 210 20:38 14.10.2019
178 Clouds 23 1011 73 10000 1.5 230 20:19 14.10.2019
179 Clouds 23 1011 69 10000 1.5 240 19:55 14.10.2019
180 Clouds 23 1011 69 10000 1.5 240 19:54 14.10.2019
181 Clouds 24 1011 69 10000 1.5 230 19:36 14.10.2019
182 Clouds 24 1011 69 10000 1.5 230 19:18 14.10.2019
183 Clouds 24 1012 69 10000 1.5 230 18:54 14.10.2019
184 Clouds 24 1012 69 10000 1.5 250 18:36 14.10.2019
185 Clouds 24 1012 69 10000 1.5 250 18:18 14.10.2019
186 Clouds 24 1012 65 10000 1.5 250 17:41 14.10.2019
187 Clouds 25 1012 65 10000 1.5 250 17:22 14.10.2019
188 Clear 25 1012 61 10000 1 250 16:46 14.10.2019
189 Clear 25 1012 58 10000 1.5 250 16:23 14.10.2019
190 Clear 26 1012 61 10000 2.1 240 15:59 14.10.2019
191 Clear 26 1012 54 10000 1.5 250 15:40 14.10.2019
192 Clear 26 1012 54 10000 1.5 250 15:40 14.10.2019
193 Clear 27 1012 54 10000 1.5 250 15:21 14.10.2019
194 Clear 26 1012 54 10000 1.5 360 14:44 14.10.2019
195 Clear 27 1012 51 10000 1.5 310 14:25 14.10.2019
196 Clear 27 1011 48 10000 2.1 240 13:57 14.10.2019
197 Clear 28 1011 45 10000 2.6 30 13:39 14.10.2019
198 Clear 28 1011 45 10000 2.6 30 13:20 14.10.2019
199 Clear 28 1011 45 10000 2.6 30 13:20 14.10.2019
200 Clear 29 1010 30 10000 4.1 30 12:41 14.10.2019
201 Clear 30 1010 30 10000 4.1 30 12:21 14.10.2019
202 Clear 30 1010 27 10000 4.6 30 11:55 14.10.2019
203 Clear 31 1010 21 10000 5.1 20 11:36 14.10.2019
204 Clear 32 1010 21 10000 5.1 20 11:18 14.10.2019
205 Clear 33 1010 16 10000 6.2 20 10:44 14.10.2019
206 Clear 33 1010 16 10000 6.2 20 10:44 14.10.2019
207 Clear 34 1010 14 10000 6.7 30 10:21 14.10.2019
208 Clear 34 1009 12 10000 7.2 10 09:59 14.10.2019
209 Clear 35 1009 14 10000 6.7 10 09:40 14.10.2019
210 Clear 35 1009 14 10000 6.7 10 09:20 14.10.2019
211 Clear 35 1010 16 10000 8.2 30 08:48 14.10.2019
212 Clear 36 1010 13 10000 7.7 10 08:23 14.10.2019
213 Clear 36 1010 17 10000 7.7 10 07:44 14.10.2019
214 Clear 36 1010 19 10000 7.7 350 07:22 14.10.2019
215 Clear 36 1011 23 10000 6.2 350 06:56 14.10.2019
216 Clear 34 1011 33 10000 6.7 340 06:28 14.10.2019
217 Clear 35 1012 23 10000 6.2 350 05:53 14.10.2019
218 Clouds 35 1013 32 10000 4.1 350 04:53 14.10.2019
219 Clear 34 1014 40 10000 2.6 30 03:49 14.10.2019
220 Clear 33 1014 43 10000 2.6 30 03:22 14.10.2019
221 Clear 31 1014 58 10000 2.6 30 01:52 14.10.2019
222 Clear 29 1014 65 10000 2.6 20 01:18 14.10.2019
223 Clear 26 1013 78 10000 2.1 60 00:40 14.10.2019
224 Clear 25 1013 78 10000 2.1 60 00:18 14.10.2019
225 Clear 22 1012 88 10000 1.5 40 23:40 13.10.2019
226 Clear 21 1012 88 10000 1.5 40 23:19 13.10.2019
227 Clear 21 1012 88 10000 2.54 30.527 22:55 13.10.2019
228 Clear 21 1011 83 10000 2.54 30.527 22:37 13.10.2019
229 Clear 21 1011 83 10000 2.54 30.527 22:19 13.10.2019
230 Clear 21 1011 83 10000 2.54 30.527 22:19 13.10.2019
231 Clouds 22 1011 78 10000 2.54 30.527 21:55 13.10.2019
232 Clouds 22 1011 83 10000 2.54 30.527 21:36 13.10.2019
233 Clouds 22 1011 83 10000 2.85 339.905 21:18 13.10.2019
234 Clouds 22 1011 83 10000 2.85 339.905 21:18 13.10.2019
235 Clouds 22 1011 78 10000 1 90 20:55 13.10.2019
236 Clouds 23 1011 83 10000 1 100 20:37 13.10.2019
237 Clouds 23 1011 83 10000 1 100 20:18 13.10.2019
238 Clouds 23 1011 73 10000 2.87 334.665 19:54 13.10.2019
239 Clouds 23 1011 73 10000 2.87 334.665 19:36 13.10.2019
240 Clouds 23 1011 73 10000 2.87 334.665 19:18 13.10.2019
241 Clouds 24 1011 69 10000 1 310 18:39 13.10.2019
242 Clouds 25 1011 69 10000 1 310 18:20 13.10.2019
243 Clouds 25 1011 69 10000 1 310 18:20 13.10.2019
244 Clouds 26 1011 65 10000 2.1 310 17:59 13.10.2019
245 Clouds 26 1012 57 10000 2.6 320 17:41 13.10.2019
246 Clouds 26 1012 57 10000 2.6 320 17:22 13.10.2019
247 Clear 27 1012 58 10000 3.1 330 16:43 13.10.2019
248 Clear 27 1012 58 10000 3.1 320 16:19 13.10.2019
249 Clouds 27 1012 58 10000 3.6 330 15:57 13.10.2019
250 Clouds 27 1012 54 10000 4.6 310 15:39 13.10.2019
251 Clouds 27 1012 54 10000 4.6 310 15:20 13.10.2019
252 Clouds 27 1012 66 10000 4.6 300 14:58 13.10.2019
253 Clouds 27 1011 66 10000 4.6 300 14:39 13.10.2019
254 Clouds 27 1011 66 10000 4.6 300 14:20 13.10.2019
255 Clouds 28 1011 66 10000 4.6 290 13:56 13.10.2019
256 Clouds 28 1010 66 10000 4.1 280 13:37 13.10.2019
257 Clouds 28 1010 66 10000 4.1 280 13:18 13.10.2019
258 Clouds 28 1010 66 10000 3.6 290 12:55 13.10.2019
259 Clear 28 1010 58 10000 4.1 300 12:37 13.10.2019
260 Clear 28 1010 58 10000 4.1 300 12:18 13.10.2019
261 Clouds 29 1010 51 10000 3.1 360 11:55 13.10.2019
262 Clouds 29 1010 51 10000 3.1 360 11:55 13.10.2019
263 Clouds 29 1009 51 10000 3.1 360 11:36 13.10.2019
264 Clouds 29 1009 51 10000 3.1 360 11:18 13.10.2019
265 Clouds 31 1009 52 10000 3.1 360 10:41 13.10.2019
266 Clouds 31 1009 52 10000 3.1 360 10:22 13.10.2019
267 Clouds 32 1008 52 10000 5.1 320 09:41 13.10.2019
268 Clouds 32 1008 52 10000 5.1 320 09:21 13.10.2019
269 Clouds 32 1008 46 10000 6.2 330 08:57 13.10.2019
270 Clouds 32 1009 58 10000 6.2 330 08:38 13.10.2019
271 Clouds 32 1009 58 10000 6.2 330 08:19 13.10.2019
272 Clouds 33 1009 52 10000 6.2 330 07:46 13.10.2019
273 Clouds 33 1009 55 10000 6.2 310 06:59 13.10.2019
274 Clouds 35 1010 52 10000 5.1 300 06:40 13.10.2019
275 Clouds 35 1011 52 10000 4.6 290 05:39 13.10.2019
276 Clouds 34 1012 52 10000 4.6 310 04:46 13.10.2019
277 Clouds 31 1013 62 10000 3.1 330 03:40 13.10.2019
278 Clouds 31 1013 66 10000 1.5 260 02:41 13.10.2019
279 Clouds 31 1013 66 10000 7.2 320 01:53 13.10.2019
280 Clouds 30 1013 74 10000 3.1 300 01:26 13.10.2019
281 Clouds 28 1013 78 10000 3.1 300 00:47 13.10.2019
282 Clouds 26 1013 83 10000 1.5 80 00:21 13.10.2019
283 Clouds 24 1012 88 10000 1.18 157.507 23:56 12.10.2019
284 Fog 23 1012 94 10000 1.18 157.507 23:37 12.10.2019
285 Fog 24 1012 94 10000 1.18 157.507 23:19 12.10.2019
286 Fog 24 1011 94 10000 0.5 240 22:57 12.10.2019
287 Clouds 24 1011 88 10000 1 240 22:38 12.10.2019
288 Clouds 24 1011 88 10000 1 240 22:20 12.10.2019
289 Clouds 24 1011 88 10000 1 250 21:54 12.10.2019
290 Clouds 24 1011 88 10000 1.5 270 21:36 12.10.2019
291 Clouds 24 1011 88 10000 1.5 270 21:18 12.10.2019
292 Clouds 26 1010 83 10000 1.5 260 20:40 12.10.2019
293 Clouds 26 1010 83 10000 1.5 260 20:22 12.10.2019
294 Clouds 26 1010 83 10000 2.1 250 19:38 12.10.2019
295 Clouds 26 1010 83 10000 2.1 250 19:20 12.10.2019
296 Clouds 26 1010 78 10000 2.6 270 18:57 12.10.2019
297 Clouds 26 1010 78 10000 2.6 270 18:39 12.10.2019
298 Clouds 26 1010 78 10000 2.6 270 18:20 12.10.2019
299 Clouds 27 1011 78 10000 2.6 270 17:43 12.10.2019
300 Clouds 27 1011 78 10000 2.6 270 17:19 12.10.2019
301 Clouds 27 1011 78 10000 3.1 280 16:54 12.10.2019
302 Clouds 27 1011 78 10000 3.1 280 16:54 12.10.2019
303 Clouds 27 1011 74 10000 3.6 290 16:36 12.10.2019
304 Clouds 27 1011 74 10000 3.6 290 16:36 12.10.2019
305 Clouds 27 1011 74 10000 3.6 290 16:18 12.10.2019
306 Clouds 27 1011 74 10000 4.6 290 15:43 12.10.2019
307 Clouds 28 1011 70 10000 4.6 290 15:23 12.10.2019
308 Clouds 28 1010 70 10000 4.6 290 14:43 12.10.2019
309 Clouds 28 1010 70 10000 5.1 290 14:22 12.10.2019
310 Clear 28 1010 70 10000 4.6 280 13:58 12.10.2019
311 Clear 28 1009 70 10000 4.6 270 13:40 12.10.2019
312 Clear 28 1009 70 10000 4.6 270 13:21 12.10.2019
313 Clear 29 1009 66 10000 5.1 290 12:39 12.10.2019
314 Clear 29 1009 66 10000 5.1 290 12:21 12.10.2019
315 Clear 29 1008 58 10000 3.6 300 11:58 12.10.2019
316 Clear 30 1008 62 10000 3.6 300 11:39 12.10.2019
317 Clear 30 1008 62 10000 3.6 300 11:20 12.10.2019
318 Clear 30 1008 55 10000 4.6 300 10:44 12.10.2019
319 Clear 31 1008 55 10000 4.6 300 10:24 12.10.2019
320 Clear 32 1007 55 10000 5.1 300 09:58 12.10.2019
321 Clear 32 1007 55 10000 5.1 300 09:58 12.10.2019
322 Clear 33 1007 52 10000 4.1 320 09:39 12.10.2019
323 Clear 33 1007 52 10000 4.1 320 09:21 12.10.2019
324 Clear 33 1007 52 10000 5.1 340 08:58 12.10.2019
325 Clear 33 1007 43 10000 5.7 330 08:38 12.10.2019
326 Clear 33 1007 43 10000 5.7 330 08:20 12.10.2019
327 Clear 33 1007 43 10000 5.7 330 08:20 12.10.2019
328 Clouds 34 1008 46 10000 6.2 340 07:35 12.10.2019
329 Clouds 34 1008 49 10000 5.7 320 06:56 12.10.2019
330 Clear 36 1009 30 10000 3.6 300 05:47 12.10.2019
331 Clouds 35 1010 46 10000 3.6 320 05:23 12.10.2019
332 Clouds 34 1011 52 10000 3.6 300 04:24 12.10.2019
333 Clouds 32 1012 58 10000 7.2 320 03:33 12.10.2019
334 Clouds 31 1012 55 10000 7.2 320 01:50 12.10.2019
335 Clouds 30 1012 66 10000 0.5 240 01:24 12.10.2019
336 Clouds 28 1012 83 10000 0.91 307.903 00:42 12.10.2019
337 Clouds 27 1012 83 10000 1.24 297.31 00:19 12.10.2019
338 Fog 24 1011 88 10000 1.24 297.31 23:40 11.10.2019
339 Fog 24 1011 88 10000 1.24 297.31 23:20 11.10.2019
340 Fog 24 1011 88 10000 1 330 22:41 11.10.2019
341 Fog 25 1011 88 10000 1 330 22:22 11.10.2019
342 Clouds 25 1010 88 10000 1.5 330 21:59 11.10.2019
343 Clouds 25 1010 83 10000 2.1 330 21:40 11.10.2019
344 Clouds 26 1010 83 10000 2.1 330 21:21 11.10.2019
345 Clouds 26 1010 83 10000 2.1 330 20:45 11.10.2019
346 Clouds 26 1010 78 10000 2.6 320 20:27 11.10.2019
347 Clouds 26 1010 78 10000 2.6 330 19:59 11.10.2019
348 Clouds 26 1010 83 10000 2.1 330 19:39 11.10.2019
349 Clouds 26 1010 83 10000 2.1 330 19:18 11.10.2019
350 Clouds 26 1010 83 10000 2.1 330 19:18 11.10.2019
351 Clouds 26 1010 83 10000 2.1 330 19:18 11.10.2019
352 Clouds 27 1010 78 10000 2.6 330 18:59 11.10.2019
353 Clouds 27 1011 78 10000 3.6 320 18:39 11.10.2019
354 Clouds 27 1011 78 10000 3.6 320 18:19 11.10.2019
355 Clouds 27 1011 78 10000 3.1 330 17:59 11.10.2019
356 Clouds 27 1011 83 10000 4.6 310 17:38 11.10.2019
357 Clouds 27 1011 83 10000 4.6 310 17:19 11.10.2019
358 Clouds 27 1011 83 10000 4.6 310 17:19 11.10.2019
359 Clouds 27 1011 78 10000 3.6 310 16:59 11.10.2019
360 Clouds 27 1011 78 10000 3.1 290 16:39 11.10.2019
361 Clouds 27 1011 78 10000 3.1 290 16:19 11.10.2019
362 Clouds 27 1011 83 10000 3.6 300 15:55 11.10.2019
363 Clouds 28 1011 79 10000 4.1 300 15:36 11.10.2019
364 Clouds 28 1011 79 10000 4.1 300 15:18 11.10.2019
365 Clouds 28 1010 83 10000 2.6 270 14:41 11.10.2019
366 Clouds 27 1010 83 10000 2.6 270 14:21 11.10.2019
367 Clear 28 1010 74 10000 2.6 270 13:46 11.10.2019
368 Clear 28 1010 74 10000 2.6 250 13:26 11.10.2019
369 Clear 29 1010 74 10000 3.1 280 12:58 11.10.2019
370 Clear 29 1009 74 10000 3.6 250 12:39 11.10.2019
371 Clear 29 1009 74 10000 3.6 250 12:21 11.10.2019
372 Clear 29 1009 74 10000 4.1 260 11:59 11.10.2019
373 Clear 29 1008 74 10000 4.6 270 11:39 11.10.2019
374 Clear 29 1008 74 10000 4.6 270 11:21 11.10.2019
375 Clear 30 1008 66 10000 6.2 280 10:56 11.10.2019
376 Clear 30 1008 66 10000 6.2 280 10:56 11.10.2019
377 Clear 31 1008 66 10000 6.7 280 10:37 11.10.2019
378 Clear 31 1008 66 10000 6.7 280 10:18 11.10.2019
379 Clear 31 1008 66 10000 6.7 280 10:18 11.10.2019
380 Clouds 31 1008 66 10000 7.7 300 09:42 11.10.2019
381 Clouds 32 1008 66 10000 7.7 300 09:21 11.10.2019
382 Clouds 32 1008 66 10000 8.7 290 08:59 11.10.2019
383 Clouds 32 1008 66 10000 8.7 300 08:39 11.10.2019
384 Clouds 32 1008 66 10000 8.7 300 08:39 11.10.2019
385 Clouds 32 1008 66 10000 8.7 300 08:20 11.10.2019
386 Clouds 32 1008 59 10000 8.2 300 07:57 11.10.2019
387 Clouds 33 1008 59 10000 7.2 300 07:38 11.10.2019
388 Clouds 32 1008 59 10000 7.2 300 07:19 11.10.2019
389 Clouds 33 1009 52 10000 6.2 290 06:43 11.10.2019
390 Clouds 34 1009 52 10000 6.2 290 06:19 11.10.2019
391 Clouds 33 1011 52 10000 6.2 330 05:32 11.10.2019
392 Clouds 33 1011 43 10000 6.2 330 04:58 11.10.2019
393 Clouds 33 1013 52 10000 6.2 330 03:45 11.10.2019
394 Clouds 30 1013 66 10000 1.5 210 01:28 11.10.2019
395 Clouds 28 1012 78 10000 1 210 00:42 11.10.2019
396 Clouds 27 1012 78 10000 1 210 00:22 11.10.2019
397 Clouds 24 1011 88 10000 1.5 250 23:41 10.10.2019
398 Clouds 24 1011 88 10000 1.5 250 23:20 10.10.2019
399 Clouds 24 1011 88 10000 1.54 246.015 22:57 10.10.2019
400 Clear 24 1011 88 10000 0.5 330 22:37 10.10.2019
401 Clear 24 1011 88 10000 0.5 330 22:19 10.10.2019
402 Clouds 24 1010 83 10000 1 300 21:54 10.10.2019
403 Clouds 24 1010 83 10000 1.5 310 21:36 10.10.2019
404 Clouds 24 1010 83 10000 1.5 310 21:18 10.10.2019
405 Clouds 25 1010 78 10000 2.1 330 20:41 10.10.2019
406 Clouds 25 1010 78 10000 2.1 330 20:21 10.10.2019
407 Clouds 25 1010 78 10000 2.1 330 20:21 10.10.2019
408 Clouds 25 1011 83 10000 1.5 340 19:58 10.10.2019
409 Clouds 25 1011 78 10000 1.5 360 19:39 10.10.2019
410 Clouds 26 1011 78 10000 1.5 360 19:19 10.10.2019
411 Clouds 26 1011 74 10000 2.1 330 18:54 10.10.2019
412 Clouds 26 1011 69 10000 2.6 310 18:36 10.10.2019
413 Clouds 26 1011 69 10000 2.6 310 18:18 10.10.2019
414 Clouds 27 1012 78 10000 3.6 300 17:40 10.10.2019
415 Clouds 27 1012 78 10000 3.6 300 17:20 10.10.2019
416 Clouds 27 1012 78 10000 4.1 300 16:58 10.10.2019
417 Clouds 27 1012 78 10000 4.6 290 16:39 10.10.2019
418 Clouds 27 1012 78 10000 4.6 290 16:21 10.10.2019
419 Clouds 27 1012 83 10000 4.6 290 15:43 10.10.2019
420 Clouds 27 1012 83 10000 4.6 290 15:43 10.10.2019
421 Clouds 28 1012 74 10000 4.1 290 15:24 10.10.2019
422 Clouds 28 1012 74 10000 4.1 290 14:59 10.10.2019
423 Clouds 28 1012 74 10000 2.6 280 14:37 10.10.2019
424 Clouds 28 1012 74 10000 2.6 280 14:37 10.10.2019
425 Clouds 28 1012 74 10000 2.6 280 14:19 10.10.2019
426 Clouds 28 1012 74 10000 2.6 280 14:19 10.10.2019
427 Clouds 27 1011 78 10000 2.1 280 13:59 10.10.2019
428 Clear 27 1011 70 10000 2.6 270 13:39 10.10.2019
429 Clear 28 1011 70 10000 2.6 270 13:18 10.10.2019
430 Clear 28 1011 70 10000 2.6 270 13:18 10.10.2019
431 Clear 28 1011 66 10000 2.1 310 12:54 10.10.2019
432 Clear 28 1010 66 10000 2.6 280 12:36 10.10.2019
433 Clear 28 1010 66 10000 2.6 280 12:18 10.10.2019
434 Clear 29 1010 62 10000 3.1 300 11:41 10.10.2019
435 Clear 30 1010 62 10000 3.1 300 11:20 10.10.2019
436 Clear 30 1010 62 10000 3.1 300 11:20 10.10.2019
437 Clear 30 1009 62 10000 4.1 300 10:58 10.10.2019
438 Clear 30 1009 62 10000 4.6 300 10:40 10.10.2019
439 Clear 31 1009 62 10000 4.6 300 10:21 10.10.2019
440 Clouds 32 1009 58 10000 5.7 320 09:41 10.10.2019
441 Clouds 32 1009 58 10000 5.7 320 09:41 10.10.2019
442 Clouds 32 1009 58 10000 5.7 320 09:23 10.10.2019
443 Clouds 32 1009 58 10000 5.7 310 08:59 10.10.2019
444 Clouds 32 1009 55 10000 5.7 320 08:41 10.10.2019
445 Clouds 33 1009 55 10000 5.7 320 08:21 10.10.2019
446 Clouds 33 1009 55 10000 5.7 320 07:58 10.10.2019
447 Clear 33 1010 62 10000 6.2 330 07:37 10.10.2019
448 Clear 35 1010 62 10000 6.2 330 07:19 10.10.2019
449 Clouds 34 1011 59 10000 5.7 330 06:40 10.10.2019
450 Clouds 34 1011 52 10000 3.6 330 05:57 10.10.2019
451 Clouds 34 1012 55 10000 4.1 290 05:22 10.10.2019
452 Clouds 34 1012 55 10000 4.1 290 05:22 10.10.2019
453 Clouds 33 1013 52 10000 3.6 340 04:36 10.10.2019
454 Clouds 31 1014 62 10000 6.2 320 02:49 10.10.2019
455 Clouds 29 1014 78 10000 2.1 130 01:41 10.10.2019
456 Clouds 29 1014 78 10000 2.1 130 01:41 10.10.2019
457 Clouds 29 1014 78 10000 2.1 130 01:22 10.10.2019
458 Clouds 27 1013 83 10000 3.1 110 00:45 10.10.2019
459 Clouds 26 1013 83 10000 3.1 110 00:19 10.10.2019
460 Clouds 26 1012 88 10000 1 250 23:39 09.10.2019
461 Clouds 25 1012 88 10000 1 250 23:19 09.10.2019
462 Clouds 25 1011 83 10000 2.1 250 22:42 09.10.2019
463 Clouds 25 1011 83 10000 2.1 250 22:24 09.10.2019
464 Clouds 25 1011 83 10000 2.1 260 21:59 09.10.2019
465 Clouds 25 1011 83 10000 2.1 270 21:39 09.10.2019
466 Clouds 24 1011 83 10000 2.1 270 21:20 09.10.2019
467 Clouds 24 1011 88 10000 2.1 290 20:56 09.10.2019
468 Clouds 24 1011 88 10000 2.1 290 20:56 09.10.2019
469 Clouds 25 1011 78 10000 2.1 290 20:37 09.10.2019
470 Clouds 25 1011 78 10000 2.1 290 20:18 09.10.2019
471 Clouds 26 1011 83 10000 2.6 310 19:45 09.10.2019
472 Clouds 26 1011 83 10000 2.6 320 19:24 09.10.2019
473 Clouds 26 1012 83 10000 2.6 320 18:58 09.10.2019
474 Clouds 26 1012 83 10000 2.1 330 18:37 09.10.2019
475 Clouds 26 1012 83 10000 2.1 330 18:18 09.10.2019
476 Clouds 27 1012 78 10000 3.1 330 17:55 09.10.2019
477 Clouds 27 1012 78 10000 3.6 320 17:36 09.10.2019
478 Clouds 27 1012 78 10000 3.6 320 17:18 09.10.2019
479 Clouds 27 1013 74 10000 2.6 300 16:41 09.10.2019
480 Clouds 27 1013 74 10000 2.6 300 16:22 09.10.2019
481 Clouds 27 1013 74 10000 2.6 300 15:58 09.10.2019
482 Clouds 27 1013 74 10000 3.1 310 15:39 09.10.2019
483 Clouds 27 1013 74 10000 3.1 310 15:20 09.10.2019
484 Clouds 27 1013 74 10000 2.6 280 14:58 09.10.2019
485 Clouds 27 1012 74 10000 2.1 280 14:39 09.10.2019
486 Clouds 27 1012 74 10000 2.1 280 14:18 09.10.2019
487 Clear 27 1011 74 10000 2.6 230 13:40 09.10.2019
488 Clear 27 1011 74 10000 2.6 230 13:21 09.10.2019
489 Clear 28 1011 74 10000 2.6 250 12:59 09.10.2019
490 Clear 28 1010 70 10000 2.6 280 12:40 09.10.2019
491 Clear 28 1010 70 10000 2.6 280 12:21 09.10.2019
492 Clear 29 1010 70 10000 3.6 270 11:55 09.10.2019
493 Clear 29 1009 66 10000 3.6 280 11:37 09.10.2019
494 Clear 29 1009 66 10000 3.6 280 11:18 09.10.2019
495 Clear 30 1009 66 10000 5.1 290 10:43 09.10.2019
496 Clear 30 1009 66 10000 6.2 290 10:43 09.10.2019
497 Clear 30 1009 66 10000 6.2 290 10:21 09.10.2019
498 Clouds 31 1009 66 10000 5.7 300 09:57 09.10.2019
499 Clouds 31 1009 58 10000 6.2 300 09:38 09.10.2019
500 Clouds 32 1009 58 10000 6.2 300 09:18 09.10.2019
501 Clouds 33 1010 62 10000 7.7 310 08:41 09.10.2019
502 Clouds 33 1010 62 10000 7.7 310 08:21 09.10.2019
503 Clouds 33 1010 62 10000 7.7 310 08:21 09.10.2019
504 Clouds 32 1010 62 10000 7.7 310 07:56 09.10.2019
505 Clouds 33 1010 55 10000 7.2 320 07:37 09.10.2019
506 Clouds 33 1010 55 10000 7.2 320 07:19 09.10.2019
507 Clouds 34 1011 55 10000 7.2 310 06:49 09.10.2019
508 Clouds 34 1011 49 10000 5.7 300 05:55 09.10.2019
509 Clouds 35 1012 55 10000 6.2 300 05:23 09.10.2019
510 Clouds 35 1013 43 10000 8.7 340 04:24 09.10.2019
511 Clouds 32 1014 58 10000 2.6 210 02:50 09.10.2019
512 Clouds 30 1014 66 10000 2.1 250 01:43 09.10.2019
513 Clouds 30 1014 66 10000 2.1 260 01:20 09.10.2019
514 Clouds 28 1013 69 10000 2.1 260 00:56 09.10.2019
515 Clouds 27 1013 78 10000 1.5 250 00:38 09.10.2019
516 Clouds 27 1013 78 10000 1.5 250 00:19 09.10.2019
517 Clouds 24 1012 83 10000 1.5 230 23:39 08.10.2019
518 Clouds 24 1012 83 10000 1.5 230 23:18 08.10.2019
519 Clouds 23 1012 88 10000 1 250 22:56 08.10.2019
520 Clouds 23 1011 88 10000 1 250 22:38 08.10.2019
521 Clouds 23 1011 88 10000 1 250 22:19 08.10.2019
522 Clouds 24 1011 83 10000 1 260 21:57 08.10.2019
523 Clouds 24 1011 83 10000 1 270 21:38 08.10.2019
524 Clouds 24 1011 83 10000 1 270 21:19 08.10.2019
525 Clouds 24 1011 83 10000 0.5 240 20:56 08.10.2019
526 Clouds 25 1011 78 10000 2.86 323.507 20:37 08.10.2019
527 Clouds 25 1011 78 10000 2.86 323.507 20:19 08.10.2019
528 Clouds 25 1011 78 10000 2.86 323.507 19:56 08.10.2019
529 Clouds 25 1011 78 10000 1 280 19:37 08.10.2019
530 Clouds 25 1011 78 10000 1 280 19:18 08.10.2019
531 Clouds 26 1012 74 10000 2.86 323.507 18:46 08.10.2019
532 Clouds 26 1012 74 10000 0.5 350 18:26 08.10.2019
533 Clouds 27 1012 69 10000 1 320 17:59 08.10.2019
534 Clouds 26 1012 69 10000 2.6 270 17:40 08.10.2019
535 Clouds 26 1012 69 10000 2.6 270 17:20 08.10.2019
536 Clouds 26 1012 74 10000 2.1 270 16:56 08.10.2019
537 Clouds 26 1012 74 10000 2.1 260 16:37 08.10.2019
538 Clouds 26 1012 74 10000 2.1 260 16:19 08.10.2019
539 Clouds 27 1012 69 10000 2.1 260 15:40 08.10.2019
540 Clouds 27 1012 69 10000 2.1 260 15:21 08.10.2019
541 Clouds 27 1012 69 10000 2.6 260 14:57 08.10.2019
542 Clouds 27 1012 65 10000 2.6 280 14:38 08.10.2019
543 Clouds 27 1012 65 10000 2.6 280 14:20 08.10.2019
544 Clouds 27 1011 65 10000 3.1 260 13:56 08.10.2019
545 Clear 27 1011 65 10000 3.1 260 13:37 08.10.2019
546 Clear 28 1011 65 10000 3.1 260 13:18 08.10.2019
547 Clear 28 1010 58 10000 3.6 280 12:42 08.10.2019
548 Clear 28 1010 58 10000 3.6 280 12:21 08.10.2019
549 Clear 28 1010 58 10000 3.1 290 11:59 08.10.2019
550 Clear 29 1009 58 10000 4.1 280 11:40 08.10.2019
551 Clear 29 1009 58 10000 4.1 280 11:21 08.10.2019
552 Clouds 31 1009 48 10000 5.7 300 10:55 08.10.2019
553 Clear 31 1009 48 10000 3.1 330 10:36 08.10.2019
554 Clear 32 1009 48 10000 3.1 330 10:18 08.10.2019
555 Clear 32 1009 43 10000 4.6 340 09:41 08.10.2019
556 Clear 33 1009 43 10000 4.6 340 09:22 08.10.2019
557 Clouds 33 1009 46 10000 4.6 330 08:55 08.10.2019
558 Clouds 33 1009 52 10000 5.1 340 08:36 08.10.2019
559 Clouds 33 1009 52 10000 5.1 340 08:18 08.10.2019
560 Clouds 33 1010 52 10000 4.6 340 07:41 08.10.2019
561 Clouds 33 1010 52 10000 4.6 340 07:19 08.10.2019
562 Clouds 33 1010 55 10000 4.1 340 06:46 08.10.2019
563 Clouds 34 1011 55 10000 4.1 320 06:23 08.10.2019
564 Clouds 32 1011 55 10000 4.1 310 05:44 08.10.2019
565 Clouds 33 1012 55 10000 4.1 310 05:21 08.10.2019
566 Clouds 33 1012 55 10000 4.1 310 05:21 08.10.2019
567 Clouds 31 1013 58 10000 2.6 360 03:32 08.10.2019
568 Clouds 31 1014 58 10000 6.2 340 02:44 08.10.2019
569 Clouds 31 1014 62 10000 2.1 20 02:25 08.10.2019
570 Clouds 30 1013 69 10000 1.5 330 01:42 08.10.2019
571 Clouds 28 1013 74 10000 0.5 10 00:57 08.10.2019
572 Clouds 27 1013 74 10000 0.89 114.567 00:36 08.10.2019
573 Clouds 26 1013 74 10000 1.38 92.035 00:18 08.10.2019
574 Clouds 23 1013 83 10000 1.5 90 23:38 07.10.2019
575 Clouds 23 1013 83 10000 1.5 90 23:19 07.10.2019
576 Clouds 24 1012 78 10000 1.5 120 22:55 07.10.2019
577 Clouds 24 1012 78 10000 1 120 22:37 07.10.2019
578 Clouds 24 1012 78 10000 1 120 22:19 07.10.2019
579 Clouds 24 1012 83 10000 2.1 70 21:55 07.10.2019
580 Clear 24 1011 83 10000 1.38 92.035 21:37 07.10.2019
581 Clouds 23 1011 83 10000 2.7 322.884 21:18 07.10.2019
582 Clouds 24 1011 74 10000 2.6 290 20:56 07.10.2019
583 Clouds 24 1011 83 10000 2.86 313.84 20:38 07.10.2019
584 Clouds 24 1011 83 10000 2.86 313.84 20:18 07.10.2019
585 Clouds 24 1011 83 10000 0.5 20 19:54 07.10.2019
586 Clouds 24 1011 83 10000 0.5 20 19:54 07.10.2019
587 Clouds 24 1011 83 10000 2.86 313.84 19:36 07.10.2019
588 Clouds 24 1011 83 10000 2.86 313.84 19:18 07.10.2019
589 Clouds 25 1011 74 10000 2.1 280 18:41 07.10.2019
590 Rain 25 1011 74 10000 2.1 280 18:19 07.10.2019
591 Clouds 25 1012 74 10000 2.1 280 17:58 07.10.2019
592 Clouds 26 1012 69 10000 2.1 280 17:40 07.10.2019
593 Clouds 26 1012 69 10000 2.1 280 17:40 07.10.2019
594 Clouds 26 1012 69 10000 2.1 280 17:19 07.10.2019
595 Clouds 26 1012 74 10000 3.1 270 16:46 07.10.2019
596 Clouds 26 1012 69 10000 3.6 290 16:28 07.10.2019
597 Clouds 27 1012 69 10000 3.6 280 15:57 07.10.2019
598 Clouds 27 1012 69 10000 3.6 280 15:39 07.10.2019
599 Clouds 27 1012 69 10000 3.6 280 15:21 07.10.2019
600 Clouds 27 1012 69 10000 4.1 270 14:41 07.10.2019
601 Clouds 27 1012 69 10000 4.1 270 14:23 07.10.2019
602 Clouds 27 1011 69 10000 3.6 270 13:45 07.10.2019
603 Clear 27 1011 65 10000 2.6 290 13:21 07.10.2019
604 Clear 27 1011 62 10000 2.6 270 12:58 07.10.2019
605 Clear 27 1010 65 10000 2.6 280 12:40 07.10.2019
606 Clear 28 1010 65 10000 2.6 280 12:21 07.10.2019
607 Clear 28 1010 58 10000 2.6 280 11:59 07.10.2019
608 Clear 29 1010 42 10000 2.1 340 11:40 07.10.2019
609 Clear 30 1010 42 10000 2.1 340 11:21 07.10.2019
610 Clear 30 1010 40 10000 3.6 330 10:57 07.10.2019
611 Clear 31 1009 29 10000 4.1 330 10:39 07.10.2019
612 Clear 32 1009 29 10000 4.1 330 10:20 07.10.2019
613 Clear 33 1009 38 10000 5.7 10 09:39 07.10.2019
614 Clear 33 1009 38 10000 5.7 10 09:39 07.10.2019
615 Clear 32 1009 38 10000 5.7 10 09:21 07.10.2019
616 Clear 32 1009 40 10000 5.1 350 08:44 07.10.2019
617 Clear 33 1009 38 10000 6.2 360 08:21 07.10.2019
618 Clear 32 1009 46 10000 6.2 360 07:59 07.10.2019
619 Clear 32 1010 48 10000 5.1 350 07:38 07.10.2019
620 Clear 32 1010 48 10000 5.1 350 07:19 07.10.2019
621 Clear 34 1011 46 10000 4.6 310 06:43 07.10.2019
622 Clear 34 1011 46 10000 4.6 310 06:22 07.10.2019
623 Clouds 33 1012 52 10000 4.6 290 05:27 07.10.2019
624 Clouds 31 1013 58 10000 4.6 280 04:56 07.10.2019
625 Clouds 32 1013 52 10000 2.1 230 04:19 07.10.2019
626 Clouds 31 1014 45 10000 3.1 40 03:39 07.10.2019
627 Clouds 31 1014 43 10000 2.1 20 02:55 07.10.2019
628 Clouds 31 1014 48 10000 3.1 50 02:20 07.10.2019
629 Clouds 31 1014 48 10000 3.1 50 02:20 07.10.2019
630 Clouds 30 1014 65 10000 3.6 40 01:24 07.10.2019
631 Clouds 28 1014 69 10000 2.1 60 00:55 07.10.2019
632 Clouds 27 1014 78 10000 2.6 90 00:36 07.10.2019
633 Clouds 27 1014 78 10000 2.6 90 00:18 07.10.2019
634 Clouds 25 1013 83 10000 2.1 50 23:40 06.10.2019
635 Clouds 25 1013 83 10000 2.1 50 23:21 06.10.2019
636 Clouds 25 1013 88 10000 2.6 40 22:58 06.10.2019
637 Clouds 25 1013 83 10000 2.6 20 22:40 06.10.2019
638 Clouds 24 1013 83 10000 2.6 20 22:21 06.10.2019
639 Clouds 24 1012 83 10000 2.6 30 21:57 06.10.2019
640 Clouds 25 1012 83 10000 1.5 30 21:37 06.10.2019
641 Clouds 25 1012 83 10000 1.5 30 21:37 06.10.2019
642 Clouds 25 1012 83 10000 1.5 30 21:19 06.10.2019
643 Clouds 25 1012 83 10000 1.5 360 20:57 06.10.2019
644 Clear 25 1011 78 10000 2.6 350 20:38 06.10.2019
645 Clear 25 1011 78 10000 2.6 350 20:20 06.10.2019
646 Clouds 25 1011 78 10000 3.1 350 19:57 06.10.2019
647 Clouds 26 1012 78 10000 3.1 340 19:37 06.10.2019
648 Clouds 26 1012 78 10000 3.1 340 19:19 06.10.2019
649 Clouds 26 1012 74 10000 4.1 340 18:56 06.10.2019
650 Clouds 26 1012 74 10000 4.1 340 18:38 06.10.2019
651 Clouds 27 1012 74 10000 4.1 340 18:19 06.10.2019
652 Clouds 27 1012 74 10000 4.1 320 17:43 06.10.2019
653 Clouds 27 1013 74 10000 3.6 320 17:20 06.10.2019
654 Clouds 27 1013 74 10000 1.5 310 16:58 06.10.2019
655 Clouds 27 1013 69 10000 1.5 250 16:40 06.10.2019
656 Clouds 26 1013 69 10000 1.5 250 16:22 06.10.2019
657 Clouds 26 1013 69 10000 2.1 260 15:44 06.10.2019
658 Clouds 26 1013 69 10000 2.1 260 15:44 06.10.2019
659 Clouds 26 1012 69 10000 2.1 250 15:22 06.10.2019
660 Clear 27 1012 61 10000 3.1 250 14:58 06.10.2019
661 Clear 27 1012 69 10000 2.6 270 14:40 06.10.2019
662 Clear 26 1012 69 10000 2.6 270 14:21 06.10.2019
663 Clear 27 1012 61 10000 3.1 280 13:55 06.10.2019
664 Clear 27 1012 61 10000 3.1 230 13:37 06.10.2019
665 Clear 27 1012 61 10000 3.1 230 13:18 06.10.2019
666 Clear 28 1011 54 10000 2.6 240 12:55 06.10.2019
667 Clear 28 1011 54 10000 1.5 280 12:37 06.10.2019
668 Clear 28 1011 54 10000 1.5 280 12:19 06.10.2019
669 Clear 29 1010 45 10000 2.6 350 11:43 06.10.2019
670 Clear 29 1010 45 10000 2.6 350 11:24 06.10.2019
671 Clear 30 1010 40 10000 3.6 340 10:58 06.10.2019
672 Clear 31 1010 40 10000 5.1 330 10:39 06.10.2019
673 Clear 31 1010 40 10000 5.1 330 10:21 06.10.2019
674 Clear 32 1009 35 10000 5.7 360 09:42 06.10.2019
675 Clear 32 1009 35 10000 5.7 360 09:21 06.10.2019
676 Clear 33 1010 33 10000 5.7 10 08:57 06.10.2019
677 Clear 33 1010 33 10000 6.2 350 08:38 06.10.2019
678 Clear 33 1010 33 10000 6.2 350 08:19 06.10.2019
679 Clear 33 1011 36 10000 5.1 360 07:41 06.10.2019
680 Clear 33 1011 38 10000 5.7 340 06:59 06.10.2019
681 Clear 33 1013 46 10000 4.6 300 05:57 06.10.2019
682 Clear 32 1013 52 10000 4.1 310 04:44 06.10.2019
683 Clear 32 1013 52 10000 4.1 310 04:44 06.10.2019
684 Clouds 30 1015 62 10000 2.6 30 02:56 06.10.2019
685 Clouds 30 1015 62 10000 6.2 340 02:37 06.10.2019
686 Clouds 30 1015 58 10000 6.2 340 01:50 06.10.2019
687 Clouds 29 1015 65 10000 2.1 20 01:31 06.10.2019
688 Clear 28 1015 74 10000 2.1 30 00:59 06.10.2019
689 Clear 27 1015 78 10000 1 40 00:40 06.10.2019
690 Clear 25 1015 78 10000 1 40 00:20 06.10.2019
691 Clear 24 1014 88 10000 2.1 60 23:42 05.10.2019
692 Clear 23 1014 88 10000 2.1 60 23:21 05.10.2019
693 Clear 23 1014 88 10000 2.1 30 22:56 05.10.2019
694 Clear 23 1013 83 10000 1 50 22:38 05.10.2019
695 Clear 23 1013 83 10000 1 50 22:19 05.10.2019
696 Clouds 24 1013 83 10000 2.1 70 21:42 05.10.2019
697 Clouds 24 1013 83 10000 2.1 70 21:23 05.10.2019
698 Clouds 24 1013 78 10000 2.1 60 20:58 05.10.2019
699 Clouds 24 1013 78 10000 2.6 60 20:40 05.10.2019
700 Clouds 25 1013 78 10000 2.6 60 20:20 05.10.2019
701 Clouds 25 1013 83 10000 2.6 60 19:56 05.10.2019
702 Clouds 24 1013 78 10000 2.1 40 19:37 05.10.2019
703 Clouds 24 1013 78 10000 2.1 40 19:18 05.10.2019
704 Clear 24 1013 83 10000 0.5 290 18:55 05.10.2019
705 Clear 24 1013 83 10000 1 280 18:36 05.10.2019
706 Clear 24 1013 83 10000 1 280 18:18 05.10.2019
707 Clear 25 1013 74 10000 2.1 280 17:42 05.10.2019
708 Clear 25 1013 74 10000 2.1 280 17:21 05.10.2019
709 Clouds 25 1013 74 10000 3.1 270 16:56 05.10.2019
710 Clouds 26 1013 78 10000 4.6 280 16:37 05.10.2019
711 Clouds 26 1013 78 10000 4.6 280 16:18 05.10.2019
712 Clouds 26 1013 78 10000 4.6 280 16:18 05.10.2019
713 Clouds 26 1013 74 10000 4.6 280 15:55 05.10.2019
714 Clouds 26 1013 74 10000 5.1 290 15:37 05.10.2019
715 Clouds 26 1013 74 10000 5.1 290 15:18 05.10.2019
716 Clouds 27 1012 65 10000 5.1 340 14:42 05.10.2019
717 Clouds 27 1012 65 10000 5.1 340 14:23 05.10.2019
718 Clear 27 1012 61 10000 3.1 50 13:44 05.10.2019
719 Clear 27 1012 57 10000 2.1 60 13:26 05.10.2019
720 Clear 27 1012 57 10000 2.1 50 12:59 05.10.2019
721 Clear 27 1011 51 10000 3.1 40 12:41 05.10.2019
722 Clear 28 1011 51 10000 3.1 40 12:19 05.10.2019
723 Clear 29 1010 35 10000 5.1 30 11:41 05.10.2019
724 Clear 29 1010 35 10000 5.1 30 11:41 05.10.2019
725 Clear 29 1010 35 10000 5.1 30 11:20 05.10.2019
726 Clear 30 1010 35 10000 6.2 20 10:57 05.10.2019
727 Clear 30 1009 33 10000 6.7 20 10:38 05.10.2019
728 Clear 31 1009 33 10000 6.7 20 10:19 05.10.2019
729 Clear 31 1009 35 10000 7.2 20 09:40 05.10.2019
730 Clear 32 1009 35 10000 7.2 20 09:22 05.10.2019
731 Clear 33 1009 33 10000 7.7 360 08:42 05.10.2019
732 Clear 33 1009 33 10000 7.7 360 08:23 05.10.2019
733 Clear 33 1010 33 10000 6.7 10 07:59 05.10.2019
734 Clear 33 1010 33 10000 6.7 10 07:59 05.10.2019
735 Clear 33 1010 43 10000 7.2 350 07:39 05.10.2019
736 Clear 33 1010 43 10000 7.2 350 07:20 05.10.2019
737 Clear 33 1010 45 10000 7.2 350 06:52 05.10.2019
738 Clear 33 1010 45 10000 7.2 350 06:52 05.10.2019
739 Clear 33 1011 43 10000 7.7 340 06:20 05.10.2019
740 Clear 34 1013 31 10000 6.2 350 04:46 05.10.2019
741 Clouds 31 1014 43 10000 5.7 90 03:31 05.10.2019
742 Clouds 30 1015 54 10000 4.1 90 02:26 05.10.2019
743 Clouds 29 1015 61 10000 3.1 90 01:25 05.10.2019
744 Clouds 27 1015 69 10000 3.6 90 00:47 05.10.2019
745 Clouds 27 1015 69 10000 3.6 90 00:47 05.10.2019
746 Clouds 26 1014 78 10000 3.6 100 00:27 05.10.2019
747 Clouds 24 1014 83 10000 2.1 90 23:56 04.10.2019
748 Clouds 23 1014 88 10000 2.1 70 23:37 04.10.2019
749 Clouds 24 1014 88 10000 2.1 70 23:18 04.10.2019
750 Clouds 24 1013 83 10000 2.1 50 22:41 04.10.2019
751 Clouds 24 1013 83 10000 2.1 50 22:23 04.10.2019
752 Clear 24 1013 88 10000 2.1 50 21:58 04.10.2019
753 Clear 24 1012 83 10000 1.5 30 21:40 04.10.2019
754 Rain 24 1012 83 10000 1.5 30 21:22 04.10.2019
755 Rain 25 1012 78 10000 1.5 350 20:58 04.10.2019
756 Clouds 25 1012 78 10000 2.1 10 20:39 04.10.2019
757 Clouds 25 1012 78 10000 2.1 10 20:21 04.10.2019
758 -273 0 0 0 0 0 19:55 04.10.2019
759 Clouds 25 1013 78 10000 2.1 350 19:37 04.10.2019
760 Clouds 25 1013 78 10000 2.1 350 19:18 04.10.2019
761 Clouds 25 1013 78 10000 2.6 340 18:39 04.10.2019
762 Clouds 25 1013 78 10000 2.6 340 18:20 04.10.2019
763 Clouds 25 1013 78 10000 2.6 340 18:20 04.10.2019
764 Clouds 25 1013 74 10000 2.1 330 17:58 04.10.2019
765 Clouds 25 1013 74 10000 2.6 300 17:39 04.10.2019
766 Clouds 26 1013 74 10000 2.6 300 17:20 04.10.2019
767 Clouds 26 1014 74 10000 3.1 320 16:55 04.10.2019
768 Clouds 26 1014 74 10000 3.1 320 16:55 04.10.2019
769 Clouds 26 1014 74 10000 3.1 320 16:55 04.10.2019
770 Clouds 26 1014 69 10000 3.6 310 16:37 04.10.2019
771 Clouds 26 1014 69 10000 3.6 310 16:18 04.10.2019
772 Clouds 26 1014 69 10000 5.1 300 15:55 04.10.2019
773 Clouds 26 1014 69 10000 5.1 300 15:55 04.10.2019
774 Clouds 26 1014 69 10000 3.1 300 15:37 04.10.2019
775 Clouds 26 1014 69 10000 3.1 300 15:37 04.10.2019
776 Clouds 26 1014 69 10000 3.1 300 15:37 04.10.2019
777 Clouds 26 1014 69 10000 3.1 300 15:37 04.10.2019
778 Clouds 26 1014 69 10000 3.1 300 15:18 04.10.2019
779 Clouds 26 1013 74 10000 2.1 280 14:54 04.10.2019
780 Clouds 27 1013 65 10000 3.1 280 14:36 04.10.2019
781 Clouds 27 1013 65 10000 3.1 280 14:18 04.10.2019
782 Clear 27 1012 61 10000 1.5 210 13:42 04.10.2019
783 Clear 27 1012 61 10000 1.5 210 13:19 04.10.2019
784 Clear 27 1012 51 10000 2.1 220 12:46 04.10.2019
785 Clear 27 1011 51 10000 1.5 280 12:46 04.10.2019
786 Clear 27 1011 51 10000 1.5 280 12:28 04.10.2019
787 Clear 28 1011 45 10000 2.6 290 11:58 04.10.2019
788 Clouds 28 1011 48 10000 1.5 0 11:40 04.10.2019
789 Clouds 28 1011 48 10000 1.5 0 11:40 04.10.2019
790 Clouds 29 1011 48 10000 1.5 0 11:20 04.10.2019
791 Clear 30 1010 40 10000 4.6 300 10:40 04.10.2019
792 Clear 31 1010 40 10000 4.6 300 10:20 04.10.2019
793 Clouds 32 1010 40 10000 1.5 0 09:45 04.10.2019
794 Clouds 33 1010 43 10000 4.6 330 09:27 04.10.2019
795 Clouds 32 1010 43 10000 5.1 320 08:56 04.10.2019
796 Clouds 33 1010 40 10000 5.1 340 08:38 04.10.2019
797 Clouds 33 1010 40 10000 5.1 340 08:19 04.10.2019
798 Clear 34 1011 43 10000 5.1 350 07:43 04.10.2019
799 Clear 34 1011 43 10000 5.1 350 07:22 04.10.2019
800 Clouds 34 1012 43 10000 6.7 340 06:43 04.10.2019
801 Clouds 33 1012 43 10000 6.7 340 06:24 04.10.2019
802 Dust 33 1013 52 10000 6.7 330 05:38 04.10.2019
803 Dust 33 1013 52 10000 6.7 330 05:18 04.10.2019
804 Clear 33 1015 33 10000 5.1 70 03:47 04.10.2019
805 Clouds 31 1015 48 10000 3.1 80 02:53 04.10.2019
806 Clouds 30 1016 58 10000 2.6 90 01:55 04.10.2019
807 Clouds 30 1016 58 10000 2.6 90 01:55 04.10.2019
808 Clouds 28 1015 74 10000 1.5 90 01:30 04.10.2019
809 Clouds 28 1015 74 10000 3.1 60 00:58 04.10.2019
810 Clouds 24 1014 94 10000 0.5 40 23:58 03.10.2019
811 Clouds 23 1013 88 10000 1 10 23:37 03.10.2019
812 Clouds 23 1013 88 10000 1 10 23:18 03.10.2019
813 Clouds 23 1013 94 10000 1 100 22:56 03.10.2019
814 Clouds 23 1013 94 10000 1.5 80 22:37 03.10.2019
815 Clouds 24 1013 94 10000 1.5 80 22:19 03.10.2019
816 Clear 24 1013 94 10000 0.48 300.49 21:56 03.10.2019
817 Clear 24 1013 88 10000 0.5 240 21:37 03.10.2019
818 Rain 24 1013 88 10000 0.5 240 21:19 03.10.2019
819 Rain 24 1013 88 10000 1.5 260 20:55 03.10.2019
820 Rain 25 1013 83 10000 1.5 240 20:37 03.10.2019
821 Rain 25 1013 83 10000 1.5 240 20:37 03.10.2019
822 Rain 25 1013 83 10000 1.5 240 20:19 03.10.2019
823 Clouds 25 1013 78 10000 1.5 260 19:41 03.10.2019
824 Clouds 25 1013 78 10000 1.5 260 19:22 03.10.2019
825 Clouds 25 1013 78 10000 1.5 250 18:59 03.10.2019
826 Clouds 26 1013 78 10000 1.5 260 18:39 03.10.2019
827 Clouds 25 1013 78 10000 1.5 260 18:39 03.10.2019
828 Clouds 26 1013 78 10000 2.6 260 18:19 03.10.2019
829 Clouds 26 1013 78 10000 2.6 260 17:59 03.10.2019
830 Clouds 26 1014 78 10000 2.1 250 17:41 03.10.2019
831 Clouds 26 1014 78 10000 2.1 250 17:19 03.10.2019
832 Clouds 26 1014 78 10000 3.6 270 16:44 03.10.2019
833 Clouds 26 1014 78 10000 3.6 270 16:26 03.10.2019
834 Clouds 26 1013 74 10000 3.6 270 15:56 03.10.2019
835 Clear 27 1013 78 10000 5.1 270 15:38 03.10.2019
836 Clear 27 1013 78 10000 5.1 270 15:20 03.10.2019
837 Clouds 27 1013 74 10000 5.7 290 14:46 03.10.2019
838 Clouds 27 1013 74 10000 5.7 290 14:27 03.10.2019
839 Clouds 27 1012 58 10000 5.1 300 13:59 03.10.2019
840 Clear 27 1012 58 10000 0.5 110 13:41 03.10.2019
841 Clear 27 1012 58 10000 0.5 110 13:19 03.10.2019
842 Clouds 27 1011 58 10000 2.6 0 12:57 03.10.2019
843 Clouds 28 1011 51 10000 2.6 0 12:38 03.10.2019
844 Clouds 29 1011 51 10000 2.6 0 12:19 03.10.2019
845 Clear 29 1011 48 10000 4.6 10 11:42 03.10.2019
846 Clear 30 1011 48 10000 4.6 10 11:23 03.10.2019
847 -273 0 0 0 0 0 10:59 03.10.2019
848 Clouds 31 1010 40 10000 2.6 0 10:40 03.10.2019
849 Clouds 32 1010 40 10000 2.6 0 10:19 03.10.2019
850 Clouds 32 1010 40 10000 2.6 0 10:19 03.10.2019
851 Clouds 32 1010 38 10000 2.6 0 09:58 03.10.2019
852 Clear 33 1010 38 10000 5.1 360 09:40 03.10.2019
853 Clear 33 1010 38 10000 5.1 360 09:21 03.10.2019
854 Clear 34 1010 36 10000 5.1 10 08:55 03.10.2019
855 Clear 33 1010 43 10000 5.7 10 08:36 03.10.2019
856 Clear 33 1010 43 10000 5.7 10 08:18 03.10.2019
857 Clear 32 1011 43 10000 5.1 330 07:41 03.10.2019
858 Clear 33 1011 43 10000 5.1 330 07:19 03.10.2019
859 Clear 33 1011 41 10000 7.7 350 06:51 03.10.2019
860 Clear 33 1012 43 10000 5.7 320 06:25 03.10.2019
861 Clear 32 1012 43 10000 5.7 330 05:47 03.10.2019
862 Clear 32 1013 52 10000 4.1 320 05:20 03.10.2019
863 Clear 33 1014 40 10000 6.2 340 04:39 03.10.2019
864 Clouds 32 1015 48 10000 3.1 50 03:24 03.10.2019
865 Clouds 30 1015 58 10000 2.6 30 02:43 03.10.2019
866 Clouds 29 1015 69 10000 6.2 340 01:59 03.10.2019
867 Clouds 29 1015 83 10000 2.1 30 01:37 03.10.2019
868 Clouds 27 1015 83 10000 1.5 50 00:51 03.10.2019
869 Clouds 26 1015 88 10000 1.5 70 00:26 03.10.2019
870 Clouds 23 1014 94 10000 1 90 23:44 02.10.2019
871 Clouds 23 1014 94 10000 1 90 23:22 02.10.2019
872 Clouds 23 1014 94 10000 0.5 360 22:47 02.10.2019
873 Clouds 24 1014 94 10000 1.5 350 22:23 02.10.2019
874 Clear 24 1013 88 10000 1 260 21:58 02.10.2019
875 Clouds 24 1013 94 10000 1 310 21:39 02.10.2019
876 Clouds 24 1013 94 10000 1 310 21:20 02.10.2019
877 Clear 24 1013 88 10000 0.5 310 20:57 02.10.2019
878 Clear 25 1013 83 10000 1.5 310 20:39 02.10.2019
879 Clear 25 1013 83 10000 1.5 310 20:20 02.10.2019
880 Clear 25 1013 88 10000 1.5 320 19:57 02.10.2019
881 Clouds 25 1013 88 10000 1.5 350 19:39 02.10.2019
882 Clouds 25 1013 88 10000 1.5 350 19:20 02.10.2019
883 Clouds 26 1013 83 10000 2.6 340 18:57 02.10.2019
884 Clouds 25 1013 83 10000 2.6 330 18:38 02.10.2019
885 Clouds 25 1013 83 10000 2.6 330 18:19 02.10.2019
886 Clouds 25 1013 83 10000 2.6 330 17:56 02.10.2019
887 Clouds 25 1013 78 10000 1 340 17:37 02.10.2019
888 Clouds 25 1013 78 10000 1 340 17:19 02.10.2019
889 Clouds 25 1013 78 10000 1 340 17:19 02.10.2019
890 Clouds 25 1014 78 10000 1 270 16:42 02.10.2019
891 Clouds 26 1014 74 10000 2.1 260 16:22 02.10.2019
892 Clouds 26 1014 74 10000 2.1 260 15:59 02.10.2019
893 Clear 26 1013 69 10000 1.5 250 15:38 02.10.2019
894 Clear 26 1013 69 10000 1.5 250 15:20 02.10.2019
895 Clear 26 1013 74 10000 1.5 310 14:57 02.10.2019
896 Clear 26 1013 69 10000 1.5 230 14:39 02.10.2019
897 Clear 27 1013 69 10000 1.5 230 14:20 02.10.2019
898 Clear 27 1013 69 10000 1.5 230 14:20 02.10.2019
899 Clear 27 1013 62 10000 1.5 200 13:43 02.10.2019
900 Clear 27 1013 62 10000 1.5 200 13:23 02.10.2019
901 Clear 27 1012 65 10000 0.5 270 12:57 02.10.2019
902 Clear 27 1012 62 10000 2.1 300 12:37 02.10.2019
903 Clear 28 1011 62 10000 2.6 330 12:18 02.10.2019
904 Clear 29 1011 55 10000 3.1 320 11:44 02.10.2019
905 Clear 30 1011 55 10000 3.1 320 11:23 02.10.2019
906 Clear 31 1011 48 10000 5.7 10 10:42 02.10.2019
907 Clear 31 1011 48 10000 5.7 10 10:20 02.10.2019
908 Clear 32 1010 43 10000 6.7 10 09:58 02.10.2019
909 Clear 33 1010 41 10000 6.7 360 09:37 02.10.2019
910 Clear 33 1010 41 10000 6.7 360 09:18 02.10.2019
911 Clear 33 1010 41 10000 6.7 360 09:18 02.10.2019
912 Clear 33 1010 41 10000 6.7 360 09:18 02.10.2019
913 Clear 33 1011 41 10000 5.1 330 08:44 02.10.2019
914 Clear 34 1011 41 10000 5.1 330 08:23 02.10.2019
915 Clear 33 1012 46 10000 5.1 310 07:57 02.10.2019
916 Clear 34 1012 43 10000 4.6 310 07:38 02.10.2019
917 Clear 34 1013 46 10000 5.1 310 07:19 02.10.2019
918 Clouds 33 1013 52 10000 6.7 310 06:31 02.10.2019
919 Clouds 33 1014 49 10000 5.7 330 05:54 02.10.2019
920 Clouds 34 1014 49 10000 5.7 330 05:54 02.10.2019
921 Clouds 34 1014 49 10000 5.7 340 05:23 02.10.2019
922 Clouds 33 1015 58 10000 6.2 350 04:47 02.10.2019
923 Clouds 32 1016 48 10000 4.1 60 03:52 02.10.2019
924 Clouds 30 1016 69 10000 1 100 02:41 02.10.2019
925 Clouds 30 1016 69 10000 1 100 02:23 02.10.2019
926 Clouds 28 1016 78 10000 6.2 80 01:22 02.10.2019
927 Clouds 27 1016 83 10000 6.2 80 00:49 02.10.2019
928 Clouds 26 1015 88 10000 6.2 80 00:25 02.10.2019
929 Fog 23 1014 94 10000 0.5 110 23:43 01.10.2019
930 Fog 23 1014 94 10000 0.5 110 23:24 01.10.2019
931 Fog 23 1014 100 10000 1 90 22:58 01.10.2019
932 Clear 23 1014 94 10000 0.5 160 22:39 01.10.2019
933 Clear 23 1014 94 10000 0.5 160 22:19 01.10.2019
934 Clear 24 1013 88 10000 0.5 240 21:55 01.10.2019
935 Clear 23 1013 94 10000 1.5 190 21:37 01.10.2019
936 Clouds 24 1013 94 10000 1.5 190 21:18 01.10.2019
937 Clouds 24 1013 88 10000 1 180 20:54 01.10.2019
938 Clouds 24 1013 88 10000 1 150 20:36 01.10.2019
939 Clouds 24 1013 88 10000 1 150 20:18 01.10.2019
940 Clouds 25 1013 78 10000 1.5 170 19:43 01.10.2019
941 Clouds 25 1013 78 10000 1.5 170 19:24 01.10.2019
942 Clouds 26 1014 83 10000 1.5 200 18:59 01.10.2019
943 Clouds 26 1014 78 10000 2.1 220 18:39 01.10.2019
944 Clear 26 1014 83 10000 2.1 230 18:21 01.10.2019
945 -273 0 0 0 0 0 17:55 01.10.2019
946 Clear 27 1014 83 10000 2.1 220 17:37 01.10.2019
947 Clear 26 1014 83 10000 2.1 220 17:18 01.10.2019
948 Clouds 26 1015 78 10000 1 260 16:54 01.10.2019
949 Clouds 26 1015 83 10000 1 140 16:36 01.10.2019
950 Clouds 26 1015 83 10000 1 140 16:18 01.10.2019
951 Clear 27 1014 83 10000 3.6 250 15:42 01.10.2019
952 Clear 27 1014 83 10000 3.6 250 15:21 01.10.2019
953 Clear 27 1014 74 10000 4.6 270 14:41 01.10.2019
954 Clear 27 1014 74 10000 4.6 270 14:20 01.10.2019
955 Clear 27 1013 74 10000 5.7 280 13:57 01.10.2019
956 Clear 28 1013 74 10000 5.7 300 13:38 01.10.2019
957 Clear 28 1012 58 10000 2.1 20 13:19 01.10.2019
958 Clear 28 1012 58 10000 2.1 20 12:57 01.10.2019
959 Clear 29 1012 51 10000 3.1 20 12:38 01.10.2019
960 Clear 29 1012 51 10000 4.1 30 12:18 01.10.2019
961 Clear 29 1012 51 10000 4.1 30 11:57 01.10.2019
962 Clear 30 1011 45 10000 6.7 30 11:37 01.10.2019
963 Clear 30 1011 45 10000 6.7 30 11:18 01.10.2019
964 Clear 31 1011 45 10000 6.7 20 10:48 01.10.2019
965 Clear 32 1011 43 10000 7.7 20 10:28 01.10.2019
966 Clear 32 1011 43 10000 7.2 360 09:47 01.10.2019
967 Clear 33 1011 43 10000 7.2 10 09:27 01.10.2019
968 Clear 34 1011 46 10000 7.7 360 08:46 01.10.2019
969 Clear 34 1011 46 10000 6.7 340 08:28 01.10.2019
970 Clouds 33 1012 58 10000 5.7 340 07:59 01.10.2019
971 Clouds 33 1012 52 10000 6.2 360 07:41 01.10.2019
972 Clouds 33 1012 52 10000 6.2 360 07:20 01.10.2019
973 Clouds 33 1013 52 10000 5.7 340 06:43 01.10.2019
974 Clouds 33 1013 55 10000 5.7 340 06:18 01.10.2019
975 Clouds 34 1013 58 10000 4.6 340 05:45 01.10.2019
976 Clouds 35 1014 58 10000 4.6 330 04:49 01.10.2019
977 Clouds 33 1015 55 10000 4.6 290 03:58 01.10.2019
978 Clouds 31 1016 58 10000 1.5 50 02:24 01.10.2019
979 Clouds 30 1016 62 10000 2.1 70 01:57 01.10.2019
980 Clouds 27 1015 83 10000 2.1 70 00:53 01.10.2019
981 Clouds 26 1015 88 10000 1.5 80 00:26 01.10.2019
982 Clouds 23 1015 94 10000 1 70 23:55 30.09.2019
983 Clear 23 1014 94 10000 1.5 50 23:37 30.09.2019
984 Clear 23 1014 94 10000 1.5 50 23:18 30.09.2019
985 Clear 23 1014 94 10000 2.04 109.627 22:42 30.09.2019
986 Clear 23 1014 94 10000 2.04 109.627 22:23 30.09.2019
987 Clouds 24 1013 88 10000 0.5 50 21:56 30.09.2019
988 Clouds 24 1014 88 10000 1 60 21:37 30.09.2019
989 Clouds 24 1014 88 10000 1 60 21:19 30.09.2019
990 Clouds 24 1014 88 10000 1 80 20:55 30.09.2019
991 Clouds 24 1014 88 10000 1 80 20:55 30.09.2019
992 Clear 24 1014 88 10000 1 110 20:36 30.09.2019
993 Clear 24 1014 88 10000 1 110 20:18 30.09.2019
994 Clear 24 1014 88 10000 2.1 90 19:54 30.09.2019
995 Clear 25 1014 88 10000 2.1 90 19:36 30.09.2019
996 Clear 25 1014 88 10000 2.6 90 19:18 30.09.2019
997 Clear 25 1014 88 10000 0.5 160 18:41 30.09.2019
998 Clear 25 1014 88 10000 0.5 160 18:22 30.09.2019
999 Clear 25 1014 83 10000 1.5 200 17:57 30.09.2019
1000 Clear 25 1014 83 10000 1 230 17:39 30.09.2019
1001 Clear 25 1014 83 10000 1 230 17:20 30.09.2019
1002 Clouds 26 1014 83 10000 1.5 230 16:55 30.09.2019
1003 Clouds 26 1014 83 10000 2.6 240 16:36 30.09.2019
1004 Clouds 26 1014 83 10000 2.6 240 16:18 30.09.2019
1005 Clouds 26 1014 83 10000 2.6 240 16:18 30.09.2019
1006 Clear 26 1014 83 10000 2.1 240 15:54 30.09.2019
1007 Clear 26 1014 78 10000 2.1 260 15:36 30.09.2019
1008 Clear 26 1014 78 10000 2.1 270 15:18 30.09.2019
1009 Clear 26 1014 78 10000 2.1 270 14:54 30.09.2019
1010 Clear 27 1014 74 10000 2.1 270 14:36 30.09.2019
1011 Clear 27 1014 74 10000 2.1 270 14:18 30.09.2019
1012 Clear 27 1013 69 10000 2.6 240 13:43 30.09.2019
1013 Clear 27 1013 69 10000 2.6 240 13:22 30.09.2019
1014 Clear 27 1013 69 10000 2.6 240 12:57 30.09.2019
1015 Clear 28 1012 54 10000 2.1 260 12:39 30.09.2019
1016 Clear 28 1012 58 10000 2.1 280 12:19 30.09.2019
1017 Clouds 28 1012 58 10000 3.1 290 11:43 30.09.2019
1018 Clouds 29 1012 58 10000 3.1 290 11:22 30.09.2019
1019 Clouds 30 1012 55 10000 3.6 280 10:59 30.09.2019
1020 Clouds 30 1011 55 10000 4.1 310 10:38 30.09.2019
1021 Clouds 30 1011 55 10000 4.1 310 10:19 30.09.2019
1022 Clouds 31 1011 55 10000 5.1 290 09:58 30.09.2019
1023 Clouds 31 1011 55 10000 5.7 300 09:39 30.09.2019
1024 Clouds 31 1011 55 10000 5.7 300 09:19 30.09.2019
1025 Clouds 32 1011 55 10000 6.2 310 08:46 30.09.2019
1026 Clouds 32 1011 55 10000 6.2 310 08:27 30.09.2019
1027 Clouds 32 1012 55 10000 7.2 310 07:44 30.09.2019
1028 Clouds 32 1012 55 10000 7.2 310 07:44 30.09.2019
1029 Clouds 32 1012 55 10000 7.2 310 07:44 30.09.2019
1030 Clouds 32 1012 55 10000 7.2 310 07:25 30.09.2019
1031 Clouds 34 1012 52 10000 7.2 300 06:50 30.09.2019
1032 Clouds 33 1012 49 10000 6.2 290 06:31 30.09.2019
1033 Clouds 34 1014 52 10000 5.1 290 05:46 30.09.2019
1034 Clouds 31 1016 66 10000 3.1 300 03:33 30.09.2019
1035 Clouds 31 1016 66 10000 3.1 300 03:33 30.09.2019
1036 Clouds 30 1016 66 10000 3.1 290 02:45 30.09.2019
1037 Clouds 28 1015 69 10000 2.6 300 01:33 30.09.2019
1038 Clouds 27 1014 83 10000 2.6 290 00:42 30.09.2019
1039 Clouds 25 1014 83 10000 2.6 290 00:21 30.09.2019
1040 Clouds 23 1014 94 10000 1.5 290 23:45 29.09.2019
1041 Clouds 23 1014 94 10000 1.5 290 23:23 29.09.2019
1042 Clouds 22 1014 94 10000 3.1 140 22:55 29.09.2019
1043 Clouds 23 1014 94 10000 3.1 140 22:37 29.09.2019
1044 Clouds 23 1014 94 10000 3.1 140 22:37 29.09.2019
1045 Clouds 23 1014 94 10000 3.1 140 22:19 29.09.2019
1046 Clear 23 1014 88 10000 0.97 331.671 21:56 29.09.2019
1047 Clear 23 1013 88 10000 0.97 331.671 21:37 29.09.2019
1048 Clear 23 1013 88 10000 2.32 347.308 21:19 29.09.2019
1049 Clear 23 1013 88 10000 2.32 347.308 20:44 29.09.2019
1050 Clear 23 1013 88 10000 1.79 310.285 20:20 29.09.2019
1051 Clear 23 1013 88 10000 1 90 19:58 29.09.2019
1052 Clear 24 1014 88 10000 2.6 60 19:37 29.09.2019
1053 Clear 24 1014 88 10000 2.6 60 19:37 29.09.2019
1054 Clear 24 1014 88 10000 2.1 70 19:19 29.09.2019
1055 Clear 24 1014 88 10000 2.1 70 18:56 29.09.2019
1056 Clear 24 1014 88 10000 0.5 170 18:38 29.09.2019
1057 Clear 25 1014 83 10000 1.5 200 18:19 29.09.2019
1058 Clear 25 1014 83 10000 1.5 200 17:57 29.09.2019
1059 Clear 25 1014 83 10000 2.6 220 17:38 29.09.2019
1060 Clear 25 1014 83 10000 2.6 220 17:19 29.09.2019
1061 Clear 26 1014 74 10000 2.6 220 16:58 29.09.2019
1062 Clear 26 1014 74 10000 2.6 220 16:58 29.09.2019
1063 Clear 26 1014 74 10000 3.1 240 16:39 29.09.2019
1064 Clear 26 1014 74 10000 3.1 240 16:19 29.09.2019
1065 Clear 26 1014 74 10000 3.1 240 16:19 29.09.2019
1066 Clear 26 1014 69 10000 3.6 280 15:56 29.09.2019
1067 Clear 26 1014 69 10000 2.1 260 15:36 29.09.2019
1068 Clear 26 1014 69 10000 2.1 260 15:18 29.09.2019
1069 Clear 26 1014 65 10000 3.06 237.77 14:55 29.09.2019
1070 Clear 26 1014 65 10000 2.1 120 14:36 29.09.2019
1071 Clear 26 1014 65 10000 2.1 120 14:18 29.09.2019
1072 Clear 27 1013 58 10000 1 90 13:41 29.09.2019
1073 Clear 28 1012 51 10000 1.5 20 13:19 29.09.2019
1074 Clear 27 1012 51 10000 1.5 20 12:58 29.09.2019
1075 Clear 28 1012 54 10000 0.5 290 12:40 29.09.2019
1076 Clear 28 1012 54 10000 1.5 310 12:21 29.09.2019
1077 Clear 28 1012 54 10000 1.5 310 11:57 29.09.2019
1078 Clear 29 1012 58 10000 2.6 340 11:39 29.09.2019
1079 Clear 29 1011 51 10000 3.1 310 11:18 29.09.2019
1080 Clear 29 1011 51 10000 3.1 310 10:57 29.09.2019
1081 Clear 29 1011 51 10000 3.1 310 10:57 29.09.2019
1082 Clouds 30 1011 55 10000 3.6 340 10:36 29.09.2019
1083 Clouds 31 1011 52 10000 4.1 350 10:18 29.09.2019
1084 Clouds 31 1011 55 10000 4.1 330 09:45 29.09.2019
1085 Clouds 31 1011 55 10000 4.1 330 09:21 29.09.2019
1086 Clouds 31 1011 55 10000 5.1 330 08:59 29.09.2019
1087 Clouds 32 1011 48 10000 5.7 350 08:39 29.09.2019
1088 Clouds 32 1011 48 10000 5.7 350 08:20 29.09.2019
1089 Clouds 33 1012 49 10000 5.1 330 07:43 29.09.2019
1090 Clouds 33 1012 49 10000 5.1 330 07:24 29.09.2019
1091 Clouds 34 1013 49 10000 4.6 300 06:45 29.09.2019
1092 Clouds 34 1014 55 10000 4.1 300 05:27 29.09.2019
1093 Clouds 32 1015 62 10000 3.6 300 04:40 29.09.2019
1094 Clouds 32 1015 62 10000 3.6 300 04:22 29.09.2019
1095 Clouds 30 1016 55 10000 3.1 310 02:47 29.09.2019
1096 Clouds 30 1016 65 10000 1.5 10 02:18 29.09.2019
1097 Clouds 28 1016 69 10000 2.1 350 01:32 29.09.2019
1098 Clouds 27 1015 74 10000 2.1 350 00:52 29.09.2019
1099 Clouds 25 1015 83 10000 1.5 340 00:21 29.09.2019
1100 Clouds 25 1015 83 10000 1.5 340 00:21 29.09.2019
1101 Clouds 22 1014 94 10000 0.5 360 23:44 28.09.2019
1102 Clouds 22 1014 94 10000 0.5 360 23:23 28.09.2019
1103 Clouds 23 1014 94 10000 1.22 221.855 22:59 28.09.2019
1104 Clouds 23 1014 88 10000 0.5 340 22:38 28.09.2019
1105 Clouds 23 1014 88 10000 0.5 340 22:38 28.09.2019
1106 Clouds 23 1014 88 10000 0.5 340 22:20 28.09.2019
1107 Clear 23 1013 88 10000 1 310 21:57 28.09.2019
1108 Clear 24 1013 83 10000 2.1 270 21:38 28.09.2019
1109 Clear 24 1013 83 10000 2.1 270 21:20 28.09.2019
1110 Clear 24 1013 83 10000 1.5 280 20:57 28.09.2019
1111 Clouds 24 1013 83 10000 1.5 320 20:38 28.09.2019
1112 Clouds 24 1013 83 10000 1.5 320 20:18 28.09.2019
1113 Clouds 24 1013 88 10000 1.5 340 19:56 28.09.2019
1114 Clouds 25 1014 88 10000 2.1 350 19:37 28.09.2019
1115 Clouds 25 1014 83 10000 1 340 19:19 28.09.2019
1116 Clouds 25 1014 83 10000 1 290 18:43 28.09.2019
1117 Clouds 25 1014 83 10000 1 290 18:22 28.09.2019
1118 Clouds 25 1014 78 10000 2.6 310 18:00 28.09.2019
1119 Clouds 25 1014 78 10000 2.6 310 18:00 28.09.2019
1120 Clouds 26 1014 78 10000 3.1 330 17:41 28.09.2019
1121 Clouds 26 1014 78 10000 3.1 330 17:22 28.09.2019
1122 Clouds 27 1014 78 10000 2.6 320 16:57 28.09.2019
1123 Clouds 27 1014 78 10000 2.6 320 16:57 28.09.2019
1124 Clouds 27 1014 78 10000 1.5 280 16:38 28.09.2019
1125 Clouds 26 1014 78 10000 1.5 280 16:20 28.09.2019
1126 Clouds 26 1014 78 10000 2.1 260 15:40 28.09.2019
1127 Clouds 26 1014 78 10000 2.1 260 15:22 28.09.2019
1128 Clouds 26 1014 78 10000 2.6 280 14:56 28.09.2019
1129 Clouds 26 1014 74 10000 3.1 290 14:37 28.09.2019
1130 Clouds 26 1014 74 10000 3.1 290 14:19 28.09.2019
1131 Clear 26 1013 74 10000 2.6 210 13:55 28.09.2019
1132 Clear 27 1013 69 10000 2.1 240 13:36 28.09.2019
1133 Clear 27 1013 74 10000 2.6 260 13:18 28.09.2019
1134 Clear 27 1013 61 10000 2.6 290 12:39 28.09.2019
1135 Clear 27 1012 65 10000 3.6 280 12:19 28.09.2019
1136 Clear 28 1012 65 10000 4.6 280 11:42 28.09.2019
1137 Clear 28 1012 65 10000 4.6 280 11:21 28.09.2019
1138 Clouds 29 1012 62 10000 5.7 300 10:59 28.09.2019
1139 Clouds 29 1012 58 10000 4.6 300 10:39 28.09.2019
1140 Clouds 30 1012 58 10000 4.6 300 10:19 28.09.2019
1141 Clouds 30 1012 55 10000 5.1 300 09:42 28.09.2019
1142 Clouds 30 1012 55 10000 5.1 300 09:22 28.09.2019
1143 Clouds 31 1012 58 10000 5.1 320 08:55 28.09.2019
1144 Clouds 31 1012 55 10000 4.6 330 08:37 28.09.2019
1145 Clouds 32 1012 55 10000 4.6 330 08:18 28.09.2019
1146 Clouds 32 1012 52 10000 5.7 290 07:43 28.09.2019
1147 Clouds 32 1013 55 10000 4.6 320 07:19 28.09.2019
1148 Clouds 32 1013 55 10000 4.6 320 06:51 28.09.2019
1149 Clouds 32 1014 62 10000 5.7 320 06:30 28.09.2019
1150 Clouds 32 1015 66 10000 5.1 310 05:41 28.09.2019
1151 Clouds 32 1015 66 10000 5.1 310 05:19 28.09.2019
1152 Clouds 31 1015 62 10000 4.1 300 04:37 28.09.2019
1153 Clouds 32 1016 58 10000 4.1 310 03:48 28.09.2019
1154 Clouds 31 1016 58 10000 2.1 140 03:20 28.09.2019
1155 Clouds 30 1016 62 10000 1.5 210 02:43 28.09.2019
1156 Clouds 30 1016 62 10000 1.5 210 02:25 28.09.2019
1157 Clouds 29 1016 74 10000 1 230 01:46 28.09.2019
1158 Clouds 28 1016 74 10000 1 230 01:24 28.09.2019
1159 Clouds 26 1015 88 10000 1 270 00:49 28.09.2019
1160 Clouds 26 1015 88 10000 1 270 00:30 28.09.2019
1161 Clouds 24 1014 88 10000 1 280 23:41 27.09.2019
1162 Clouds 23 1014 88 10000 1 280 23:22 27.09.2019
1163 Clouds 23 1014 88 10000 1 270 22:59 27.09.2019
1164 Clouds 24 1014 88 10000 1.5 250 22:41 27.09.2019
1165 Clouds 24 1014 88 10000 1.5 250 22:19 27.09.2019
1166 Clouds 24 1014 88 10000 1.5 250 22:19 27.09.2019
1167 Clear 24 1014 83 10000 2.1 250 21:55 27.09.2019
1168 Clear 24 1014 88 10000 2.1 230 21:37 27.09.2019
1169 Clouds 24 1014 88 10000 2.1 230 21:18 27.09.2019
1170 Clouds 23 1014 88 10000 1 230 20:55 27.09.2019
1171 Clouds 24 1014 94 10000 0.5 250 20:36 27.09.2019
1172 Clouds 24 1014 94 10000 0.5 250 20:18 27.09.2019
1173 Clouds 25 1015 83 10000 1 240 19:42 27.09.2019
1174 Clouds 25 1015 83 10000 1 240 19:23 27.09.2019
1175 Clouds 25 1015 83 10000 1.5 250 18:57 27.09.2019
1176 Clouds 25 1015 83 10000 2.1 250 18:38 27.09.2019
1177 Clouds 26 1015 83 10000 2.1 250 18:20 27.09.2019
1178 Clouds 26 1015 78 10000 3.6 260 17:40 27.09.2019
1179 Clouds 26 1015 78 10000 3.6 260 17:40 27.09.2019
1180 Clouds 26 1015 78 10000 3.6 260 17:22 27.09.2019
1181 Clouds 26 1015 78 10000 3.6 260 17:22 27.09.2019
1182 Clouds 26 1015 74 10000 2.1 290 16:59 27.09.2019
1183 Clouds 26 1015 74 10000 2.1 250 16:41 27.09.2019
1184 Clouds 26 1015 74 10000 2.1 250 16:20 27.09.2019
1185 Clouds 26 1015 74 10000 2.1 250 16:20 27.09.2019
1186 Clouds 27 1015 69 10000 2.1 270 15:58 27.09.2019
1187 Clouds 27 1015 74 10000 2.6 270 15:39 27.09.2019
1188 Clouds 26 1015 74 10000 2.6 270 15:19 27.09.2019
1189 Clouds 26 1015 69 10000 2.6 270 14:56 27.09.2019
1190 Clear 26 1015 69 10000 3.1 270 14:37 27.09.2019
1191 Clear 26 1015 69 10000 3.1 270 14:37 27.09.2019
1192 Clear 26 1015 69 10000 3.1 270 14:18 27.09.2019
1193 Clear 27 1014 58 10000 2.1 190 13:42 27.09.2019
1194 Clear 27 1014 58 10000 2.1 190 13:22 27.09.2019
1195 Clear 27 1013 54 10000 1 250 12:59 27.09.2019
1196 Clear 27 1013 58 10000 2.1 280 12:41 27.09.2019
1197 Clear 27 1013 58 10000 2.1 280 12:20 27.09.2019
1198 Clear 27 1013 51 10000 2.1 280 12:20 27.09.2019
1199 Clear 28 1013 51 10000 3.6 290 11:40 27.09.2019
1200 Clear 28 1013 51 10000 3.6 290 11:40 27.09.2019
1201 Clear 29 1013 51 10000 3.6 290 11:22 27.09.2019
1202 Clear 29 1012 51 10000 4.1 290 10:58 27.09.2019
1203 Clouds 29 1012 48 10000 4.1 300 10:40 27.09.2019
1204 Clouds 30 1012 48 10000 5.1 300 10:20 27.09.2019
1205 Clouds 31 1012 52 10000 5.7 290 09:43 27.09.2019
1206 Clouds 31 1012 52 10000 5.7 290 09:22 27.09.2019
1207 Clouds 32 1012 48 10000 5.7 310 08:58 27.09.2019
1208 Clouds 32 1012 48 10000 5.1 320 08:39 27.09.2019
1209 Clouds 32 1012 48 10000 5.1 320 08:20 27.09.2019
1210 Clouds 32 1012 49 10000 5.7 350 07:46 27.09.2019
1211 Clouds 31 1013 55 10000 6.7 350 07:24 27.09.2019
1212 Clouds 32 1013 55 10000 6.7 350 06:43 27.09.2019
1213 Clouds 32 1014 52 10000 6.7 350 06:25 27.09.2019
1214 Clouds 32 1014 52 10000 5.7 350 05:51 27.09.2019
1215 Clouds 32 1014 52 10000 5.7 350 05:33 27.09.2019
1216 Clouds 32 1015 58 10000 3.1 250 03:57 27.09.2019
1217 Clouds 32 1015 55 10000 2.6 300 03:36 27.09.2019
1218 Clouds 29 1016 61 10000 1 350 01:52 27.09.2019
1219 Clouds 28 1016 69 10000 1 120 01:28 27.09.2019
1220 Clouds 26 1016 83 10000 2.6 150 00:30 27.09.2019
1221 Clouds 23 1015 88 10000 1.5 150 23:56 26.09.2019
1222 Clouds 24 1015 88 10000 2.1 150 23:38 26.09.2019
1223 Clouds 23 1015 83 10000 1.5 140 23:19 26.09.2019
1224 Clouds 23 1015 83 10000 1.5 140 22:57 26.09.2019
1225 Clouds 23 1014 83 10000 2.1 160 22:39 26.09.2019
1226 Clouds 23 1014 83 10000 2.1 160 22:18 26.09.2019
1227 Clear 24 1014 83 10000 2.1 150 21:57 26.09.2019
1228 Clear 24 1014 83 10000 2.1 160 21:37 26.09.2019
1229 Clear 24 1014 83 10000 2.1 160 21:19 26.09.2019
1230 Clear 24 1014 83 10000 2.1 160 21:19 26.09.2019
1231 Clear 24 1014 83 10000 2.1 160 20:58 26.09.2019
1232 Clear 24 1014 83 10000 1 150 20:39 26.09.2019
1233 Clear 24 1014 83 10000 1 150 20:21 26.09.2019
1234 Clear 24 1014 83 10000 1 180 19:56 26.09.2019
1235 Clear 24 1014 83 10000 1.5 180 19:37 26.09.2019
1236 Clear 24 1015 83 10000 1 170 19:18 26.09.2019
1237 Clear 24 1015 83 10000 1 180 18:42 26.09.2019
1238 Clear 24 1015 83 10000 1 180 18:22 26.09.2019
1239 Clouds 24 1015 83 10000 1.5 180 17:59 26.09.2019
1240 Clouds 25 1015 78 10000 1.5 230 17:37 26.09.2019
1241 Clouds 25 1015 78 10000 1.5 230 17:19 26.09.2019
1242 Clouds 25 1015 78 10000 2.1 250 16:55 26.09.2019
1243 Clouds 25 1015 65 10000 2.1 280 16:37 26.09.2019
1244 Clouds 25 1015 65 10000 2.1 280 16:18 26.09.2019
1245 Clear 26 1015 61 10000 2.6 340 15:42 26.09.2019
1246 Clear 26 1015 61 10000 2.6 340 15:23 26.09.2019
1247 Clear 26 1015 61 10000 4.6 350 14:59 26.09.2019
1248 Clear 27 1014 58 10000 3.1 350 14:40 26.09.2019
1249 Clear 27 1014 58 10000 3.1 350 14:21 26.09.2019
1250 Clear 27 1014 58 10000 2.1 340 13:57 26.09.2019
1251 Clear 27 1014 58 10000 2.6 30 13:39 26.09.2019
1252 Clear 27 1014 58 10000 2.6 30 13:39 26.09.2019
1253 Clear 27 1013 58 10000 6.2 30 13:19 26.09.2019
1254 Clear 28 1013 54 10000 6.2 30 12:43 26.09.2019
1255 Clear 28 1013 54 10000 6.2 30 12:23 26.09.2019
1256 Clear 28 1012 51 10000 6.2 20 11:57 26.09.2019
1257 Clear 28 1012 51 10000 6.2 20 11:57 26.09.2019
1258 Clear 28 1012 45 10000 6.7 30 11:39 26.09.2019
1259 Clear 29 1012 45 10000 6.7 30 11:19 26.09.2019
1260 Clear 29 1012 45 10000 6.7 30 11:19 26.09.2019
1261 Clear 30 1012 42 10000 7.2 10 10:42 26.09.2019
1262 Clear 30 1012 42 10000 7.2 10 10:23 26.09.2019
1263 Clear 30 1011 42 10000 8.2 20 09:58 26.09.2019
1264 Clear 31 1011 40 10000 8.7 20 09:40 26.09.2019
1265 Clear 31 1011 40 10000 8.7 20 09:19 26.09.2019
1266 Clear 31 1011 40 10000 8.7 20 08:51 26.09.2019
1267 Clear 32 1011 40 10000 9.8 20 08:31 26.09.2019
1268 Clear 33 1011 38 10000 9.3 20 07:47 26.09.2019
1269 Clear 33 1012 36 10000 7.7 20 07:22 26.09.2019
1270 Dust 33 1012 24 10000 6.2 20 07:22 26.09.2019
1271 Dust 34 1012 24 10000 6.2 20 06:55 26.09.2019
1272 Dust 35 1013 24 10000 4.6 50 06:29 26.09.2019
1273 Clear 34 1013 28 10000 5.1 90 05:59 26.09.2019
1274 Clear 33 1014 33 10000 5.1 90 05:29 26.09.2019
1275 Clouds 33 1015 33 10000 5.1 300 04:33 26.09.2019
1276 Clouds 30 1016 58 10000 3.1 80 02:33 26.09.2019
1277 Clouds 29 1016 69 10000 2.6 70 01:48 26.09.2019
1278 Clouds 28 1016 69 10000 2.1 60 01:22 26.09.2019
1279 Clouds 25 1015 73 10000 1 120 00:46 26.09.2019
1280 Clouds 24 1015 73 10000 1 120 00:25 26.09.2019
1281 Clouds 23 1015 83 10000 1.5 110 23:44 25.09.2019
1282 Clouds 22 1015 83 10000 1.5 110 23:25 25.09.2019
1283 Clouds 22 1014 83 10000 1 100 22:56 25.09.2019
1284 Clear 22 1014 83 10000 1 100 22:37 25.09.2019
1285 Clear 22 1014 83 10000 1 100 22:37 25.09.2019
1286 Clear 22 1014 83 10000 1 80 22:18 25.09.2019
1287 Clear 22 1014 83 10000 1 80 22:18 25.09.2019
1288 Clear 22 1014 83 10000 1 80 21:56 25.09.2019
1289 Clear 22 1014 83 10000 1 80 21:56 25.09.2019
1290 Clear 23 1013 78 10000 1.5 70 21:37 25.09.2019
1291 Clear 23 1013 78 10000 1.5 70 21:18 25.09.2019
1292 Clear 23 1013 78 10000 1.5 60 20:56 25.09.2019
1293 Clear 24 1013 78 10000 1.5 60 20:37 25.09.2019
1294 Clear 24 1013 78 10000 1.5 60 20:19 25.09.2019
1295 Clear 24 1014 73 10000 2.1 50 19:40 25.09.2019
1296 Clouds 25 1014 73 10000 2.6 40 19:21 25.09.2019
1297 Clouds 24 1014 73 10000 2.6 40 18:57 25.09.2019
1298 Clouds 24 1014 73 10000 2.6 40 18:57 25.09.2019
1299 Clouds 25 1014 69 10000 2.6 50 18:38 25.09.2019
1300 Clouds 26 1014 69 10000 3.1 40 18:20 25.09.2019
1301 Clouds 25 1014 69 10000 3.1 40 17:55 25.09.2019
1302 Clouds 26 1014 65 10000 3.1 30 17:36 25.09.2019
1303 Clouds 26 1014 65 10000 3.1 30 17:18 25.09.2019
1304 Clouds 27 1015 69 10000 4.6 340 16:42 25.09.2019
1305 Clouds 27 1015 69 10000 4.6 340 16:23 25.09.2019
1306 Clouds 27 1014 78 10000 4.6 340 15:57 25.09.2019
1307 Clouds 27 1014 78 10000 4.1 20 15:39 25.09.2019
1308 Clouds 27 1014 78 10000 4.1 20 15:20 25.09.2019
1309 Clear 27 1014 61 10000 3.6 50 14:42 25.09.2019
1310 Clear 27 1014 61 10000 3.6 50 14:22 25.09.2019
1311 Clear 27 1014 61 10000 2.1 60 13:58 25.09.2019
1312 Clear 27 1013 57 10000 2.6 50 13:40 25.09.2019
1313 Clear 27 1013 54 10000 2.1 30 13:20 25.09.2019
1314 Clear 27 1013 54 10000 2.1 30 12:57 25.09.2019
1315 Clear 27 1013 51 10000 2.1 20 12:37 25.09.2019
1316 Clear 28 1012 45 10000 3.1 10 12:19 25.09.2019
1317 Clear 28 1012 48 10000 4.6 10 11:41 25.09.2019
1318 Clear 29 1012 48 10000 4.6 10 11:20 25.09.2019
1319 Clouds 29 1012 51 10000 4.6 10 10:48 25.09.2019
1320 Clouds 30 1012 55 10000 5.7 10 10:27 25.09.2019
1321 Clouds 30 1011 58 10000 6.7 360 09:59 25.09.2019
1322 Clouds 31 1011 55 10000 5.7 10 09:41 25.09.2019
1323 Clouds 31 1011 55 10000 5.7 10 09:23 25.09.2019
1324 Clouds 31 1011 58 10000 5.1 360 08:59 25.09.2019
1325 Clouds 32 1011 55 10000 5.7 350 08:40 25.09.2019
1326 Clouds 32 1011 55 10000 5.7 350 08:20 25.09.2019
1327 Clouds 32 1012 58 10000 5.1 350 07:41 25.09.2019
1328 Clouds 32 1012 52 10000 5.7 340 07:23 25.09.2019
1329 Clouds 33 1012 52 10000 5.7 340 06:56 25.09.2019
1330 Clouds 33 1013 55 10000 5.7 350 06:36 25.09.2019
1331 Clouds 32 1014 62 10000 4.1 300 05:43 25.09.2019
1332 Clouds 32 1014 62 10000 4.1 300 05:19 25.09.2019
1333 Clouds 31 1016 58 10000 1.5 70 03:21 25.09.2019
1334 Clouds 28 1016 69 10000 2.1 50 01:36 25.09.2019
1335 Clouds 27 1016 83 10000 1.5 10 00:41 25.09.2019
1336 Clouds 26 1016 83 10000 1.5 10 00:22 25.09.2019
1337 Rain 25 1015 88 10000 2.1 50 23:43 24.09.2019
1338 Rain 25 1015 88 10000 2.1 50 23:22 24.09.2019
1339 Rain 25 1015 83 10000 1.5 70 22:58 24.09.2019
1340 Rain 25 1015 83 10000 2.1 100 22:38 24.09.2019
1341 Clouds 25 1014 83 10000 1 320 22:19 24.09.2019
1342 Clouds 25 1014 83 10000 1 320 21:55 24.09.2019
1343 Clouds 25 1014 83 10000 1 310 21:37 24.09.2019
1344 Clouds 25 1014 83 10000 1 310 21:18 24.09.2019
1345 Clouds 25 1014 83 10000 1 310 20:56 24.09.2019
1346 Clouds 25 1014 83 10000 1.5 270 20:38 24.09.2019
1347 Clouds 25 1014 83 10000 1.5 270 20:19 24.09.2019
1348 Clouds 26 1014 83 10000 1.5 250 19:43 24.09.2019
1349 Clouds 26 1014 83 10000 2.1 260 19:21 24.09.2019
1350 Clouds 26 1014 83 10000 2.1 260 18:58 24.09.2019
1351 Clouds 26 1015 83 10000 2.1 260 18:39 24.09.2019
1352 Clouds 26 1015 78 10000 3.1 250 18:20 24.09.2019
1353 Clouds 26 1015 78 10000 3.1 250 17:57 24.09.2019
1354 Clouds 26 1015 83 10000 2.6 260 17:38 24.09.2019
1355 Clouds 26 1015 83 10000 2.6 260 17:20 24.09.2019
1356 Clouds 26 1015 83 10000 2.6 270 16:43 24.09.2019
1357 Clouds 25 1015 83 10000 2.6 270 16:21 24.09.2019
1358 Clouds 25 1015 83 10000 2.6 270 15:59 24.09.2019
1359 Clouds 26 1015 74 10000 2.6 260 15:41 24.09.2019
1360 Clouds 26 1015 74 10000 2.6 260 15:23 24.09.2019
1361 Clear 26 1014 65 10000 1.5 260 14:40 24.09.2019
1362 Clear 26 1014 65 10000 1.5 260 14:19 24.09.2019
1363 Clear 26 1014 65 10000 1 20 13:55 24.09.2019
1364 Clear 26 1014 65 10000 1.5 30 13:37 24.09.2019
1365 Clear 26 1014 58 10000 1.5 10 13:18 24.09.2019
1366 Clouds 27 1014 58 10000 2.1 350 12:39 24.09.2019
1367 Clear 28 1013 51 10000 3.1 10 12:19 24.09.2019
1368 Clear 28 1013 51 10000 4.1 360 11:43 24.09.2019
1369 Clear 29 1013 51 10000 4.1 360 11:22 24.09.2019
1370 Clouds 30 1012 48 10000 3.6 360 10:57 24.09.2019
1371 Clouds 30 1012 48 10000 5.1 350 10:38 24.09.2019
1372 Clouds 30 1012 48 10000 5.1 350 10:19 24.09.2019
1373 Clouds 31 1012 43 10000 5.1 10 09:46 24.09.2019
1374 Clouds 31 1012 43 10000 5.7 360 09:27 24.09.2019
1375 Clouds 32 1012 43 10000 4.6 360 08:58 24.09.2019
1376 Clouds 32 1012 46 10000 5.7 360 08:40 24.09.2019
1377 Clouds 32 1012 46 10000 5.7 360 08:21 24.09.2019
1378 Clouds 31 1012 55 10000 6.2 360 07:57 24.09.2019
1379 Clouds 31 1013 62 10000 5.7 350 07:37 24.09.2019
1380 Clouds 31 1014 66 10000 5.1 350 07:18 24.09.2019
1381 Rain 31 1014 62 10000 6.2 350 06:37 24.09.2019
1382 Rain 31 1014 66 10000 5.7 340 06:18 24.09.2019
1383 Clouds 31 1015 74 10000 5.1 340 05:21 24.09.2019
1384 Clouds 30 1016 62 10000 4.6 290 03:46 24.09.2019
1385 Clouds 31 1016 58 10000 4.1 280 03:22 24.09.2019
1386 Clouds 30 1017 58 10000 5.1 300 02:43 24.09.2019
1387 Clouds 29 1017 65 10000 1.5 150 01:41 24.09.2019
1388 Clouds 25 1016 78 10000 2.1 150 00:41 24.09.2019
1389 Clouds 25 1016 78 10000 2.1 150 00:22 24.09.2019
1390 Clouds 24 1016 88 10000 1 140 23:41 23.09.2019
1391 Clouds 24 1016 88 10000 1 140 23:22 23.09.2019
1392 Clouds 24 1015 88 10000 1.5 180 22:41 23.09.2019
1393 Clouds 25 1015 88 10000 1.5 180 22:21 23.09.2019
1394 Clouds 25 1015 88 10000 3.6 190 21:59 23.09.2019
1395 Clouds 25 1014 88 10000 3.6 190 21:41 23.09.2019
1396 Clouds 25 1014 88 10000 3.6 190 21:41 23.09.2019
1397 Clouds 25 1014 88 10000 3.6 190 21:41 23.09.2019
1398 Clouds 25 1014 88 10000 3.6 190 21:20 23.09.2019
1399 Clouds 25 1014 88 10000 3.6 190 21:20 23.09.2019
1400 Clouds 25 1014 83 10000 2.6 180 20:59 23.09.2019
1401 Clouds 25 1014 83 10000 2.1 180 20:39 23.09.2019
1402 Clouds 25 1014 83 10000 2.1 180 20:19 23.09.2019
1403 Rain 25 1014 83 10000 2.1 190 19:40 23.09.2019
1404 Rain 25 1014 83 10000 2.1 190 19:22 23.09.2019
1405 Rain 25 1015 83 10000 2.1 180 18:59 23.09.2019
1406 Clouds 25 1015 83 10000 2.6 190 18:41 23.09.2019
1407 Clouds 26 1015 78 10000 1.5 210 18:19 23.09.2019
1408 Clouds 26 1015 78 10000 1.5 210 17:57 23.09.2019
1409 Clear 26 1015 78 10000 1.5 260 17:39 23.09.2019
1410 Clear 26 1015 78 10000 1.5 260 17:39 23.09.2019
1411 Clear 26 1015 78 10000 1.5 260 17:20 23.09.2019
1412 Clouds 26 1016 78 10000 2.6 260 16:57 23.09.2019
1413 Clouds 26 1015 78 10000 2.6 280 16:36 23.09.2019
1414 Clear 26 1015 69 10000 2.6 300 16:18 23.09.2019
1415 Clear 27 1015 69 10000 2.6 300 15:56 23.09.2019
1416 Clear 27 1015 69 10000 2.6 330 15:38 23.09.2019
1417 Clear 27 1015 69 10000 2.6 330 15:38 23.09.2019
1418 Clear 27 1015 69 10000 2.6 330 15:18 23.09.2019
1419 Clouds 27 1015 61 10000 2.1 20 14:40 23.09.2019
1420 Clouds 27 1015 61 10000 2.1 20 14:20 23.09.2019
1421 Clear 27 1015 61 10000 2.1 20 13:58 23.09.2019
1422 Clear 27 1015 61 10000 2.1 40 13:38 23.09.2019
1423 Clear 27 1014 58 10000 3.1 40 13:18 23.09.2019
1424 Clear 27 1014 58 10000 3.1 40 13:18 23.09.2019
1425 Clear 27 1014 58 10000 3.1 40 13:18 23.09.2019
1426 Clear 28 1014 54 10000 3.6 30 12:46 23.09.2019
1427 Clear 28 1014 54 10000 3.6 30 12:23 23.09.2019
1428 Clear 29 1014 54 10000 4.1 30 11:58 23.09.2019
1429 Clear 29 1013 54 10000 4.6 10 11:40 23.09.2019
1430 Clear 29 1013 54 10000 4.6 10 11:22 23.09.2019
1431 Clear 30 1013 48 10000 5.7 360 10:49 23.09.2019
1432 Clear 31 1013 45 10000 6.7 10 10:22 23.09.2019
1433 Clear 31 1012 40 10000 7.2 360 09:59 23.09.2019
1434 Clear 32 1012 40 10000 8.2 10 09:38 23.09.2019
1435 Clear 32 1012 40 10000 8.2 10 09:20 23.09.2019
1436 Clear 32 1012 40 10000 8.7 10 08:47 23.09.2019
1437 Clear 33 1012 38 10000 8.2 10 08:28 23.09.2019
1438 Clear 33 1013 38 10000 8.7 20 07:57 23.09.2019
1439 Clear 34 1013 34 10000 7.7 10 07:28 23.09.2019
1440 Clear 33 1014 62 10000 6.2 290 06:37 23.09.2019
1441 Clear 32 1015 58 10000 6.2 30 05:51 23.09.2019
1442 Clear 32 1015 58 10000 6.2 30 05:21 23.09.2019
1443 Clouds 32 1016 43 10000 6.2 30 04:54 23.09.2019
1444 Clouds 29 1017 66 10000 3.6 70 02:42 23.09.2019
1445 Clouds 28 1016 74 10000 2.6 70 01:18 23.09.2019
1446 Clouds 26 1016 78 10000 1.5 90 00:23 23.09.2019
1447 Clouds 24 1016 88 10000 0.5 110 23:56 22.09.2019
1448 Clouds 24 1015 83 10000 1 170 23:33 22.09.2019
1449 Clouds 24 1015 83 10000 1.5 160 22:58 22.09.2019
1450 Clouds 24 1015 83 10000 1 180 22:40 22.09.2019
1451 Clouds 24 1015 83 10000 1 180 22:22 22.09.2019
1452 Clouds 24 1015 83 10000 1 160 21:55 22.09.2019
1453 Clouds 24 1015 83 10000 1 160 21:55 22.09.2019
1454 Clouds 25 1015 78 10000 1 150 21:36 22.09.2019
1455 Clouds 25 1015 78 10000 1 150 21:18 22.09.2019
1456 Clouds 25 1015 88 10000 3.6 22.467 20:41 22.09.2019
1457 Clouds 25 1015 88 10000 3.6 22.467 20:23 22.09.2019
1458 Clouds 24 1015 88 10000 1 70 19:55 22.09.2019
1459 Clouds 24 1015 88 10000 1 60 19:37 22.09.2019
1460 Clouds 24 1015 83 10000 1.5 310 19:18 22.09.2019
1461 Clouds 25 1015 83 10000 1 310 18:42 22.09.2019
1462 Rain 25 1016 83 10000 1.5 330 18:20 22.09.2019
1463 Rain 25 1016 83 10000 1.5 330 17:59 22.09.2019
1464 Rain 25 1016 83 10000 1.5 290 17:41 22.09.2019
1465 Rain 25 1016 83 10000 1.5 290 17:20 22.09.2019
1466 Clouds 25 1016 78 10000 2.6 310 16:45 22.09.2019
1467 Clouds 25 1016 78 10000 2.6 310 16:27 22.09.2019
1468 Clouds 26 1016 83 10000 3.1 310 15:57 22.09.2019
1469 Clouds 26 1016 74 10000 2.1 320 15:38 22.09.2019
1470 Clouds 26 1016 74 10000 2.1 320 15:38 22.09.2019
1471 Clouds 26 1016 74 10000 2.6 320 15:19 22.09.2019
1472 Clear 26 1016 78 10000 3.6 300 14:45 22.09.2019
1473 Clear 26 1016 78 10000 3.6 300 14:26 22.09.2019
1474 Clear 26 1015 65 10000 3.1 30 13:59 22.09.2019
1475 Clear 27 1015 61 10000 3.1 20 13:40 22.09.2019
1476 Clear 27 1015 61 10000 3.1 20 13:21 22.09.2019
1477 Clear 27 1015 61 10000 3.1 20 12:55 22.09.2019
1478 Clear 28 1014 61 10000 3.6 30 12:36 22.09.2019
1479 Clouds 28 1014 54 10000 4.1 20 12:18 22.09.2019
1480 Clouds 29 1013 54 10000 5.1 20 11:41 22.09.2019
1481 Clouds 29 1013 54 10000 5.1 20 11:23 22.09.2019
1482 Clouds 29 1013 54 10000 5.1 20 11:23 22.09.2019
1483 Clouds 30 1013 51 10000 6.2 20 10:55 22.09.2019
1484 Clear 30 1013 48 10000 6.2 10 10:37 22.09.2019
1485 Clear 31 1013 48 10000 6.2 10 10:18 22.09.2019
1486 Clear 31 1012 48 10000 5.1 350 09:41 22.09.2019
1487 Clear 32 1012 46 10000 8.2 360 09:20 22.09.2019
1488 Clear 32 1012 46 10000 6.2 10 08:47 22.09.2019
1489 Clear 32 1012 46 10000 6.2 10 08:25 22.09.2019
1490 Clear 32 1013 48 10000 6.7 10 07:56 22.09.2019
1491 Clear 32 1013 43 10000 6.2 20 07:38 22.09.2019
1492 Clear 32 1013 40 10000 4.6 40 07:19 22.09.2019
1493 Clear 32 1013 40 10000 4.6 40 06:55 22.09.2019
1494 Clouds 32 1015 52 10000 4.1 10 05:36 22.09.2019
1495 Clouds 31 1016 55 10000 4.6 50 03:48 22.09.2019
1496 Clouds 28 1017 65 10000 3.6 50 02:38 22.09.2019
1497 Clouds 28 1017 65 10000 3.6 50 02:20 22.09.2019
1498 Clouds 27 1016 74 10000 2.1 70 01:23 22.09.2019
1499 Clouds 25 1016 78 10000 2.1 90 00:37 22.09.2019
1500 Clouds 25 1016 83 10000 2.1 70 00:18 22.09.2019
1501 Clouds 23 1015 83 10000 1.5 60 23:41 21.09.2019
1502 Clouds 23 1015 83 10000 1 70 23:20 21.09.2019
1503 Clouds 24 1014 83 10000 2.6 50 22:39 21.09.2019
1504 Clouds 24 1014 83 10000 2.6 50 22:39 21.09.2019
1505 Clouds 24 1014 83 10000 2.6 50 22:21 21.09.2019
1506 Clouds 24 1014 83 10000 3.1 40 21:55 21.09.2019
1507 Clouds 24 1014 83 10000 2.6 60 21:37 21.09.2019
1508 Clouds 24 1014 83 10000 2.6 60 21:18 21.09.2019
1509 Clouds 24 1014 88 10000 2.6 50 20:39 21.09.2019
1510 Clouds 24 1014 88 10000 2.6 50 20:21 21.09.2019
1511 Clouds 24 1014 83 10000 1.5 350 19:48 21.09.2019
1512 Clouds 25 1014 83 10000 1.5 350 19:24 21.09.2019
1513 Clouds 25 1014 83 10000 1 310 18:55 21.09.2019
1514 Clouds 25 1014 83 10000 1.5 290 18:37 21.09.2019
1515 Clouds 25 1014 78 10000 2.1 300 18:19 21.09.2019
1516 Clear 25 1014 78 10000 3.1 310 17:42 21.09.2019
1517 Clear 25 1014 78 10000 3.1 310 17:21 21.09.2019
1518 Clouds 26 1014 74 10000 4.1 310 16:44 21.09.2019
1519 Clouds 26 1014 74 10000 4.1 310 16:24 21.09.2019
1520 Clouds 26 1014 78 10000 6.2 310 15:56 21.09.2019
1521 Clouds 26 1014 78 10000 6.7 310 15:38 21.09.2019
1522 Clouds 26 1014 78 10000 6.7 310 15:19 21.09.2019
1523 Clouds 27 1014 74 10000 4.6 350 14:44 21.09.2019
1524 Clouds 26 1014 74 10000 4.6 350 14:26 21.09.2019
1525 Clear 26 1013 65 10000 3.6 30 13:43 21.09.2019
1526 Clear 27 1013 65 10000 3.6 30 13:23 21.09.2019
1527 Clear 27 1013 61 10000 3.1 30 12:57 21.09.2019
1528 Clear 27 1013 58 10000 3.1 20 12:39 21.09.2019
1529 Clouds 27 1012 54 10000 4.1 20 12:20 21.09.2019
1530 Clouds 28 1012 54 10000 4.1 20 11:51 21.09.2019
1531 Clouds 28 1012 51 10000 5.7 20 11:26 21.09.2019
1532 Clouds 29 1012 48 10000 5.1 10 10:56 21.09.2019
1533 Clouds 30 1012 48 10000 6.2 360 10:38 21.09.2019
1534 Clouds 30 1012 45 10000 5.7 360 10:19 21.09.2019
1535 Clouds 31 1012 45 10000 5.7 360 09:55 21.09.2019
1536 Clouds 32 1011 48 10000 6.7 10 09:37 21.09.2019
1537 Clouds 31 1011 45 10000 6.7 10 09:18 21.09.2019
1538 Clouds 32 1011 45 10000 7.7 10 08:43 21.09.2019
1539 Clear 32 1012 43 10000 5.1 350 07:58 21.09.2019
1540 Clear 33 1012 43 10000 6.2 10 07:39 21.09.2019
1541 Clouds 33 1012 43 10000 5.7 10 07:19 21.09.2019
1542 Clouds 33 1013 45 10000 5.1 10 06:35 21.09.2019
1543 Clouds 31 1014 48 10000 5.7 350 05:51 21.09.2019
1544 Clouds 31 1015 51 10000 3.1 50 04:39 21.09.2019
1545 Clouds 30 1015 58 10000 2.1 50 03:34 21.09.2019
1546 Clouds 28 1016 69 10000 3.6 60 02:25 21.09.2019
1547 Clouds 27 1015 74 10000 3.6 40 01:48 21.09.2019
1548 Clouds 26 1015 74 10000 3.6 40 01:25 21.09.2019
1549 Clouds 23 1015 88 10000 2.1 60 00:25 21.09.2019
1550 Clouds 22 1014 88 10000 1 60 23:56 20.09.2019
1551 Clouds 22 1014 88 10000 2.1 80 23:30 20.09.2019
1552 Clouds 22 1014 88 10000 1 80 22:56 20.09.2019
1553 Clouds 22 1014 88 10000 1 80 22:56 20.09.2019
1554 Clouds 22 1013 88 10000 1.5 70 22:37 20.09.2019
1555 Clouds 22 1013 88 10000 1.5 30 22:19 20.09.2019
1556 Clouds 22 1013 88 10000 1.5 30 22:19 20.09.2019
1557 Clouds 22 1013 88 10000 1.5 30 21:55 20.09.2019
1558 Clouds 22 1013 88 10000 1.5 10 21:36 20.09.2019
1559 Clouds 22 1013 88 10000 1.5 10 21:18 20.09.2019
1560 Clouds 23 1012 83 10000 1.5 360 20:41 20.09.2019
1561 Clouds 23 1012 83 10000 1.5 360 20:20 20.09.2019
1562 Clouds 23 1012 78 10000 1.5 340 19:56 20.09.2019
1563 Clouds 23 1012 83 10000 1.5 350 19:37 20.09.2019
1564 Clouds 23 1012 78 10000 1.5 260 19:19 20.09.2019
1565 Clouds 24 1013 73 10000 2.1 270 18:39 20.09.2019
1566 Clouds 24 1013 73 10000 2.6 270 18:20 20.09.2019
1567 Clouds 24 1013 73 10000 2.6 270 17:57 20.09.2019
1568 Clouds 24 1013 73 10000 2.6 280 17:39 20.09.2019
1569 Clouds 24 1013 73 10000 2.6 280 17:20 20.09.2019
1570 Clouds 25 1013 73 10000 3.1 270 16:41 20.09.2019
1571 Clouds 25 1013 73 10000 3.1 270 16:19 20.09.2019
1572 Clouds 24 1014 73 10000 3.1 270 15:43 20.09.2019
1573 Clouds 25 1014 73 10000 3.1 270 15:23 20.09.2019
1574 Clear 25 1013 69 10000 2.6 270 14:58 20.09.2019
1575 Clear 25 1013 69 10000 2.6 270 14:38 20.09.2019
1576 Clouds 25 1013 79 0 4.28 270.523 14:18 20.09.2019
1577 Clear 25 1013 54 10000 2.6 280 13:47 20.09.2019
1578 Clear 26 1013 54 10000 2.6 280 13:27 20.09.2019
1579 Clear 26 1013 54 10000 2.6 280 12:56 20.09.2019
1580 Clear 26 1012 61 10000 3.6 270 12:36 20.09.2019
1581 Clear 26 1012 51 10000 1.5 280 12:18 20.09.2019
1582 Clear 27 1012 51 10000 2.6 330 11:48 20.09.2019
1583 Clear 27 1012 51 10000 2.6 330 11:20 20.09.2019
1584 Clear 28 1011 51 10000 3.6 340 10:43 20.09.2019
1585 Clear 29 1011 51 10000 3.6 340 10:23 20.09.2019
1586 Clouds 29 1011 45 10000 4.6 340 09:55 20.09.2019
1587 Clouds 30 1011 51 10000 5.1 340 09:36 20.09.2019
1588 Clouds 30 1011 51 10000 5.1 340 09:36 20.09.2019
1589 Clouds 30 1011 48 10000 5.1 320 09:18 20.09.2019
1590 Clouds 30 1011 45 10000 5.7 320 08:41 20.09.2019
1591 Clouds 30 1011 45 10000 5.7 320 08:21 20.09.2019
1592 Clouds 31 1012 51 10000 6.7 320 07:45 20.09.2019
1593 Clouds 31 1012 51 10000 6.7 320 07:25 20.09.2019
1594 Clouds 31 1013 48 10000 6.2 320 06:44 20.09.2019
1595 Clouds 31 1013 48 10000 6.2 320 06:44 20.09.2019
1596 Clouds 31 1013 45 10000 5.7 300 06:20 20.09.2019
1597 Clouds 32 1014 48 10000 5.1 310 05:43 20.09.2019
1598 Clouds 30 1015 54 10000 1.5 190 03:31 20.09.2019
1599 Clouds 30 1015 54 10000 1.5 190 03:31 20.09.2019
1600 Clouds 29 1016 58 10000 2.1 200 02:51 20.09.2019
1601 Clouds 27 1015 69 10000 2.6 230 01:44 20.09.2019
1602 Clouds 27 1015 69 10000 2.6 230 01:44 20.09.2019
1603 Clouds 24 1015 83 10000 1.07 184.759 00:48 20.09.2019
1604 Clouds 22 1015 88 10000 2.6 137.82 00:21 20.09.2019
1605 Clouds 20 1014 88 10000 0.5 270 23:42 19.09.2019
1606 Clouds 20 1014 88 10000 1 270 23:19 19.09.2019
1607 -273 0 0 0 0 0 22:55 19.09.2019
1608 Clouds 20 1013 88 10000 1.5 290 22:36 19.09.2019
1609 Clouds 21 1013 83 7000 1 300 22:18 19.09.2019
1610 Clouds 21 1013 83 7000 1 300 21:55 19.09.2019
1611 Clouds 21 1013 83 10000 1.5 300 21:36 19.09.2019
1612 Clouds 21 1013 83 10000 1.5 300 21:18 19.09.2019
1613 Clouds 22 1013 73 10000 2.6 280 20:43 19.09.2019
1614 Clouds 23 1013 73 10000 2.6 280 20:21 19.09.2019
1615 Clouds 23 1013 78 10000 2.6 290 19:55 19.09.2019
1616 Clouds 23 1013 78 10000 2.6 290 19:37 19.09.2019
1617 Clouds 23 1013 73 10000 3.1 300 19:19 19.09.2019
1618 Clouds 24 1013 69 10000 3.6 300 18:42 19.09.2019
1619 Clouds 24 1013 69 10000 3.6 290 18:24 19.09.2019
1620 Clouds 24 1014 65 10000 4.1 300 17:54 19.09.2019
1621 Clouds 24 1014 65 10000 4.1 300 17:36 19.09.2019
1622 Clouds 25 1014 65 10000 4.1 300 17:18 19.09.2019
1623 Clouds 25 1014 69 10000 4.1 280 16:42 19.09.2019
1624 Clouds 25 1014 69 10000 4.1 280 16:20 19.09.2019
1625 Clouds 25 1014 69 10000 4.6 280 15:55 19.09.2019
1626 Clouds 25 1014 69 10000 4.6 280 15:55 19.09.2019
1627 Clouds 25 1014 69 10000 4.6 280 15:55 19.09.2019
1628 Clouds 25 1014 69 10000 4.6 280 15:55 19.09.2019
1629 Clouds 25 1014 69 10000 4.6 280 15:55 19.09.2019
1630 Clouds 25 1014 69 10000 4.6 290 15:36 19.09.2019
1631 Clouds 25 1014 69 10000 4.6 290 15:18 19.09.2019
1632 Clouds 25 1014 69 10000 4.6 290 15:18 19.09.2019
1633 Clouds 26 1014 69 10000 5.7 280 14:41 19.09.2019
1634 Clouds 26 1014 69 10000 5.7 280 14:22 19.09.2019
1635 Clear 25 1013 69 10000 4.6 290 13:58 19.09.2019
1636 Clear 26 1013 65 10000 4.6 290 13:38 19.09.2019
1637 Clear 26 1013 65 10000 4.6 290 13:38 19.09.2019
1638 Clear 26 1012 50 10000 2.1 360 13:19 19.09.2019
1639 Clear 26 1012 47 10000 2.6 20 12:38 19.09.2019
1640 Clear 26 1012 51 10000 3.1 20 12:18 19.09.2019
1641 Clear 27 1012 51 10000 3.1 20 11:56 19.09.2019
1642 Clear 27 1011 45 10000 4.6 20 11:37 19.09.2019
1643 Clear 28 1011 27 10000 6.2 10 11:18 19.09.2019
1644 Clear 29 1011 28 10000 7.2 20 10:40 19.09.2019
1645 Clear 30 1011 28 10000 7.2 20 10:21 19.09.2019
1646 Clear 30 1011 30 10000 7.2 10 09:58 19.09.2019
1647 Clear 31 1011 25 10000 8.2 20 09:40 19.09.2019
1648 Clear 31 1011 25 10000 8.2 20 09:20 19.09.2019
1649 Clear 32 1011 22 10000 6.2 20 08:51 19.09.2019
1650 Clear 32 1011 35 10000 6.7 350 08:26 19.09.2019
1651 Clear 32 1011 33 10000 6.2 350 07:45 19.09.2019
1652 Clear 32 1011 33 10000 6.2 350 07:23 19.09.2019
1653 Clear 33 1012 29 10000 5.1 330 06:58 19.09.2019
1654 Clear 32 1012 38 10000 5.7 320 06:38 19.09.2019
1655 Clear 33 1013 38 10000 4.6 310 06:20 19.09.2019
1656 Clear 33 1014 42 10000 4.6 300 05:48 19.09.2019
1657 Clear 32 1015 45 10000 2.1 320 04:20 19.09.2019
1658 Clear 30 1016 39 10000 6.2 300 03:20 19.09.2019
1659 Clear 28 1016 65 10000 1 100 01:40 19.09.2019
1660 Clear 26 1016 73 10000 1 160 01:19 19.09.2019
1661 Clear 23 1015 88 10000 0.5 150 00:43 19.09.2019
1662 Fog 21 1015 94 10000 0.82 173.163 00:19 19.09.2019
1663 Fog 20 1015 94 10000 0.82 173.163 23:38 18.09.2019
1664 Fog 20 1014 94 10000 1.5 160 23:19 18.09.2019
1665 Clear 20 1014 83 10000 1.5 190 22:41 18.09.2019
1666 Clouds 21 1014 88 10000 1.5 170 22:19 18.09.2019
1667 Clouds 20 1014 88 10000 1.5 170 21:57 18.09.2019
1668 Clouds 21 1014 83 10000 0.82 173.163 21:39 18.09.2019
1669 Clouds 21 1014 83 10000 0.88 0.194 21:18 18.09.2019
1670 Clouds 21 1014 83 10000 0.5 110 20:57 18.09.2019
1671 Clouds 21 1014 83 10000 2.01 275.189 20:39 18.09.2019
1672 Clouds 21 1014 83 9000 1.5 230 20:21 18.09.2019
1673 Clouds 21 1014 83 9000 1.5 230 19:57 18.09.2019
1674 Clouds 21 1014 88 9000 0.5 230 19:38 18.09.2019
1675 Clouds 22 1015 83 9000 0.5 250 19:19 18.09.2019
1676 Clouds 22 1015 83 9000 0.5 250 18:55 18.09.2019
1677 Clouds 22 1015 83 9000 0.5 260 18:36 18.09.2019
1678 Clouds 22 1015 83 9000 0.5 260 18:36 18.09.2019
1679 Clear 22 1015 83 9000 0.5 260 18:18 18.09.2019
1680 Clear 23 1015 78 9000 1 320 17:56 18.09.2019
1681 Clear 23 1015 73 10000 2.6 310 17:38 18.09.2019
1682 Clouds 23 1015 69 10000 2.1 360 17:18 18.09.2019
1683 Clouds 25 1016 69 10000 1.5 350 16:43 18.09.2019
1684 Clouds 25 1016 69 10000 1.5 350 16:22 18.09.2019
1685 Clouds 25 1015 65 10000 3.1 320 15:59 18.09.2019
1686 Clouds 25 1015 65 10000 4.1 340 15:40 18.09.2019
1687 Clouds 26 1015 65 10000 4.1 340 15:21 18.09.2019
1688 Clouds 26 1015 54 10000 5.7 50 14:58 18.09.2019
1689 Clear 26 1015 54 10000 4.1 50 14:40 18.09.2019
1690 Clear 26 1015 54 10000 4.1 50 14:22 18.09.2019
1691 Clear 26 1015 54 10000 4.1 50 14:22 18.09.2019
1692 Clear 26 1015 50 10000 3.6 80 13:59 18.09.2019
1693 Clear 25 1014 47 10000 2.6 80 13:39 18.09.2019
1694 Clear 25 1014 47 10000 1.5 60 13:18 18.09.2019
1695 Clear 26 1013 42 10000 2.1 20 12:47 18.09.2019
1696 Clear 27 1013 42 10000 2.1 20 12:29 18.09.2019
1697 Clear 27 1013 39 10000 2.6 330 11:55 18.09.2019
1698 Clear 28 1012 37 10000 2.1 340 11:37 18.09.2019
1699 Clear 28 1012 37 10000 2.1 340 11:18 18.09.2019
1700 Clear 29 1012 40 10000 5.1 10 10:40 18.09.2019
1701 Clear 30 1012 40 10000 5.1 10 10:21 18.09.2019
1702 Clear 30 1012 38 10000 5.7 10 09:58 18.09.2019
1703 Clear 30 1012 42 10000 5.7 10 09:38 18.09.2019
1704 Clear 30 1012 42 10000 5.7 10 09:19 18.09.2019
1705 Clear 30 1012 40 10000 5.1 350 08:41 18.09.2019
1706 Clear 31 1012 40 10000 5.1 350 08:23 18.09.2019
1707 Clouds 32 1013 43 10000 6.7 350 07:53 18.09.2019
1708 Clouds 31 1013 42 10000 6.2 330 07:35 18.09.2019
1709 Clouds 32 1014 43 10000 5.7 340 06:59 18.09.2019
1710 Clouds 31 1014 51 10000 5.7 340 06:35 18.09.2019
1711 Clouds 31 1015 51 10000 4.6 300 05:46 18.09.2019
1712 Dust 31 1016 33 10000 2.6 270 04:43 18.09.2019
1713 Clouds 29 1018 54 10000 1.5 70 02:41 18.09.2019
1714 Clouds 29 1018 54 10000 1.5 70 02:18 18.09.2019
1715 Clouds 27 1017 78 10000 1 180 01:20 18.09.2019
1716 Clouds 25 1017 78 10000 3.14 95.523 00:47 18.09.2019
1717 Clouds 24 1017 88 10000 1.26 99.336 00:19 18.09.2019
1718 Fog 22 1017 88 10000 1 120 23:44 17.09.2019
1719 Fog 22 1017 88 10000 1 120 23:22 17.09.2019
1720 Clouds 22 1016 88 10000 1 80 22:42 17.09.2019
1721 Clouds 22 1016 88 10000 1 80 22:24 17.09.2019
1722 Clouds 23 1016 83 10000 1 100 21:55 17.09.2019
1723 Clouds 23 1016 83 10000 1 100 21:55 17.09.2019
1724 Clouds 23 1016 88 10000 2.1 110 21:37 17.09.2019
1725 Clouds 23 1015 88 10000 1 110 21:19 17.09.2019
1726 Clouds 23 1015 88 10000 1 110 21:19 17.09.2019
1727 Clouds 23 1015 88 10000 1 110 20:58 17.09.2019
1728 Clouds 23 1015 88 10000 2.1 130 20:40 17.09.2019
1729 Clouds 23 1015 88 10000 2.1 130 20:21 17.09.2019
1730 Clouds 24 1015 88 10000 3.1 100 19:58 17.09.2019
1731 Clouds 23 1015 88 10000 4.64 131.645 19:39 17.09.2019
1732 Clouds 23 1015 83 10000 1 250 19:19 17.09.2019
1733 Clouds 23 1015 83 10000 1.5 250 18:56 17.09.2019
1734 Clouds 23 1015 83 10000 1.5 250 18:38 17.09.2019
1735 Clouds 24 1015 83 10000 1.5 250 18:20 17.09.2019
1736 Clouds 24 1015 83 10000 3.1 250 17:45 17.09.2019
1737 Clouds 25 1015 83 10000 3.1 250 17:20 17.09.2019
1738 Clear 25 1016 83 10000 3.1 250 16:57 17.09.2019
1739 Clear 25 1016 83 10000 4.1 250 16:37 17.09.2019
1740 Clear 25 1016 78 10000 4.6 270 16:19 17.09.2019
1741 Clear 26 1016 78 10000 6.2 300 15:39 17.09.2019
1742 Clear 26 1016 65 10000 4.1 360 15:20 17.09.2019
1743 Clear 26 1016 65 10000 4.1 360 14:56 17.09.2019
1744 Clear 25 1015 65 10000 4.68 302.563 14:38 17.09.2019
1745 Clear 25 1015 61 10000 1 100 14:19 17.09.2019
1746 Clear 25 1015 61 10000 1 100 13:56 17.09.2019
1747 Clear 25 1015 61 10000 1 100 13:56 17.09.2019
1748 Clear 25 1014 61 10000 1 110 13:38 17.09.2019
1749 Clear 26 1014 61 10000 1 110 13:20 17.09.2019
1750 Clear 26 1013 51 10000 5.7 40 12:42 17.09.2019
1751 Clear 27 1013 47 10000 5.1 30 12:19 17.09.2019
1752 Clear 27 1013 45 10000 5.7 20 11:45 17.09.2019
1753 Clear 27 1013 45 10000 5.7 20 11:26 17.09.2019
1754 Clear 28 1012 42 10000 6.7 20 10:59 17.09.2019
1755 Clear 29 1012 42 10000 6.2 10 10:40 17.09.2019
1756 Clear 29 1012 42 10000 6.2 10 10:20 17.09.2019
1757 Clouds 29 1012 42 10000 7.2 10 09:54 17.09.2019
1758 Clouds 30 1012 42 10000 6.7 360 09:36 17.09.2019
1759 Clouds 30 1012 42 10000 6.7 360 09:18 17.09.2019
1760 Clear 30 1012 48 10000 6.7 10 08:43 17.09.2019
1761 Clear 30 1012 48 10000 6.7 10 08:43 17.09.2019
1762 Clear 30 1012 48 10000 6.7 10 08:24 17.09.2019
1763 Clear 31 1013 40 10000 6.2 360 07:44 17.09.2019
1764 Clear 31 1013 40 10000 6.2 360 07:26 17.09.2019
1765 Clear 31 1014 45 10000 5.7 330 06:53 17.09.2019
1766 Clear 31 1014 45 10000 5.7 330 06:29 17.09.2019
1767 Clear 32 1014 51 10000 6.2 300 05:53 17.09.2019
1768 Clear 32 1015 31 10000 4.1 110 04:55 17.09.2019
1769 Clear 31 1016 35 10000 4.6 60 03:41 17.09.2019
1770 Clouds 29 1017 54 10000 3.6 60 02:39 17.09.2019
1771 Clear 28 1017 69 10000 2.1 50 01:50 17.09.2019
1772 Clear 24 1016 83 10000 1.5 130 00:46 17.09.2019
1773 Clouds 22 1016 78 10000 1.5 150 23:41 16.09.2019
1774 Clouds 22 1016 78 10000 1.5 150 23:20 16.09.2019
1775 Clouds 21 1015 83 10000 1 140 22:59 16.09.2019
1776 Clouds 21 1015 83 10000 1.5 70 22:40 16.09.2019
1777 Clouds 22 1015 78 10000 1.5 100 22:21 16.09.2019
1778 Clouds 22 1015 78 10000 1.5 100 21:56 16.09.2019
1779 Clouds 22 1015 78 10000 1.5 100 21:38 16.09.2019
1780 Clouds 22 1015 78 10000 1.5 100 21:19 16.09.2019
1781 Clouds 22 1014 83 10000 1 80 20:42 16.09.2019
1782 Clouds 21 1014 83 10000 1 80 20:23 16.09.2019
1783 Clouds 21 1014 83 10000 1.5 70 19:58 16.09.2019
1784 Clear 21 1014 83 10000 0.5 50 19:39 16.09.2019
1785 Clear 20 1014 88 10000 0.5 60 19:20 16.09.2019
1786 Clear 20 1014 88 10000 0.5 60 18:56 16.09.2019
1787 Clear 21 1014 78 10000 4.11 110.422 18:37 16.09.2019
1788 Clear 21 1014 83 10000 0.5 320 18:18 16.09.2019
1789 Clear 21 1015 78 10000 1 310 17:42 16.09.2019
1790 Clear 21 1015 78 10000 1 310 17:24 16.09.2019
1791 Clouds 21 1015 78 10000 1.5 330 16:57 16.09.2019
1792 Clouds 22 1015 73 10000 1.5 350 16:38 16.09.2019
1793 Clouds 22 1015 73 10000 1.5 350 16:20 16.09.2019
1794 Clouds 22 1015 73 10000 2.1 360 15:56 16.09.2019
1795 Clouds 22 1015 73 10000 2.1 30 15:37 16.09.2019
1796 Clouds 22 1015 73 10000 2.1 30 15:37 16.09.2019
1797 Clear 23 1015 69 10000 2.1 110 15:18 16.09.2019
1798 Clear 23 1014 64 10000 1.5 90 14:44 16.09.2019
1799 Clear 24 1014 64 10000 1.5 90 14:23 16.09.2019
1800 Clear 24 1014 61 10000 0.5 350 13:58 16.09.2019
1801 Clear 24 1013 61 10000 1.5 10 13:39 16.09.2019
1802 Clear 24 1013 61 10000 1.5 10 13:20 16.09.2019
1803 Clear 24 1013 61 10000 1.5 10 13:20 16.09.2019
1804 Clear 25 1012 54 10000 4.6 20 12:43 16.09.2019
1805 Clear 25 1012 54 10000 4.6 20 12:25 16.09.2019
1806 Clear 26 1012 44 10000 5.7 30 12:25 16.09.2019
1807 -273 0 0 0 0 0 12:25 16.09.2019
1808 Clear 26 1012 44 10000 5.7 30 11:55 16.09.2019
1809 Clear 27 1012 44 10000 5.1 30 11:37 16.09.2019
1810 Clear 27 1012 39 10000 6.7 20 11:19 16.09.2019
1811 Clear 28 1011 39 10000 6.7 20 10:38 16.09.2019
1812 Clear 28 1011 39 10000 6.7 20 10:20 16.09.2019
1813 Clear 29 1011 42 10000 6.7 20 09:58 16.09.2019
1814 Clouds 29 1011 45 10000 6.7 20 09:39 16.09.2019
1815 Clouds 30 1012 51 10000 6.2 10 09:19 16.09.2019
1816 Clear 31 1012 48 10000 6.2 10 08:46 16.09.2019
1817 Clear 31 1012 48 10000 6.2 10 08:25 16.09.2019
1818 Clear 31 1012 42 10000 5.7 350 07:56 16.09.2019
1819 Clear 32 1012 45 10000 5.1 350 07:37 16.09.2019
1820 Clear 32 1013 45 10000 5.1 350 07:19 16.09.2019
1821 Clear 32 1013 45 10000 5.7 340 06:45 16.09.2019
1822 Clear 32 1013 45 10000 5.7 340 06:26 16.09.2019
1823 Clear 32 1014 22 10000 4.6 310 05:49 16.09.2019
1824 Clear 33 1014 22 10000 4.6 310 05:29 16.09.2019
1825 Clear 32 1015 33 10000 3.1 60 04:33 16.09.2019
1826 Clear 27 1016 61 10000 3.1 80 02:33 16.09.2019
1827 Clear 23 1016 78 10000 1 100 00:44 16.09.2019
1828 Clear 22 1016 78 10000 1 100 00:25 16.09.2019
1829 Clouds 21 1016 78 10000 2.1 130 23:42 15.09.2019
1830 Clouds 21 1016 78 10000 2.1 130 23:21 15.09.2019
1831 Clouds 21 1015 78 10000 2.1 130 22:56 15.09.2019
1832 Clouds 21 1015 78 10000 2.1 130 22:36 15.09.2019
1833 Clouds 21 1015 78 10000 2.1 130 22:18 15.09.2019
1834 Clouds 21 1015 78 10000 1.5 140 21:55 15.09.2019
1835 Clouds 21 1015 78 10000 1.5 140 21:55 15.09.2019
1836 Clouds 21 1015 78 10000 1.5 120 21:36 15.09.2019
1837 Clouds 21 1015 78 10000 2.1 150 21:18 15.09.2019
1838 Clouds 21 1015 83 10000 3.1 160 20:42 15.09.2019
1839 Clouds 22 1015 83 10000 3.1 160 20:24 15.09.2019
1840 Clouds 22 1015 83 10000 1.5 150 19:46 15.09.2019
1841 Clouds 22 1015 83 10000 1.5 150 19:26 15.09.2019
1842 Clouds 21 1014 83 10000 1.5 180 18:55 15.09.2019
1843 Clouds 23 1014 73 10000 1.5 190 18:36 15.09.2019
1844 Clear 23 1014 73 10000 2.1 220 18:18 15.09.2019
1845 Clear 22 1014 73 10000 1.5 230 17:41 15.09.2019
1846 Clear 23 1014 73 10000 1.5 230 17:21 15.09.2019
1847 Clear 23 1014 73 10000 0.5 10 17:21 15.09.2019
1848 Clear 23 1014 73 10000 0.5 10 16:55 15.09.2019
1849 Clear 24 1014 69 10000 0.5 50 16:36 15.09.2019
1850 Clear 24 1014 69 10000 5.7 10 16:18 15.09.2019
1851 Clear 24 1014 69 10000 5.7 10 16:18 15.09.2019
1852 Clear 24 1014 65 10000 5.7 10 15:41 15.09.2019
1853 Clear 24 1014 65 10000 5.7 10 15:21 15.09.2019
1854 Clear 24 1014 65 10000 5.7 10 15:21 15.09.2019
1855 Clear 25 1014 61 10000 5.7 10 14:58 15.09.2019
1856 Clear 25 1014 61 10000 6.7 20 14:40 15.09.2019
1857 Clear 25 1014 61 10000 5.7 30 14:21 15.09.2019
1858 Clear 25 1014 61 10000 5.7 40 13:47 15.09.2019
1859 Clear 25 1014 61 10000 5.7 40 13:25 15.09.2019
1860 Clear 25 1014 54 10000 6.2 40 12:58 15.09.2019
1861 Clear 25 1013 54 10000 6.2 40 12:39 15.09.2019
1862 Clear 26 1013 54 10000 6.7 30 12:19 15.09.2019
1863 Clear 26 1013 47 10000 7.7 30 11:42 15.09.2019
1864 Clear 26 1013 47 10000 7.7 30 11:23 15.09.2019
1865 Clear 27 1012 44 10000 8.2 30 10:59 15.09.2019
1866 Clear 27 1012 42 10000 7.2 20 10:40 15.09.2019
1867 Clear 28 1012 42 10000 7.2 20 10:21 15.09.2019
1868 Clear 29 1012 42 10000 7.7 10 09:43 15.09.2019
1869 Clear 29 1012 37 10000 8.2 10 09:21 15.09.2019
1870 Clear 30 1012 37 10000 8.2 10 08:58 15.09.2019
1871 Clear 30 1012 35 10000 8.7 10 08:39 15.09.2019
1872 Clear 31 1012 25 10000 5.7 30 08:18 15.09.2019
1873 Clear 32 1012 25 10000 5.1 60 07:41 15.09.2019
1874 Clear 32 1013 23 10000 7.7 120 06:44 15.09.2019
1875 Clear 31 1014 20 10000 6.2 30 05:35 15.09.2019
1876 Clear 29 1016 26 10000 8.7 90 03:19 15.09.2019
1877 Clear 27 1017 36 10000 4.6 120 02:19 15.09.2019
1878 Clear 26 1017 69 10000 9.3 100 01:36 15.09.2019
1879 Clear 24 1016 78 10000 2.6 140 00:57 15.09.2019
1880 Clear 24 1016 78 10000 2.6 140 00:57 15.09.2019
1881 Clear 23 1016 83 10000 2.1 140 00:37 15.09.2019
1882 Fog 21 1016 88 10000 2.1 130 00:18 15.09.2019
1883 Fog 20 1016 88 10000 2.1 130 23:55 14.09.2019
1884 Fog 20 1016 88 10000 1.5 120 23:37 14.09.2019
1885 Clear 19 1015 88 10000 1.5 120 23:19 14.09.2019
1886 Clear 19 1015 88 10000 1.5 120 23:19 14.09.2019
1887 Clear 19 1015 88 10000 1.5 120 22:55 14.09.2019
1888 Clear 20 1015 83 10000 1.5 110 22:37 14.09.2019
1889 Clouds 20 1015 83 10000 1.5 120 22:18 14.09.2019
1890 Clouds 20 1015 83 10000 2.1 110 21:40 14.09.2019
1891 Clouds 20 1015 73 10000 1.5 100 21:20 14.09.2019
1892 Clouds 20 1015 73 10000 1.5 100 20:58 14.09.2019
1893 Clouds 20 1015 73 10000 1 130 20:38 14.09.2019
1894 Clouds 21 1015 73 10000 1 130 20:20 14.09.2019
1895 Clear 22 1015 73 10000 1 120 19:46 14.09.2019
1896 Clear 22 1015 73 10000 1.5 140 19:22 14.09.2019
1897 Clear 22 1015 73 10000 1.5 140 18:58 14.09.2019
1898 Clear 22 1015 73 10000 2.1 120 18:38 14.09.2019
1899 Clouds 22 1015 78 10000 1 90 18:20 14.09.2019
1900 Clear 22 1016 73 10000 1 90 17:44 14.09.2019
1901 Clear 22 1016 73 10000 1 90 17:24 14.09.2019
1902 Clear 23 1015 69 10000 1.5 210 16:54 14.09.2019
1903 Clear 23 1015 69 10000 2.41 65.972 16:36 14.09.2019
1904 Clear 23 1015 69 10000 2.1 350 16:18 14.09.2019
1905 Clear 24 1015 65 10000 3.1 360 15:41 14.09.2019
1906 Clear 24 1015 65 10000 3.1 360 15:22 14.09.2019
1907 Clear 24 1014 61 10000 3.1 20 14:45 14.09.2019
1908 Clear 24 1014 61 10000 3.1 20 14:20 14.09.2019
1909 Clear 25 1014 61 10000 3.1 40 13:56 14.09.2019
1910 Clear 25 1014 54 10000 4.1 40 13:38 14.09.2019
1911 Clear 25 1014 50 10000 4.6 40 13:20 14.09.2019
1912 Clear 26 1013 44 10000 4.6 30 12:45 14.09.2019
1913 Clear 26 1013 44 10000 4.6 30 12:22 14.09.2019
1914 Clear 27 1013 37 10000 6.2 30 11:41 14.09.2019
1915 Clear 28 1013 32 10000 6.7 20 11:20 14.09.2019
1916 Clear 29 1012 28 10000 7.2 20 10:40 14.09.2019
1917 Clear 30 1012 28 10000 7.2 20 10:22 14.09.2019
1918 Clear 31 1012 27 10000 8.2 20 09:58 14.09.2019
1919 Clear 31 1012 27 10000 7.7 10 09:40 14.09.2019
1920 Clear 31 1012 27 10000 7.7 10 09:20 14.09.2019
1921 Clear 33 1012 22 10000 6.7 50 08:48 14.09.2019
1922 Clear 33 1012 22 10000 5.7 50 08:26 14.09.2019
1923 Clear 33 1012 21 10000 7.2 60 07:54 14.09.2019
1924 Clear 33 1013 24 10000 5.7 50 07:30 14.09.2019
1925 Clear 33 1014 19 10000 8.2 80 06:54 14.09.2019
1926 Clear 33 1014 19 10000 8.2 80 06:32 14.09.2019
1927 Clear 31 1015 19 10000 7.7 90 05:27 14.09.2019
1928 Clear 31 1017 22 10000 11.8 90 03:53 14.09.2019
1929 Clear 28 1017 23 10000 11.3 90 02:57 14.09.2019
1930 Clear 28 1018 32 10000 8.2 90 02:30 14.09.2019
1931 Clear 26 1018 50 10000 9.3 100 01:44 14.09.2019
1932 Clear 25 1018 69 10000 9.3 100 01:19 14.09.2019
1933 Clear 23 1018 83 10000 9.3 100 00:40 14.09.2019
1934 Clear 21 1017 88 10000 2.1 90 00:21 14.09.2019
1935 Clear 19 1017 88 10000 2.1 90 23:55 13.09.2019
1936 Clear 19 1017 88 10000 2.6 90 23:36 13.09.2019
1937 Clear 19 1017 88 10000 9.3 110 23:18 13.09.2019
1938 Clear 19 1016 82 10000 1.5 110 22:40 13.09.2019
1939 Clear 19 1016 82 10000 1.5 110 22:22 13.09.2019
1940 Clear 19 1016 77 10000 1.5 100 21:58 13.09.2019
1941 Clouds 19 1016 77 10000 1.5 90 21:38 13.09.2019
1942 Clouds 19 1016 77 10000 1.5 90 21:19 13.09.2019
1943 Clouds 19 1016 72 10000 1.5 90 20:57 13.09.2019
1944 Clouds 19 1016 72 10000 1.5 90 20:57 13.09.2019
1945 Clouds 20 1016 72 10000 1.5 100 20:37 13.09.2019
1946 Clouds 19 1016 72 10000 2.1 90 20:19 13.09.2019
1947 Clouds 20 1015 72 10000 1 90 19:44 13.09.2019
1948 Clouds 20 1016 68 10000 0.5 100 19:22 13.09.2019
1949 Clouds 20 1016 68 10000 0.5 100 18:59 13.09.2019
1950 Clouds 20 1016 68 10000 1 60 18:38 13.09.2019
1951 Clouds 20 1016 68 10000 1 60 18:38 13.09.2019
1952 Clouds 21 1016 64 10000 1.5 70 18:19 13.09.2019
1953 Clouds 21 1016 68 10000 2.1 110 17:44 13.09.2019
1954 Clouds 21 1016 68 10000 2.1 110 17:21 13.09.2019
1955 Clear 21 1016 64 10000 1 140 16:59 13.09.2019
1956 Clear 22 1016 64 10000 2.6 170 16:39 13.09.2019
1957 Clear 22 1016 64 10000 2.6 170 16:19 13.09.2019
1958 Clear 23 1016 64 10000 3.1 180 15:42 13.09.2019
1959 Clear 23 1016 64 10000 3.1 180 15:23 13.09.2019
1960 Clear 24 1015 50 10000 2.1 160 14:55 13.09.2019
1961 Clear 24 1015 50 10000 2.1 160 14:55 13.09.2019
1962 -273 0 0 0 0 0 14:55 13.09.2019
1963 Clear 23 1015 57 10000 1.5 50 14:36 13.09.2019
1964 Clear 23 1015 57 10000 1.5 50 14:18 13.09.2019
1965 Clear 23 1015 53 10000 2.1 360 14:18 13.09.2019
1966 Clear 24 1014 47 10000 1.5 10 13:41 13.09.2019
1967 Clear 24 1014 47 10000 1.5 10 13:22 13.09.2019
1968 Clear 24 1014 50 10000 2.6 360 12:45 13.09.2019
1969 -273 0 0 0 0 0 12:25 13.09.2019
1970 Clear 26 1014 42 10000 2.6 360 11:57 13.09.2019
1971 Clear 27 1013 37 10000 4.1 350 11:20 13.09.2019
1972 Clear 29 1013 28 10000 4.6 360 10:54 13.09.2019
1973 Clear 29 1013 27 10000 6.2 360 10:36 13.09.2019
1974 Clear 30 1013 25 10000 7.2 350 10:18 13.09.2019
1975 Clear 31 1013 23 10000 5.7 10 09:42 13.09.2019
1976 Clear 31 1013 23 10000 5.7 10 09:19 13.09.2019
1977 Clear 32 1013 21 10000 7.7 30 08:42 13.09.2019
1978 Clear 32 1013 21 10000 7.7 30 08:42 13.09.2019
1979 Clear 32 1013 21 10000 7.7 30 08:21 13.09.2019
1980 Clear 32 1013 21 10000 7.7 30 08:21 13.09.2019
1981 Clear 32 1013 21 10000 7.7 30 08:21 13.09.2019
1982 Clear 32 1014 15 10000 5.7 360 07:59 13.09.2019
1983 Clear 31 1014 18 10000 5.1 60 07:40 13.09.2019
1984 Clear 32 1015 15 10000 4.6 50 06:55 13.09.2019
1985 Clear 32 1015 6 10000 5.7 50 06:37 13.09.2019
1986 Clear 31 1016 45 10000 8.7 90 05:32 13.09.2019
1987 Clear 30 1017 17 10000 8.2 100 03:52 13.09.2019
1988 Clear 29 1018 21 10000 9.8 100 03:25 13.09.2019
1989 Clear 26 1018 47 10000 6.2 100 02:19 13.09.2019
1990 Clear 25 1018 69 10000 4.1 110 01:36 13.09.2019
1991 Clear 23 1018 78 10000 2.1 110 00:59 13.09.2019
1992 Clear 21 1018 88 10000 1.5 140 00:34 13.09.2019
1993 Clear 19 1017 88 10000 1.5 120 23:48 12.09.2019
1994 Clear 19 1017 88 10000 1.5 120 23:24 12.09.2019
1995 Clear 19 1017 82 10000 2.1 120 22:57 12.09.2019
1996 Clear 19 1017 77 10000 1.5 130 22:39 12.09.2019
1997 Clear 19 1017 77 10000 1.5 130 22:21 12.09.2019
1998 Clouds 20 1016 78 10000 1.5 130 21:55 12.09.2019
1999 Clouds 19 1016 88 10000 1 140 21:36 12.09.2019
2000 Clouds 19 1016 88 10000 1 140 21:18 12.09.2019
2001 Clouds 20 1016 83 10000 0.5 150 20:44 12.09.2019
2002 Clouds 20 1016 83 10000 0.5 150 20:22 12.09.2019
2003 Clouds 20 1016 83 10000 0.5 110 19:57 12.09.2019
2004 Clouds 20 1016 78 10000 1.5 100 19:39 12.09.2019
2005 Clouds 20 1016 78 10000 1.5 100 19:19 12.09.2019
2006 Clouds 20 1016 78 10000 1.5 100 18:56 12.09.2019
2007 Clouds 21 1017 78 10000 1 100 18:36 12.09.2019
2008 Clouds 21 1017 78 10000 2.1 50 18:18 12.09.2019
2009 Clouds 22 1017 73 10000 1.5 150 17:40 12.09.2019
2010 Clouds 23 1017 73 10000 1.5 150 17:20 12.09.2019
2011 Clouds 23 1017 73 10000 1.5 150 17:20 12.09.2019
2012 Clear 23 1017 69 10000 1 180 16:56 12.09.2019
2013 Clear 23 1017 69 10000 1 180 16:55 12.09.2019
2014 Clear 23 1017 73 10000 1.68 166.718 16:36 12.09.2019
2015 Clear 23 1017 73 10000 1.68 166.718 16:18 12.09.2019
2016 Clear 23 1016 64 10000 2.1 20 15:41 12.09.2019
2017 Clear 23 1016 64 10000 2.1 20 15:23 12.09.2019
2018 Clear 23 1016 60 10000 2.6 40 14:45 12.09.2019
2019 Clear 23 1016 60 10000 2.6 40 14:22 12.09.2019
2020 Clear 23 1015 60 10000 2.6 40 13:58 12.09.2019
2021 Clear 24 1015 57 10000 2.6 40 13:37 12.09.2019
2022 Clear 24 1015 53 10000 3.1 40 13:18 12.09.2019
2023 Clear 25 1015 50 10000 3.6 30 12:44 12.09.2019
2024 Clear 26 1014 44 10000 4.1 20 12:19 12.09.2019
2025 Clear 26 1014 44 10000 4.1 20 11:56 12.09.2019
2026 Clear 27 1014 39 10000 4.6 20 11:38 12.09.2019
2027 Clear 28 1013 35 10000 5.7 10 11:19 12.09.2019
2028 Clear 29 1013 30 10000 5.1 10 10:44 12.09.2019
2029 Clear 30 1013 30 10000 5.1 10 10:25 12.09.2019
2030 Clear 30 1013 28 10000 6.7 10 09:45 12.09.2019
2031 Clear 31 1013 28 10000 6.7 10 09:25 12.09.2019
2032 Clear 31 1013 31 10000 6.7 10 08:59 12.09.2019
2033 Clear 32 1013 24 10000 5.7 10 08:40 12.09.2019
2034 Clear 32 1013 24 10000 5.7 10 08:22 12.09.2019
2035 Clear 33 1014 14 10000 5.7 110 07:40 12.09.2019
2036 Clear 33 1014 14 10000 6.2 20 07:19 12.09.2019
2037 Clear 33 1015 11 10000 6.2 20 06:51 12.09.2019
2038 Clear 31 1016 44 10000 6.7 100 06:19 12.09.2019
2039 Clear 31 1016 11 10000 7.7 90 05:51 12.09.2019
2040 Clear 31 1016 11 10000 7.7 90 05:32 12.09.2019
2041 Clear 31 1018 11 10000 9.8 80 04:40 12.09.2019
2042 Clear 26 1019 27 10000 7.2 90 02:43 12.09.2019
2043 Clear 24 1019 46 10000 5.1 120 01:37 12.09.2019
2044 Clear 24 1018 68 10000 3.6 120 01:18 12.09.2019
2045 Clear 21 1018 77 10000 3.1 120 00:42 12.09.2019
2046 Clear 19 1018 82 10000 2.6 120 00:24 12.09.2019
2047 Clear 18 1017 82 10000 2.6 120 23:42 11.09.2019
2048 Clear 18 1017 82 10000 2.6 120 23:22 11.09.2019
2049 Clear 18 1017 82 10000 3.1 130 22:57 11.09.2019
2050 Clear 19 1017 77 10000 3.1 140 22:37 11.09.2019
2051 Clear 19 1017 77 10000 3.1 140 22:19 11.09.2019
2052 Clouds 18 1016 77 10000 1.5 120 21:43 11.09.2019
2053 -273 0 0 0 0 0 21:25 11.09.2019
2054 Clouds 18 1017 68 10000 1.5 110 20:58 11.09.2019
2055 Clouds 19 1017 68 10000 1.5 110 20:40 11.09.2019
2056 Clouds 19 1017 68 10000 1.5 110 20:20 11.09.2019
2057 Clouds 18 1016 72 10000 2.1 10 19:58 11.09.2019
2058 Clouds 19 1017 68 10000 1.5 70 19:40 11.09.2019
2059 Clouds 20 1017 68 10000 2.1 80 19:21 11.09.2019
2060 Clouds 20 1017 68 10000 2.1 80 18:58 11.09.2019
2061 Clouds 19 1017 72 10000 1 80 18:40 11.09.2019
2062 Clouds 19 1017 68 10000 1.5 80 18:22 11.09.2019
2063 Clouds 19 1017 68 10000 1.5 80 17:56 11.09.2019
2064 Clouds 20 1017 68 10000 1.5 130 17:38 11.09.2019
2065 Clouds 20 1017 68 10000 1.5 130 17:20 11.09.2019
2066 Clear 20 1017 64 10000 0.5 80 16:48 11.09.2019
2067 Clear 20 1017 60 10000 1.5 80 16:25 11.09.2019
2068 Clear 20 1017 60 10000 1.5 80 16:25 11.09.2019
2069 Clear 20 1017 60 10000 2.1 170 15:59 11.09.2019
2070 Clear 21 1016 49 10000 2.1 190 15:40 11.09.2019
2071 Clear 21 1016 49 10000 2.1 190 15:19 11.09.2019
2072 Clear 21 1016 56 10000 0.5 130 14:55 11.09.2019
2073 Clear 22 1016 50 10000 1 100 14:36 11.09.2019
2074 Clear 22 1015 53 10000 1.5 60 14:18 11.09.2019
2075 Clouds 22 1015 53 6000 2.1 60 13:38 11.09.2019
2076 Clouds 22 1015 53 6000 2.1 60 13:38 11.09.2019
2077 Clear 23 1015 47 10000 2.6 30 13:20 11.09.2019
2078 Clear 23 1015 47 10000 2.6 30 13:20 11.09.2019
2079 Clear 24 1015 47 10000 2.6 30 12:56 11.09.2019
2080 Clear 25 1014 41 10000 3.1 20 12:38 11.09.2019
2081 Clear 25 1014 39 10000 3.6 10 12:20 11.09.2019
2082 Clear 26 1014 30 10000 4.1 20 11:39 11.09.2019
2083 Clear 27 1014 30 10000 4.1 20 11:21 11.09.2019
2084 Clear 27 1013 28 10000 3.1 10 11:21 11.09.2019
2085 Clear 27 1014 30 10000 4.1 20 11:21 11.09.2019
2086 Clear 28 1013 28 10000 3.1 10 10:56 11.09.2019
2087 Clear 29 1013 25 10000 4.1 360 10:38 11.09.2019
2088 Clear 29 1013 25 10000 5.1 10 10:19 11.09.2019
2089 Clear 31 1013 23 10000 5.7 10 09:39 11.09.2019
2090 Clear 30 1013 23 10000 5.7 360 09:20 11.09.2019
2091 Clear 30 1013 23 10000 5.7 360 08:55 11.09.2019
2092 Clear 31 1013 22 10000 6.2 10 08:37 11.09.2019
2093 Clear 31 1013 22 10000 6.2 10 08:19 11.09.2019
2094 Dust 33 1014 7 10000 6.2 10 07:40 11.09.2019
2095 Clear 33 1014 7 10000 6.2 110 07:21 11.09.2019
2096 Clear 33 1015 4 10000 5.1 70 06:48 11.09.2019
2097 Clear 33 1015 4 10000 5.1 70 06:27 11.09.2019
2098 Clear 32 1016 7 10000 6.7 80 05:36 11.09.2019
2099 Clear 31 1017 6 10000 8.7 90 05:18 11.09.2019
2100 Clear 31 1017 9 10000 7.7 100 04:22 11.09.2019
2101 Clear 29 1018 15 10000 9.8 100 03:31 11.09.2019
2102 Clear 27 1018 25 10000 7.7 100 02:40 11.09.2019
2103 Clear 24 1018 31 10000 6.2 100 01:42 11.09.2019
2104 Clear 22 1017 30 10000 3.1 100 00:46 11.09.2019
2105 Clear 20 1017 55 10000 9.3 110 00:20 11.09.2019
2106 Clear 20 1017 55 10000 9.3 110 00:20 11.09.2019
2107 Clear 18 1016 63 10000 2.6 140 23:41 10.09.2019
2108 Clear 18 1016 63 10000 2.6 140 23:22 10.09.2019
2109 Clear 18 1016 72 10000 2.6 130 22:59 10.09.2019
2110 Clear 18 1016 77 10000 2.1 150 22:41 10.09.2019
2111 Clouds 17 1016 77 10000 2.6 170 22:19 10.09.2019
2112 Clouds 18 1016 77 10000 2.6 170 21:55 10.09.2019
2113 Clouds 18 1015 68 10000 2.6 160 21:37 10.09.2019
2114 Clear 19 1015 72 10000 2.6 160 21:18 10.09.2019
2115 Clear 19 1015 72 10000 2.6 160 20:57 10.09.2019
2116 Clouds 19 1015 64 10000 1.5 170 20:38 10.09.2019
2117 Clouds 19 1015 64 10000 2.66 135.518 20:19 10.09.2019
2118 Clouds 19 1015 64 10000 2.66 135.518 19:55 10.09.2019
2119 Clouds 19 1015 68 10000 0.5 70 19:37 10.09.2019
2120 Clouds 19 1015 68 10000 0.5 70 19:37 10.09.2019
2121 Clouds 20 1016 64 10000 2.1 150 19:18 10.09.2019
2122 Clouds 20 1016 64 10000 2.1 130 18:46 10.09.2019
2123 Clouds 20 1016 64 10000 2.1 130 18:46 10.09.2019
2124 Clouds 20 1016 64 10000 2.1 130 18:23 10.09.2019
2125 Clouds 21 1016 64 10000 2.6 130 17:59 10.09.2019
2126 Clouds 21 1016 64 10000 2.6 130 17:59 10.09.2019
2127 Clouds 21 1016 64 10000 2.6 130 17:59 10.09.2019
2128 Clouds 21 1016 60 10000 2.1 150 17:41 10.09.2019
2129 Clouds 22 1016 60 10000 2.1 150 17:21 10.09.2019
2130 Clear 21 1016 68 10000 2.1 160 16:57 10.09.2019
2131 Clear 22 1016 64 10000 2.1 170 16:38 10.09.2019
2132 Clear 21 1016 53 10000 2.1 190 16:20 10.09.2019
2133 Clear 22 1016 53 10000 2.1 190 15:56 10.09.2019
2134 Clear 22 1016 44 10000 2.6 220 15:38 10.09.2019
2135 Clear 22 1016 44 10000 2.6 220 15:19 10.09.2019
2136 Clear 21 1015 38 10000 1 160 14:40 10.09.2019
2137 Clear 22 1015 38 10000 1 160 14:22 10.09.2019
2138 Clear 21 1015 46 10000 1 60 13:49 10.09.2019
2139 Clear 22 1014 38 10000 1 60 13:24 10.09.2019
2140 Clear 22 1014 38 10000 1 50 12:58 10.09.2019
2141 Clear 23 1014 31 10000 2.1 30 12:40 10.09.2019
2142 Clear 24 1013 30 10000 3.1 30 12:22 10.09.2019
2143 Clear 26 1012 28 10000 4.1 10 11:43 10.09.2019
2144 Clear 27 1012 23 10000 4.1 350 11:23 10.09.2019
2145 Clear 28 1012 23 10000 4.1 350 10:59 10.09.2019
2146 Clear 29 1012 22 10000 4.6 350 10:38 10.09.2019
2147 Clear 30 1012 22 10000 5.1 350 10:18 10.09.2019
2148 Clear 31 1012 3 10000 5.7 310 09:47 10.09.2019
2149 Clear 32 1011 4 10000 6.2 30 09:20 10.09.2019
2150 Clear 32 1011 4 10000 6.2 30 09:20 10.09.2019
2151 Clear 32 1011 4 10000 6.2 30 08:59 10.09.2019
2152 Clear 33 1012 5 10000 6.2 30 08:41 10.09.2019
2153 Clear 33 1012 6 10000 6.2 30 08:21 10.09.2019
2154 Clear 34 1012 5 10000 6.2 30 07:44 10.09.2019
2155 Clear 33 1013 6 10000 6.7 140 07:25 10.09.2019
2156 Clear 33 1012 5 10000 6.2 30 07:25 10.09.2019
2157 Clear 33 1013 6 10000 5.7 110 06:48 10.09.2019
2158 Clear 33 1013 6 10000 5.7 110 06:29 10.09.2019
2159 Clear 31 1015 5 10000 8.7 110 04:41 10.09.2019
2160 Clear 27 1017 38 10000 9.3 120 02:44 10.09.2019
2161 Clear 26 1017 38 10000 9.3 120 02:22 10.09.2019
2162 Clear 26 1017 38 10000 9.3 120 02:22 10.09.2019
2163 Clear 26 1017 38 10000 9.3 120 02:22 10.09.2019
2164 Clear 25 1017 27 10000 9.3 110 01:54 10.09.2019
2165 Clear 25 1017 27 10000 9.3 110 01:54 10.09.2019
2166 Clear 24 1017 38 10000 9.3 110 01:28 10.09.2019
2167 Clear 21 1016 68 10000 9.3 110 00:44 10.09.2019
2168 Clouds 21 1016 88 10000 9.3 110 00:24 10.09.2019
2169 Clear 20 1016 88 10000 3.6 100 23:43 09.09.2019
2170 Clear 20 1015 88 10000 3.6 90 23:20 09.09.2019
2171 Clear 20 1015 88 10000 3.6 90 23:20 09.09.2019
2172 Clear 20 1015 88 10000 3.6 90 22:56 09.09.2019
2173 Clear 20 1015 94 10000 3.1 90 22:37 09.09.2019
2174 Clouds 20 1014 94 10000 2.1 80 22:19 09.09.2019
2175 Clouds 20 1014 94 10000 2.1 80 21:56 09.09.2019
2176 Clouds 21 1014 88 10000 3.1 90 21:37 09.09.2019
2177 Clouds 21 1014 94 10000 2.1 90 21:19 09.09.2019
2178 Clouds 21 1014 94 10000 2.1 90 21:19 09.09.2019
2179 Clouds 20 1014 94 10000 2.1 90 20:55 09.09.2019
2180 Clouds 20 1014 94 10000 2.1 100 20:37 09.09.2019
2181 Clouds 21 1014 94 10000 2.1 120 20:19 09.09.2019
2182 Clouds 21 1014 94 10000 1.5 40 19:57 09.09.2019
2183 Clouds 21 1014 94 10000 1.5 40 19:38 09.09.2019
2184 Clouds 21 1014 94 10000 1 10 19:19 09.09.2019
2185 Clouds 21 1014 94 10000 1 10 19:19 09.09.2019
2186 Clouds 21 1014 94 10000 0.5 30 18:57 09.09.2019
2187 Clouds 21 1014 94 10000 0.5 30 18:39 09.09.2019
2188 Clouds 21 1014 94 10000 2.1 40 18:20 09.09.2019
2189 Clouds 21 1014 94 10000 2.1 40 17:57 09.09.2019
2190 Clouds 22 1014 100 10000 1 30 17:39 09.09.2019
2191 Clouds 22 1014 88 10000 0.5 30 17:20 09.09.2019
2192 Clear 21 1014 94 10000 1 340 16:55 09.09.2019
2193 Clear 21 1014 94 10000 1 340 16:55 09.09.2019
2194 Clear 21 1014 94 10000 1 340 16:37 09.09.2019
2195 Clear 21 1014 88 10000 0.5 30 16:18 09.09.2019
2196 Clear 21 1014 88 10000 0.5 30 15:54 09.09.2019
2197 Clear 22 1014 88 10000 7.32 75.563 15:36 09.09.2019
2198 Clear 23 1014 88 10000 1.07 246.499 15:18 09.09.2019
2199 Clear 22 1014 88 10000 1 280 14:40 09.09.2019
2200 Clear 22 1014 88 10000 1 280 14:40 09.09.2019
2201 Clear 23 1013 83 10000 2.6 280 14:22 09.09.2019
2202 Clear 23 1013 83 10000 2.6 280 13:59 09.09.2019
2203 Clear 24 1013 83 10000 2.1 290 13:41 09.09.2019
2204 Clear 25 1013 78 10000 2.1 290 13:19 09.09.2019
2205 Clear 25 1013 78 10000 2.1 290 12:57 09.09.2019
2206 Clear 25 1012 78 10000 2.6 310 12:38 09.09.2019
2207 Clear 26 1012 74 10000 3.6 300 12:19 09.09.2019
2208 Clear 27 1011 74 10000 4.6 310 11:43 09.09.2019
2209 Clear 27 1011 65 10000 5.7 310 11:20 09.09.2019
2210 Clear 27 1011 65 10000 5.7 310 10:57 09.09.2019
2211 Clear 28 1011 58 10000 5.1 310 10:39 09.09.2019
2212 Clear 29 1011 58 10000 5.7 330 10:19 09.09.2019
2213 Clear 30 1011 48 10000 6.2 330 09:49 09.09.2019
2214 Clear 30 1011 48 10000 6.2 330 09:30 09.09.2019
2215 Clear 33 1011 5 10000 6.2 350 08:57 09.09.2019
2216 Clear 36 1011 5 10000 6.2 350 08:38 09.09.2019
2217 Clear 36 1011 6 10000 6.2 350 08:19 09.09.2019
2218 Clear 35 1011 6 10000 6.2 30 07:44 09.09.2019
2219 Clear 35 1012 7 10000 6.2 30 07:22 09.09.2019
2220 Clear 35 1012 7 10000 6.2 30 06:56 09.09.2019
2221 Clear 35 1012 7 10000 6.2 30 06:31 09.09.2019
2222 Clear 33 1015 25 10000 7.2 150 04:45 09.09.2019
2223 Clear 29 1016 54 10000 3.6 140 02:43 09.09.2019
2224 Clear 27 1017 73 10000 3.1 150 01:47 09.09.2019
2225 Clear 22 1016 94 10000 2.1 130 00:25 09.09.2019
2226 Clear 22 1016 94 10000 2.1 130 23:58 08.09.2019
2227 Clear 21 1016 94 10000 2.6 130 23:39 08.09.2019
2228 Clear 21 1015 94 10000 1.5 150 23:21 08.09.2019
2229 Clear 22 1015 94 10000 2.1 160 22:41 08.09.2019
2230 Clear 22 1015 94 10000 3.1 160 22:23 08.09.2019
2231 Clear 22 1015 94 10000 3.1 160 21:59 08.09.2019
2232 Clear 22 1015 88 10000 0.5 280 21:40 08.09.2019
2233 Clouds 21 1014 94 10000 2.18 318.29 21:22 08.09.2019
2234 Clouds 21 1014 94 10000 2.18 318.29 20:56 08.09.2019
2235 Clear 21 1014 88 10000 1.5 300 20:37 08.09.2019
2236 Clear 21 1014 88 10000 1.5 310 20:19 08.09.2019
2237 Clear 22 1014 88 10000 1.5 310 19:56 08.09.2019
2238 Clear 22 1015 83 10000 2.1 310 19:37 08.09.2019
2239 Clear 22 1015 88 10000 2.1 320 19:18 08.09.2019
2240 Clear 22 1015 88 10000 2.1 320 19:18 08.09.2019
2241 Clear 22 1015 88 10000 2.1 320 18:55 08.09.2019
2242 Clear 22 1015 88 10000 2.1 320 18:37 08.09.2019
2243 Clear 22 1015 83 10000 1 310 18:18 08.09.2019
2244 Clear 23 1015 83 10000 1 270 17:38 08.09.2019
2245 Clear 23 1016 78 10000 2.6 290 17:19 08.09.2019
2246 Clear 23 1016 78 10000 2.6 290 16:58 08.09.2019
2247 Clear 22 1016 83 10000 0.5 180 16:40 08.09.2019
2248 Clear 23 1015 78 10000 2.1 140 16:20 08.09.2019
2249 Clear 23 1015 78 10000 2.1 140 15:56 08.09.2019
2250 Clear 24 1015 78 10000 2.1 110 15:36 08.09.2019
2251 Clear 24 1015 73 10000 2.1 140 15:18 08.09.2019
2252 Clear 24 1014 69 10000 3.1 180 14:40 08.09.2019
2253 Clear 25 1014 69 10000 3.1 180 14:22 08.09.2019
2254 Clear 25 1014 50 10000 1.5 190 13:58 08.09.2019
2255 Clear 25 1014 42 10000 1.5 230 13:40 08.09.2019
2256 Clear 25 1014 42 10000 1.5 230 13:40 08.09.2019
2257 Clear 25 1013 42 10000 0.5 10 13:22 08.09.2019
2258 Clear 25 1013 42 10000 0.5 10 12:58 08.09.2019
2259 Clear 26 1013 39 10000 0.5 320 12:40 08.09.2019
2260 Clear 27 1013 37 10000 1.5 310 12:22 08.09.2019
2261 Clear 27 1013 37 10000 1.5 310 11:57 08.09.2019
2262 Clear 28 1012 33 10000 3.6 10 11:37 08.09.2019
2263 Clear 29 1012 29 10000 4.1 10 11:19 08.09.2019
2264 Clear 30 1012 33 10000 4.6 360 10:43 08.09.2019
2265 Clear 31 1012 33 10000 4.6 360 10:23 08.09.2019
2266 Clear 32 1012 29 10000 4.6 360 09:56 08.09.2019
2267 Clear 32 1012 40 10000 5.7 350 09:37 08.09.2019
2268 Clear 32 1012 45 10000 4.6 350 09:19 08.09.2019
2269 Clear 32 1012 52 10000 6.2 350 08:40 08.09.2019
2270 Clear 32 1012 52 10000 6.2 350 08:40 08.09.2019
2271 Rain 32 1013 48 10000 5.7 350 08:19 08.09.2019
2272 Clear 32 1013 48 10000 5.7 350 07:59 08.09.2019
2273 Clear 32 1013 48 10000 5.1 330 07:37 08.09.2019
2274 Clear 33 1013 48 10000 4.6 320 07:19 08.09.2019
2275 Clear 32 1014 48 10000 4.6 310 06:41 08.09.2019
2276 Clear 33 1015 26 10000 3.6 310 05:44 08.09.2019
2277 Clear 33 1015 26 10000 3.6 310 05:26 08.09.2019
2278 Clear 30 1017 51 10000 3.6 50 03:24 08.09.2019
2279 Clear 28 1018 61 10000 4.1 40 02:51 08.09.2019
2280 Clear 27 1017 65 10000 3.1 50 01:54 08.09.2019
2281 Clear 26 1017 69 10000 2.6 80 01:33 08.09.2019
2282 Clear 23 1017 83 10000 1 150 00:49 08.09.2019
2283 Clear 22 1017 83 10000 1 150 00:31 08.09.2019
2284 Clear 21 1017 83 10000 1.5 160 23:58 07.09.2019
2285 Clear 21 1016 83 9000 2.6 80 23:37 07.09.2019
2286 Clear 21 1016 78 8000 1.5 150 23:19 07.09.2019
2287 Smoke 21 1016 83 1600 2.1 130 22:44 07.09.2019
2288 Smoke 21 1016 83 1600 2.1 130 22:25 07.09.2019
2289 Smoke 22 1016 78 900 2.1 150 21:59 07.09.2019
2290 Clear 22 1015 78 5000 2.1 70 21:39 07.09.2019
2291 Clear 21 1015 88 10000 3.6 50 21:21 07.09.2019
2292 Clear 21 1015 83 10000 1.5 90 20:41 07.09.2019
2293 Clear 21 1015 83 10000 1.5 90 20:22 07.09.2019
2294 Clear 20 1015 83 10000 1.5 90 19:57 07.09.2019
2295 Clear 21 1015 83 10000 1 70 19:38 07.09.2019
2296 Clear 21 1016 78 10000 1.5 80 19:20 07.09.2019
2297 Clear 22 1016 78 10000 1.5 80 18:59 07.09.2019
2298 Clear 23 1016 78 10000 1.5 90 18:40 07.09.2019
2299 Clear 23 1016 78 10000 1.5 60 18:20 07.09.2019
2300 Clear 23 1016 78 10000 1.5 60 17:59 07.09.2019
2301 Clear 23 1016 78 10000 1.5 60 17:59 07.09.2019
2302 Clear 23 1016 73 10000 1 10 17:39 07.09.2019
2303 Clouds 24 1016 69 10000 1.5 10 17:18 07.09.2019
2304 Clouds 24 1016 69 10000 1.5 10 16:57 07.09.2019
2305 Clouds 24 1016 69 10000 1.5 10 16:57 07.09.2019
2306 Clouds 25 1016 65 10000 3.6 10 16:39 07.09.2019
2307 Clouds 25 1016 73 10000 4.1 350 16:19 07.09.2019
2308 Clouds 25 1016 73 10000 4.1 50 15:45 07.09.2019
2309 Clouds 24 1016 69 10000 3.6 70 15:26 07.09.2019
2310 Clouds 24 1016 69 10000 3.6 70 14:57 07.09.2019
2311 Clouds 24 1016 69 10000 3.6 70 14:57 07.09.2019
2312 Clear 24 1016 64 10000 2.6 80 14:37 07.09.2019
2313 Clear 24 1015 60 10000 1.5 70 14:18 07.09.2019
2314 Clear 24 1015 60 10000 1.5 70 13:56 07.09.2019
2315 Clear 25 1015 57 10000 1.5 20 13:38 07.09.2019
2316 Clear 25 1015 61 10000 1 20 13:20 07.09.2019
2317 Clear 25 1014 51 10000 1 340 12:44 07.09.2019
2318 Clear 26 1014 51 10000 2.6 10 12:24 07.09.2019
2319 Clear 27 1013 57 10000 3.6 350 11:42 07.09.2019
2320 Clear 27 1013 48 10000 3.6 350 11:22 07.09.2019
2321 Clear 27 1013 48 10000 3.6 350 10:59 07.09.2019
2322 Clouds 28 1012 45 10000 4.1 360 10:38 07.09.2019
2323 Clouds 29 1012 45 10000 5.7 360 10:19 07.09.2019
2324 Clouds 29 1012 45 10000 6.7 360 09:43 07.09.2019
2325 Clouds 29 1012 45 10000 6.7 360 09:24 07.09.2019
2326 Clouds 30 1012 51 10000 5.1 350 08:57 07.09.2019
2327 Clouds 30 1012 48 10000 6.2 350 08:57 07.09.2019
2328 Clouds 30 1012 51 10000 5.1 350 08:37 07.09.2019
2329 Clouds 30 1012 58 10000 6.2 340 08:19 07.09.2019
2330 Clouds 30 1013 55 10000 6.2 330 07:44 07.09.2019
2331 Clouds 30 1013 58 10000 5.7 320 07:24 07.09.2019
2332 Clouds 30 1014 54 10000 5.7 310 06:43 07.09.2019
2333 Clouds 31 1014 54 10000 4.6 300 06:19 07.09.2019
2334 Clouds 31 1016 45 10000 3.6 80 04:38 07.09.2019
2335 Clouds 30 1017 54 10000 2.6 40 03:49 07.09.2019
2336 Clouds 27 1017 61 10000 2.1 20 02:44 07.09.2019
2337 Clouds 25 1017 73 10000 3.1 50 01:44 07.09.2019
2338 Clouds 25 1016 78 10000 2.6 70 00:57 07.09.2019
2339 Clouds 24 1016 83 10000 0.5 50 00:38 07.09.2019
2340 Clouds 22 1016 88 10000 1 60 00:19 07.09.2019
2341 Clouds 22 1015 83 10000 1 80 23:39 06.09.2019
2342 Clouds 22 1015 78 10000 1.5 80 23:21 06.09.2019
2343 Clouds 23 1015 78 10000 1.5 80 22:57 06.09.2019
2344 Clouds 23 1015 78 10000 1.5 100 22:37 06.09.2019
2345 Clouds 24 1015 78 10000 1.5 120 22:19 06.09.2019
2346 Clouds 24 1015 78 10000 1.5 120 21:56 06.09.2019
2347 Clouds 24 1014 78 10000 1.5 130 21:38 06.09.2019
2348 Clouds 24 1014 78 10000 2.1 130 21:20 06.09.2019
2349 Clouds 24 1014 78 10000 2.1 130 20:56 06.09.2019
2350 Clouds 24 1014 78 10000 1 150 20:37 06.09.2019
2351 Clouds 24 1014 78 10000 1 150 20:37 06.09.2019
2352 Clouds 24 1014 73 10000 1 160 20:18 06.09.2019
2353 Clouds 24 1014 73 10000 1 160 20:18 06.09.2019
2354 Clouds 25 1015 73 10000 0.5 90 19:42 06.09.2019
2355 Clouds 25 1015 73 10000 1 120 19:24 06.09.2019
2356 Clouds 25 1015 78 10000 1.5 170 18:58 06.09.2019
2357 Clouds 25 1015 78 10000 1.5 170 18:40 06.09.2019
2358 Clouds 25 1015 78 10000 1.5 190 18:22 06.09.2019
2359 Clouds 25 1015 78 10000 2.6 220 17:56 06.09.2019
2360 Clouds 25 1015 78 10000 2.6 220 17:37 06.09.2019
2361 Clouds 25 1015 78 10000 2.6 230 17:18 06.09.2019
2362 Clouds 24 1015 78 10000 1.5 240 16:39 06.09.2019
2363 Clouds 24 1015 73 10000 2.1 240 16:18 06.09.2019
2364 Clouds 24 1015 65 10000 2.6 250 15:41 06.09.2019
2365 Clouds 24 1015 65 10000 2.6 250 15:23 06.09.2019
2366 Clear 23 1014 69 10000 4.86 273.29 14:48 06.09.2019
2367 Clear 24 1014 65 10000 4.86 273.29 14:20 06.09.2019
2368 Clear 25 1014 61 10000 0.5 310 13:55 06.09.2019
2369 Clear 25 1014 61 10000 0.5 310 13:37 06.09.2019
2370 Clear 26 1013 57 10000 1.5 320 13:18 06.09.2019
2371 Clear 26 1013 57 10000 2.1 340 12:38 06.09.2019
2372 Clear 26 1013 57 10000 2.6 340 12:18 06.09.2019
2373 Clear 26 1012 57 10000 3.6 350 11:43 06.09.2019
2374 Clear 27 1012 57 10000 3.6 350 11:24 06.09.2019
2375 Clear 27 1012 58 10000 5.1 360 10:59 06.09.2019
2376 Clear 28 1011 58 10000 5.1 10 10:40 06.09.2019
2377 Clouds 28 1011 54 10000 6.2 10 10:21 06.09.2019
2378 Clear 29 1011 54 10000 5.7 10 09:41 06.09.2019
2379 Clear 30 1011 51 10000 6.2 360 09:21 06.09.2019
2380 Clear 30 1011 51 10000 6.2 360 08:58 06.09.2019
2381 Clear 30 1011 58 10000 6.7 360 08:39 06.09.2019
2382 Clear 30 1011 58 10000 6.7 360 08:39 06.09.2019
2383 Clear 30 1011 58 10000 6.7 360 08:39 06.09.2019
2384 Clear 30 1011 51 10000 5.7 350 08:21 06.09.2019
2385 Clear 30 1012 51 10000 5.1 350 07:47 06.09.2019
2386 Clear 30 1012 51 10000 5.1 350 07:27 06.09.2019
2387 Clouds 29 1012 54 10000 4.6 310 06:57 06.09.2019
2388 Clouds 30 1013 51 10000 4.6 320 06:21 06.09.2019
2389 Clouds 32 1014 43 10000 4.6 330 05:43 06.09.2019
2390 Clouds 31 1015 48 10000 3.1 30 04:48 06.09.2019
2391 Clouds 30 1015 51 10000 3.6 60 03:52 06.09.2019
2392 Clouds 26 1015 61 10000 2.6 50 02:23 06.09.2019
2393 Clouds 24 1015 78 10000 2.6 100 00:44 06.09.2019
2394 Fog 22 1014 88 10000 2.1 90 23:55 05.09.2019
2395 Fog 22 1014 88 10000 2.1 90 23:37 05.09.2019
2396 Clouds 21 1014 88 10000 1.5 90 23:18 05.09.2019
2397 Clouds 20 1014 88 10000 1 130 22:42 05.09.2019
2398 Rain 20 1013 83 10000 1.5 110 22:24 05.09.2019
2399 Clear 21 1013 83 10000 1.5 110 21:56 05.09.2019
2400 Clouds 22 1013 78 10000 1.5 100 21:38 05.09.2019
2401 Clouds 21 1013 78 10000 1.5 90 21:19 05.09.2019
2402 Clouds 21 1013 78 10000 1.5 90 20:57 05.09.2019
2403 Clouds 21 1013 78 10000 1 100 20:37 05.09.2019
2404 Clouds 22 1013 73 10000 1 100 20:19 05.09.2019
2405 Clouds 22 1013 78 10000 1 80 19:55 05.09.2019
2406 Clouds 22 1013 78 10000 1 80 19:37 05.09.2019
2407 Clouds 22 1014 73 10000 1.5 70 19:18 05.09.2019
2408 Clouds 22 1014 73 10000 1.5 70 19:18 05.09.2019
2409 Clouds 22 1013 73 10000 1 170 18:40 05.09.2019
2410 Clear 22 1013 68 10000 1 200 18:20 05.09.2019
2411 Clear 22 1014 73 10000 1 110 17:56 05.09.2019
2412 Clear 22 1014 73 10000 1 110 17:38 05.09.2019
2413 Clear 22 1014 73 10000 1 100 17:20 05.09.2019
2414 Clear 22 1014 69 10000 0.5 110 16:41 05.09.2019
2415 Clear 23 1014 69 10000 2.1 90 16:21 05.09.2019
2416 Clear 23 1014 69 10000 2.1 90 15:58 05.09.2019
2417 Clear 22 1014 68 10000 1.87 155.015 15:39 05.09.2019
2418 Clear 22 1013 64 10000 2.1 190 15:19 05.09.2019
2419 Clear 22 1013 64 10000 2.1 190 14:54 05.09.2019
2420 Clear 24 1014 60 10000 2.6 210 14:36 05.09.2019
2421 Clear 24 1013 57 10000 1.5 230 14:18 05.09.2019
2422 Clear 25 1013 50 10000 1.5 240 13:41 05.09.2019
2423 Clear 26 1013 47 10000 1.5 270 13:18 05.09.2019
2424 Clear 25 1012 44 10000 1.5 300 12:42 05.09.2019
2425 Clear 25 1012 42 10000 2.1 340 12:24 05.09.2019
2426 Clear 26 1012 44 10000 3.6 340 11:56 05.09.2019
2427 Clear 26 1012 44 10000 3.6 340 11:36 05.09.2019
2428 Clear 27 1011 42 10000 3.6 330 11:18 05.09.2019
2429 Clouds 28 1011 45 10000 5.1 330 10:37 05.09.2019
2430 Clouds 28 1011 45 10000 5.1 330 10:37 05.09.2019
2431 Clouds 28 1011 45 10000 4.6 350 10:19 05.09.2019
2432 Clouds 29 1011 42 10000 4.6 350 09:41 05.09.2019
2433 Clouds 29 1011 45 10000 5.1 360 09:22 05.09.2019
2434 Clouds 29 1011 45 10000 5.1 360 08:57 05.09.2019
2435 Clouds 29 1011 48 10000 4.1 360 08:39 05.09.2019
2436 Clouds 29 1011 48 10000 5.7 360 08:21 05.09.2019
2437 Clouds 30 1012 48 10000 5.7 360 07:44 05.09.2019
2438 Clouds 29 1012 48 10000 5.7 360 07:25 05.09.2019
2439 Clouds 29 1013 48 10000 5.1 320 06:48 05.09.2019
2440 Clouds 29 1013 48 10000 5.1 320 06:28 05.09.2019
2441 Clouds 30 1013 51 10000 5.1 300 05:47 05.09.2019
2442 Clouds 30 1013 51 10000 5.1 300 05:28 05.09.2019
2443 Clouds 30 1014 42 10000 4.1 260 04:41 05.09.2019
2444 Clear 31 1015 45 10000 4.1 350 04:18 05.09.2019
2445 Clouds 28 1015 48 10000 5.1 350 03:22 05.09.2019
2446 Clouds 27 1015 54 10000 4.1 50 02:40 05.09.2019
2447 Clouds 26 1016 57 10000 1 130 02:18 05.09.2019
2448 Clouds 25 1016 69 10000 1.5 130 00:58 05.09.2019
2449 Clouds 22 1015 83 10000 0.5 120 00:40 05.09.2019
2450 Clouds 20 1015 88 10000 0.5 100 00:19 05.09.2019
2451 Clouds 21 1015 88 10000 1 120 23:42 04.09.2019
2452 Clouds 20 1015 88 10000 1 120 23:23 04.09.2019
2453 Clouds 20 1014 88 10000 0.5 110 22:49 04.09.2019
2454 Clear 20 1014 88 10000 1.97 59.731 22:21 04.09.2019
2455 Clear 22 1014 88 10000 1.97 59.731 21:58 04.09.2019
2456 Clear 22 1014 78 10000 1 180 21:39 04.09.2019
2457 Clouds 22 1013 78 10000 1.5 180 21:19 04.09.2019
2458 Clouds 23 1013 78 10000 1.5 180 20:55 04.09.2019
2459 Clouds 23 1013 78 10000 2.1 230 20:37 04.09.2019
2460 Clouds 23 1014 78 10000 1.5 360 20:18 04.09.2019
2461 Clouds 23 1014 78 10000 1.5 360 20:18 04.09.2019
2462 Clouds 24 1014 78 10000 1 350 19:43 04.09.2019
2463 Clouds 24 1014 78 10000 2.6 290 19:23 04.09.2019
2464 Clouds 24 1014 73 10000 3.1 290 18:55 04.09.2019
2465 Clouds 24 1014 73 10000 3.1 290 18:36 04.09.2019
2466 Clouds 25 1014 69 10000 3.1 290 18:18 04.09.2019
2467 Clouds 25 1014 69 10000 3.6 290 17:41 04.09.2019
2468 Clouds 25 1014 73 10000 4.6 300 17:22 04.09.2019
2469 Clouds 24 1014 73 10000 4.6 300 16:57 04.09.2019
2470 Clouds 25 1014 73 10000 4.6 320 16:38 04.09.2019
2471 Clouds 25 1014 73 10000 4.6 310 16:19 04.09.2019
2472 Clouds 25 1015 73 10000 5.1 320 15:41 04.09.2019
2473 Clouds 25 1014 64 10000 2.6 30 15:22 04.09.2019
2474 Clouds 24 1014 64 10000 2.6 30 14:58 04.09.2019
2475 Clouds 24 1014 60 10000 2.6 80 14:39 04.09.2019
2476 Clouds 24 1014 60 10000 2.6 80 14:39 04.09.2019
2477 Clear 24 1014 60 10000 1.5 60 14:21 04.09.2019
2478 Clear 24 1014 60 10000 1.5 60 13:59 04.09.2019
2479 Clear 25 1014 57 10000 1 60 13:39 04.09.2019
2480 Clear 25 1013 57 10000 1 90 13:21 04.09.2019
2481 Clear 25 1012 50 10000 3.1 30 12:44 04.09.2019
2482 Clear 25 1012 50 10000 3.1 30 12:26 04.09.2019
2483 Clear 26 1011 44 10000 5.1 20 11:58 04.09.2019
2484 Clear 26 1011 44 10000 5.1 20 11:39 04.09.2019
2485 Clear 27 1011 39 10000 5.1 10 11:20 04.09.2019
2486 Clear 28 1011 39 10000 5.1 10 10:56 04.09.2019
2487 Clear 29 1011 37 10000 5.7 10 10:38 04.09.2019
2488 Clear 30 1011 37 10000 5.7 10 10:19 04.09.2019
2489 Clear 30 1011 37 10000 6.2 20 09:45 04.09.2019
2490 Clear 30 1011 37 10000 7.2 10 09:21 04.09.2019
2491 Clear 30 1011 40 10000 6.7 360 08:43 04.09.2019
2492 Clear 30 1011 40 10000 6.7 360 08:24 04.09.2019
2493 Clear 30 1011 40 10000 6.2 350 07:59 04.09.2019
2494 Clear 31 1011 38 10000 6.7 340 07:36 04.09.2019
2495 Clear 31 1012 42 10000 5.7 320 06:58 04.09.2019
2496 Clear 30 1012 42 10000 5.7 320 06:38 04.09.2019
2497 Clear 31 1015 37 10000 4.6 60 04:55 04.09.2019
2498 Clear 32 1015 37 10000 5.7 70 04:22 04.09.2019
2499 Clear 27 1016 54 10000 2.6 80 02:50 04.09.2019
2500 Clear 25 1016 64 9000 2.6 60 01:20 04.09.2019
2501 Clouds 24 1015 69 8000 1 150 00:45 04.09.2019
2502 Smoke 22 1015 73 3000 1 100 00:27 04.09.2019
2503 Smoke 21 1015 77 1000 1 100 23:51 03.09.2019
2504 Smoke 21 1015 77 1000 1 100 23:27 03.09.2019
2505 Clear 21 1014 88 10000 1.5 90 22:43 03.09.2019
2506 Clouds 21 1014 94 4600 4.02 99.056 22:24 03.09.2019
2507 Clouds 21 1014 94 4600 3.34 105.431 21:59 03.09.2019
2508 Clouds 22 1014 94 5000 3.34 105.431 21:38 03.09.2019
2509 Clouds 21 1014 94 6000 3.55 126.28 21:20 03.09.2019
2510 Clouds 22 1014 94 6000 3.55 126.28 20:59 03.09.2019
2511 Clouds 22 1014 88 10000 3.55 126.28 20:40 03.09.2019
2512 Clouds 22 1014 88 10000 3.55 126.28 20:21 03.09.2019
2513 Clouds 22 1014 88 10000 3.55 126.28 19:55 03.09.2019
2514 Clouds 22 1014 88 10000 3.55 126.28 19:36 03.09.2019
2515 Clouds 22 1014 83 10000 3.55 126.28 19:18 03.09.2019
2516 Clouds 24 1014 78 10000 3.55 126.28 18:42 03.09.2019
2517 Clouds 25 1014 73 10000 1.66 194.078 18:24 03.09.2019
2518 Clouds 24 1014 69 10000 3.1 320 17:56 03.09.2019
2519 Clouds 25 1014 69 10000 3.1 320 17:38 03.09.2019
2520 Clouds 25 1015 73 10000 2.1 340 17:19 03.09.2019
2521 Clouds 24 1015 78 10000 1.5 360 16:43 03.09.2019
2522 Clouds 24 1015 78 10000 1.5 10 16:23 03.09.2019
2523 Clouds 23 1015 78 10000 1.5 10 15:58 03.09.2019
2524 Clouds 23 1015 73 10000 0.5 70 15:38 03.09.2019
2525 Clouds 23 1014 73 10000 3.82 225.254 15:20 03.09.2019
2526 Clouds 23 1014 73 10000 3.82 225.254 14:56 03.09.2019
2527 Clear 24 1014 69 10000 1 80 14:37 03.09.2019
2528 Clear 24 1014 65 10000 2.6 80 14:19 03.09.2019
2529 Clear 24 1014 61 10000 1.5 90 13:56 03.09.2019
2530 Clear 25 1014 61 10000 1.5 90 13:37 03.09.2019
2531 Clear 25 1013 57 10000 3.1 50 13:19 03.09.2019
2532 Clear 25 1013 47 10000 3.1 60 12:48 03.09.2019
2533 Clear 26 1013 47 10000 3.1 60 12:29 03.09.2019
2534 Clear 26 1012 44 10000 5.1 20 11:44 03.09.2019
2535 Clear 27 1012 44 10000 5.1 20 11:26 03.09.2019
2536 Clear 28 1011 42 10000 5.7 10 10:59 03.09.2019
2537 Clear 28 1011 42 10000 6.7 10 10:40 03.09.2019
2538 Clear 28 1010 39 10000 6.7 20 10:22 03.09.2019
2539 Clear 28 1010 39 10000 6.7 20 10:22 03.09.2019
2540 Clear 29 1010 39 10000 6.7 20 09:53 03.09.2019
2541 Clear 29 1010 39 10000 6.7 30 09:33 03.09.2019
2542 Clear 29 1011 42 10000 5.7 10 08:58 03.09.2019
2543 Clouds 29 1011 42 10000 6.7 360 08:39 03.09.2019
2544 Clouds 30 1011 40 10000 6.2 350 08:20 03.09.2019
2545 Clouds 30 1011 42 10000 6.2 350 07:43 03.09.2019
2546 Clear 30 1012 48 10000 6.7 350 07:24 03.09.2019
2547 Dust 30 1012 45 10000 5.7 330 06:55 03.09.2019
2548 Dust 31 1012 45 10000 5.7 330 06:37 03.09.2019
2549 Clouds 30 1015 51 10000 3.6 90 03:44 03.09.2019
2550 Clouds 27 1016 57 10000 2.6 50 02:52 03.09.2019
2551 Clouds 27 1016 57 10000 2.6 50 02:32 03.09.2019
2552 Clouds 27 1016 61 10000 2.1 50 01:59 03.09.2019
2553 Clouds 27 1015 61 10000 1.5 90 01:41 03.09.2019
2554 Clouds 26 1015 69 10000 1.5 110 01:22 03.09.2019
2555 Clouds 22 1015 78 10000 1 140 00:31 03.09.2019
2556 Clouds 21 1014 77 10000 1.5 100 23:57 02.09.2019
2557 Clouds 21 1014 82 10000 1.5 120 23:57 02.09.2019
2558 Clouds 20 1014 82 10000 1.5 120 23:36 02.09.2019
2559 Clouds 20 1014 77 10000 1.5 140 23:18 02.09.2019
2560 Clouds 20 1014 77 10000 1.5 140 23:18 02.09.2019
2561 Clouds 21 1014 73 10000 1 150 22:55 02.09.2019
2562 Clouds 21 1014 73 10000 1 150 22:36 02.09.2019
2563 Clear 21 1014 83 10000 1.5 120 22:18 02.09.2019
2564 Clear 21 1014 83 10000 1.5 120 21:55 02.09.2019
2565 Clear 21 1014 83 10000 2.1 130 21:37 02.09.2019
2566 Clouds 22 1014 78 10000 1 120 21:18 02.09.2019
2567 Clouds 21 1014 83 10000 2.1 110 20:42 02.09.2019
2568 Clouds 21 1014 83 10000 2.1 110 20:42 02.09.2019
2569 Clouds 21 1014 83 10000 1 150 20:23 02.09.2019
2570 Clouds 21 1014 83 10000 1 150 19:59 02.09.2019
2571 Clouds 22 1014 83 10000 2.1 160 19:40 02.09.2019
2572 Clouds 22 1014 83 10000 1.5 150 19:22 02.09.2019
2573 Clouds 22 1014 78 10000 1.5 170 18:57 02.09.2019
2574 Clouds 23 1014 78 10000 1.5 170 18:37 02.09.2019
2575 Clouds 23 1014 73 10000 2.1 180 18:18 02.09.2019
2576 Clouds 23 1014 78 10000 2.1 200 17:40 02.09.2019
2577 Clear 23 1015 73 10000 2.1 260 17:21 02.09.2019
2578 Clear 23 1015 73 10000 2.1 260 16:59 02.09.2019
2579 Clear 23 1015 73 10000 2.1 260 16:59 02.09.2019
2580 Clear 23 1015 78 10000 1.5 270 16:39 02.09.2019
2581 Clear 23 1015 78 10000 1.5 270 16:39 02.09.2019
2582 Clear 23 1015 64 10000 2.6 290 16:20 02.09.2019
2583 Clear 23 1015 68 10000 1 350 15:46 02.09.2019
2584 Clear 22 1015 68 10000 1 350 15:27 02.09.2019
2585 Clear 23 1014 64 10000 0.8 167.835 14:58 02.09.2019
2586 Clear 23 1014 60 10000 0.8 167.835 14:40 02.09.2019
2587 Clear 24 1014 60 10000 1.5 110 14:22 02.09.2019
2588 Clear 24 1014 60 10000 1.5 110 13:56 02.09.2019
2589 Clear 25 1014 53 10000 2.1 90 13:37 02.09.2019
2590 Clear 25 1014 53 10000 2.1 80 13:19 02.09.2019
2591 Clear 25 1013 50 10000 5.1 40 12:45 02.09.2019
2592 Clear 26 1012 44 10000 4.1 40 12:25 02.09.2019
2593 Clear 26 1012 44 10000 4.1 40 11:59 02.09.2019
2594 Clear 27 1012 39 10000 6.2 30 11:39 02.09.2019
2595 Clear 28 1012 42 10000 6.7 30 11:21 02.09.2019
2596 Clear 28 1012 42 10000 6.7 30 10:57 02.09.2019
2597 Clear 29 1011 37 10000 5.1 10 10:38 02.09.2019
2598 Clear 30 1011 35 10000 5.1 340 10:19 02.09.2019
2599 Clear 30 1011 33 10000 6.2 350 09:46 02.09.2019
2600 Clear 30 1011 33 10000 6.2 350 09:22 02.09.2019
2601 Clear 30 1011 35 10000 7.2 340 08:58 02.09.2019
2602 Clear 30 1011 29 10000 6.7 350 08:38 02.09.2019
2603 Clear 31 1012 35 10000 5.7 330 08:18 02.09.2019
2604 Clear 31 1012 33 10000 5.7 330 07:40 02.09.2019
2605 Dust 31 1012 40 10000 6.7 290 07:21 02.09.2019
2606 Clear 32 1013 21 10000 2.6 350 06:45 02.09.2019
2607 Clear 32 1013 22 10000 6.2 300 06:25 02.09.2019
2608 Dust 31 1014 27 10000 5.1 90 05:48 02.09.2019
2609 Clear 31 1014 29 10000 5.1 50 05:18 02.09.2019
2610 Clear 31 1015 33 10000 4.6 70 04:18 02.09.2019
2611 Clouds 26 1016 73 10000 1.5 150 01:45 02.09.2019
2612 Clouds 22 1016 83 10000 1.5 130 00:48 02.09.2019
2613 Clouds 21 1016 83 10000 1.5 130 00:30 02.09.2019
2614 Fog 20 1015 88 10000 1 150 23:44 01.09.2019
2615 Fog 20 1015 88 10000 1 140 23:22 01.09.2019
2616 Fog 20 1015 88 10000 1 140 22:59 01.09.2019
2617 Clear 20 1014 88 10000 1.5 140 22:39 01.09.2019
2618 Clouds 20 1014 88 10000 2.1 150 22:19 01.09.2019
2619 Clouds 20 1014 88 10000 2.1 150 21:57 01.09.2019
2620 Clouds 20 1014 94 10000 1.5 140 21:38 01.09.2019
2621 Clear 19 1014 88 10000 2.1 150 21:20 01.09.2019
2622 Clear 20 1014 88 10000 2.1 150 20:56 01.09.2019
2623 Clear 20 1014 88 10000 2.1 160 20:38 01.09.2019
2624 Clear 20 1014 83 10000 2.1 170 20:18 01.09.2019
2625 Clear 20 1014 83 10000 2.1 190 19:56 01.09.2019
2626 Clear 20 1014 83 10000 2.1 190 19:37 01.09.2019
2627 Clear 20 1014 83 10000 2.1 190 19:18 01.09.2019
2628 Clear 20 1015 88 10000 2.23 79.134 18:43 01.09.2019
2629 Clear 21 1015 83 10000 3.14 335.789 18:25 01.09.2019
2630 Clear 21 1015 83 10000 1 150 17:55 01.09.2019
2631 Clear 21 1015 83 10000 1 150 17:37 01.09.2019
2632 Clear 21 1015 83 10000 1.5 100 17:18 01.09.2019
2633 Clear 21 1015 83 10000 2.1 50 16:39 01.09.2019
2634 Clear 21 1015 83 10000 1 110 16:19 01.09.2019
2635 Clear 21 1015 78 10000 1.5 160 15:48 01.09.2019
2636 Clear 22 1015 78 10000 1.5 160 15:29 01.09.2019
2637 Clear 23 1015 78 10000 1.5 200 14:59 01.09.2019
2638 Clear 23 1014 69 10000 1.5 210 14:40 01.09.2019
2639 Clear 24 1014 69 10000 3.1 230 14:20 01.09.2019
2640 Clear 23 1014 69 10000 3.1 230 13:54 01.09.2019
2641 Clear 24 1014 61 10000 3.1 240 13:36 01.09.2019
2642 Clear 24 1013 61 10000 2.6 260 13:18 01.09.2019
2643 Clear 25 1013 53 10000 3.1 270 12:40 01.09.2019
2644 Clear 25 1012 50 10000 3.1 290 12:21 01.09.2019
2645 Clear 25 1012 47 10000 3.6 280 11:41 01.09.2019
2646 Clear 26 1012 42 10000 4.6 300 11:20 01.09.2019
2647 Clear 27 1012 42 10000 4.6 300 10:58 01.09.2019
2648 Clear 28 1012 37 10000 4.1 310 10:40 01.09.2019
2649 Clear 28 1012 39 10000 4.1 310 10:21 01.09.2019
2650 Clear 29 1012 39 10000 4.6 330 09:43 01.09.2019
2651 Clear 29 1012 39 10000 4.6 330 09:25 01.09.2019
2652 Clear 30 1011 35 10000 5.7 340 08:44 01.09.2019
2653 Clear 30 1012 37 10000 5.1 350 08:24 01.09.2019
2654 Clear 31 1012 37 10000 5.1 340 07:51 01.09.2019
2655 Clear 31 1012 37 10000 5.1 340 07:51 01.09.2019
2656 Clear 31 1012 37 10000 5.1 340 07:33 01.09.2019
2657 Clear 31 1013 42 10000 6.2 310 06:47 01.09.2019
2658 Clear 31 1014 45 10000 5.7 310 06:26 01.09.2019
2659 Clear 31 1014 29 10000 3.6 300 05:55 01.09.2019
2660 Clear 31 1015 28 10000 6.2 300 04:31 01.09.2019
2661 Clear 30 1016 45 10000 6.2 300 03:42 01.09.2019
2662 Clear 28 1016 45 10000 4.1 50 02:57 01.09.2019
2663 Clear 26 1016 57 10000 3.1 50 02:26 01.09.2019
2664 Clear 25 1016 73 10000 1.5 70 01:50 01.09.2019
2665 Clear 25 1016 73 10000 1.5 70 01:50 01.09.2019
2666 Clear 23 1016 88 10000 1.5 90 01:23 01.09.2019
2667 Clear 20 1015 88 10000 1.5 90 00:45 01.09.2019
2668 Fog 19 1015 93 10000 1 60 00:22 01.09.2019
2669 Fog 18 1014 93 10000 1.5 50 23:54 31.08.2019
2670 Fog 18 1014 93 10000 1.5 50 23:36 31.08.2019
2671 Clear 18 1014 93 10000 1.5 80 23:18 31.08.2019
2672 Clear 18 1014 93 10000 1.5 80 23:18 31.08.2019
2673 Clear 18 1014 93 10000 1 70 22:42 31.08.2019
2674 Clouds 18 1014 93 10000 1 60 22:24 31.08.2019
2675 Clouds 18 1014 93 10000 1 60 21:56 31.08.2019
2676 Clouds 19 1013 88 10000 1 70 21:37 31.08.2019
2677 Clouds 18 1013 88 10000 2.1 80 21:19 31.08.2019
2678 Clouds 18 1013 88 10000 1 70 20:47 31.08.2019
2679 Clouds 18 1013 88 10000 1 70 20:28 31.08.2019
2680 Clouds 19 1013 82 10000 1 70 19:56 31.08.2019
2681 Clouds 19 1013 82 10000 0.5 60 19:38 31.08.2019
2682 Clouds 19 1013 82 10000 0.5 60 19:20 31.08.2019
2683 Clouds 19 1014 77 10000 1 90 18:40 31.08.2019
2684 Clouds 19 1014 77 10000 1.5 50 18:20 31.08.2019
2685 Clouds 19 1014 77 10000 1.5 60 17:56 31.08.2019
2686 Clouds 19 1014 77 10000 1.5 60 17:37 31.08.2019
2687 Clear 19 1014 77 10000 1.5 70 17:18 31.08.2019
2688 Clear 19 1014 77 10000 1.5 70 16:57 31.08.2019
2689 Clear 19 1014 77 10000 1 30 16:39 31.08.2019
2690 Clear 20 1013 72 10000 1 50 16:20 31.08.2019
2691 Clear 20 1013 72 10000 1 50 15:55 31.08.2019
2692 Clear 20 1013 72 10000 1.5 30 15:36 31.08.2019
2693 Clear 21 1013 68 10000 1.5 190 15:18 31.08.2019
2694 Clear 22 1013 60 10000 1.5 200 14:41 31.08.2019
2695 Clear 22 1013 60 10000 1.5 200 14:41 31.08.2019
2696 Clear 23 1013 57 10000 2.6 230 14:22 31.08.2019
2697 Clear 23 1012 50 10000 2.6 240 13:41 31.08.2019
2698 Clear 23 1012 50 10000 2.6 260 13:23 31.08.2019
2699 Clear 23 1012 50 10000 2.6 260 12:59 31.08.2019
2700 Clear 24 1012 53 10000 2.6 270 12:39 31.08.2019
2701 Clear 25 1011 44 10000 2.6 290 12:20 31.08.2019
2702 Clear 25 1011 44 10000 2.6 290 12:20 31.08.2019
2703 Clear 25 1011 44 10000 3.6 310 11:55 31.08.2019
2704 Clear 25 1011 44 10000 3.6 310 11:36 31.08.2019
2705 Clear 26 1010 42 10000 4.6 310 11:18 31.08.2019
2706 Clear 26 1010 42 10000 4.6 310 11:18 31.08.2019
2707 Clear 27 1010 42 10000 5.1 310 10:42 31.08.2019
2708 Clear 28 1010 42 10000 5.1 310 10:19 31.08.2019
2709 Clear 28 1010 42 10000 5.1 310 09:57 31.08.2019
2710 Clear 28 1010 42 10000 5.1 310 09:38 31.08.2019
2711 Clear 29 1010 37 10000 5.7 300 09:19 31.08.2019
2712 Clear 29 1010 33 10000 5.7 310 08:43 31.08.2019
2713 Clear 30 1010 28 10000 4.6 320 08:23 31.08.2019
2714 Clear 31 1011 29 10000 4.6 320 07:41 31.08.2019
2715 Clear 31 1011 28 10000 4.6 320 07:22 31.08.2019
2716 Clear 30 1012 32 10000 5.1 300 06:44 31.08.2019
2717 Clear 30 1012 35 10000 3.6 260 06:20 31.08.2019
2718 Clear 30 1013 37 10000 4.1 260 05:34 31.08.2019
2719 Clear 31 1014 25 10000 2.1 10 04:36 31.08.2019
2720 Clear 29 1015 42 10000 1.5 10 03:50 31.08.2019
2721 Clear 26 1015 50 10000 2.6 80 02:50 31.08.2019
2722 Clear 25 1015 50 10000 2.6 90 01:56 31.08.2019
2723 Clear 24 1015 50 10000 2.6 90 01:36 31.08.2019
2724 Clear 23 1015 60 10000 1.5 110 01:18 31.08.2019
2725 Clear 19 1015 72 10000 2.6 110 00:41 31.08.2019
2726 Clear 18 1015 72 10000 2.6 110 00:23 31.08.2019
2727 Clear 17 1014 82 10000 1.5 130 23:40 30.08.2019
2728 Clear 16 1014 82 10000 1.5 90 23:18 30.08.2019
2729 Clear 16 1014 82 10000 1.5 80 22:43 30.08.2019
2730 Clouds 17 1013 72 10000 1 50 22:25 30.08.2019
2731 Clouds 17 1013 72 10000 1 50 21:59 30.08.2019
2732 Clouds 17 1013 77 10000 1.5 50 21:38 30.08.2019
2733 Clouds 17 1013 82 10000 2.1 80 21:20 30.08.2019
2734 Clouds 17 1013 82 10000 2.1 80 21:20 30.08.2019
2735 Clouds 16 1013 82 10000 2.1 80 20:59 30.08.2019
2736 Clouds 16 1013 82 10000 2.1 60 20:41 30.08.2019
2737 Clouds 16 1013 82 10000 1 110 20:20 30.08.2019
2738 Clouds 16 1013 82 10000 1 110 19:59 30.08.2019
2739 Clouds 17 1013 82 10000 1 80 19:39 30.08.2019
2740 Clouds 17 1013 82 10000 1 80 19:19 30.08.2019
2741 Clouds 17 1013 77 10000 1.45 69.509 18:55 30.08.2019
2742 Clouds 17 1013 77 10000 1.45 69.509 18:37 30.08.2019
2743 Clouds 18 1013 72 10000 1.5 340 18:18 30.08.2019
2744 Clouds 19 1013 64 10000 2.6 200 17:55 30.08.2019
2745 Clouds 19 1013 64 10000 2.6 200 17:55 30.08.2019
2746 Clouds 20 1013 64 10000 2.6 200 17:37 30.08.2019
2747 Clear 20 1013 64 10000 2.6 190 17:18 30.08.2019
2748 Clear 18 1013 68 10000 1.5 180 16:43 30.08.2019
2749 Clear 18 1013 68 10000 0.5 190 16:22 30.08.2019
2750 Clear 18 1013 63 10000 0.5 210 15:45 30.08.2019
2751 Clear 18 1013 63 10000 0.5 210 15:45 30.08.2019
2752 Clear 18 1013 63 10000 0.5 210 15:24 30.08.2019
2753 Clear 19 1013 55 10000 1 200 14:58 30.08.2019
2754 Clear 19 1013 59 10000 1 220 14:40 30.08.2019
2755 Clear 20 1013 52 10000 1 260 14:22 30.08.2019
2756 Clear 21 1013 49 10000 1 310 13:43 30.08.2019
2757 Clear 21 1013 43 10000 1 290 13:23 30.08.2019
2758 Clear 22 1012 43 10000 1 350 12:58 30.08.2019
2759 Clear 23 1012 43 10000 1 350 12:39 30.08.2019
2760 Clear 23 1012 36 10000 2.6 360 12:21 30.08.2019
2761 Clear 23 1012 36 10000 2.6 360 12:21 30.08.2019
2762 Clear 24 1011 29 10000 3.1 340 11:41 30.08.2019
2763 Clear 25 1011 26 10000 4.1 350 11:23 30.08.2019
2764 Clear 27 1011 21 10000 4.1 360 10:42 30.08.2019
2765 Clear 27 1011 21 10000 4.1 360 10:23 30.08.2019
2766 Clear 28 1011 21 10000 4.6 360 09:58 30.08.2019
2767 Smoke 28 1011 23 10000 5.1 360 09:40 30.08.2019
2768 Clear 29 1011 20 10000 5.1 350 09:19 30.08.2019
2769 Clear 29 1011 20 10000 5.1 350 08:54 30.08.2019
2770 Clear 29 1011 16 10000 4.6 330 08:54 30.08.2019
2771 Clear 29 1011 16 10000 4.6 330 08:36 30.08.2019
2772 Clear 30 1011 12 10000 5.7 320 08:18 30.08.2019
2773 Clear 31 1012 3 10000 1.5 350 07:39 30.08.2019
2774 Clear 31 1012 4 10000 3.1 140 07:21 30.08.2019
2775 Clear 31 1013 4 10000 1.5 150 06:45 30.08.2019
2776 Clear 30 1013 4 10000 3.6 120 06:27 30.08.2019
2777 Clear 30 1014 6 10000 4.1 100 05:43 30.08.2019
2778 Clear 28 1015 6 10000 7.2 100 03:59 30.08.2019
2779 Clear 28 1016 10 10000 6.2 100 03:38 30.08.2019
2780 Clouds 26 1016 41 10000 4.6 90 02:55 30.08.2019
2781 Clear 25 1016 29 10000 4.6 80 02:26 30.08.2019
2782 Clear 22 1015 30 10000 3.6 120 01:28 30.08.2019
2783 Clear 19 1014 24 10000 4.6 100 00:29 30.08.2019
2784 Clear 19 1014 24 10000 4.6 100 23:59 29.08.2019
2785 Clear 19 1014 16 10000 4.1 100 23:40 29.08.2019
2786 Clear 19 1014 25 10000 4.1 110 23:20 29.08.2019
2787 Clear 18 1014 55 10000 3.1 110 22:43 29.08.2019
2788 Clear 18 1014 55 10000 3.1 110 22:25 29.08.2019
2789 Clouds 16 1014 77 10000 2.1 140 21:56 29.08.2019
2790 Clouds 16 1014 77 10000 2.1 140 21:38 29.08.2019
2791 Clouds 16 1014 77 10000 2.1 130 21:20 29.08.2019
2792 Clouds 17 1014 82 10000 2.1 150 20:43 29.08.2019
2793 Clouds 17 1014 82 10000 2.1 150 20:20 29.08.2019
2794 Clouds 17 1014 72 10000 2.1 150 19:59 29.08.2019
2795 Clouds 18 1014 72 10000 2.1 170 19:40 29.08.2019
2796 Clouds 19 1014 72 10000 2.1 170 19:21 29.08.2019
2797 Clouds 19 1015 68 10000 2.6 190 18:44 29.08.2019
2798 Clouds 19 1015 68 10000 2.6 190 18:21 29.08.2019
2799 Clouds 19 1015 68 10000 2.6 190 18:21 29.08.2019
2800 Clouds 19 1015 68 10000 2.6 200 17:57 29.08.2019
2801 Clouds 19 1015 68 10000 2.6 220 17:39 29.08.2019
2802 Clouds 20 1015 68 10000 2.6 220 17:19 29.08.2019
2803 Clouds 20 1015 68 10000 2.6 220 17:19 29.08.2019
2804 Clear 19 1015 68 10000 2.6 220 16:57 29.08.2019
2805 Clouds 18 1016 73 0 5.01 181.557 16:39 29.08.2019
2806 Clear 19 1015 56 10000 2.6 220 16:21 29.08.2019
2807 Clear 20 1015 56 10000 2.6 220 15:39 29.08.2019
2808 Clear 20 1015 64 10000 2.1 210 15:21 29.08.2019
2809 Clear 21 1015 53 10000 2.1 210 14:50 29.08.2019
2810 Clear 22 1015 53 10000 2.1 210 14:26 29.08.2019
2811 Clear 21 1014 56 10000 1.5 240 13:59 29.08.2019
2812 Clear 21 1014 47 10000 2.6 260 13:41 29.08.2019
2813 Clear 22 1014 50 10000 2.1 280 13:21 29.08.2019
2814 Clear 22 1014 50 10000 2.1 280 12:59 29.08.2019
2815 Clear 23 1014 44 10000 2.1 290 12:41 29.08.2019
2816 Clear 25 1013 41 10000 2.6 300 12:22 29.08.2019
2817 Clear 24 1013 41 10000 2.6 300 11:59 29.08.2019
2818 Clear 25 1013 36 10000 3.1 330 11:40 29.08.2019
2819 Clear 26 1012 34 10000 4.6 20 11:20 29.08.2019
2820 Clear 26 1012 34 10000 4.6 20 11:20 29.08.2019
2821 Clear 27 1012 28 10000 4.6 360 10:45 29.08.2019
2822 Clear 28 1012 26 10000 5.7 350 10:25 29.08.2019
2823 Clear 29 1012 26 10000 5.7 350 09:57 29.08.2019
2824 Clear 29 1012 26 10000 6.2 350 09:39 29.08.2019
2825 Clear 30 1012 5 10000 5.1 320 09:18 29.08.2019
2826 Clear 31 1012 5 10000 5.1 160 08:41 29.08.2019
2827 Clear 32 1013 5 10000 5.1 320 08:23 29.08.2019
2828 Clear 32 1013 5 10000 4.1 150 07:54 29.08.2019
2829 Clear 32 1013 5 10000 4.1 150 07:34 29.08.2019
2830 Clear 31 1014 5 10000 5.1 320 06:57 29.08.2019
2831 Clear 31 1014 5 10000 5.1 320 06:37 29.08.2019
2832 Clear 30 1015 7 10000 5.1 90 05:52 29.08.2019
2833 Clear 29 1016 6 10000 4.6 140 05:21 29.08.2019
2834 Clear 29 1016 8 10000 6.7 120 04:47 29.08.2019
2835 Clear 30 1016 8 10000 6.7 120 04:26 29.08.2019
2836 Clear 25 1017 36 10000 8.7 110 01:54 29.08.2019
2837 Clear 25 1017 36 10000 8.7 110 01:35 29.08.2019
2838 Clear 20 1017 77 10000 3.1 140 00:47 29.08.2019
2839 Clear 19 1016 82 10000 3.1 130 00:23 29.08.2019
2840 Clear 18 1016 82 10000 3.1 130 23:58 28.08.2019
2841 Clear 18 1016 82 10000 3.1 140 23:38 28.08.2019
2842 Clear 19 1015 77 10000 2.1 150 23:20 28.08.2019
2843 Clear 19 1015 77 10000 2.1 150 22:56 28.08.2019
2844 Clear 19 1015 77 10000 2.1 150 22:38 28.08.2019
2845 Clear 19 1015 82 10000 2.1 140 22:18 28.08.2019
2846 Clear 19 1014 88 10000 1 130 21:41 28.08.2019
2847 Clear 18 1014 88 10000 1 100 21:23 28.08.2019
2848 Clear 18 1014 88 10000 1 100 20:56 28.08.2019
2849 Clear 18 1014 88 10000 1 80 20:38 28.08.2019
2850 Clear 18 1014 88 10000 0.5 30 20:20 28.08.2019
2851 Clear 18 1015 88 10000 0.5 30 19:42 28.08.2019
2852 Clear 18 1015 88 10000 0.5 30 19:22 28.08.2019
2853 Clear 19 1015 82 10000 1.5 40 18:58 28.08.2019
2854 Clear 19 1015 82 10000 1.5 40 18:37 28.08.2019
2855 Clear 20 1015 77 10000 1 50 18:19 28.08.2019
2856 Clear 20 1016 77 10000 1 50 17:39 28.08.2019
2857 Clear 20 1016 77 10000 2.1 60 17:19 28.08.2019
2858 Clear 21 1015 82 10000 1.5 170 16:55 28.08.2019
2859 Clear 21 1015 82 10000 1.5 170 16:37 28.08.2019
2860 Clear 21 1015 68 10000 1 170 16:18 28.08.2019
2861 Clear 22 1015 69 10000 1.5 190 15:38 28.08.2019
2862 Clear 22 1015 68 10000 1.5 210 15:20 28.08.2019
2863 Clear 22 1015 68 10000 1.5 210 14:57 28.08.2019
2864 Clear 24 1015 60 10000 2.6 210 14:39 28.08.2019
2865 Clear 23 1015 60 10000 3.6 140 14:20 28.08.2019
2866 Clear 23 1015 60 10000 3.6 140 13:58 28.08.2019
2867 Clear 24 1015 57 10000 2.6 250 13:38 28.08.2019
2868 Clear 24 1014 57 10000 3.6 140 13:19 28.08.2019
2869 Clear 24 1014 50 10000 2.1 280 12:42 28.08.2019
2870 Clear 25 1013 47 10000 3.6 140 12:24 28.08.2019
2871 Clear 25 1013 47 10000 3.6 140 11:57 28.08.2019
2872 Clear 26 1013 37 10000 2.6 340 11:38 28.08.2019
2873 Clear 27 1012 35 10000 3.1 340 11:20 28.08.2019
2874 Clear 28 1012 35 10000 3.1 340 10:55 28.08.2019
2875 Clear 28 1012 35 10000 4.6 350 10:37 28.08.2019
2876 Clear 29 1012 35 10000 5.1 340 10:18 28.08.2019
2877 Clear 29 1012 37 10000 5.7 340 09:41 28.08.2019
2878 Clear 30 1012 30 10000 6.2 350 09:20 28.08.2019
2879 Clear 32 1013 9 10000 5.1 340 08:40 28.08.2019
2880 Clear 33 1013 5 10000 4.6 340 08:21 28.08.2019
2881 Clear 33 1013 5 10000 4.6 340 07:57 28.08.2019
2882 Clear 34 1013 4 10000 4.6 130 07:36 28.08.2019
2883 Clear 34 1013 5 10000 4.6 130 07:18 28.08.2019
2884 Clear 34 1014 5 10000 6.2 130 06:40 28.08.2019
2885 Clear 33 1015 7 10000 6.2 130 05:47 28.08.2019
2886 Clear 29 1017 14 10000 8.2 90 03:55 28.08.2019
2887 Clouds 24 1018 88 10000 3.6 130 01:53 28.08.2019
2888 Clouds 23 1018 88 10000 3.6 130 01:30 28.08.2019
2889 Fog 21 1017 100 100 3.6 140 00:42 28.08.2019
2890 Fog 21 1017 100 100 2.6 130 00:18 28.08.2019
2891 Clear 21 1016 100 10000 1.5 140 23:40 27.08.2019
2892 Clear 20 1015 100 10000 2.1 140 23:21 27.08.2019
2893 Clear 21 1015 100 10000 2.1 140 22:57 27.08.2019
2894 Clear 21 1015 94 10000 2.6 170 22:38 27.08.2019
2895 Clouds 21 1015 94 10000 1 210 22:20 27.08.2019
2896 Clear 20 1015 94 10000 0.5 210 21:55 27.08.2019
2897 Clear 20 1015 94 10000 0.5 210 21:55 27.08.2019
2898 Clear 20 1015 94 10000 0.5 210 21:37 27.08.2019
2899 Clouds 20 1015 94 10000 0.5 210 21:18 27.08.2019
2900 Clouds 21 1015 94 10000 1 190 20:42 27.08.2019
2901 Clouds 20 1015 94 10000 1.5 140 20:21 27.08.2019
2902 Clouds 20 1015 94 10000 1.5 140 19:58 27.08.2019
2903 Clouds 20 1015 94 10000 1.5 140 19:58 27.08.2019
2904 Clouds 21 1015 88 10000 0.5 150 19:40 27.08.2019
2905 Clouds 21 1015 88 10000 0.5 150 19:22 27.08.2019
2906 Clouds 20 1015 88 10000 3.15 86.101 18:54 27.08.2019
2907 Clouds 20 1015 88 10000 3.15 86.101 18:36 27.08.2019
2908 Clouds 21 1015 88 10000 4.43 128.48 18:18 27.08.2019
2909 Clouds 21 1015 94 10000 4.43 128.48 17:42 27.08.2019
2910 Clear 21 1016 88 10000 4.43 128.48 17:22 27.08.2019
2911 Clear 21 1016 88 10000 4.43 128.48 17:22 27.08.2019
2912 Clear 22 1016 88 10000 1 210 16:48 27.08.2019
2913 Clear 23 1016 88 10000 1 210 16:28 27.08.2019
2914 Clear 23 1016 78 10000 2.6 210 15:58 27.08.2019
2915 Clear 24 1015 78 10000 2.1 200 15:40 27.08.2019
2916 Clear 24 1015 78 10000 2.1 210 15:21 27.08.2019
2917 Clear 24 1015 78 10000 2.1 210 14:58 27.08.2019
2918 Clear 24 1015 69 10000 1.5 210 14:40 27.08.2019
2919 Clear 24 1014 69 10000 2.1 230 14:20 27.08.2019
2920 Clear 25 1014 69 10000 1.5 270 13:42 27.08.2019
2921 Clear 24 1013 61 10000 2.6 240 13:23 27.08.2019
2922 Clear 25 1013 61 10000 3.6 260 12:55 27.08.2019
2923 Clear 25 1013 61 10000 3.6 260 12:36 27.08.2019
2924 Clear 25 1013 57 10000 3.6 270 12:18 27.08.2019
2925 Clear 26 1012 54 10000 4.6 270 11:43 27.08.2019
2926 Clear 27 1012 54 10000 4.6 270 11:24 27.08.2019
2927 Clear 29 1011 42 10000 4.1 340 10:42 27.08.2019
2928 Clear 29 1011 40 10000 5.1 330 10:21 27.08.2019
2929 Clear 30 1011 40 10000 5.1 330 09:58 27.08.2019
2930 Clear 34 1011 12 10000 2.6 320 09:38 27.08.2019
2931 Clear 34 1011 60 10000 3.6 330 09:20 27.08.2019
2932 Clear 34 1011 60 10000 4.6 80 08:48 27.08.2019
2933 Clear 34 1011 60 10000 4.6 80 08:27 27.08.2019
2934 Clear 34 1012 14 10000 3.6 330 07:59 27.08.2019
2935 Clear 34 1012 15 10000 5.1 330 07:38 27.08.2019
2936 Clear 34 1012 16 10000 5.1 330 07:19 27.08.2019
2937 Clear 34 1013 18 10000 5.1 330 06:50 27.08.2019
2938 Clear 33 1014 16 10000 5.1 330 06:21 27.08.2019
2939 Clear 33 1014 19 10000 5.7 70 05:30 27.08.2019
2940 Clear 30 1016 28 10000 6.7 110 04:28 27.08.2019
2941 Clear 30 1017 42 10000 5.1 100 03:32 27.08.2019
2942 Clear 25 1016 65 10000 2.6 100 02:22 27.08.2019
2943 Clear 25 1016 69 10000 2.6 150 01:34 27.08.2019
2944 Clear 22 1015 83 10000 2.1 150 00:50 27.08.2019
2945 Clear 21 1015 83 10000 2.1 150 00:29 27.08.2019
2946 Clear 21 1015 83 10000 2.1 160 23:54 26.08.2019
2947 Clear 21 1015 83 10000 2.1 160 23:36 26.08.2019
2948 Clear 21 1014 83 10000 1.5 150 23:18 26.08.2019
2949 Clear 20 1014 88 10000 1.5 120 22:38 26.08.2019
2950 Clear 20 1014 88 10000 1.5 120 22:19 26.08.2019
2951 Clouds 20 1013 88 10000 1.5 110 21:55 26.08.2019
2952 Clouds 20 1013 88 10000 1 90 21:37 26.08.2019
2953 Clouds 20 1013 88 10000 1 100 21:18 26.08.2019
2954 Clouds 20 1013 88 10000 1 100 20:54 26.08.2019
2955 Clouds 21 1013 83 7000 0.5 80 20:36 26.08.2019
2956 Clouds 21 1013 83 7000 0.5 80 20:36 26.08.2019
2957 Clouds 21 1014 83 10000 0.5 60 20:18 26.08.2019
2958 Clouds 21 1014 77 10000 1 70 19:42 26.08.2019
2959 Clouds 21 1014 77 10000 4.04 56.817 19:19 26.08.2019
2960 Clouds 21 1014 77 10000 4.04 56.817 18:56 26.08.2019
2961 Clouds 21 1014 77 10000 1 70 18:37 26.08.2019
2962 Clouds 21 1014 77 10000 1 70 18:37 26.08.2019
2963 Clouds 21 1014 77 10000 1 70 18:19 26.08.2019
2964 Clear 21 1015 77 10000 0.5 40 17:43 26.08.2019
2965 Clear 22 1015 73 10000 2.1 320 17:19 26.08.2019
2966 Clear 22 1015 73 10000 2.1 320 17:19 26.08.2019
2967 Clear 22 1015 73 10000 2.1 320 16:57 26.08.2019
2968 Clear 23 1015 73 10000 2.1 340 16:39 26.08.2019
2969 Clear 23 1015 68 10000 1 10 16:18 26.08.2019
2970 Clear 23 1015 68 10000 1 10 16:18 26.08.2019
2971 Clear 22 1015 68 10000 1 10 15:54 26.08.2019
2972 Clear 22 1015 64 10000 1.5 70 15:36 26.08.2019
2973 Clear 22 1014 64 10000 1.5 80 15:18 26.08.2019
2974 Clear 23 1014 60 10000 1 90 14:42 26.08.2019
2975 Clear 24 1014 53 10000 1 70 14:22 26.08.2019
2976 Clear 24 1014 50 10000 2.1 40 13:43 26.08.2019
2977 Clear 24 1014 50 10000 2.1 40 13:23 26.08.2019
2978 Clear 25 1013 50 10000 2.1 50 12:57 26.08.2019
2979 Clear 25 1012 47 10000 3.1 30 12:39 26.08.2019
2980 Clear 25 1012 44 10000 2.1 350 12:20 26.08.2019
2981 Clear 26 1011 42 10000 3.6 20 11:38 26.08.2019
2982 Clear 26 1011 42 10000 3.6 20 11:20 26.08.2019
2983 Clear 28 1011 37 10000 4.6 20 10:58 26.08.2019
2984 Clear 28 1011 35 10000 5.1 360 10:39 26.08.2019
2985 Clear 29 1011 35 10000 5.1 360 10:19 26.08.2019
2986 Clear 29 1010 39 10000 5.7 360 09:42 26.08.2019
2987 Clear 29 1010 39 10000 5.7 360 09:24 26.08.2019
2988 Clear 29 1010 37 10000 5.7 340 08:58 26.08.2019
2989 Clear 30 1011 35 10000 6.2 340 08:39 26.08.2019
2990 Clear 30 1011 35 10000 6.2 340 08:21 26.08.2019
2991 Clear 31 1011 33 10000 4.6 300 07:44 26.08.2019
2992 Clear 32 1011 33 10000 4.6 300 07:25 26.08.2019
2993 Clear 32 1012 35 10000 6.2 270 06:58 26.08.2019
2994 Dust 32 1012 22 10000 3.6 320 06:39 26.08.2019
2995 Clear 31 1013 27 10000 3.6 320 06:18 26.08.2019
2996 Clear 32 1013 28 10000 4.6 70 05:33 26.08.2019
2997 Clouds 30 1014 37 10000 3.1 60 04:22 26.08.2019
2998 Clouds 26 1015 65 10000 4.1 40 02:40 26.08.2019
2999 Clouds 26 1015 65 10000 4.1 40 02:40 26.08.2019
3000 Clouds 25 1015 73 10000 1.5 40 01:23 26.08.2019
3001 Clouds 22 1014 88 10000 1 90 00:45 26.08.2019
3002 Clouds 21 1014 88 10000 1 90 00:26 26.08.2019
3003 Fog 20 1014 88 10000 1 60 23:45 25.08.2019
3004 Fog 19 1014 88 10000 1 60 23:20 25.08.2019
3005 Clear 20 1013 83 10000 1 80 22:59 25.08.2019
3006 Clouds 21 1013 83 10000 2.1 80 22:40 25.08.2019
3007 Clouds 21 1013 83 10000 2.1 80 22:20 25.08.2019
3008 Clouds 21 1013 83 10000 2.6 90 21:58 25.08.2019
3009 Rain 21 1013 83 10000 1.5 90 21:39 25.08.2019
3010 Clouds 20 1013 88 10000 1.5 70 21:19 25.08.2019
3011 Clouds 21 1013 88 10000 1.5 70 20:56 25.08.2019
3012 Clouds 21 1013 88 10000 1.5 80 20:38 25.08.2019
3013 Clouds 21 1013 88 10000 0.5 80 20:19 25.08.2019
3014 Clouds 21 1013 83 10000 1 90 19:41 25.08.2019
3015 Clouds 22 1013 83 10000 1 90 19:23 25.08.2019
3016 Clouds 22 1013 83 10000 1 90 19:23 25.08.2019
3017 Clouds 21 1014 83 10000 1 90 18:59 25.08.2019
3018 Clouds 21 1014 83 10000 1 90 18:40 25.08.2019
3019 Clouds 21 1014 83 10000 0.5 130 18:22 25.08.2019
3020 Clouds 21 1014 83 10000 0.5 130 17:59 25.08.2019
3021 Clouds 21 1014 83 10000 1 80 17:40 25.08.2019
3022 Clouds 20 1014 83 10000 1 80 17:20 25.08.2019
3023 Clouds 20 1014 83 10000 1.5 60 16:41 25.08.2019
3024 Clouds 21 1014 83 10000 1.5 60 16:23 25.08.2019
3025 Clouds 21 1014 83 10000 1.97 284.171 15:56 25.08.2019
3026 Clear 22 1014 73 10000 0.5 160 15:37 25.08.2019
3027 Clear 22 1014 73 10000 0.5 160 15:19 25.08.2019
3028 Clear 22 1013 69 10000 3.24 268.233 14:39 25.08.2019
3029 Clear 23 1013 69 10000 3.24 268.233 14:21 25.08.2019
3030 Clear 24 1013 61 10000 2.1 240 13:45 25.08.2019
3031 Clear 24 1012 65 10000 2.1 260 13:22 25.08.2019
3032 Clear 24 1012 65 10000 2.1 260 12:56 25.08.2019
3033 Clear 24 1012 65 10000 2.1 270 12:38 25.08.2019
3034 Clear 25 1011 57 10000 2.1 310 12:20 25.08.2019
3035 Clear 25 1011 57 10000 2.1 310 11:56 25.08.2019
3036 Clear 25 1011 54 10000 2.6 330 11:36 25.08.2019
3037 Clear 26 1011 54 10000 3.1 330 11:18 25.08.2019
3038 Clear 27 1010 51 10000 4.1 330 10:40 25.08.2019
3039 Clear 28 1010 51 10000 4.1 330 10:21 25.08.2019
3040 Clear 28 1010 54 10000 4.1 350 09:59 25.08.2019
3041 Clouds 28 1010 57 10000 5.1 350 09:41 25.08.2019
3042 Clouds 28 1010 57 10000 5.1 350 09:22 25.08.2019
3043 Clouds 29 1010 58 10000 5.1 350 08:44 25.08.2019
3044 Clouds 29 1010 58 10000 5.1 350 08:22 25.08.2019
3045 Clouds 30 1011 48 10000 5.1 340 07:45 25.08.2019
3046 Clouds 30 1011 48 10000 5.1 340 07:23 25.08.2019
3047 Clouds 30 1012 51 10000 5.7 320 06:31 25.08.2019
3048 Clouds 31 1014 45 10000 5.1 330 04:58 25.08.2019
3049 Clouds 28 1015 57 10000 3.1 50 03:37 25.08.2019
3050 Clouds 26 1016 65 10000 3.6 60 02:40 25.08.2019
3051 Clouds 25 1015 69 10000 1.5 80 01:42 25.08.2019
3052 Clouds 21 1015 88 10000 1.5 90 00:41 25.08.2019
3053 Fog 19 1014 93 10000 1.5 70 00:21 25.08.2019
3054 Fog 19 1014 93 10000 1.5 70 23:53 24.08.2019
3055 Fog 20 1014 88 10000 1.5 60 23:24 24.08.2019
3056 Clear 20 1014 88 10000 2.1 60 22:57 24.08.2019
3057 Clouds 20 1014 88 10000 2.1 70 22:39 24.08.2019
3058 Clouds 20 1014 88 10000 2.1 70 22:19 24.08.2019
3059 Clouds 20 1013 94 10000 2.6 70 21:56 24.08.2019
3060 Clouds 20 1013 94 10000 2.1 80 21:38 24.08.2019
3061 Clouds 21 1013 94 10000 2.1 80 21:20 24.08.2019
3062 Clouds 21 1013 88 10000 2.1 50 20:56 24.08.2019
3063 Clouds 21 1013 88 10000 2.1 50 20:37 24.08.2019
3064 Clouds 21 1013 88 10000 1.5 40 20:18 24.08.2019
3065 Clouds 21 1013 88 10000 1.5 40 19:57 24.08.2019
3066 Clouds 21 1013 88 10000 1.5 40 19:57 24.08.2019
3067 Clouds 22 1013 83 10000 2.1 20 19:37 24.08.2019
3068 Clouds 22 1014 78 10000 2.1 40 19:18 24.08.2019
3069 Clouds 22 1014 78 10000 2.1 40 19:18 24.08.2019
3070 Clouds 22 1014 78 10000 1.5 10 18:42 24.08.2019
3071 Clouds 22 1014 78 10000 1.5 10 18:23 24.08.2019
3072 Clouds 22 1015 83 10000 1.5 80 17:45 24.08.2019
3073 Clouds 22 1015 83 10000 1.5 80 17:25 24.08.2019
3074 Clouds 22 1015 83 10000 1 60 16:55 24.08.2019
3075 Clear 21 1015 88 10000 1.5 60 16:36 24.08.2019
3076 Clear 21 1014 88 10000 1 20 16:18 24.08.2019
3077 Clear 21 1014 83 10000 0.5 220 15:41 24.08.2019
3078 Clear 21 1014 83 10000 0.5 220 15:23 24.08.2019
3079 Clear 23 1013 73 10000 1.5 240 14:45 24.08.2019
3080 Clear 23 1013 73 10000 1.5 240 14:23 24.08.2019
3081 Clear 23 1013 73 10000 1 250 13:59 24.08.2019
3082 Clear 23 1013 73 10000 1.5 260 13:41 24.08.2019
3083 Clear 23 1013 73 10000 1.5 260 13:22 24.08.2019
3084 Clear 24 1012 69 10000 1.5 250 12:58 24.08.2019
3085 Clear 24 1012 69 10000 2.1 290 12:39 24.08.2019
3086 Clear 24 1012 69 10000 2.6 270 12:20 24.08.2019
3087 Clear 25 1012 57 10000 3.6 290 11:45 24.08.2019
3088 Clear 26 1012 57 10000 3.6 290 11:23 24.08.2019
3089 Clear 27 1011 51 10000 4.6 320 10:53 24.08.2019
3090 Clear 27 1011 44 10000 5.1 310 10:24 24.08.2019
3091 Clear 28 1011 42 10000 4.6 320 09:55 24.08.2019
3092 Clear 28 1011 48 10000 5.7 310 09:36 24.08.2019
3093 Clear 29 1011 45 10000 5.1 320 09:18 24.08.2019
3094 Clear 29 1011 45 10000 5.7 320 08:41 24.08.2019
3095 Clear 29 1011 45 10000 5.7 320 08:22 24.08.2019
3096 Clear 31 1012 35 10000 5.1 350 07:50 24.08.2019
3097 Clear 31 1012 35 10000 5.1 350 07:27 24.08.2019
3098 Clear 31 1013 37 10000 4.6 310 06:30 24.08.2019
3099 Clear 30 1014 37 10000 3.1 290 05:43 24.08.2019
3100 Clear 31 1014 37 10000 3.1 290 05:22 24.08.2019
3101 Clouds 30 1016 42 10000 5.1 330 03:38 24.08.2019
3102 Clouds 26 1016 54 10000 3.1 50 02:27 24.08.2019
3103 Clouds 26 1016 69 10000 2.6 60 01:47 24.08.2019
3104 Clouds 25 1016 69 10000 2.6 60 01:22 24.08.2019
3105 Clouds 22 1016 94 10000 2.1 90 00:43 24.08.2019
3106 Fog 21 1015 88 10000 1.5 100 00:18 24.08.2019
3107 Clouds 21 1015 88 10000 1.5 80 23:43 23.08.2019
3108 Clouds 21 1015 88 10000 1.5 80 23:19 23.08.2019
3109 Clouds 21 1015 88 10000 2.1 90 22:43 23.08.2019
3110 Clouds 20 1015 88 10000 2.1 90 22:24 23.08.2019
3111 Clouds 20 1015 88 10000 1.5 60 21:54 23.08.2019
3112 Clear 20 1015 88 10000 1.5 80 21:36 23.08.2019
3113 Clear 20 1015 94 10000 1.5 50 21:18 23.08.2019
3114 Clear 20 1015 88 10000 0.5 110 20:45 23.08.2019
3115 Clear 20 1015 88 10000 0.5 110 20:27 23.08.2019
3116 Clear 20 1015 94 10000 3.65 53.538 19:45 23.08.2019
3117 Clear 20 1015 88 10000 3.65 53.538 19:19 23.08.2019
3118 Clear 21 1015 83 10000 3.65 53.538 18:54 23.08.2019
3119 Clear 21 1015 83 10000 3.65 53.538 18:36 23.08.2019
3120 Clear 20 1015 88 10000 1 50 18:18 23.08.2019
3121 Clear 21 1015 83 10000 0.5 250 17:41 23.08.2019
3122 Clear 20 1015 83 10000 0.5 250 17:21 23.08.2019
3123 Clear 22 1015 78 10000 2.1 240 16:49 23.08.2019
3124 Clear 21 1015 78 10000 1 250 16:30 23.08.2019
3125 Clear 21 1015 78 10000 1 250 16:30 23.08.2019
3126 Clear 21 1015 77 10000 0.5 190 15:59 23.08.2019
3127 Clear 22 1015 73 10000 2.1 200 15:39 23.08.2019
3128 Clear 23 1015 64 10000 1.5 200 15:21 23.08.2019
3129 Clear 22 1015 64 10000 1 230 14:44 23.08.2019
3130 Clear 22 1015 64 10000 1 230 14:21 23.08.2019
3131 Clear 23 1015 60 10000 1 220 13:59 23.08.2019
3132 Clear 22 1014 64 10000 1 30 13:41 23.08.2019
3133 Clear 23 1014 64 10000 1 30 13:23 23.08.2019
3134 Clear 22 1014 60 10000 1 360 12:58 23.08.2019
3135 Clear 23 1014 57 10000 1.5 360 12:40 23.08.2019
3136 Clear 25 1013 50 10000 2.1 10 12:21 23.08.2019
3137 Clear 25 1013 50 10000 2.1 10 11:57 23.08.2019
3138 Clear 26 1013 44 10000 3.1 350 11:39 23.08.2019
3139 Clear 27 1013 42 10000 3.1 340 11:19 23.08.2019
3140 Clear 27 1013 42 10000 3.1 340 10:55 23.08.2019
3141 Clear 28 1012 42 10000 4.1 350 10:37 23.08.2019
3142 Clear 28 1012 37 10000 4.1 350 10:18 23.08.2019
3143 Clear 29 1012 37 10000 4.6 350 09:43 23.08.2019
3144 Clear 30 1012 40 10000 4.6 330 09:20 23.08.2019
3145 Clear 30 1012 39 10000 5.1 360 08:45 23.08.2019
3146 Clear 30 1012 39 10000 5.1 360 08:21 23.08.2019
3147 Clear 30 1013 42 10000 5.1 350 07:57 23.08.2019
3148 Clear 30 1013 45 10000 5.7 340 07:38 23.08.2019
3149 Clear 30 1014 42 10000 5.7 320 07:20 23.08.2019
3150 Clear 30 1014 42 10000 5.1 330 06:41 23.08.2019
3151 Clear 30 1014 42 10000 5.1 330 06:22 23.08.2019
3152 Clouds 30 1015 45 10000 5.1 290 05:44 23.08.2019
3153 Clouds 30 1015 45 10000 5.1 290 05:24 23.08.2019
3154 Clear 30 1017 39 10000 2.1 50 03:46 23.08.2019
3155 Clear 27 1017 54 10000 2.1 40 02:38 23.08.2019
3156 Clear 27 1017 54 10000 2.1 40 02:20 23.08.2019
3157 Clear 23 1016 64 8000 4.3 118.902 00:58 23.08.2019
3158 Clear 21 1016 77 9000 4.3 118.902 00:39 23.08.2019
3159 Clear 20 1016 82 9000 3.97 68.576 00:18 23.08.2019
3160 Clear 18 1016 88 10000 3.97 68.576 23:41 22.08.2019
3161 Clear 18 1015 82 10000 3.97 68.576 23:21 22.08.2019
3162 Clear 19 1015 82 10000 3.97 68.576 22:42 22.08.2019
3163 Clear 19 1015 82 10000 3.97 68.576 22:24 22.08.2019
3164 Clear 19 1015 82 10000 3.97 68.576 22:24 22.08.2019
3165 Clear 19 1015 82 10000 0.5 330 21:59 22.08.2019
3166 Clear 19 1015 77 10000 1 350 21:40 22.08.2019
3167 Clouds 18 1015 77 10000 1 350 21:22 22.08.2019
3168 Clouds 19 1015 82 10000 1 60 20:58 22.08.2019
3169 Clouds 19 1015 77 10000 1 90 20:40 22.08.2019
3170 Clouds 20 1015 77 10000 1 90 20:20 22.08.2019
3171 Clouds 20 1015 77 10000 1 130 19:57 22.08.2019
3172 Clouds 21 1015 77 10000 1.5 130 19:38 22.08.2019
3173 Clouds 21 1016 77 10000 1.5 150 19:20 22.08.2019
3174 Clouds 21 1016 77 10000 1.5 150 18:57 22.08.2019
3175 Clouds 22 1016 73 10000 2.6 170 18:39 22.08.2019
3176 Clouds 22 1016 69 10000 2.1 170 18:19 22.08.2019
3177 Clouds 22 1016 69 10000 2.1 170 17:54 22.08.2019
3178 Clear 22 1016 69 10000 3.1 180 17:36 22.08.2019
3179 Clear 22 1016 69 10000 3.1 180 17:18 22.08.2019
3180 Clear 23 1016 69 10000 3.1 180 16:56 22.08.2019
3181 Clear 23 1016 69 10000 3.1 180 16:37 22.08.2019
3182 Clear 23 1016 69 10000 3.6 180 16:18 22.08.2019
3183 Clear 23 1016 69 10000 3.6 180 16:18 22.08.2019
3184 Clear 23 1016 69 10000 3.6 180 16:18 22.08.2019
3185 Clear 24 1016 57 10000 1.5 170 15:41 22.08.2019
3186 Clear 24 1016 57 10000 1.5 170 15:41 22.08.2019
3187 Clear 24 1016 57 10000 1.5 170 15:41 22.08.2019
3188 Clear 24 1016 57 10000 1.5 170 15:22 22.08.2019
3189 Clear 24 1016 53 10000 2.6 180 14:57 22.08.2019
3190 Clear 25 1016 50 10000 3.6 180 14:39 22.08.2019
3191 Clear 25 1016 50 10000 3.6 180 14:20 22.08.2019
3192 Clear 25 1016 50 10000 3.6 180 14:20 22.08.2019
3193 Clear 25 1015 61 10000 2.6 10 13:56 22.08.2019
3194 Clear 25 1015 50 10000 3.1 10 13:38 22.08.2019
3195 Clear 25 1015 50 10000 3.1 10 13:18 22.08.2019
3196 Clear 25 1014 50 10000 2.6 10 12:40 22.08.2019
3197 Clear 26 1014 47 10000 3.6 360 12:22 22.08.2019
3198 Clear 26 1014 47 10000 3.6 360 11:58 22.08.2019
3199 Clear 26 1014 47 10000 3.6 360 11:58 22.08.2019
3200 Clear 27 1014 45 10000 4.6 10 11:40 22.08.2019
3201 Clear 27 1014 45 10000 4.6 10 11:20 22.08.2019
3202 Clear 27 1014 45 10000 4.6 10 11:20 22.08.2019
3203 Clear 28 1013 37 10000 5.1 20 10:57 22.08.2019
3204 Clear 30 1013 37 10000 6.2 20 10:38 22.08.2019
3205 Clear 30 1013 35 10000 6.2 10 10:19 22.08.2019
3206 Clear 30 1013 35 10000 6.2 10 09:54 22.08.2019
3207 Clear 30 1012 33 10000 6.7 10 09:36 22.08.2019
3208 Clear 30 1012 33 10000 6.7 10 09:18 22.08.2019
3209 Clear 31 1012 29 10000 6.2 10 08:41 22.08.2019
3210 Clear 31 1013 27 10000 5.1 330 08:21 22.08.2019
3211 Clear 32 1013 27 10000 5.1 330 07:58 22.08.2019
3212 Clear 32 1013 27 10000 5.1 330 07:38 22.08.2019
3213 Clear 32 1013 24 10000 5.1 330 07:19 22.08.2019
3214 Clear 32 1014 25 10000 5.7 30 06:46 22.08.2019
3215 Clear 31 1014 25 10000 5.1 330 06:21 22.08.2019
3216 Clear 30 1014 23 10000 5.7 70 05:29 22.08.2019
3217 Clear 28 1016 21 10000 7.7 100 03:26 22.08.2019
3218 Clear 26 1016 27 10000 6.2 120 02:36 22.08.2019
3219 Clear 24 1016 31 10000 4.6 120 01:36 22.08.2019
3220 Clear 21 1016 30 10000 4.6 120 00:57 22.08.2019
3221 Clear 20 1016 32 10000 4.1 120 00:39 22.08.2019
3222 Clear 21 1016 30 10000 3.6 120 00:20 22.08.2019
3223 Clear 20 1015 28 10000 3.1 120 23:42 21.08.2019
3224 Clear 20 1015 28 10000 3.1 120 23:24 21.08.2019
3225 Clear 20 1015 26 10000 3.6 100 22:58 21.08.2019
3226 Clear 20 1015 26 10000 3.1 100 22:39 21.08.2019
3227 Clear 20 1015 26 10000 3.1 100 22:20 21.08.2019
3228 Clouds 20 1015 64 10000 3.1 110 21:56 21.08.2019
3229 Clouds 21 1015 21 10000 3.1 110 21:38 21.08.2019
3230 Clouds 21 1015 21 10000 3.6 110 21:19 21.08.2019
3231 Clouds 21 1015 21 10000 3.6 110 20:56 21.08.2019
3232 Clouds 21 1015 21 10000 3.1 120 20:38 21.08.2019
3233 Clouds 21 1015 21 10000 3.6 120 20:20 21.08.2019
3234 Clouds 21 1015 52 10000 3.6 120 19:43 21.08.2019
3235 Clouds 21 1015 26 10000 3.1 130 19:24 21.08.2019
3236 Clouds 21 1015 26 10000 3.1 130 18:58 21.08.2019
3237 Clouds 21 1015 26 10000 3.1 130 18:39 21.08.2019
3238 Clouds 21 1015 28 10000 3.1 140 18:20 21.08.2019
3239 Clouds 22 1015 26 10000 3.1 150 17:45 21.08.2019
3240 Clouds 22 1015 26 10000 3.1 150 17:23 21.08.2019
3241 Clear 23 1015 23 10000 3.1 150 16:58 21.08.2019
3242 Clear 23 1015 25 10000 3.1 150 16:39 21.08.2019
3243 Clear 24 1015 27 10000 2.6 160 16:20 21.08.2019
3244 Clear 24 1015 27 10000 2.6 160 15:58 21.08.2019
3245 Clear 24 1015 27 10000 2.6 160 15:58 21.08.2019
3246 Clear 23 1015 60 10000 1.5 200 15:38 21.08.2019
3247 Clear 22 1015 69 10000 2.1 190 15:19 21.08.2019
3248 Clear 22 1015 69 10000 2.1 190 14:56 21.08.2019
3249 Clear 22 1015 64 10000 2.1 220 14:38 21.08.2019
3250 Clear 22 1015 64 10000 2.6 220 14:19 21.08.2019
3251 Clear 22 1014 53 10000 1 130 13:43 21.08.2019
3252 Clear 22 1014 53 10000 1 130 13:43 21.08.2019
3253 -273 0 0 0 0 0 13:21 21.08.2019
3254 Clear 22 1014 56 10000 2.6 160 12:58 21.08.2019
3255 Clear 23 1013 50 10000 2.6 160 12:40 21.08.2019
3256 Clear 25 1013 44 10000 2.6 160 12:20 21.08.2019
3257 Clear 24 1013 50 10000 2.6 160 12:20 21.08.2019
3258 Clear 25 1013 44 10000 2.6 160 12:20 21.08.2019
3259 Clear 26 1013 44 10000 2.6 160 11:56 21.08.2019
3260 Clear 27 1013 44 10000 2.6 160 11:37 21.08.2019
3261 Clear 27 1012 44 10000 2.6 160 11:19 21.08.2019
3262 Clear 27 1012 44 10000 2.6 160 10:56 21.08.2019
3263 Clear 28 1012 42 10000 3.1 320 10:37 21.08.2019
3264 Clear 28 1012 39 10000 4.1 320 10:19 21.08.2019
3265 Clear 28 1012 37 10000 4.6 310 09:42 21.08.2019
3266 Clear 28 1012 37 10000 4.6 310 09:23 21.08.2019
3267 Clear 29 1012 32 10000 6.2 300 08:58 21.08.2019
3268 Clouds 30 1012 59 9000 3.6 200 08:39 21.08.2019
3269 Clear 31 1012 13 9000 6.7 350 08:20 21.08.2019
3270 Clouds 32 1012 59 9000 5.1 80 07:40 21.08.2019
3271 Clear 32 1013 13 10000 6.7 350 07:20 21.08.2019
3272 Clear 31 1013 13 10000 6.7 350 06:48 21.08.2019
3273 Clear 30 1014 12 10000 5.7 130 06:21 21.08.2019
3274 Clear 29 1014 12 10000 5.7 110 05:41 21.08.2019
3275 Clear 28 1015 11 10000 6.2 120 05:19 21.08.2019
3276 Clear 28 1016 11 10000 5.7 120 03:28 21.08.2019
3277 Clear 23 1016 14 10000 7.7 130 01:42 21.08.2019
3278 Clear 21 1016 22 10000 6.7 130 00:45 21.08.2019
3279 Clear 20 1016 22 10000 6.7 130 00:24 21.08.2019
3280 Clear 19 1016 24 10000 5.1 140 23:57 20.08.2019
3281 Clear 19 1016 25 10000 4.6 140 23:38 20.08.2019
3282 Clear 19 1015 24 10000 3.6 150 23:18 20.08.2019
3283 Clear 20 1015 24 10000 3.6 150 22:56 20.08.2019
3284 Clear 20 1015 24 10000 3.6 140 22:37 20.08.2019
3285 Clear 20 1015 22 10000 5.1 130 22:18 20.08.2019
3286 Clear 20 1015 22 10000 5.1 130 21:57 20.08.2019
3287 Clear 21 1015 21 10000 4.1 130 21:37 20.08.2019
3288 Clouds 21 1015 21 10000 4.1 130 21:19 20.08.2019
3289 Clouds 22 1015 19 10000 4.6 130 20:42 20.08.2019
3290 Clouds 22 1015 19 10000 4.6 130 20:24 20.08.2019
3291 Clouds 23 1015 17 10000 5.1 120 19:56 20.08.2019
3292 Clouds 23 1016 17 10000 4.6 120 19:38 20.08.2019
3293 Clouds 23 1016 16 10000 5.7 120 19:20 20.08.2019
3294 Clouds 23 1016 16 10000 5.7 120 18:55 20.08.2019
3295 Clouds 23 1016 16 10000 5.7 120 18:55 20.08.2019
3296 Clouds 24 1016 17 10000 5.1 130 18:36 20.08.2019
3297 Clouds 24 1016 17 10000 5.1 130 18:18 20.08.2019
3298 Clouds 24 1016 17 10000 5.1 130 17:39 20.08.2019
3299 Clear 24 1016 44 10000 4.6 130 17:20 20.08.2019
3300 Clear 24 1016 23 10000 4.1 130 16:48 20.08.2019
3301 Clear 24 1016 23 10000 4.1 130 16:28 20.08.2019
3302 Clear 25 1016 29 10000 3.1 130 15:59 20.08.2019
3303 Clear 24 1016 60 10000 3.1 150 15:41 20.08.2019
3304 Clear 24 1016 69 10000 1.5 180 15:18 20.08.2019
3305 Clear 23 1016 69 10000 1.5 180 14:55 20.08.2019
3306 Clear 23 1016 73 10000 2.1 210 14:37 20.08.2019
3307 Clear 23 1016 73 10000 2.1 210 14:37 20.08.2019
3308 Clear 24 1016 64 10000 2.1 220 14:18 20.08.2019
3309 Clear 24 1016 64 10000 2.1 220 14:18 20.08.2019
3310 Clear 24 1016 64 10000 2.1 220 13:54 20.08.2019
3311 Clear 24 1015 61 10000 2.1 240 13:36 20.08.2019
3312 Clear 24 1015 65 10000 4.1 140 13:18 20.08.2019
3313 Clear 25 1014 54 10000 4.1 140 12:44 20.08.2019
3314 Clear 25 1014 51 10000 4.1 140 12:23 20.08.2019
3315 Clear 26 1014 51 10000 4.1 140 11:55 20.08.2019
3316 Clear 26 1013 47 10000 4.1 140 11:37 20.08.2019
3317 Clear 27 1013 42 10000 4.1 140 11:18 20.08.2019
3318 Clear 27 1013 42 10000 4.1 140 10:55 20.08.2019
3319 Clear 28 1012 39 10000 4.1 140 10:37 20.08.2019
3320 Clear 28 1012 39 10000 4.1 140 10:18 20.08.2019
3321 Clear 29 1012 37 10000 5.7 350 09:40 20.08.2019
3322 Clear 30 1012 22 10000 6.7 360 09:21 20.08.2019
3323 Clear 32 1012 55 10000 7.7 120 08:42 20.08.2019
3324 Clear 33 1012 13 10000 5.7 100 08:24 20.08.2019
3325 Clear 33 1012 13 10000 5.7 100 07:58 20.08.2019
3326 Clear 33 1013 13 10000 6.2 110 07:39 20.08.2019
3327 Clear 33 1013 13 10000 5.7 110 07:21 20.08.2019
3328 Clear 33 1014 13 10000 7.2 100 06:47 20.08.2019
3329 Clear 31 1015 15 10000 5.7 130 06:21 20.08.2019
3330 Clear 32 1015 14 10000 5.7 120 05:48 20.08.2019
3331 Clear 30 1016 18 10000 7.2 120 04:42 20.08.2019
3332 Clear 27 1017 21 10000 8.7 120 02:58 20.08.2019
3333 Clear 26 1017 24 10000 7.7 110 02:24 20.08.2019
3334 Clear 25 1017 31 10000 5.1 120 01:22 20.08.2019
3335 Clear 24 1017 33 10000 4.6 120 00:45 20.08.2019
3336 Clear 23 1017 33 10000 4.6 120 00:25 20.08.2019
3337 Clear 23 1016 44 10000 4.6 120 23:50 19.08.2019
3338 Clear 23 1015 60 10000 3.6 110 23:19 19.08.2019
3339 Clear 23 1015 60 10000 3.6 110 22:59 19.08.2019
3340 Clear 23 1015 60 10000 3.6 110 22:59 19.08.2019
3341 Clear 23 1015 60 10000 3.1 100 22:41 19.08.2019
3342 Clear 23 1015 69 10000 3.6 100 22:21 19.08.2019
3343 Clear 23 1015 69 10000 3.6 100 21:58 19.08.2019
3344 Clear 23 1015 88 10000 2.6 110 21:39 19.08.2019
3345 Clear 23 1015 88 10000 2.6 110 21:39 19.08.2019
3346 Rain 24 1015 88 10000 2.6 100 21:20 19.08.2019
3347 Rain 23 1015 88 10000 2.6 100 20:57 19.08.2019
3348 Rain 24 1015 88 10000 2.1 110 20:38 19.08.2019
3349 Clouds 24 1015 88 10000 1 120 20:19 19.08.2019
3350 Clouds 25 1015 88 10000 1 120 19:55 19.08.2019
3351 Clouds 25 1015 83 10000 1.5 110 19:36 19.08.2019
3352 Clouds 25 1015 83 10000 1.5 110 19:36 19.08.2019
3353 Clouds 25 1015 83 10000 1.5 110 19:18 19.08.2019
3354 Clouds 25 1015 88 10000 1 140 18:41 19.08.2019
3355 Rain 25 1015 88 10000 3.14 119.301 18:23 19.08.2019
3356 Rain 25 1015 88 10000 3.14 119.301 17:57 19.08.2019
3357 Clouds 25 1016 83 10000 1.5 20 17:38 19.08.2019
3358 Clear 25 1015 83 10000 1.5 310 17:19 19.08.2019
3359 Clear 25 1015 83 10000 1.5 310 16:54 19.08.2019
3360 Clouds 25 1015 83 10000 1 300 16:36 19.08.2019
3361 Clouds 25 1015 83 10000 0.5 190 16:18 19.08.2019
3362 Clouds 25 1015 83 10000 1 180 15:45 19.08.2019
3363 Clouds 25 1015 83 10000 1 180 15:20 19.08.2019
3364 Clear 25 1015 83 10000 0.5 250 14:55 19.08.2019
3365 Clouds 26 1015 78 10000 1.5 250 14:36 19.08.2019
3366 Clear 25 1014 78 10000 2.1 240 14:18 19.08.2019
3367 Clear 25 1014 78 10000 2.1 240 13:55 19.08.2019
3368 Clouds 25 1014 78 10000 1.5 260 13:36 19.08.2019
3369 Clouds 25 1014 78 10000 1.5 260 13:36 19.08.2019
3370 Clear 26 1013 69 10000 1.5 270 13:18 19.08.2019
3371 Clear 26 1013 69 10000 2.1 290 12:43 19.08.2019
3372 Clear 26 1013 69 10000 2.1 290 12:22 19.08.2019
3373 Clear 27 1012 69 10000 2.6 290 11:55 19.08.2019
3374 Clear 28 1012 51 10000 2.6 330 11:36 19.08.2019
3375 Clear 28 1011 58 10000 2.6 350 11:18 19.08.2019
3376 Clear 29 1012 62 10000 4.1 350 10:39 19.08.2019
3377 Clouds 29 1011 58 10000 4.1 340 10:19 19.08.2019
3378 Clouds 30 1011 58 10000 4.1 340 09:56 19.08.2019
3379 Clouds 30 1011 55 10000 5.1 340 09:38 19.08.2019
3380 Clouds 30 1011 58 10000 5.7 340 09:19 19.08.2019
3381 Clouds 30 1011 62 10000 5.1 340 08:45 19.08.2019
3382 Clouds 30 1011 62 10000 5.1 340 08:25 19.08.2019
3383 Clouds 30 1011 62 10000 5.7 360 07:57 19.08.2019
3384 Clouds 30 1012 66 10000 4.6 330 07:39 19.08.2019
3385 Clouds 30 1012 62 10000 4.6 330 07:19 19.08.2019
3386 Clouds 30 1012 62 10000 4.6 330 07:19 19.08.2019
3387 Clouds 30 1012 58 10000 4.1 320 06:36 19.08.2019
3388 Clouds 31 1013 58 10000 4.6 330 05:28 19.08.2019
3389 Clouds 32 1014 55 10000 3.6 350 04:34 19.08.2019
3390 Clouds 31 1015 51 10000 1.5 360 03:28 19.08.2019
3391 Clouds 30 1015 62 10000 2.1 10 02:53 19.08.2019
3392 Clear 27 1014 74 10000 1.5 340 01:45 19.08.2019
3393 Clear 25 1014 88 10000 0.5 40 00:59 19.08.2019
3394 Clear 24 1014 94 10000 1 40 00:37 19.08.2019
3395 Clear 23 1014 94 10000 1 10 00:18 19.08.2019
3396 Clear 23 1013 88 10000 1 350 23:39 18.08.2019
3397 Clear 23 1013 88 10000 1 350 23:20 18.08.2019
3398 Clear 24 1013 88 10000 3.1 20 22:40 18.08.2019
3399 Clear 24 1013 88 10000 3.1 20 22:21 18.08.2019
3400 Clouds 25 1013 83 10000 3.1 30 21:57 18.08.2019
3401 Clouds 24 1013 88 10000 2.1 20 21:39 18.08.2019
3402 Clouds 25 1013 83 10000 1 360 21:20 18.08.2019
3403 Clouds 25 1013 83 10000 1 360 20:57 18.08.2019
3404 Clouds 25 1013 83 10000 1.5 350 20:38 18.08.2019
3405 Clouds 25 1013 83 10000 1.5 350 20:20 18.08.2019
3406 Clouds 25 1013 78 10000 2.1 350 19:42 18.08.2019
3407 Clouds 25 1014 78 10000 2.1 350 19:23 18.08.2019
3408 Clouds 25 1014 78 10000 2.1 350 18:57 18.08.2019
3409 Clouds 25 1014 78 10000 2.1 340 18:39 18.08.2019
3410 Clouds 25 1014 78 10000 1.5 350 18:20 18.08.2019
3411 Clouds 24 1014 78 10000 1.5 350 17:54 18.08.2019
3412 Clouds 24 1014 83 10000 1.5 340 17:36 18.08.2019
3413 Clear 24 1014 83 10000 2.1 330 17:18 18.08.2019
3414 Clear 24 1014 78 10000 1.5 320 16:43 18.08.2019
3415 Clear 24 1014 78 10000 1.5 320 16:23 18.08.2019
3416 Clear 25 1014 78 10000 1.5 310 15:59 18.08.2019
3417 Clear 24 1014 78 10000 1.5 310 15:39 18.08.2019
3418 Clear 25 1014 69 10000 1.5 290 15:20 18.08.2019
3419 Clear 25 1014 69 10000 1.5 290 15:20 18.08.2019
3420 Clear 25 1014 69 10000 1.5 290 14:57 18.08.2019
3421 Clear 25 1013 69 10000 1.5 280 14:38 18.08.2019
3422 Clear 25 1013 69 10000 2.1 260 14:19 18.08.2019
3423 Clear 25 1013 69 10000 2.1 260 13:56 18.08.2019
3424 Clear 26 1013 74 10000 2.6 240 13:38 18.08.2019
3425 Clear 26 1013 74 10000 2.6 240 13:19 18.08.2019
3426 Clear 27 1012 65 10000 1.5 300 12:41 18.08.2019
3427 Clear 27 1012 65 10000 1.5 300 12:22 18.08.2019
3428 Clear 27 1012 69 10000 2.6 290 11:55 18.08.2019
3429 Clear 27 1011 65 10000 2.1 320 11:36 18.08.2019
3430 Clear 28 1011 61 10000 3.1 310 11:18 18.08.2019
3431 Clouds 28 1011 61 10000 3.6 320 10:41 18.08.2019
3432 Clouds 28 1011 61 10000 4.6 320 10:21 18.08.2019
3433 Clouds 28 1011 61 10000 4.6 320 09:51 18.08.2019
3434 Clouds 29 1011 58 10000 4.1 320 09:24 18.08.2019
3435 Clouds 29 1011 58 10000 4.6 330 08:59 18.08.2019
3436 Clouds 29 1011 58 10000 4.6 320 08:40 18.08.2019
3437 Clouds 29 1011 58 10000 4.6 320 08:21 18.08.2019
3438 Clouds 29 1012 54 10000 5.1 340 07:48 18.08.2019
3439 Clouds 29 1012 54 10000 5.1 340 07:48 18.08.2019
3440 Clouds 29 1012 54 10000 5.1 340 07:29 18.08.2019
3441 Clouds 30 1014 51 10000 3.6 330 05:48 18.08.2019
3442 Clouds 31 1014 48 10000 3.1 320 04:53 18.08.2019
3443 Clouds 29 1016 51 10000 2.6 150 03:42 18.08.2019
3444 Clouds 28 1016 51 10000 2.1 170 02:46 18.08.2019
3445 Clouds 28 1016 51 10000 2.1 170 02:24 18.08.2019
3446 Clear 26 1015 61 10000 2.1 130 01:44 18.08.2019
3447 Clear 25 1015 69 10000 1.5 110 01:19 18.08.2019
3448 Clear 22 1015 83 10000 1.5 110 00:38 18.08.2019
3449 Clear 21 1015 94 10000 1 110 00:19 18.08.2019
3450 Clear 21 1015 94 10000 1 110 23:57 17.08.2019
3451 Clouds 22 1014 88 10000 2.1 160 23:37 17.08.2019
3452 Clear 22 1014 88 10000 1.5 130 23:18 17.08.2019
3453 Clear 22 1014 88 10000 1.5 130 23:18 17.08.2019
3454 Clear 22 1014 88 10000 1.5 130 22:56 17.08.2019
3455 Fog 22 1014 88 10000 1 150 22:37 17.08.2019
3456 Clouds 22 1014 94 10000 0.5 130 22:18 17.08.2019
3457 Clouds 22 1014 94 10000 1 90 21:41 17.08.2019
3458 Clouds 22 1014 94 10000 1 90 21:23 17.08.2019
3459 Clouds 22 1014 94 10000 1 80 20:41 17.08.2019
3460 Clouds 23 1014 88 10000 1 150 20:21 17.08.2019
3461 Clouds 23 1014 88 10000 1 150 19:59 17.08.2019
3462 Clouds 23 1014 94 10000 1.5 180 19:40 17.08.2019
3463 Clouds 23 1014 88 10000 2.1 180 19:21 17.08.2019
3464 Clouds 23 1015 88 10000 2.1 180 18:41 17.08.2019
3465 Clouds 23 1015 88 10000 2.1 180 18:20 17.08.2019
3466 Clouds 23 1015 88 10000 2.1 180 17:59 17.08.2019
3467 Clouds 23 1015 88 10000 2.6 190 17:41 17.08.2019
3468 Clouds 24 1015 88 10000 2.6 190 17:21 17.08.2019
3469 Clear 24 1015 88 10000 2.6 210 16:55 17.08.2019
3470 Clear 24 1015 83 10000 2.6 220 16:36 17.08.2019
3471 Clear 24 1015 83 10000 2.6 230 16:18 17.08.2019
3472 Clear 24 1015 78 10000 1.5 250 15:42 17.08.2019
3473 Clear 24 1015 78 10000 1.5 250 15:21 17.08.2019
3474 Clear 24 1015 78 10000 2.1 250 14:57 17.08.2019
3475 Clear 25 1015 74 10000 2.1 260 14:37 17.08.2019
3476 Clear 25 1015 69 10000 2.6 240 14:18 17.08.2019
3477 Clear 25 1014 69 10000 3.1 240 13:42 17.08.2019
3478 Clear 26 1014 65 10000 2.6 250 13:19 17.08.2019
3479 Clear 26 1014 61 10000 2.1 280 12:42 17.08.2019
3480 Clear 26 1013 61 10000 2.1 300 12:20 17.08.2019
3481 Clear 26 1013 61 10000 2.1 300 11:58 17.08.2019
3482 Clouds 27 1013 58 10000 2.6 300 11:38 17.08.2019
3483 Clouds 28 1013 58 10000 2.6 300 11:19 17.08.2019
3484 Clouds 29 1013 51 10000 3.1 290 10:40 17.08.2019
3485 Clouds 29 1013 51 10000 3.1 290 10:21 17.08.2019
3486 Clouds 30 1013 51 10000 3.6 290 09:55 17.08.2019
3487 Clouds 31 1013 51 10000 3.6 310 09:36 17.08.2019
3488 Clouds 30 1013 48 10000 4.1 310 09:18 17.08.2019
3489 Clouds 30 1013 51 10000 4.1 310 08:41 17.08.2019
3490 Clouds 30 1013 51 10000 4.1 310 08:20 17.08.2019
3491 Clouds 30 1013 54 10000 4.6 310 07:42 17.08.2019
3492 Clouds 30 1014 51 10000 4.6 320 07:19 17.08.2019
3493 Clouds 29 1015 51 10000 4.1 310 05:59 17.08.2019
3494 Clouds 31 1015 48 10000 2.6 280 04:32 17.08.2019
3495 Dust 31 1016 45 10000 1.5 90 03:51 17.08.2019
3496 Clouds 29 1016 51 10000 1 180 02:36 17.08.2019
3497 Clouds 29 1016 51 10000 1 180 02:36 17.08.2019
3498 Clouds 26 1016 69 10000 1.5 190 01:38 17.08.2019
3499 Clouds 25 1015 83 10000 1.5 80 01:19 17.08.2019
3500 Clouds 22 1015 88 10000 0.5 60 00:45 17.08.2019
3501 Clouds 21 1015 88 10000 1.5 70 00:18 17.08.2019
3502 Clouds 21 1015 94 10000 1 150 23:39 16.08.2019
3503 Clouds 21 1015 94 10000 1 150 23:21 16.08.2019
3504 Clouds 21 1014 88 10000 2.1 160 22:43 16.08.2019
3505 Clouds 21 1014 88 10000 1.5 130 22:20 16.08.2019
3506 Clouds 21 1014 88 10000 1.5 130 21:57 16.08.2019
3507 Clouds 21 1014 94 10000 1.5 110 21:38 16.08.2019
3508 Clouds 21 1014 88 10000 1.5 160 21:18 16.08.2019
3509 Clouds 21 1014 94 10000 0.5 60 20:42 16.08.2019
3510 Clouds 21 1014 88 10000 3.39 141.34 20:20 16.08.2019
3511 Clouds 22 1014 88 10000 3.39 141.34 19:56 16.08.2019
3512 Clear 22 1014 88 10000 2.1 190 19:38 16.08.2019
3513 Clear 22 1014 88 10000 1.5 180 19:19 16.08.2019
3514 Clear 22 1014 88 10000 1.5 180 18:42 16.08.2019
3515 Clear 22 1014 88 10000 1.5 180 18:22 16.08.2019
3516 Clear 23 1015 83 10000 1.5 230 17:48 16.08.2019
3517 Clear 23 1015 83 10000 1.5 230 17:28 16.08.2019
3518 Clear 23 1014 83 10000 2.1 230 16:58 16.08.2019
3519 Clear 23 1014 83 10000 2.6 230 16:39 16.08.2019
3520 Clear 23 1015 83 10000 2.6 230 16:18 16.08.2019
3521 Clear 24 1015 83 10000 2.6 230 15:56 16.08.2019
3522 Clear 24 1015 83 10000 2.6 230 15:56 16.08.2019
3523 Clear 24 1015 83 10000 2.6 230 15:37 16.08.2019
3524 Clear 24 1015 83 10000 2.6 230 15:19 16.08.2019
3525 Clear 24 1015 78 10000 2.6 230 14:56 16.08.2019
3526 Clear 24 1014 73 10000 2.6 230 14:37 16.08.2019
3527 Clear 24 1014 73 10000 2.6 240 14:18 16.08.2019
3528 Clear 24 1014 78 10000 2.1 280 13:39 16.08.2019
3529 Clear 24 1014 78 10000 2.1 280 13:21 16.08.2019
3530 Clear 25 1013 74 10000 2.1 280 12:40 16.08.2019
3531 Clear 25 1013 74 10000 2.1 280 12:21 16.08.2019
3532 Clear 26 1013 65 10000 2.1 310 11:55 16.08.2019
3533 Clear 26 1013 61 10000 2.6 330 11:37 16.08.2019
3534 Clouds 27 1013 54 10000 3.6 330 11:19 16.08.2019
3535 Clouds 28 1013 51 10000 3.6 350 10:42 16.08.2019
3536 Clouds 29 1013 51 10000 4.6 350 10:20 16.08.2019
3537 Clouds 30 1013 51 10000 4.1 350 09:39 16.08.2019
3538 Clouds 30 1013 51 10000 4.1 350 09:20 16.08.2019
3539 Clouds 30 1013 54 10000 4.1 340 08:59 16.08.2019
3540 Clouds 30 1013 54 10000 4.1 330 08:39 16.08.2019
3541 Clouds 30 1013 54 10000 4.1 330 08:19 16.08.2019
3542 Clouds 30 1014 54 10000 4.6 320 07:48 16.08.2019
3543 Clouds 30 1014 54 10000 4.6 320 07:28 16.08.2019
3544 Clouds 30 1014 54 10000 4.6 300 06:55 16.08.2019
3545 Clouds 31 1015 54 10000 4.1 290 06:19 16.08.2019
3546 Clouds 30 1015 54 10000 4.1 290 05:34 16.08.2019
3547 Clouds 28 1017 61 10000 1.5 110 03:20 16.08.2019
3548 Clouds 24 1017 73 10000 3.1 130 01:53 16.08.2019
3549 Clouds 23 1017 78 10000 3.1 130 01:25 16.08.2019
3550 Clouds 22 1016 83 10000 2.1 120 00:50 16.08.2019
3551 Clouds 21 1016 88 10000 2.6 110 00:24 16.08.2019
3552 Clouds 21 1016 88 10000 2.6 110 00:24 16.08.2019
3553 Clouds 20 1016 94 10000 2.6 110 23:59 15.08.2019
3554 Clouds 20 1015 94 10000 1.5 100 23:41 15.08.2019
3555 Clear 20 1015 88 10000 1.5 160 23:19 15.08.2019
3556 Clear 20 1015 88 10000 1.5 170 22:41 15.08.2019
3557 Clear 20 1015 88 10000 1.5 170 22:23 15.08.2019
3558 Clear 20 1015 88 10000 1.5 150 21:59 15.08.2019
3559 Clear 20 1015 88 10000 2.1 120 21:40 15.08.2019
3560 Clear 20 1015 88 10000 2.1 120 21:20 15.08.2019
3561 Clear 21 1015 94 10000 1.5 160 20:59 15.08.2019
3562 Clouds 21 1015 88 10000 2.6 170 20:40 15.08.2019
3563 Clouds 21 1015 88 10000 2.6 170 20:21 15.08.2019
3564 Clouds 21 1015 88 10000 2.6 180 19:54 15.08.2019
3565 Clear 21 1015 88 10000 2.6 180 19:36 15.08.2019
3566 Clear 21 1015 94 10000 1 210 19:18 15.08.2019
3567 Clear 21 1016 83 10000 1 220 18:41 15.08.2019
3568 Clear 21 1016 83 10000 1 220 18:21 15.08.2019
3569 Clear 22 1015 83 10000 1.5 220 17:55 15.08.2019
3570 Clear 21 1016 83 10000 3.66 225.874 17:37 15.08.2019
3571 Clouds 22 1016 88 10000 0.5 230 17:19 15.08.2019
3572 Clear 22 1016 83 10000 1.5 200 16:47 15.08.2019
3573 Clear 22 1016 83 10000 1.5 200 16:25 15.08.2019
3574 Clear 23 1016 73 10000 2.1 210 15:56 15.08.2019
3575 Clear 23 1016 64 10000 2.1 230 15:38 15.08.2019
3576 Clear 23 1015 73 10000 1.5 10 15:18 15.08.2019
3577 Clear 23 1015 73 10000 1.5 10 14:42 15.08.2019
3578 Clear 23 1015 73 10000 1.5 10 14:42 15.08.2019
3579 Clear 23 1015 73 10000 1.5 10 14:23 15.08.2019
3580 Clear 23 1015 69 10000 2.1 10 13:57 15.08.2019
3581 Clear 24 1015 65 10000 1.5 10 13:39 15.08.2019
3582 Clear 24 1014 61 10000 2.6 20 13:20 15.08.2019
3583 Clear 24 1014 61 10000 2.6 20 13:20 15.08.2019
3584 Clear 24 1014 61 10000 2.6 20 12:56 15.08.2019
3585 Clouds 25 1014 57 10000 3.1 20 12:38 15.08.2019
3586 Clouds 25 1014 54 10000 4.1 20 12:18 15.08.2019
3587 Clouds 25 1014 54 10000 4.1 20 11:57 15.08.2019
3588 Clouds 26 1014 54 10000 4.6 20 11:36 15.08.2019
3589 Clear 26 1014 54 9000 5.1 20 11:18 15.08.2019
3590 Clouds 28 1013 51 9000 4.6 10 10:39 15.08.2019
3591 Clouds 28 1013 51 9000 4.6 10 10:39 15.08.2019
3592 Clouds 28 1013 51 9000 4.6 10 10:20 15.08.2019
3593 Clouds 29 1013 48 10000 5.7 360 09:55 15.08.2019
3594 Clouds 29 1013 48 10000 5.7 360 09:37 15.08.2019
3595 Clouds 29 1013 48 10000 5.7 10 09:18 15.08.2019
3596 Clouds 30 1014 45 10000 4.6 360 08:37 15.08.2019
3597 Clouds 30 1014 51 10000 5.7 300 08:19 15.08.2019
3598 Clouds 30 1015 54 10000 4.6 300 07:45 15.08.2019
3599 Clouds 30 1015 54 10000 4.6 300 07:27 15.08.2019
3600 Clouds 30 1015 51 10000 5.7 310 06:55 15.08.2019
3601 Clouds 30 1015 51 10000 5.1 290 06:33 15.08.2019
3602 Clouds 30 1016 45 9000 4.1 340 05:51 15.08.2019
3603 Clouds 29 1016 45 10000 1.5 190 05:29 15.08.2019
3604 Clouds 30 1017 51 10000 4.6 40 04:39 15.08.2019
3605 Clouds 28 1018 61 10000 5.1 340 03:48 15.08.2019
3606 Clouds 26 1018 50 10000 1 130 02:46 15.08.2019
3607 Clouds 25 1018 50 10000 2.1 150 01:58 15.08.2019
3608 Clouds 23 1018 60 10000 2.1 160 01:38 15.08.2019
3609 Clouds 19 1017 77 10000 1.5 150 00:42 15.08.2019
3610 Clear 18 1017 82 10000 1 150 00:22 15.08.2019
3611 Clear 17 1017 82 10000 1 150 23:59 14.08.2019
3612 Clear 16 1016 82 10000 1 140 23:40 14.08.2019
3613 Clear 15 1016 82 10000 1 140 23:20 14.08.2019
3614 Clear 16 1016 82 10000 0.5 90 22:57 14.08.2019
3615 Clear 16 1016 82 10000 0.5 90 22:57 14.08.2019
3616 Clear 15 1016 82 10000 1 60 22:39 14.08.2019
3617 Clear 16 1016 82 10000 1 60 22:21 14.08.2019
3618 Clear 16 1016 82 10000 1.5 90 21:57 14.08.2019
3619 Clear 16 1016 82 10000 0.5 100 21:38 14.08.2019
3620 Clear 16 1016 82 10000 0.5 100 21:19 14.08.2019
3621 Clear 16 1016 82 10000 1.99 129.358 20:42 14.08.2019
3622 Clear 16 1016 82 10000 1.99 129.358 20:22 14.08.2019
3623 Clear 16 1016 82 10000 1.5 180 19:59 14.08.2019
3624 Clear 17 1016 82 10000 1.99 129.358 19:39 14.08.2019
3625 Clear 18 1016 77 7000 1.99 129.358 19:21 14.08.2019
3626 Clear 20 1016 68 10000 2.1 190 18:57 14.08.2019
3627 Clear 20 1016 68 10000 2.1 190 18:38 14.08.2019
3628 Clear 17 1017 82 10000 1 120 18:20 14.08.2019
3629 Clear 17 1017 82 10000 1 120 17:56 14.08.2019
3630 Clear 18 1017 77 10000 2.1 170 17:37 14.08.2019
3631 Clear 18 1017 77 10000 2.1 170 17:19 14.08.2019
3632 Clear 18 1017 77 10000 0.5 130 16:43 14.08.2019
3633 Clear 18 1017 77 10000 0.5 130 16:21 14.08.2019
3634 Clear 18 1017 77 10000 0.5 130 16:21 14.08.2019
3635 Clear 19 1016 72 10000 0.5 190 15:59 14.08.2019
3636 Clear 20 1016 64 10000 2.1 220 15:40 14.08.2019
3637 Clear 22 1016 56 10000 2.1 220 15:18 14.08.2019
3638 Clear 23 1016 49 10000 2.1 230 14:41 14.08.2019
3639 Clear 23 1016 49 10000 2.1 230 14:19 14.08.2019
3640 Clear 20 1016 60 10000 2.01 239.944 13:59 14.08.2019
3641 Clear 21 1016 56 10000 0.5 270 13:41 14.08.2019
3642 Clear 21 1016 56 10000 0.5 270 13:22 14.08.2019
3643 Clear 22 1015 49 10000 1 290 12:56 14.08.2019
3644 Clear 23 1015 46 10000 1 310 12:38 14.08.2019
3645 Clear 23 1015 46 10000 1 310 12:20 14.08.2019
3646 Clear 25 1014 38 10000 2.6 340 11:48 14.08.2019
3647 Clear 25 1014 38 10000 2.6 340 11:23 14.08.2019
3648 Clear 25 1014 38 10000 2.6 340 11:23 14.08.2019
3649 Clear 26 1014 34 10000 4.1 360 10:59 14.08.2019
3650 Clear 27 1014 32 10000 4.6 10 10:40 14.08.2019
3651 Clear 27 1014 30 10000 5.7 360 10:22 14.08.2019
3652 Clear 28 1014 26 10000 5.1 350 09:45 14.08.2019
3653 Clear 28 1014 23 10000 5.7 350 09:22 14.08.2019
3654 Clear 28 1014 24 10000 5.7 330 08:52 14.08.2019
3655 Clear 28 1014 24 10000 5.7 330 08:34 14.08.2019
3656 Clouds 29 1014 21 10000 5.1 310 07:58 14.08.2019
3657 Clear 30 1014 8 10000 1.5 140 07:39 14.08.2019
3658 Clear 30 1014 8 10000 1.5 140 07:21 14.08.2019
3659 Clear 30 1016 7 10000 5.1 340 06:43 14.08.2019
3660 Clear 29 1016 9 10000 4.6 90 05:47 14.08.2019
3661 Clear 27 1018 10 10000 7.2 100 04:45 14.08.2019
3662 Clear 25 1019 15 10000 5.1 90 02:52 14.08.2019
3663 Clear 24 1018 19 10000 4.6 90 02:26 14.08.2019
3664 Clear 22 1018 19 10000 5.7 110 01:38 14.08.2019
3665 Clear 21 1018 19 10000 4.6 110 00:51 14.08.2019
3666 Clear 17 1017 32 10000 4.6 100 23:47 13.08.2019
3667 Clear 17 1017 32 10000 4.6 100 23:23 13.08.2019
3668 Clear 17 1016 49 10000 3.6 120 22:57 13.08.2019
3669 Clear 17 1016 23 10000 2.6 130 22:39 13.08.2019
3670 Clear 17 1016 23 10000 2.6 130 22:39 13.08.2019
3671 Clear 17 1016 23 10000 2.6 130 22:20 13.08.2019
3672 Clear 16 1016 36 10000 1.5 110 21:57 13.08.2019
3673 Clear 15 1016 44 10000 1.5 80 21:37 13.08.2019
3674 Clear 16 1016 34 10000 2.1 100 21:19 13.08.2019
3675 Clear 17 1016 22 10000 3.1 130 20:46 13.08.2019
3676 Clear 18 1016 22 10000 3.1 130 20:20 13.08.2019
3677 Clear 18 1016 21 10000 3.1 130 19:59 13.08.2019
3678 Clear 18 1016 26 10000 2.6 150 19:40 13.08.2019
3679 Clear 19 1016 26 10000 2.6 150 19:21 13.08.2019
3680 Clear 18 1016 77 9000 2.1 170 18:42 13.08.2019
3681 Clear 18 1016 77 9000 2.1 170 18:42 13.08.2019
3682 Clear 18 1016 77 9000 2.1 170 18:23 13.08.2019
3683 Clear 17 1016 68 9000 2.1 170 17:58 13.08.2019
3684 Clear 17 1016 68 9000 1.5 170 17:40 13.08.2019
3685 Clear 17 1016 68 9000 1.5 170 17:20 13.08.2019
3686 Clear 18 1016 63 10000 1 180 16:56 13.08.2019
3687 Clear 18 1017 68 10000 1.5 180 16:38 13.08.2019
3688 Clear 18 1017 68 10000 1.5 180 16:19 13.08.2019
3689 Clear 18 1017 63 10000 3.63 152.51 15:39 13.08.2019
3690 Clear 19 1016 60 10000 1.39 283.097 15:20 13.08.2019
3691 Clear 19 1016 60 10000 1.39 283.097 14:58 13.08.2019
3692 Clear 19 1016 60 10000 1.39 283.097 14:38 13.08.2019
3693 Clear 19 1016 60 10000 0.5 60 14:18 13.08.2019
3694 Clear 20 1016 52 10000 1.5 20 13:42 13.08.2019
3695 Clear 21 1015 46 10000 1.5 10 13:21 13.08.2019
3696 Clear 22 1015 46 10000 1.5 10 12:59 13.08.2019
3697 Clear 22 1015 46 10000 2.6 20 12:40 13.08.2019
3698 Clear 22 1015 44 10000 2.6 10 12:22 13.08.2019
3699 Clear 23 1015 44 10000 2.6 10 11:58 13.08.2019
3700 Clear 24 1014 38 10000 2.6 360 11:38 13.08.2019
3701 Clear 25 1014 38 10000 2.6 360 11:19 13.08.2019
3702 Clear 25 1014 31 10000 3.6 350 10:56 13.08.2019
3703 Clear 25 1014 31 10000 3.6 350 10:56 13.08.2019
3704 Clear 27 1014 32 10000 4.6 340 10:36 13.08.2019
3705 Clear 27 1013 30 10000 4.6 350 10:18 13.08.2019
3706 Clear 28 1014 9 10000 3.1 340 09:42 13.08.2019
3707 Clear 29 1013 7 10000 4.1 150 09:23 13.08.2019
3708 Clear 30 1014 7 10000 5.1 160 08:43 13.08.2019
3709 Clear 31 1014 7 10000 5.1 160 08:23 13.08.2019
3710 Clear 31 1014 9 10000 4.1 110 07:57 13.08.2019
3711 Clear 30 1014 7 10000 4.6 150 07:34 13.08.2019
3712 Clear 30 1015 7 10000 4.6 130 06:56 13.08.2019
3713 Clear 30 1015 9 10000 5.1 110 06:36 13.08.2019
3714 Clear 28 1017 8 10000 6.2 130 05:35 13.08.2019
3715 Clear 26 1018 11 10000 7.2 120 03:35 13.08.2019
3716 Clear 23 1018 15 10000 5.7 110 02:19 13.08.2019
3717 Clear 20 1018 15 10000 4.1 100 01:18 13.08.2019
3718 Clear 19 1017 17 10000 3.1 110 00:42 13.08.2019
3719 Clear 16 1017 23 10000 2.6 80 23:57 12.08.2019
3720 Clear 17 1016 15 10000 5.1 130 23:36 12.08.2019
3721 Clear 17 1016 15 10000 4.6 110 23:18 12.08.2019
3722 Clear 18 1016 18 10000 3.6 140 22:40 12.08.2019
3723 Clear 18 1016 18 10000 3.6 140 22:20 12.08.2019
3724 Clouds 19 1015 16 10000 3.6 140 21:56 12.08.2019
3725 Clouds 19 1015 20 10000 3.1 110 21:37 12.08.2019
3726 Clear 19 1015 18 10000 4.1 140 21:19 12.08.2019
3727 Clear 19 1015 18 10000 4.1 140 20:57 12.08.2019
3728 Clear 19 1015 19 10000 2.6 140 20:38 12.08.2019
3729 Clear 20 1015 19 10000 2.6 140 20:20 12.08.2019
3730 -273 0 0 0 0 0 19:56 12.08.2019
3731 Clear 20 1015 28 10000 3.1 150 19:37 12.08.2019
3732 Clear 20 1015 49 10000 3.1 150 19:19 12.08.2019
3733 Clear 20 1015 49 10000 3.1 150 18:55 12.08.2019
3734 Clear 20 1015 49 10000 3.1 150 18:55 12.08.2019
3735 Clear 20 1015 49 10000 3.1 150 18:55 12.08.2019
3736 Clear 19 1015 72 10000 2.6 160 18:37 12.08.2019
3737 Clear 19 1016 72 10000 2.6 160 18:19 12.08.2019
3738 Clear 19 1016 72 10000 2.6 160 18:19 12.08.2019
3739 Clear 18 1016 72 10000 2.1 180 17:46 12.08.2019
3740 Clear 18 1016 72 10000 2.1 180 17:28 12.08.2019
3741 Clear 19 1016 68 10000 2.1 170 16:57 12.08.2019
3742 Clear 19 1016 77 10000 1 180 16:39 12.08.2019
3743 Clear 18 1016 77 10000 1 180 16:20 12.08.2019
3744 Clear 18 1016 77 10000 1 180 16:20 12.08.2019
3745 Clear 19 1016 77 10000 0.5 90 15:58 12.08.2019
3746 -273 0 0 0 0 0 15:39 12.08.2019
3747 Clear 19 1016 77 10000 1 80 15:38 12.08.2019
3748 Clear 20 1016 72 10000 3.77 135.032 15:20 12.08.2019
3749 Clear 21 1016 72 10000 3.77 135.032 14:54 12.08.2019
3750 Clear 20 1016 64 10000 3.77 135.032 14:36 12.08.2019
3751 Clear 21 1016 64 10000 0.5 340 14:18 12.08.2019
3752 Clear 21 1016 60 10000 1.5 290 13:42 12.08.2019
3753 Clear 22 1016 60 10000 1.5 290 13:23 12.08.2019
3754 Clear 23 1015 53 10000 2.1 20 12:44 12.08.2019
3755 Clear 23 1015 53 10000 2.1 20 12:22 12.08.2019
3756 Clear 24 1014 50 10000 2.1 20 11:56 12.08.2019
3757 Clear 25 1014 44 10000 2.6 350 11:38 12.08.2019
3758 Clear 26 1014 37 10000 3.6 350 11:19 12.08.2019
3759 Clear 27 1013 30 10000 3.1 360 10:40 12.08.2019
3760 Clear 27 1013 30 10000 3.1 360 10:40 12.08.2019
3761 Clear 28 1013 30 10000 3.1 360 10:22 12.08.2019
3762 Clear 30 1013 7 10000 3.1 350 09:56 12.08.2019
3763 Clear 30 1013 8 10000 2.6 350 09:37 12.08.2019
3764 Clear 30 1013 8 10000 2.6 350 09:37 12.08.2019
3765 Clear 30 1013 8 10000 5.1 150 09:18 12.08.2019
3766 Clear 31 1013 8 10000 4.1 140 08:42 12.08.2019
3767 Clear 31 1013 8 10000 4.1 140 08:24 12.08.2019
3768 Clear 31 1013 8 10000 4.1 120 07:57 12.08.2019
3769 Clear 32 1014 8 10000 3.6 140 07:39 12.08.2019
3770 Clear 32 1014 9 10000 5.1 160 07:19 12.08.2019
3771 Clear 31 1015 8 10000 4.6 120 06:42 12.08.2019
3772 Clear 29 1017 13 10000 5.7 130 04:40 12.08.2019
3773 Clear 25 1019 16 10000 7.7 110 02:44 12.08.2019
3774 Clear 24 1018 19 10000 5.1 120 01:52 12.08.2019
3775 Clear 23 1018 24 10000 2.6 120 01:20 12.08.2019
3776 Clear 22 1018 24 10000 2.6 120 00:57 12.08.2019
3777 Clear 21 1017 42 10000 2.6 130 00:38 12.08.2019
3778 Clear 20 1017 21 10000 4.1 130 00:19 12.08.2019
3779 Clear 20 1016 19 10000 4.6 120 23:42 11.08.2019
3780 Clear 21 1016 19 10000 3.6 120 23:20 11.08.2019
3781 Clear 21 1016 19 10000 3.6 120 22:58 11.08.2019
3782 Clear 21 1015 45 10000 3.6 130 22:39 11.08.2019
3783 Clear 21 1015 45 10000 3.6 130 22:19 11.08.2019
3784 Clouds 22 1015 21 10000 4.6 140 21:58 11.08.2019
3785 Clouds 22 1015 21 0 4.47 140 21:39 11.08.2019
3786 Clouds 22 1015 21 10000 4.1 120 21:20 11.08.2019
3787 Clouds 22 1015 24 10000 4.6 130 20:56 11.08.2019
3788 Clouds 22 1015 26 10000 4.1 130 20:38 11.08.2019
3789 Clouds 22 1015 27 10000 3.1 140 20:19 11.08.2019
3790 Clouds 22 1015 37 10000 2.1 150 19:42 11.08.2019
3791 Clouds 22 1015 33 10000 2.6 140 19:18 11.08.2019
3792 Clouds 22 1015 33 10000 2.6 130 18:41 11.08.2019
3793 Clouds 22 1015 49 10000 1.5 130 18:21 11.08.2019
3794 Clouds 22 1015 49 10000 1.5 130 17:57 11.08.2019
3795 Clouds 22 1015 60 10000 1.5 140 17:39 11.08.2019
3796 Clouds 22 1015 60 10000 1.5 140 17:20 11.08.2019
3797 Clear 22 1015 73 10000 2.1 180 16:56 11.08.2019
3798 Clear 23 1015 73 10000 2.6 180 16:37 11.08.2019
3799 Clear 23 1015 73 10000 2.6 200 16:18 11.08.2019
3800 Clear 23 1015 69 10000 2.6 210 15:43 11.08.2019
3801 Clear 23 1015 69 10000 2.6 210 15:24 11.08.2019
3802 Clear 23 1015 64 10000 2.6 190 14:57 11.08.2019
3803 Clear 22 1014 64 10000 2.61 234.985 14:38 11.08.2019
3804 Clear 23 1014 64 10000 0.5 40 14:19 11.08.2019
3805 Clear 23 1013 60 10000 1 10 13:44 11.08.2019
3806 Clear 23 1013 60 10000 1 10 13:24 11.08.2019
3807 Clear 24 1013 57 10000 1.5 360 12:49 11.08.2019
3808 Clear 25 1013 57 10000 1.5 360 12:25 11.08.2019
3809 Clear 26 1013 54 10000 1.5 340 11:57 11.08.2019
3810 Clear 26 1012 47 10000 2.6 340 11:38 11.08.2019
3811 Clear 26 1012 47 10000 2.6 340 11:20 11.08.2019
3812 Clear 27 1012 47 10000 3.1 350 10:55 11.08.2019
3813 Clear 29 1011 37 10000 4.6 350 10:36 11.08.2019
3814 Clear 29 1011 39 10000 4.6 340 10:18 11.08.2019
3815 Clear 29 1011 39 10000 4.6 340 10:18 11.08.2019
3816 Clear 30 1011 35 10000 4.1 320 09:40 11.08.2019
3817 Clear 31 1011 56 10000 4.1 300 09:22 11.08.2019
3818 Clear 33 1011 56 10000 4.1 100 08:48 11.08.2019
3819 Clear 33 1011 56 10000 4.1 100 08:29 11.08.2019
3820 Clear 33 1012 11 10000 4.1 300 07:56 11.08.2019
3821 Clear 33 1012 11 10000 4.6 150 07:27 11.08.2019
3822 Clear 32 1013 12 10000 4.6 100 06:45 11.08.2019
3823 Clear 32 1013 12 10000 4.6 100 06:21 11.08.2019
3824 Clear 30 1016 50 10000 7.7 100 04:37 11.08.2019
3825 Clear 27 1017 24 10000 7.7 110 02:49 11.08.2019
3826 Clouds 26 1016 38 10000 5.7 100 01:51 11.08.2019
3827 Clouds 25 1016 38 10000 5.7 100 01:26 11.08.2019
3828 Clouds 23 1016 83 10000 4.6 120 00:53 11.08.2019
3829 Clouds 22 1016 94 10000 3.6 130 00:33 11.08.2019
3830 Clear 20 1015 94 10000 1.5 130 23:49 10.08.2019
3831 Clear 20 1015 94 10000 1.5 130 23:29 10.08.2019
3832 Clouds 20 1014 94 10000 3.62 114.964 22:45 10.08.2019
3833 Clouds 20 1014 94 10000 3.62 114.964 22:26 10.08.2019
3834 Clear 20 1014 94 10000 3.62 114.964 21:58 10.08.2019
3835 Clear 21 1014 94 10000 0.5 160 21:39 10.08.2019
3836 Clear 21 1013 88 10000 0.5 180 21:21 10.08.2019
3837 Clear 21 1013 88 10000 0.5 180 21:21 10.08.2019
3838 Clear 21 1013 88 10000 0.5 180 20:57 10.08.2019
3839 Clear 21 1014 88 10000 0.5 150 20:39 10.08.2019
3840 Clear 22 1014 88 10000 3.62 78.612 20:18 10.08.2019
3841 Clear 23 1014 83 10000 2.1 170 19:41 10.08.2019
3842 Clear 23 1014 83 10000 2.1 170 19:22 10.08.2019
3843 Clear 23 1014 88 10000 2.1 180 18:42 10.08.2019
3844 Clear 23 1014 83 10000 0.5 130 18:23 10.08.2019
3845 Clear 23 1014 83 10000 0.5 130 17:56 10.08.2019
3846 Clear 23 1014 83 10000 2.6 180 17:38 10.08.2019
3847 Clear 23 1014 83 10000 2.6 180 17:19 10.08.2019
3848 Clear 24 1014 78 10000 1.5 170 16:42 10.08.2019
3849 Clear 24 1014 78 10000 1.5 170 16:22 10.08.2019
3850 Clear 24 1014 65 10000 1.5 210 15:45 10.08.2019
3851 Clear 25 1014 65 10000 1.5 210 15:22 10.08.2019
3852 Clear 25 1013 53 10000 1 210 14:44 10.08.2019
3853 Clear 25 1013 53 10000 1 210 14:19 10.08.2019
3854 Clear 25 1013 41 10000 1.5 50 13:41 10.08.2019
3855 Clear 25 1012 42 10000 2.6 30 13:20 10.08.2019
3856 Clear 26 1012 39 10000 2.6 20 12:54 10.08.2019
3857 Clear 26 1012 39 10000 2.6 20 12:36 10.08.2019
3858 Clear 27 1011 45 10000 3.1 20 12:18 10.08.2019
3859 Clear 28 1011 39 10000 3.6 10 11:41 10.08.2019
3860 Clear 28 1011 39 10000 3.6 10 11:22 10.08.2019
3861 Clear 30 1011 35 10000 3.1 360 10:55 10.08.2019
3862 Clear 30 1011 35 10000 3.6 340 10:36 10.08.2019
3863 Clear 31 1011 38 10000 4.1 340 10:18 10.08.2019
3864 Clear 31 1011 38 10000 4.6 350 09:40 10.08.2019
3865 Clear 32 1011 38 10000 4.6 350 09:22 10.08.2019
3866 Clear 33 1011 35 10000 4.6 330 08:42 10.08.2019
3867 Clear 33 1011 31 10000 5.1 330 08:20 10.08.2019
3868 Clear 33 1011 31 10000 5.1 330 07:54 10.08.2019
3869 Clear 33 1011 31 10000 5.1 330 07:54 10.08.2019
3870 Clear 33 1012 35 10000 6.2 300 07:29 10.08.2019
3871 Clear 33 1012 22 10000 4.1 330 06:49 10.08.2019
3872 Clear 34 1012 22 10000 4.1 330 06:26 10.08.2019
3873 Clear 33 1013 21 10000 4.1 70 05:26 10.08.2019
3874 Clear 31 1014 29 10000 5.1 80 04:35 10.08.2019
3875 Clear 29 1015 42 10000 6.2 80 02:56 10.08.2019
3876 Clear 28 1015 51 10000 3.6 80 02:26 10.08.2019
3877 Clear 27 1014 74 10000 1.5 80 01:42 10.08.2019
3878 Clear 26 1014 74 10000 1.5 80 01:22 10.08.2019
3879 Clear 24 1014 88 10000 1.5 80 00:49 10.08.2019
3880 Clear 22 1014 88 10000 1.5 80 00:25 10.08.2019
3881 Fog 22 1013 94 9000 1.99 34.034 23:45 09.08.2019
3882 Fog 22 1013 94 9000 1.99 34.034 23:24 09.08.2019
3883 Fog 22 1013 100 8000 0.5 40 22:58 09.08.2019
3884 Fog 22 1013 100 9000 1.99 34.034 22:39 09.08.2019
3885 Fog 22 1013 100 9000 1.99 34.034 22:39 09.08.2019
3886 Fog 22 1013 100 9000 1.99 34.034 22:20 09.08.2019
3887 Clouds 22 1013 94 10000 1.99 34.034 21:55 09.08.2019
3888 Clouds 21 1012 94 10000 1.99 34.034 21:36 09.08.2019
3889 Clouds 21 1012 88 10000 3.13 115.418 21:18 09.08.2019
3890 Clouds 21 1012 88 10000 3.13 122.709 20:54 09.08.2019
3891 Clouds 22 1012 88 10000 3.13 122.709 20:36 09.08.2019
3892 Clouds 22 1013 83 10000 3.13 122.709 20:18 09.08.2019
3893 Clouds 22 1013 83 10000 0.5 40 19:41 09.08.2019
3894 Clouds 22 1013 83 10000 1 60 19:19 09.08.2019
3895 Clouds 22 1013 83 10000 1 60 19:19 09.08.2019
3896 Clouds 22 1014 83 10000 2.1 50 18:42 09.08.2019
3897 Clouds 23 1014 83 10000 2.1 50 18:22 09.08.2019
3898 Clouds 23 1014 83 10000 0.5 70 17:58 09.08.2019
3899 Clouds 23 1013 83 10000 0.5 330 17:40 09.08.2019
3900 Clear 24 1013 83 10000 1 190 17:22 09.08.2019
3901 Clear 24 1013 78 10000 0.5 190 16:42 09.08.2019
3902 Clear 24 1013 78 10000 0.5 190 16:42 09.08.2019
3903 Clear 25 1013 78 10000 0.5 190 16:23 09.08.2019
3904 Clear 25 1013 73 10000 1.5 230 15:58 09.08.2019
3905 Clear 25 1013 69 10000 1.5 220 15:39 09.08.2019
3906 Clear 25 1013 69 10000 1.5 250 15:20 09.08.2019
3907 Clear 26 1013 69 10000 1.5 250 14:55 09.08.2019
3908 Clear 26 1012 69 10000 1 310 14:37 09.08.2019
3909 Clear 26 1012 69 10000 1.5 260 14:19 09.08.2019
3910 Clear 26 1012 69 10000 1.5 290 13:43 09.08.2019
3911 Clear 26 1012 69 10000 1.5 290 13:20 09.08.2019
3912 Clear 26 1011 65 10000 2.6 270 12:47 09.08.2019
3913 Clear 26 1011 65 10000 2.6 270 12:24 09.08.2019
3914 Clear 27 1011 65 10000 2.6 270 11:59 09.08.2019
3915 Clear 27 1011 65 10000 2.6 270 11:59 09.08.2019
3916 Clear 27 1010 61 10000 4.1 250 11:37 09.08.2019
3917 Clear 27 1010 65 10000 3.6 290 11:19 09.08.2019
3918 Clouds 28 1010 61 10000 4.6 290 10:41 09.08.2019
3919 Clouds 28 1010 61 10000 4.6 290 10:41 09.08.2019
3920 Clouds 28 1010 61 10000 4.6 290 10:22 09.08.2019
3921 Clouds 30 1010 62 10000 4.6 340 09:46 09.08.2019
3922 Clouds 30 1010 62 10000 4.6 340 09:20 09.08.2019
3923 Clouds 31 1010 58 10000 6.2 310 08:59 09.08.2019
3924 Clouds 32 1010 48 10000 5.7 300 08:40 09.08.2019
3925 Clouds 32 1010 48 10000 5.7 300 08:21 09.08.2019
3926 Clear 33 1010 40 10000 4.1 310 07:53 09.08.2019
3927 Clear 33 1010 40 10000 4.1 310 07:24 09.08.2019
3928 Clouds 33 1011 38 10000 3.6 300 06:56 09.08.2019
3929 Clouds 33 1011 38 10000 3.6 300 06:36 09.08.2019
3930 Clouds 33 1012 38 10000 3.6 300 05:58 09.08.2019
3931 Clouds 31 1013 48 10000 3.1 350 04:25 09.08.2019
3932 Clear 29 1014 54 10000 1 320 02:23 09.08.2019
3933 Clear 25 1013 83 10000 1.5 360 00:56 09.08.2019
3934 Clear 25 1014 88 10000 2.6 50 00:38 09.08.2019
3935 Clouds 23 1014 94 10000 3.1 50 00:20 09.08.2019
3936 Clouds 22 1013 94 10000 3.1 50 23:39 08.08.2019
3937 Clouds 22 1013 94 10000 3.1 50 23:20 08.08.2019
3938 Clear 23 1013 94 10000 2.6 40 22:59 08.08.2019
3939 Clouds 23 1013 94 10000 3.1 40 22:37 08.08.2019
3940 Clouds 23 1013 94 10000 2.1 50 22:19 08.08.2019
3941 Clouds 23 1013 94 10000 2.1 50 21:59 08.08.2019
3942 Clouds 22 1013 88 10000 2.1 40 21:41 08.08.2019
3943 Clouds 22 1013 88 10000 2.1 40 21:22 08.08.2019
3944 Clouds 22 1013 94 10000 1.5 50 20:56 08.08.2019
3945 Clouds 22 1013 94 10000 1.5 50 20:38 08.08.2019
3946 Clouds 22 1013 94 10000 1 30 20:19 08.08.2019
3947 Clouds 21 1013 94 10000 3.63 93.425 19:44 08.08.2019
3948 Clouds 21 1013 94 10000 3.63 93.425 19:24 08.08.2019
3949 Clouds 22 1012 88 10000 0.5 330 18:44 08.08.2019
3950 Clouds 23 1012 88 10000 0.5 330 18:24 08.08.2019
3951 Clouds 24 1012 83 10000 2.1 270 17:58 08.08.2019
3952 Clouds 24 1013 83 10000 1 300 17:40 08.08.2019
3953 Clouds 23 1013 83 10000 1 300 17:22 08.08.2019
3954 Clear 24 1013 83 10000 1 260 16:55 08.08.2019
3955 Clear 24 1013 78 10000 2.1 250 16:37 08.08.2019
3956 Clear 24 1013 78 10000 2.1 250 16:19 08.08.2019
3957 Clear 25 1013 73 10000 1.5 260 15:41 08.08.2019
3958 Clear 25 1013 73 10000 1.5 260 15:23 08.08.2019
3959 Clear 25 1013 73 10000 2.6 260 14:59 08.08.2019
3960 Clear 25 1012 73 10000 1.5 250 14:37 08.08.2019
3961 Clear 25 1012 78 10000 2.1 240 14:18 08.08.2019
3962 Clear 26 1012 69 10000 2.6 230 13:40 08.08.2019
3963 Clear 26 1012 69 10000 2.6 230 13:20 08.08.2019
3964 Clear 26 1011 57 10000 2.6 240 12:43 08.08.2019
3965 Clear 26 1011 57 10000 2.6 240 12:23 08.08.2019
3966 Clear 26 1011 65 10000 2.1 280 11:59 08.08.2019
3967 Clouds 26 1010 61 10000 3.1 290 11:39 08.08.2019
3968 Clouds 27 1010 61 10000 3.1 290 11:21 08.08.2019
3969 Clouds 28 1010 58 10000 4.1 300 10:41 08.08.2019
3970 Clouds 28 1010 58 10000 4.1 300 10:22 08.08.2019
3971 Clouds 29 1010 54 10000 4.6 310 09:53 08.08.2019
3972 Clouds 30 1010 54 10000 4.6 310 09:32 08.08.2019
3973 Clouds 30 1010 48 10000 4.6 340 08:59 08.08.2019
3974 Clouds 30 1010 51 10000 4.6 330 08:39 08.08.2019
3975 Clouds 30 1010 51 10000 4.6 330 08:20 08.08.2019
3976 Clouds 30 1010 51 10000 4.6 340 07:41 08.08.2019
3977 Clouds 30 1011 54 10000 5.1 290 07:20 08.08.2019
3978 Clouds 30 1011 54 10000 5.1 290 06:56 08.08.2019
3979 Clouds 31 1011 51 10000 4.1 330 06:37 08.08.2019
3980 Clouds 30 1012 54 10000 4.6 350 05:53 08.08.2019
3981 Clouds 30 1012 54 10000 4.6 330 05:19 08.08.2019
3982 Clouds 30 1014 54 10000 3.6 350 03:54 08.08.2019
3983 Clear 29 1014 58 10000 1.5 360 02:51 08.08.2019
3984 Clouds 25 1014 83 10000 2.1 30 01:38 08.08.2019
3985 Clouds 21 1013 94 7000 2.1 70 00:27 08.08.2019
3986 Clouds 21 1013 100 9000 2.1 60 23:59 07.08.2019
3987 Clear 21 1012 100 10000 2.6 60 23:22 07.08.2019
3988 Clear 21 1012 100 10000 3.6 60 22:59 07.08.2019
3989 Clear 21 1012 94 10000 1.5 60 22:40 07.08.2019
3990 Clear 21 1012 94 10000 1.5 60 22:20 07.08.2019
3991 Clouds 21 1011 94 10000 1.5 50 21:56 07.08.2019
3992 Clouds 21 1011 94 10000 2.6 60 21:38 07.08.2019
3993 Clouds 21 1011 94 10000 2.6 60 21:19 07.08.2019
3994 Clear 21 1011 100 9000 2.6 50 20:55 07.08.2019
3995 Clouds 21 1011 94 10000 2.6 50 20:36 07.08.2019
3996 Clouds 22 1011 94 10000 0.5 200 20:18 07.08.2019
3997 Clouds 22 1011 88 10000 1.5 220 19:40 07.08.2019
3998 Clouds 22 1011 94 10000 1.5 220 19:22 07.08.2019
3999 Clouds 22 1011 94 10000 1.5 220 18:55 07.08.2019
4000 Clouds 22 1011 94 10000 2.1 220 18:37 07.08.2019
4001 Clear 23 1011 88 10000 2.1 210 18:19 07.08.2019
4002 Clear 23 1011 88 10000 2.1 210 17:54 07.08.2019
4003 Clear 23 1011 88 10000 2.1 200 17:36 07.08.2019
4004 Clouds 23 1011 88 10000 2.6 220 17:18 07.08.2019
4005 Clouds 23 1011 88 10000 2.6 220 16:54 07.08.2019
4006 Clear 23 1012 88 10000 3.1 220 16:36 07.08.2019
4007 Clear 24 1012 83 10000 2.1 210 16:18 07.08.2019
4008 Clear 24 1012 88 10000 3.1 210 15:42 07.08.2019
4009 Clear 24 1012 88 10000 3.1 210 15:19 07.08.2019
4010 Clear 24 1012 78 10000 3.6 220 14:49 07.08.2019
4011 Clear 24 1011 78 10000 3.6 230 14:30 07.08.2019
4012 Clear 25 1011 78 10000 3.1 230 13:57 07.08.2019
4013 Clouds 25 1011 73 10000 3.1 240 13:38 07.08.2019
4014 Clouds 25 1011 69 10000 3.1 250 13:19 07.08.2019
4015 Clouds 25 1011 69 10000 3.1 250 12:56 07.08.2019
4016 Clouds 25 1011 69 10000 2.6 280 12:37 07.08.2019
4017 Clouds 25 1010 69 10000 3.1 290 12:19 07.08.2019
4018 Clouds 26 1010 69 10000 4.1 300 11:43 07.08.2019
4019 Clouds 26 1010 69 10000 4.1 300 11:21 07.08.2019
4020 Clouds 27 1010 65 10000 3.1 270 10:58 07.08.2019
4021 Clouds 27 1009 65 10000 5.7 300 10:40 07.08.2019
4022 Clouds 27 1009 65 10000 5.7 300 10:19 07.08.2019
4023 Clouds 28 1009 58 10000 5.7 290 09:46 07.08.2019
4024 Clouds 28 1009 58 10000 5.7 290 09:46 07.08.2019
4025 Clouds 29 1009 58 10000 5.7 290 09:23 07.08.2019
4026 Clouds 30 1009 51 10000 5.1 300 08:59 07.08.2019
4027 Clouds 30 1009 54 10000 5.7 300 08:41 07.08.2019
4028 Clouds 30 1010 58 10000 5.1 310 08:23 07.08.2019
4029 Clouds 30 1010 54 10000 5.7 320 07:43 07.08.2019
4030 Clouds 30 1010 54 10000 5.7 320 07:21 07.08.2019
4031 Clouds 30 1011 48 10000 4.6 300 06:41 07.08.2019
4032 Clouds 31 1011 51 10000 4.1 310 06:20 07.08.2019
4033 Clouds 30 1011 51 10000 4.1 300 05:40 07.08.2019
4034 Clouds 29 1013 54 10000 2.1 330 03:26 07.08.2019
4035 Clouds 29 1014 54 10000 1 120 02:51 07.08.2019
4036 Clouds 28 1014 61 10000 1 350 02:30 07.08.2019
4037 Clouds 26 1013 69 10000 1.98 174.31 01:48 07.08.2019
4038 Clouds 23 1013 83 10000 2.15 174.432 00:53 07.08.2019
4039 Clouds 22 1013 83 10000 2.27 144.847 00:23 07.08.2019
4040 Clouds 21 1013 88 10000 1.5 120 23:47 06.08.2019
4041 Clouds 21 1013 88 10000 1.5 120 23:23 06.08.2019
4042 Clouds 21 1012 83 10000 1.5 130 22:59 06.08.2019
4043 Clouds 21 1012 83 10000 1.5 120 22:40 06.08.2019
4044 Clouds 21 1012 83 10000 1.5 120 22:20 06.08.2019
4045 Clouds 21 1012 83 10000 2.1 130 21:45 06.08.2019
4046 Clouds 21 1012 83 10000 2.1 130 21:26 06.08.2019
4047 Clouds 21 1012 83 10000 2.1 130 20:59 06.08.2019
4048 Clouds 21 1012 83 10000 2.1 130 20:59 06.08.2019
4049 Clear 21 1011 78 10000 1.5 130 20:41 06.08.2019
4050 Clear 21 1011 78 10000 1.5 130 20:23 06.08.2019
4051 Clear 21 1012 83 10000 1 170 19:48 06.08.2019
4052 Clear 21 1012 83 10000 1 170 19:48 06.08.2019
4053 Clear 21 1012 83 10000 1 170 19:29 06.08.2019
4054 Clear 22 1011 78 10000 1.5 190 18:57 06.08.2019
4055 Clear 23 1011 73 10000 2.6 210 18:38 06.08.2019
4056 Clear 22 1011 77 10000 2.6 270 18:19 06.08.2019
4057 Clear 22 1011 77 10000 2.6 270 18:19 06.08.2019
4058 Clear 21 1011 77 10000 2.6 270 17:56 06.08.2019
4059 Clear 22 1011 73 10000 0.5 350 17:37 06.08.2019
4060 Clear 22 1011 73 10000 2.49 237.152 17:18 06.08.2019
4061 Clear 22 1011 69 10000 2.49 237.152 16:43 06.08.2019
4062 Clear 22 1011 69 10000 2.49 237.152 16:24 06.08.2019
4063 Clear 22 1011 73 10000 2.49 237.152 15:58 06.08.2019
4064 Clear 22 1011 69 10000 0.5 80 15:39 06.08.2019
4065 Clear 22 1011 69 10000 0.5 80 15:21 06.08.2019
4066 Clear 23 1011 61 10000 1 120 14:46 06.08.2019
4067 Clear 24 1011 61 10000 1 120 14:27 06.08.2019
4068 Clear 24 1011 57 10000 1.5 160 13:59 06.08.2019
4069 Clear 24 1011 57 10000 2.6 30 13:41 06.08.2019
4070 Clear 24 1011 57 10000 2.6 30 13:41 06.08.2019
4071 Clear 24 1010 57 10000 2.6 30 13:23 06.08.2019
4072 Clear 25 1010 57 10000 2.6 30 12:59 06.08.2019
4073 Clear 25 1010 54 10000 2.6 30 12:39 06.08.2019
4074 Clear 25 1010 54 10000 2.6 30 12:21 06.08.2019
4075 Clear 25 1010 54 10000 2.6 30 12:21 06.08.2019
4076 Clear 26 1009 47 10000 4.1 20 11:45 06.08.2019
4077 Clear 27 1009 47 10000 4.1 20 11:20 06.08.2019
4078 Clear 28 1009 45 10000 5.7 10 10:56 06.08.2019
4079 Clear 29 1009 42 10000 5.7 10 10:38 06.08.2019
4080 Clear 29 1009 42 10000 5.7 10 10:20 06.08.2019
4081 Clear 30 1009 40 10000 5.7 360 09:41 06.08.2019
4082 Clear 31 1009 38 10000 4.6 350 09:21 06.08.2019
4083 Clear 31 1009 35 10000 4.6 330 08:49 06.08.2019
4084 Clear 32 1009 35 10000 4.6 330 08:28 06.08.2019
4085 Clear 32 1009 33 10000 4.1 310 07:59 06.08.2019
4086 Clear 33 1010 33 10000 3.6 290 07:29 06.08.2019
4087 Clear 32 1011 29 10000 4.1 340 06:44 06.08.2019
4088 Clear 32 1012 25 10000 4.1 340 06:21 06.08.2019
4089 Clear 31 1012 27 10000 4.1 340 05:21 06.08.2019
4090 Clouds 27 1014 65 10000 2.6 70 02:00 06.08.2019
4091 Clouds 25 1014 78 10000 1 60 01:25 06.08.2019
4092 Fog 22 1013 88 10000 3.64 99.943 00:39 06.08.2019
4093 Fog 21 1013 94 10000 4.31 65.438 23:52 05.08.2019
4094 Clouds 21 1013 94 10000 4.31 65.438 23:20 05.08.2019
4095 Clouds 21 1013 88 10000 4.31 65.438 22:42 05.08.2019
4096 Clouds 21 1013 88 10000 4.31 65.438 22:23 05.08.2019
4097 Clouds 21 1013 88 10000 4.31 65.438 21:58 05.08.2019
4098 Clouds 21 1013 94 10000 4.31 65.438 21:39 05.08.2019
4099 Clouds 21 1013 88 10000 0.5 320 21:19 05.08.2019
4100 Clouds 21 1013 94 10000 3.4 56.829 21:19 05.08.2019
4101 Clouds 21 1013 88 10000 0.5 320 20:56 05.08.2019
4102 Clouds 21 1013 88 10000 1.5 340 20:37 05.08.2019
4103 Clouds 21 1013 94 10000 1 10 20:19 05.08.2019
4104 Clouds 21 1013 88 10000 1 360 19:43 05.08.2019
4105 Clouds 21 1013 88 10000 1 360 19:24 05.08.2019
4106 Clouds 21 1013 88 10000 1 10 18:58 05.08.2019
4107 Clouds 21 1013 88 10000 1 90 18:40 05.08.2019
4108 Clouds 21 1013 88 10000 1 90 18:19 05.08.2019
4109 Clouds 22 1013 88 10000 1 60 17:46 05.08.2019
4110 Clouds 22 1013 88 10000 1 60 17:27 05.08.2019
4111 Clear 22 1013 88 10000 1 70 16:47 05.08.2019
4112 Clear 21 1013 88 10000 1 70 16:26 05.08.2019
4113 Clear 22 1013 88 10000 2.06 133.052 15:56 05.08.2019
4114 Clear 22 1013 83 10000 0.5 230 15:38 05.08.2019
4115 Clear 22 1013 83 10000 0.5 230 15:19 05.08.2019
4116 Clear 24 1013 73 10000 2.1 240 14:39 05.08.2019
4117 Clear 24 1013 73 10000 2.1 240 14:19 05.08.2019
4118 Clear 24 1013 78 10000 2.1 260 13:44 05.08.2019
4119 Clear 24 1013 78 10000 2.1 260 13:22 05.08.2019
4120 Clear 25 1012 78 10000 3.1 290 12:49 05.08.2019
4121 Clear 25 1012 69 10000 3.6 300 12:20 05.08.2019
4122 Clear 26 1012 65 10000 4.6 310 11:48 05.08.2019
4123 Clear 26 1012 65 10000 4.6 310 11:28 05.08.2019
4124 Clear 27 1012 61 10000 4.1 320 10:59 05.08.2019
4125 Clear 27 1011 65 10000 5.1 310 10:41 05.08.2019
4126 Clear 28 1011 65 10000 5.1 310 10:21 05.08.2019
4127 Clear 28 1011 58 10000 4.6 330 09:43 05.08.2019
4128 Clear 30 1011 58 10000 4.6 330 09:25 05.08.2019
4129 Clear 31 1011 45 10000 4.6 300 08:59 05.08.2019
4130 Clear 31 1011 45 10000 4.6 310 08:40 05.08.2019
4131 Clear 31 1011 45 10000 4.6 310 08:20 05.08.2019
4132 Clear 31 1011 45 10000 4.6 310 08:20 05.08.2019
4133 Clear 31 1012 31 10000 4.1 340 07:42 05.08.2019
4134 Clear 31 1012 29 10000 3.1 170 07:22 05.08.2019
4135 Clear 31 1013 33 10000 3.6 190 06:32 05.08.2019
4136 Clear 30 1014 45 10000 3.1 160 05:51 05.08.2019
4137 Clear 30 1014 45 10000 3.1 160 05:19 05.08.2019
4138 Clouds 28 1015 54 10000 2.6 190 04:25 05.08.2019
4139 Clouds 27 1016 61 10000 3.1 210 03:38 05.08.2019
4140 Clear 26 1016 73 10000 2.6 170 02:36 05.08.2019
4141 Clear 24 1015 78 10000 5.1 100 01:35 05.08.2019
4142 Clear 21 1015 94 10000 1 200 00:43 05.08.2019
4143 Clear 19 1015 94 10000 1 200 00:23 05.08.2019
4144 Clear 19 1014 94 10000 1.5 160 23:58 04.08.2019
4145 Clouds 19 1014 88 10000 2.1 150 23:40 04.08.2019
4146 Clouds 19 1014 88 10000 2.1 150 23:19 04.08.2019
4147 Clouds 19 1014 94 10000 1.5 170 22:55 04.08.2019
4148 Clouds 19 1014 88 10000 4.09 119.086 22:37 04.08.2019
4149 Clouds 20 1013 83 10000 1 190 22:18 04.08.2019
4150 Clouds 20 1014 88 10000 1 170 21:43 04.08.2019
4151 Clouds 20 1014 88 10000 1 170 21:20 04.08.2019
4152 Clouds 20 1014 88 10000 1 170 21:20 04.08.2019
4153 Clouds 20 1014 88 10000 2.1 120 20:46 04.08.2019
4154 Clouds 20 1014 88 10000 2.1 120 20:21 04.08.2019
4155 Clouds 20 1014 94 10000 3.4 144.257 19:59 04.08.2019
4156 Clouds 20 1015 88 10000 0.5 250 19:39 04.08.2019
4157 Clouds 21 1015 88 10000 0.5 250 19:21 04.08.2019
4158 Clouds 21 1015 83 10000 1.5 220 18:42 04.08.2019
4159 Clouds 21 1015 83 10000 1.5 220 18:21 04.08.2019
4160 Clouds 22 1015 83 10000 2.15 212.172 17:46 04.08.2019
4161 Clouds 22 1015 83 10000 2.15 212.172 17:26 04.08.2019
4162 Clear 23 1015 83 10000 1 200 16:59 04.08.2019
4163 Clear 22 1015 83 10000 2.1 180 16:40 04.08.2019
4164 Clear 23 1015 83 10000 2.6 210 16:20 04.08.2019
4165 Clear 23 1015 83 10000 2.6 210 15:44 04.08.2019
4166 Clear 24 1015 83 10000 2.6 210 15:23 04.08.2019
4167 Clear 23 1014 78 10000 2.6 220 14:45 04.08.2019
4168 Clear 23 1014 78 10000 2.6 220 14:27 04.08.2019
4169 Clear 24 1014 69 10000 2.6 210 13:59 04.08.2019
4170 Clear 24 1014 73 10000 1 20 13:41 04.08.2019
4171 Clear 24 1014 73 10000 1 20 13:22 04.08.2019
4172 Clear 24 1013 65 10000 2.6 360 12:44 04.08.2019
4173 Clear 24 1013 65 10000 2.6 360 12:25 04.08.2019
4174 Clear 25 1012 57 10000 2.1 350 11:56 04.08.2019
4175 Clear 26 1012 54 10000 2.1 330 11:37 04.08.2019
4176 Clear 27 1012 54 10000 2.1 330 11:19 04.08.2019
4177 Clear 28 1012 45 10000 2.6 340 10:40 04.08.2019
4178 Clear 29 1012 45 10000 2.6 340 10:20 04.08.2019
4179 Clear 30 1011 42 10000 4.6 10 09:44 04.08.2019
4180 Clear 30 1011 42 10000 4.6 10 09:22 04.08.2019
4181 Clear 30 1011 29 10000 4.6 130 08:45 04.08.2019
4182 Clear 31 1011 29 10000 4.6 130 08:26 04.08.2019
4183 Clear 31 1011 29 10000 4.6 60 07:52 04.08.2019
4184 Clear 30 1012 28 10000 7.2 100 06:57 04.08.2019
4185 Clear 31 1013 27 10000 6.2 60 06:28 04.08.2019
4186 Clear 29 1015 37 10000 7.7 90 04:26 04.08.2019
4187 Clear 26 1016 44 10000 3.6 110 02:41 04.08.2019
4188 Clear 23 1016 43 10000 3.6 110 01:39 04.08.2019
4189 Clear 22 1016 46 10000 2.1 100 01:18 04.08.2019
4190 Clear 20 1016 56 10000 3.6 100 00:41 04.08.2019
4191 Clear 19 1015 56 10000 3.6 110 00:19 04.08.2019
4192 Clouds 18 1015 64 9000 3.6 100 23:40 03.08.2019
4193 Clouds 18 1015 64 7000 1.5 80 23:18 03.08.2019
4194 Clear 19 1015 56 10000 3.1 80 22:44 03.08.2019
4195 Clear 19 1015 56 10000 3.1 80 22:21 03.08.2019
4196 Clouds 19 1015 56 10000 2.6 100 21:56 03.08.2019
4197 Clouds 18 1015 77 10000 2.1 130 21:36 03.08.2019
4198 Clouds 18 1015 77 10000 2.1 130 21:36 03.08.2019
4199 Clear 18 1015 82 10000 1.5 150 21:18 03.08.2019
4200 Clear 18 1015 82 10000 1.5 150 21:18 03.08.2019
4201 Clouds 18 1015 77 10000 1.5 140 20:41 03.08.2019
4202 Clouds 19 1015 77 10000 1.5 140 20:20 03.08.2019
4203 Clouds 19 1015 73 10000 3.6 140 19:42 03.08.2019
4204 Clouds 19 1015 73 10000 3.6 140 19:42 03.08.2019
4205 Clouds 19 1015 73 10000 3.6 140 19:23 03.08.2019
4206 Clouds 18 1015 88 10000 4.33 128.177 18:53 03.08.2019
4207 Clouds 20 1015 77 10000 2.1 180 18:27 03.08.2019
4208 Clouds 20 1015 82 10000 0.5 190 17:49 03.08.2019
4209 Clouds 21 1015 77 10000 2.1 180 17:21 03.08.2019
4210 Clear 21 1015 77 10000 0.5 190 16:56 03.08.2019
4211 Clear 21 1015 73 10000 1.17 135.591 16:37 03.08.2019
4212 Clear 21 1015 73 10000 1.17 135.591 16:19 03.08.2019
4213 Clear 21 1015 64 10000 1 200 15:43 03.08.2019
4214 Clear 21 1015 64 10000 1 200 15:23 03.08.2019
4215 Clear 21 1015 64 10000 1 230 14:41 03.08.2019
4216 Clear 21 1015 64 10000 1 230 14:21 03.08.2019
4217 Clear 21 1015 64 10000 1 230 14:21 03.08.2019
4218 Clear 20 1015 68 10000 3.94 221.838 13:52 03.08.2019
4219 Clear 22 1015 60 10000 3.37 220.245 13:25 03.08.2019
4220 Clear 23 1014 60 10000 1 300 12:58 03.08.2019
4221 Clear 24 1014 53 10000 1.5 330 12:39 03.08.2019
4222 Clear 24 1014 50 10000 2.1 330 12:21 03.08.2019
4223 Clear 25 1014 50 10000 2.1 330 11:49 03.08.2019
4224 Clear 26 1013 44 10000 2.6 320 11:27 03.08.2019
4225 Clear 29 1012 55 10000 3.1 310 10:42 03.08.2019
4226 Clear 30 1012 55 10000 3.1 310 10:22 03.08.2019
4227 Clear 31 1012 14 10000 4.6 110 09:42 03.08.2019
4228 Clear 31 1012 14 10000 4.6 110 09:22 03.08.2019
4229 Clear 31 1012 12 10000 5.1 140 08:52 03.08.2019
4230 Clear 31 1013 50 10000 5.7 110 07:55 03.08.2019
4231 Clear 30 1013 50 10000 5.1 140 07:32 03.08.2019
4232 Clear 30 1014 13 10000 5.7 130 06:36 03.08.2019
4233 Clear 28 1016 15 10000 6.7 140 04:41 03.08.2019
4234 Clear 23 1018 24 10000 5.1 150 02:39 03.08.2019
4235 Clear 21 1017 30 10000 4.1 150 01:50 03.08.2019
4236 Clear 18 1017 45 10000 3.1 160 00:49 03.08.2019
4237 Clear 17 1017 42 10000 2.6 160 23:59 02.08.2019
4238 Clear 16 1017 45 10000 2.6 160 23:40 02.08.2019
4239 Clear 16 1016 39 10000 2.6 150 23:19 02.08.2019
4240 Clear 16 1016 39 10000 2.6 150 22:57 02.08.2019
4241 Clear 17 1016 33 10000 2.6 150 22:38 02.08.2019
4242 Clear 15 1016 33 10000 2.6 150 22:19 02.08.2019
4243 Clouds 15 1016 33 10000 2.1 150 21:43 02.08.2019
4244 Clouds 16 1016 33 10000 2.1 150 21:25 02.08.2019
4245 Clouds 16 1016 42 10000 2.6 140 20:59 02.08.2019
4246 Clouds 16 1016 42 10000 2.1 120 20:40 02.08.2019
4247 Clouds 16 1016 42 10000 2.1 120 20:20 02.08.2019
4248 Clouds 18 1016 22 10000 3.6 130 19:46 02.08.2019
4249 Clouds 19 1016 22 10000 3.6 130 19:26 02.08.2019
4250 Clouds 19 1016 28 10000 2.6 150 18:45 02.08.2019
4251 Clouds 20 1016 28 10000 2.6 150 18:26 02.08.2019
4252 Clouds 20 1016 28 10000 2.6 150 17:48 02.08.2019
4253 Clouds 20 1016 28 10000 2.6 150 17:25 02.08.2019
4254 Clear 20 1016 52 10000 2.1 120 16:58 02.08.2019
4255 Clear 20 1016 52 10000 7.22 99.627 16:38 02.08.2019
4256 Clear 20 1016 60 10000 7.22 99.627 16:19 02.08.2019
4257 Clear 21 1016 56 10000 7.22 99.627 15:39 02.08.2019
4258 Clear 21 1016 56 10000 1.92 37.483 15:19 02.08.2019
4259 Clear 21 1016 68 10000 0.5 250 14:46 02.08.2019
4260 Clear 21 1016 64 10000 1.92 37.483 14:18 02.08.2019
4261 Clear 21 1016 64 10000 1.92 37.483 13:49 02.08.2019
4262 Clear 22 1015 64 10000 0.5 360 13:27 02.08.2019
4263 Clear 23 1015 50 10000 1.5 350 12:46 02.08.2019
4264 Clear 24 1015 50 10000 1.5 350 12:23 02.08.2019
4265 Clear 24 1014 44 10000 2.6 350 11:55 02.08.2019
4266 Clear 27 1014 14 10000 2.6 350 11:37 02.08.2019
4267 Clear 28 1014 10 10000 3.1 120 11:18 02.08.2019
4268 Clear 29 1013 10 10000 4.1 140 10:41 02.08.2019
4269 Clear 30 1013 10 10000 4.1 140 10:23 02.08.2019
4270 Clear 30 1013 9 10000 4.6 140 09:52 02.08.2019
4271 Clear 31 1013 10 10000 5.1 140 09:26 02.08.2019
4272 Clear 30 1013 9 10000 5.1 140 08:50 02.08.2019
4273 Clear 31 1013 11 10000 5.7 110 08:23 02.08.2019
4274 Clear 31 1014 11 10000 4.1 130 07:51 02.08.2019
4275 Clear 31 1014 11 10000 4.1 130 07:31 02.08.2019
4276 Clear 30 1014 12 10000 5.7 120 06:51 02.08.2019
4277 Clear 30 1015 47 10000 6.7 130 06:24 02.08.2019
4278 Clear 28 1016 23 10000 6.7 130 05:26 02.08.2019
4279 Clear 26 1018 34 10000 8.2 110 03:29 02.08.2019
4280 Clear 23 1018 43 10000 8.2 110 02:33 02.08.2019
4281 Clear 20 1017 42 10000 4.6 130 00:47 02.08.2019
4282 Clear 19 1017 45 10000 4.6 130 00:18 02.08.2019
4283 Clear 19 1017 42 10000 5.7 130 23:43 01.08.2019
4284 Clear 19 1017 42 10000 5.7 130 23:19 01.08.2019
4285 Clear 20 1016 37 10000 4.1 140 22:40 01.08.2019
4286 Clear 21 1016 33 10000 4.6 110 22:21 01.08.2019
4287 Clear 21 1016 31 10000 4.6 100 21:44 01.08.2019
4288 Clouds 21 1016 31 10000 4.6 100 21:24 01.08.2019
4289 Clouds 22 1016 31 10000 4.6 100 20:59 01.08.2019
4290 Clouds 22 1016 31 10000 5.1 110 20:40 01.08.2019
4291 Clouds 22 1016 31 10000 5.7 100 20:21 01.08.2019
4292 Clouds 22 1016 31 10000 6.7 100 19:42 01.08.2019
4293 Clouds 21 1016 29 10000 5.7 100 19:22 01.08.2019
4294 Clouds 22 1016 29 10000 5.7 100 18:46 01.08.2019
4295 Clouds 23 1016 29 10000 5.7 100 18:25 01.08.2019
4296 Clouds 23 1016 29 10000 4.6 100 17:57 01.08.2019
4297 Clouds 23 1016 31 10000 4.6 100 17:39 01.08.2019
4298 Clear 23 1016 31 10000 4.1 90 17:20 01.08.2019
4299 Clear 24 1016 29 10000 3.6 90 16:44 01.08.2019
4300 Clear 24 1016 29 10000 3.6 90 16:21 01.08.2019
4301 Clear 24 1016 44 10000 2.1 90 15:45 01.08.2019
4302 Clear 23 1016 56 10000 1.5 70 15:20 01.08.2019
4303 Clear 23 1016 53 10000 1.5 70 14:44 01.08.2019
4304 Clear 23 1016 53 10000 1.5 70 14:21 01.08.2019
4305 Clear 24 1016 50 10000 1.5 80 13:59 01.08.2019
4306 Clear 24 1015 47 10000 3.1 50 13:40 01.08.2019
4307 Clear 24 1015 36 10000 2.6 40 13:21 01.08.2019
4308 Clear 25 1015 36 10000 2.6 40 12:52 01.08.2019
4309 Clear 26 1014 26 10000 2.6 110 12:33 01.08.2019
4310 Clear 28 1014 23 10000 3.6 110 11:58 01.08.2019
4311 Clear 29 1013 20 10000 6.2 110 11:40 01.08.2019
4312 Clear 29 1013 20 10000 6.2 110 11:22 01.08.2019
4313 Clear 31 1013 17 10000 6.7 110 10:43 01.08.2019
4314 Clear 31 1013 17 10000 6.7 110 10:25 01.08.2019
4315 Clear 31 1012 15 10000 7.2 130 09:50 01.08.2019
4316 Clear 32 1012 15 10000 7.2 120 09:24 01.08.2019
4317 Dust 32 1012 15 10000 6.2 120 08:57 01.08.2019
4318 Clear 32 1012 15 10000 7.7 120 08:39 01.08.2019
4319 Clear 32 1013 19 10000 6.7 110 08:18 01.08.2019
4320 Clear 32 1013 18 10000 6.7 100 07:45 01.08.2019
4321 Clear 32 1014 19 10000 6.7 110 07:20 01.08.2019
4322 Clear 31 1014 19 10000 8.2 100 06:39 01.08.2019
4323 Clear 31 1015 20 10000 9.8 80 05:32 01.08.2019
4324 Clear 26 1017 61 10000 4.6 130 02:41 01.08.2019
4325 Clear 24 1017 78 10000 2.6 130 01:45 01.08.2019
4326 Clear 20 1017 88 10000 1.5 130 00:41 01.08.2019
4327 Fog 19 1016 88 10000 1 120 00:19 01.08.2019
4328 Fog 19 1016 93 10000 5.33 121.946 23:42 31.07.2019
4329 Clear 19 1016 93 10000 5.33 121.946 23:20 31.07.2019
4330 Clear 19 1015 88 10000 5.33 121.946 22:46 31.07.2019
4331 Clear 19 1015 88 10000 5.33 121.946 22:28 31.07.2019
4332 Clouds 19 1015 88 10000 1 100 21:45 31.07.2019
4333 Clouds 20 1015 88 10000 1 100 21:24 31.07.2019
4334 Clouds 20 1015 83 10000 1.5 90 20:56 31.07.2019
4335 Clouds 20 1015 88 10000 1 80 20:38 31.07.2019
4336 Clouds 20 1015 88 10000 1 80 20:20 31.07.2019
4337 Clouds 21 1016 83 10000 1 30 19:41 31.07.2019
4338 Clouds 21 1016 83 10000 2.1 50 19:22 31.07.2019
4339 Clouds 21 1016 94 10000 0.5 90 18:41 31.07.2019
4340 Clouds 21 1016 94 10000 0.5 90 18:23 31.07.2019
4341 Clouds 21 1016 94 10000 4.28 40.333 17:56 31.07.2019
4342 Clouds 21 1016 88 10000 4.28 40.333 17:37 31.07.2019
4343 Clear 21 1016 88 10000 4.28 40.333 17:19 31.07.2019
4344 Clear 22 1016 88 10000 1 160 16:41 31.07.2019
4345 Clear 22 1016 88 10000 1 160 16:19 31.07.2019
4346 Clear 23 1016 78 10000 2.1 180 15:44 31.07.2019
4347 Clear 23 1016 78 10000 2.1 180 15:24 31.07.2019
4348 Clear 23 1015 78 10000 1.5 190 14:42 31.07.2019
4349 Clear 23 1015 73 10000 1 220 14:21 31.07.2019
4350 Clear 23 1015 73 10000 1 220 13:57 31.07.2019
4351 Clear 24 1015 69 10000 1 240 13:38 31.07.2019
4352 Clear 24 1014 69 10000 2.6 230 13:19 31.07.2019
4353 Clear 25 1013 65 10000 2.6 260 12:45 31.07.2019
4354 Clear 25 1013 65 10000 2.6 260 12:45 31.07.2019
4355 Clear 25 1013 65 10000 2.6 260 12:26 31.07.2019
4356 Clear 26 1013 61 10000 3.1 270 11:55 31.07.2019
4357 Clear 26 1012 57 10000 3.6 280 11:36 31.07.2019
4358 Clear 27 1012 48 10000 3.1 310 11:18 31.07.2019
4359 Clear 29 1011 48 10000 3.6 330 10:41 31.07.2019
4360 Clear 29 1011 48 10000 4.6 340 10:20 31.07.2019
4361 Clear 30 1011 45 10000 5.1 350 09:43 31.07.2019
4362 Clear 31 1011 45 10000 5.1 350 09:24 31.07.2019
4363 Clear 31 1011 45 10000 5.1 350 09:24 31.07.2019
4364 Clear 31 1011 45 10000 5.7 320 08:44 31.07.2019
4365 Clear 31 1011 45 10000 5.7 320 08:26 31.07.2019
4366 Clear 31 1012 45 10000 4.6 330 07:56 31.07.2019
4367 Clear 30 1012 54 10000 5.1 340 07:34 31.07.2019
4368 Clear 33 1014 27 10000 5.7 70 06:18 31.07.2019
4369 Clear 30 1016 37 10000 5.7 70 04:42 31.07.2019
4370 Clear 21 1016 83 10000 1 110 00:58 31.07.2019
4371 Clear 19 1015 88 10000 2.1 130 23:56 30.07.2019
4372 Clear 19 1015 93 10000 1 160 23:38 30.07.2019
4373 Clear 18 1014 93 10000 1.88 136.318 23:18 30.07.2019
4374 Clear 19 1014 88 10000 1.88 136.318 22:42 30.07.2019
4375 Clear 19 1014 88 10000 1.88 136.318 22:22 30.07.2019
4376 Clear 19 1014 93 10000 1.88 136.318 21:38 30.07.2019
4377 Clouds 19 1014 88 10000 3.08 44.408 21:20 30.07.2019
4378 Clouds 19 1014 88 10000 2.63 34.88 20:57 30.07.2019
4379 Clouds 19 1015 88 10000 2.63 34.88 20:39 30.07.2019
4380 Clouds 19 1015 88 10000 2.63 34.88 20:19 30.07.2019
4381 Clouds 20 1015 83 10000 2.63 34.88 19:49 30.07.2019
4382 Clouds 20 1015 83 10000 2.63 34.88 19:29 30.07.2019
4383 Clouds 20 1015 78 10000 0.5 10 18:48 30.07.2019
4384 Clouds 21 1015 78 10000 0.5 10 18:27 30.07.2019
4385 Clear 21 1015 78 10000 2.1 40 17:59 30.07.2019
4386 Clear 21 1015 78 10000 2.6 50 17:41 30.07.2019
4387 Clouds 21 1015 83 10000 2.1 60 17:19 30.07.2019
4388 Clouds 21 1015 78 10000 2.1 60 16:46 30.07.2019
4389 Clouds 21 1015 78 10000 2.1 60 16:20 30.07.2019
4390 Clouds 21 1015 83 10000 1.5 160 15:44 30.07.2019
4391 Clouds 21 1015 83 10000 1.5 160 15:23 30.07.2019
4392 Clear 23 1014 73 10000 2.1 210 14:46 30.07.2019
4393 Clear 23 1014 73 10000 2.1 210 14:27 30.07.2019
4394 Clear 24 1013 65 10000 2.1 230 14:00 30.07.2019
4395 Clear 24 1013 65 10000 2.1 240 13:40 30.07.2019
4396 Clear 24 1013 65 10000 2.1 240 13:22 30.07.2019
4397 Clear 25 1013 69 10000 1.5 260 12:55 30.07.2019
4398 Clear 25 1012 69 10000 2.1 280 12:37 30.07.2019
4399 Clear 25 1012 65 10000 2.1 280 12:18 30.07.2019
4400 Clear 26 1012 61 10000 2.1 310 11:38 30.07.2019
4401 Clear 26 1011 57 10000 3.6 350 11:18 30.07.2019
4402 Clear 27 1011 54 10000 3.6 330 10:42 30.07.2019
4403 Clear 28 1011 54 10000 3.6 330 10:23 30.07.2019
4404 Clear 29 1011 51 10000 5.1 350 09:49 30.07.2019
4405 Clear 28 1011 51 10000 5.1 350 09:30 30.07.2019
4406 Clouds 30 1011 45 10000 4.6 350 08:47 30.07.2019
4407 Clouds 30 1011 45 10000 4.6 350 08:28 30.07.2019
4408 Clouds 30 1012 48 10000 4.6 320 07:47 30.07.2019
4409 Clouds 30 1012 48 10000 4.6 320 07:47 30.07.2019
4410 Clouds 30 1012 48 10000 4.6 320 07:28 30.07.2019
4411 Clear 30 1013 51 10000 5.1 310 06:47 30.07.2019
4412 Clear 29 1013 58 10000 5.1 280 05:56 30.07.2019
4413 Clouds 30 1014 45 10000 5.1 330 05:32 30.07.2019
4414 Clouds 23 1015 83 10000 1 70 01:41 30.07.2019
4415 Fog 20 1014 94 10000 0.5 90 00:45 30.07.2019
4416 Fog 19 1014 94 10000 0.5 80 00:20 30.07.2019
4417 Fog 19 1014 94 10000 1.5 70 23:44 29.07.2019
4418 Fog 19 1014 94 10000 1.5 70 23:26 29.07.2019
4419 Clear 19 1014 94 10000 2.1 70 22:57 29.07.2019
4420 Clear 19 1014 94 10000 1.5 70 22:38 29.07.2019
4421 Clear 19 1014 94 10000 1.5 70 22:20 29.07.2019
4422 Clouds 19 1014 94 9000 1.5 70 21:55 29.07.2019
4423 Clouds 19 1014 94 10000 1 40 21:37 29.07.2019
4424 Clear 19 1014 88 10000 1 50 21:18 29.07.2019
4425 Clear 19 1014 88 10000 1.5 40 20:45 29.07.2019
4426 Clear 19 1014 88 10000 1.5 40 20:23 29.07.2019
4427 Clear 19 1014 93 10000 2.1 80 19:56 29.07.2019
4428 Clear 19 1014 88 10000 0.5 90 19:37 29.07.2019
4429 Clear 19 1015 88 10000 1 50 19:19 29.07.2019
4430 Clear 19 1015 88 10000 2.1 50 18:42 29.07.2019
4431 Clear 20 1015 88 10000 2.1 70 18:22 29.07.2019
4432 Clear 20 1015 88 10000 2.1 70 17:51 29.07.2019
4433 Clear 20 1015 88 10000 1 110 17:33 29.07.2019
4434 Clouds 21 1015 83 10000 1.5 170 16:58 29.07.2019
4435 Clear 21 1015 83 10000 1.5 140 16:39 29.07.2019
4436 Clear 21 1015 83 10000 1.5 140 16:21 29.07.2019
4437 Clear 22 1015 78 10000 1 160 15:50 29.07.2019
4438 Clear 22 1015 69 10000 2.6 200 15:31 29.07.2019
4439 Clear 23 1014 69 10000 2.1 230 14:46 29.07.2019
4440 Clear 23 1014 69 10000 2.1 230 14:21 29.07.2019
4441 Clear 23 1014 69 10000 2.1 230 14:21 29.07.2019
4442 Clear 24 1014 69 10000 2.1 240 13:59 29.07.2019
4443 Clear 24 1014 69 10000 2.1 240 13:41 29.07.2019
4444 Clear 24 1013 65 10000 2.1 270 13:22 29.07.2019
4445 Clear 24 1013 65 10000 2.1 310 12:42 29.07.2019
4446 Clear 25 1013 57 10000 2.6 290 12:22 29.07.2019
4447 Clear 26 1012 57 10000 2.6 320 11:43 29.07.2019
4448 Clear 26 1012 57 10000 2.6 320 11:43 29.07.2019
4449 Clear 26 1012 57 10000 2.6 320 11:21 29.07.2019
4450 Clear 27 1011 51 10000 3.1 340 10:45 29.07.2019
4451 Clear 28 1011 51 10000 3.1 340 10:24 29.07.2019
4452 Clear 27 1011 51 10000 5.1 360 09:45 29.07.2019
4453 Clear 29 1011 51 10000 5.1 360 09:25 29.07.2019
4454 Clear 29 1011 51 10000 5.1 360 08:57 29.07.2019
4455 Clear 30 1011 51 10000 5.7 360 08:31 29.07.2019
4456 Clear 30 1011 48 10000 5.7 350 07:58 29.07.2019
4457 Clear 30 1012 48 10000 5.7 340 07:36 29.07.2019
4458 Clear 30 1013 48 10000 4.6 300 06:45 29.07.2019
4459 Clear 31 1014 37 10000 5.1 340 05:46 29.07.2019
4460 Clear 29 1014 39 10000 3.1 90 04:50 29.07.2019
4461 Clear 24 1016 78 10000 3.1 60 01:59 29.07.2019
4462 Clear 24 1016 78 10000 1.5 90 01:41 29.07.2019
4463 Clear 23 1015 83 10000 1.5 100 01:21 29.07.2019
4464 Clear 23 1015 83 10000 1.5 100 01:21 29.07.2019
4465 Fog 20 1015 93 10000 1.5 100 00:41 29.07.2019
4466 Fog 19 1015 93 10000 1 100 00:18 29.07.2019
4467 Fog 18 1015 93 10000 1.5 90 23:40 28.07.2019
4468 Clear 18 1015 93 10000 2.6 100 23:18 28.07.2019
4469 Clear 19 1015 93 10000 2.1 100 22:38 28.07.2019
4470 Clear 19 1015 93 10000 2.1 100 22:38 28.07.2019
4471 Clear 19 1015 93 10000 2.1 100 22:19 28.07.2019
4472 Clear 19 1014 88 10000 3.61 111.292 21:46 28.07.2019
4473 Clear 19 1015 88 10000 1 80 21:18 28.07.2019
4474 Clear 20 1015 88 10000 1.5 90 20:45 28.07.2019
4475 Clear 19 1015 88 10000 1.5 90 20:27 28.07.2019
4476 Clear 19 1015 88 10000 0.68 100.169 19:42 28.07.2019
4477 Clear 20 1015 88 10000 0.68 100.169 19:22 28.07.2019
4478 Clear 20 1015 82 10000 0.68 100.169 18:51 28.07.2019
4479 Clear 20 1015 82 10000 0.68 100.169 18:32 28.07.2019
4480 Clear 20 1015 82 10000 0.68 100.169 18:32 28.07.2019
4481 Clear 20 1015 82 10000 1.9 89.426 17:59 28.07.2019
4482 -273 0 0 0 0 0 17:41 28.07.2019
4483 Clear 20 1015 82 10000 0.5 70 17:21 28.07.2019
4484 Clear 20 1015 77 10000 1 110 16:47 28.07.2019
4485 Clear 20 1015 77 10000 1 110 16:28 28.07.2019
4486 Clear 20 1015 77 10000 1.5 120 15:59 28.07.2019
4487 Clear 21 1015 77 10000 1 130 15:41 28.07.2019
4488 Clear 21 1015 77 10000 1 130 15:21 28.07.2019
4489 Clear 22 1015 69 10000 2.02 171.741 14:37 28.07.2019
4490 Clear 22 1014 73 10000 2.02 171.741 14:19 28.07.2019
4491 Clear 22 1014 69 10000 2.1 30 13:44 28.07.2019
4492 Clear 22 1014 69 10000 2.1 30 13:23 28.07.2019
4493 Clear 24 1014 61 10000 1 10 12:59 28.07.2019
4494 Clear 24 1013 61 10000 2.6 10 12:40 28.07.2019
4495 Clear 24 1013 57 10000 2.6 360 12:22 28.07.2019
4496 Clear 25 1013 54 10000 3.6 10 11:47 28.07.2019
4497 Clear 25 1013 54 10000 3.6 10 11:27 28.07.2019
4498 Clear 27 1012 51 10000 5.7 10 10:41 28.07.2019
4499 Clear 27 1012 51 10000 5.7 10 10:22 28.07.2019
4500 Clear 28 1012 45 10000 5.7 360 09:47 28.07.2019
4501 Clear 28 1012 45 10000 5.7 360 09:29 28.07.2019
4502 Clear 29 1012 48 10000 5.7 360 08:52 28.07.2019
4503 Clear 29 1012 45 10000 5.7 360 08:29 28.07.2019
4504 Clear 30 1012 45 10000 5.1 340 07:59 28.07.2019
4505 Clear 31 1013 42 10000 4.1 330 07:37 28.07.2019
4506 Clear 31 1014 35 10000 4.6 340 06:45 28.07.2019
4507 Clear 30 1015 37 10000 4.6 340 05:44 28.07.2019
4508 Clear 27 1017 47 10000 5.1 60 03:39 28.07.2019
4509 Clear 26 1017 57 10000 5.1 70 02:24 28.07.2019
4510 Clear 22 1016 88 10000 1.5 80 01:20 28.07.2019
4511 Fog 21 1016 88 10000 1.5 100 00:45 28.07.2019
4512 Fog 19 1016 88 10000 1 110 00:20 28.07.2019
4513 Fog 19 1015 94 10000 1 90 23:46 27.07.2019
4514 Fog 19 1015 94 10000 1 90 23:22 27.07.2019
4515 Fog 19 1015 88 10000 2.1 90 22:42 27.07.2019
4516 Fog 20 1015 88 10000 2.1 90 22:22 27.07.2019
4517 Clouds 20 1015 94 10000 2.1 90 21:43 27.07.2019
4518 Clouds 19 1015 94 10000 2.1 100 21:20 27.07.2019
4519 Clouds 19 1015 94 10000 2.1 100 20:53 27.07.2019
4520 Clouds 20 1015 88 10000 1.5 100 20:26 27.07.2019
4521 Clouds 20 1015 88 10000 1 140 19:58 27.07.2019
4522 Clouds 20 1015 94 10000 1 110 19:38 27.07.2019
4523 Clouds 20 1015 88 10000 1.5 120 19:19 27.07.2019
4524 Clouds 20 1015 83 10000 1.5 110 18:45 27.07.2019
4525 Clouds 20 1015 83 10000 1.5 110 18:27 27.07.2019
4526 Clouds 21 1015 88 10000 1.5 160 17:42 27.07.2019
4527 Clouds 21 1015 88 10000 1.5 160 17:24 27.07.2019
4528 Clear 21 1015 83 10000 1.5 160 16:51 27.07.2019
4529 Clear 21 1015 78 10000 1.5 150 16:32 27.07.2019
4530 Clear 21 1015 78 10000 1.5 170 15:55 27.07.2019
4531 Clear 21 1015 78 10000 1.5 170 15:25 27.07.2019
4532 Clear 23 1015 64 10000 1.5 190 14:51 27.07.2019
4533 Clear 22 1014 73 10000 4.02 225.625 14:33 27.07.2019
4534 Clear 22 1014 73 10000 4.02 225.625 13:58 27.07.2019
4535 Clear 23 1014 64 10000 2.1 30 13:40 27.07.2019
4536 Clear 23 1013 61 10000 2.6 10 13:20 27.07.2019
4537 Clear 24 1013 61 10000 3.1 20 12:45 27.07.2019
4538 Clear 24 1013 61 10000 3.1 20 12:25 27.07.2019
4539 Clear 25 1012 61 10000 4.6 10 11:46 27.07.2019
4540 Clear 26 1012 61 10000 4.6 10 11:25 27.07.2019
4541 Clear 26 1012 61 10000 4.6 10 11:25 27.07.2019
4542 Clear 27 1012 51 10000 4.6 360 10:56 27.07.2019
4543 Clear 28 1012 51 10000 5.1 360 10:38 27.07.2019
4544 Clear 28 1011 45 10000 5.1 360 10:18 27.07.2019
4545 Clear 29 1011 45 10000 5.7 360 09:40 27.07.2019
4546 Clear 30 1011 45 10000 5.7 360 09:21 27.07.2019
4547 Clear 30 1011 48 10000 5.7 350 08:46 27.07.2019
4548 Clear 30 1011 48 10000 5.7 350 08:26 27.07.2019
4549 Clear 30 1012 51 10000 5.7 310 07:45 27.07.2019
4550 Clear 30 1012 51 10000 5.7 310 07:23 27.07.2019
4551 Clear 31 1013 31 10000 5.1 300 06:55 27.07.2019
4552 Clear 30 1013 35 10000 5.1 340 06:28 27.07.2019
4553 Clear 30 1014 39 10000 2.1 140 05:43 27.07.2019
4554 Clear 30 1015 37 10000 3.6 90 04:54 27.07.2019
4555 Clouds 29 1016 45 10000 4.6 80 04:21 27.07.2019
4556 Clouds 26 1017 65 10000 4.1 90 02:44 27.07.2019
4557 Clouds 25 1017 65 10000 4.1 90 02:25 27.07.2019
4558 Clouds 24 1016 73 10000 2.6 110 01:42 27.07.2019
4559 Clouds 22 1016 78 10000 4.1 100 00:57 27.07.2019
4560 Clouds 20 1016 83 10000 4.1 100 00:32 27.07.2019
4561 Clouds 19 1015 88 10000 1.5 120 23:51 26.07.2019
4562 Clouds 19 1015 88 10000 1.5 120 23:32 26.07.2019
4563 Clouds 19 1014 82 10000 1.5 120 22:46 26.07.2019
4564 Clouds 19 1014 82 10000 1.5 120 22:27 26.07.2019
4565 Clear 19 1014 88 10000 1.5 150 21:59 26.07.2019
4566 Clear 19 1014 88 10000 1.5 180 21:37 26.07.2019
4567 Clouds 19 1014 88 10000 1.5 160 21:18 26.07.2019
4568 Clouds 19 1014 88 10000 1.5 160 21:18 26.07.2019
4569 Clouds 20 1014 83 10000 2.1 190 20:42 26.07.2019
4570 Clouds 20 1014 83 10000 2.1 190 20:42 26.07.2019
4571 Clouds 20 1014 82 10000 1 90 20:22 26.07.2019
4572 Clouds 20 1015 82 10000 1 90 19:43 26.07.2019
4573 Clouds 20 1015 82 10000 1 90 19:24 26.07.2019
4574 Clouds 20 1015 82 10000 1 90 18:56 26.07.2019
4575 Clouds 20 1015 82 10000 1.5 80 18:36 26.07.2019
4576 Clouds 20 1015 77 10000 1 30 18:18 26.07.2019
4577 Clouds 20 1015 77 10000 1 40 17:42 26.07.2019
4578 Clouds 20 1015 77 10000 1 40 17:19 26.07.2019
4579 Clear 20 1015 77 10000 1.5 30 16:56 26.07.2019
4580 Clear 20 1015 77 10000 1.5 30 16:56 26.07.2019
4581 Clear 21 1015 77 10000 1.5 160 16:37 26.07.2019
4582 Clear 21 1015 77 10000 1.5 160 16:19 26.07.2019
4583 Clear 22 1014 69 10000 1.5 170 15:45 26.07.2019
4584 Clear 22 1014 69 10000 1.5 170 15:26 26.07.2019
4585 Clear 23 1014 60 10000 1.5 210 14:59 26.07.2019
4586 Clear 22 1013 64 10000 1.5 10 14:41 26.07.2019
4587 Clear 22 1013 64 10000 1.5 10 14:21 26.07.2019
4588 Clear 22 1013 60 10000 2.1 20 13:40 26.07.2019
4589 Clear 23 1013 60 10000 2.1 20 13:22 26.07.2019
4590 Clear 23 1012 57 10000 2.6 20 12:48 26.07.2019
4591 Clear 24 1012 57 10000 2.6 20 12:20 26.07.2019
4592 Clear 26 1012 44 10000 4.1 20 11:40 26.07.2019
4593 Clear 26 1011 44 10000 4.6 20 11:21 26.07.2019
4594 Clear 27 1011 44 10000 4.6 20 10:57 26.07.2019
4595 Clear 27 1011 44 10000 6.2 20 10:38 26.07.2019
4596 Clear 28 1011 45 10000 5.1 10 09:59 26.07.2019
4597 Clear 28 1011 42 10000 5.7 10 09:41 26.07.2019
4598 Clear 29 1011 45 10000 5.1 10 09:21 26.07.2019
4599 Clear 29 1010 42 10000 5.1 350 08:40 26.07.2019
4600 Clear 29 1010 42 10000 5.1 350 08:20 26.07.2019
4601 Clear 30 1011 35 10000 4.6 10 07:36 26.07.2019
4602 Clear 30 1011 33 10000 5.1 30 06:58 26.07.2019
4603 Clear 30 1013 35 10000 5.1 60 05:23 26.07.2019
4604 Clouds 29 1014 48 10000 4.1 50 04:29 26.07.2019
4605 Clouds 28 1015 51 10000 5.1 70 03:44 26.07.2019
4606 Clear 24 1015 78 10000 3.6 60 01:45 26.07.2019
4607 Clear 21 1014 88 10000 3.1 60 00:50 26.07.2019
4608 Clear 21 1014 94 10000 2.6 50 00:25 26.07.2019
4609 Clear 21 1014 94 10000 3.1 40 23:26 25.07.2019
4610 Clear 21 1014 94 10000 3.1 40 23:26 25.07.2019
4611 Clear 21 1013 94 10000 3.1 40 22:59 25.07.2019
4612 Clear 21 1013 88 10000 3.1 30 22:41 25.07.2019
4613 Clouds 21 1013 88 10000 2.6 30 22:21 25.07.2019
4614 Clouds 22 1013 88 10000 3.1 30 21:47 25.07.2019
4615 Clouds 22 1013 88 10000 3.1 30 21:23 25.07.2019
4616 Clouds 21 1013 83 10000 2.6 20 20:49 25.07.2019
4617 Clouds 21 1013 83 10000 2.6 20 20:31 25.07.2019
4618 Clouds 21 1014 83 10000 2.6 50 19:57 25.07.2019
4619 Clouds 20 1014 83 10000 2.1 50 19:39 25.07.2019
4620 Clouds 21 1014 83 10000 2.6 50 19:21 25.07.2019
4621 Clouds 21 1014 78 10000 1.5 90 18:41 25.07.2019
4622 Clouds 22 1015 83 10000 1.58 58.806 18:22 25.07.2019
4623 Clouds 23 1015 78 10000 1 110 17:48 25.07.2019
4624 Clouds 23 1015 78 10000 1 110 17:30 25.07.2019
4625 Clear 23 1015 73 10000 2.1 190 16:56 25.07.2019
4626 Clear 23 1015 73 10000 1.5 190 16:37 25.07.2019
4627 Clear 23 1015 73 10000 1.5 190 16:19 25.07.2019
4628 Clear 24 1015 78 10000 2.6 170 15:43 25.07.2019
4629 Clear 23 1015 78 10000 2.6 170 15:19 25.07.2019
4630 Clear 24 1015 73 10000 1.5 220 14:42 25.07.2019
4631 Clear 24 1015 73 10000 1.5 220 14:23 25.07.2019
4632 Clear 25 1014 69 10000 2.1 240 13:45 25.07.2019
4633 Clear 25 1014 69 10000 2.1 240 13:26 25.07.2019
4634 -273 0 0 0 0 0 13:26 25.07.2019
4635 Clear 25 1014 65 10000 2.1 250 12:58 25.07.2019
4636 Clear 25 1014 61 10000 1.5 290 12:29 25.07.2019
4637 Clear 26 1013 54 10000 1.5 0 11:47 25.07.2019
4638 Clear 26 1013 54 10000 1.5 0 11:25 25.07.2019
4639 Clear 27 1013 54 10000 1.5 0 10:59 25.07.2019
4640 Clear 28 1013 54 10000 3.6 330 10:40 25.07.2019
4641 Clear 28 1013 54 10000 3.6 330 10:22 25.07.2019
4642 Clear 30 1012 45 10000 4.1 350 09:44 25.07.2019
4643 Clear 30 1012 45 10000 4.1 350 09:25 25.07.2019
4644 Clear 30 1012 45 10000 4.1 330 08:44 25.07.2019
4645 Clouds 31 1012 40 10000 4.1 320 08:19 25.07.2019
4646 Clear 31 1013 40 10000 4.6 330 07:36 25.07.2019
4647 Clear 32 1014 31 10000 1.5 290 06:43 25.07.2019
4648 Clear 31 1014 37 10000 3.6 90 05:48 25.07.2019
4649 Clear 31 1014 37 10000 3.6 90 05:28 25.07.2019
4650 Dust 30 1016 35 10000 2.6 160 04:38 25.07.2019
4651 Clear 24 1016 60 10000 2.6 120 01:48 25.07.2019
4652 Clear 22 1016 73 10000 5.1 110 01:20 25.07.2019
4653 Clear 21 1015 77 10000 3.1 180 00:20 25.07.2019
4654 Clear 21 1015 77 10000 3.1 180 23:50 24.07.2019
4655 Clear 21 1015 77 10000 2.6 180 23:31 24.07.2019
4656 Clear 21 1015 77 10000 3.1 170 22:56 24.07.2019
4657 Clear 21 1015 77 10000 3.1 170 22:56 24.07.2019
4658 Clear 20 1015 73 10000 3.1 180 22:37 24.07.2019
4659 Clear 20 1015 73 10000 3.1 180 22:19 24.07.2019
4660 Clouds 20 1015 77 10000 2.1 160 21:43 24.07.2019
4661 Clouds 20 1015 77 10000 2.1 160 21:22 24.07.2019
4662 Clouds 20 1015 73 10000 1.5 160 20:57 24.07.2019
4663 Clouds 19 1015 77 10000 1.5 150 20:38 24.07.2019
4664 Clouds 20 1015 77 10000 2.1 140 20:19 24.07.2019
4665 Clouds 19 1015 77 10000 2.1 140 19:54 24.07.2019
4666 Clouds 20 1015 88 10000 2.6 150 19:36 24.07.2019
4667 Clouds 20 1015 88 10000 2.6 150 19:36 24.07.2019
4668 Clouds 20 1015 83 10000 2.1 160 19:18 24.07.2019
4669 Clouds 21 1015 83 10000 1 160 18:37 24.07.2019
4670 Clouds 21 1015 77 10000 1 190 18:19 24.07.2019
4671 Clouds 21 1015 77 10000 1.5 210 17:42 24.07.2019
4672 Clear 21 1015 73 10000 2.1 210 17:20 24.07.2019
4673 Clear 21 1015 68 10000 2.1 230 16:41 24.07.2019
4674 Clear 21 1015 68 10000 2.1 230 16:21 24.07.2019
4675 Clear 21 1015 68 10000 2.1 230 16:21 24.07.2019
4676 Clear 21 1015 64 10000 0.5 210 15:40 24.07.2019
4677 Clear 21 1015 64 10000 0.5 210 15:21 24.07.2019
4678 Clear 22 1015 60 10000 1 250 14:56 24.07.2019
4679 -273 0 0 0 0 0 14:56 24.07.2019
4680 Clear 23 1015 53 10000 1 230 14:38 24.07.2019
4681 Clear 23 1015 50 10000 1 280 14:18 24.07.2019
4682 Clear 24 1015 47 10000 1 290 13:37 24.07.2019
4683 Clear 23 1014 57 10000 2.1 40 13:18 24.07.2019
4684 Clear 24 1014 47 10000 2.1 20 12:49 24.07.2019
4685 Clear 25 1014 47 10000 2.1 20 12:26 24.07.2019
4686 Clear 26 1013 34 10000 2.6 10 11:39 24.07.2019
4687 Clear 28 1013 35 10000 2.1 140 11:20 24.07.2019
4688 Clear 30 1012 17 10000 1.5 310 10:44 24.07.2019
4689 Clear 31 1012 17 10000 1.5 310 10:25 24.07.2019
4690 Clear 32 1012 14 10000 5.7 90 09:45 24.07.2019
4691 Clear 32 1012 14 10000 5.7 90 09:25 24.07.2019
4692 Smoke 32 1012 13 10000 3.6 340 08:57 24.07.2019
4693 Smoke 32 1012 55 10000 3.6 340 08:30 24.07.2019
4694 Smoke 32 1012 13 10000 3.6 340 07:52 24.07.2019
4695 Clear 32 1013 13 10000 6.2 90 07:24 24.07.2019
4696 Clear 31 1013 11 10000 6.7 100 06:31 24.07.2019
4697 Clear 31 1014 13 10000 8.7 120 05:54 24.07.2019
4698 Clear 26 1016 25 10000 5.7 90 02:45 24.07.2019
4699 Clear 21 1015 68 10000 3.6 130 01:30 24.07.2019
4700 Clear 19 1015 82 10000 8.2 130 00:57 24.07.2019
4701 Fog 18 1015 88 10000 1.5 130 00:23 24.07.2019
4702 Fog 17 1014 100 6000 2.6 140 23:43 23.07.2019
4703 Fog 17 1014 100 6000 2.6 140 23:25 23.07.2019
4704 Fog 18 1014 100 4900 6.06 112.826 22:41 23.07.2019
4705 Fog 18 1014 100 4900 6.06 112.826 22:20 23.07.2019
4706 Clear 18 1014 93 6000 6.06 112.826 21:59 23.07.2019
4707 Clear 18 1014 93 10000 6.06 112.826 21:41 23.07.2019
4708 Clouds 19 1014 93 10000 3.16 99.874 21:23 23.07.2019
4709 Clouds 19 1014 94 10000 1.5 160 20:48 23.07.2019
4710 Clouds 19 1014 94 10000 1.5 160 20:26 23.07.2019
4711 Clouds 19 1014 93 10000 1.5 230 19:43 23.07.2019
4712 Clouds 19 1014 93 10000 1.5 230 19:23 23.07.2019
4713 Clouds 19 1014 93 10000 3.2 87.459 18:53 23.07.2019
4714 Clouds 19 1015 88 10000 3.81 85.75 18:25 23.07.2019
4715 Clouds 19 1015 93 10000 3.81 85.75 17:58 23.07.2019
4716 Clouds 19 1015 93 10000 3.81 85.75 17:40 23.07.2019
4717 Clear 19 1015 93 10000 3.81 85.75 17:20 23.07.2019
4718 Clear 19 1015 88 10000 3.81 85.75 16:41 23.07.2019
4719 Clear 20 1015 88 10000 3.81 85.75 16:22 23.07.2019
4720 Clear 20 1014 82 10000 3.81 85.75 15:47 23.07.2019
4721 Clear 20 1014 82 10000 2.82 267.605 15:27 23.07.2019
4722 Clear 21 1014 78 10000 1.5 240 14:41 23.07.2019
4723 Clear 22 1014 73 10000 2.1 260 14:22 23.07.2019
4724 Clear 22 1014 73 10000 2.1 260 13:59 23.07.2019
4725 Clear 22 1013 69 10000 2.6 250 13:40 23.07.2019
4726 Clear 23 1013 69 10000 2.6 250 13:22 23.07.2019
4727 Clear 23 1013 64 10000 2.6 280 12:49 23.07.2019
4728 Clear 23 1013 64 10000 2.6 280 12:27 23.07.2019
4729 Clear 24 1012 61 10000 3.1 280 11:55 23.07.2019
4730 Clear 25 1012 61 10000 4.1 290 11:37 23.07.2019
4731 Clear 26 1011 51 10000 4.6 300 11:18 23.07.2019
4732 Clear 27 1011 42 10000 3.6 330 10:41 23.07.2019
4733 Clear 29 1011 42 10000 3.6 330 10:21 23.07.2019
4734 Clear 33 1010 9 10000 5.7 140 09:41 23.07.2019
4735 Clear 33 1010 9 10000 5.1 110 09:20 23.07.2019
4736 Clear 33 1010 10 10000 6.7 110 08:43 23.07.2019
4737 Clear 33 1010 10 10000 6.7 110 08:20 23.07.2019
4738 Clear 33 1010 10 10000 6.7 110 08:20 23.07.2019
4739 Clear 33 1010 10 10000 6.7 110 08:20 23.07.2019
4740 Clear 33 1011 11 10000 7.2 100 07:55 23.07.2019
4741 Clear 32 1011 51 10000 7.2 130 07:36 23.07.2019
4742 Clear 32 1011 51 10000 7.2 130 07:36 23.07.2019
4743 Clear 31 1012 15 10000 7.7 110 06:50 23.07.2019
4744 Clear 31 1012 15 10000 7.7 110 06:30 23.07.2019
4745 Clear 27 1015 32 10000 4.6 90 03:39 23.07.2019
4746 Clear 22 1015 83 10000 1 140 01:34 23.07.2019
4747 Fog 17 1014 100 9000 1 90 00:31 23.07.2019
4748 Fog 16 1014 93 9000 1 80 23:56 22.07.2019
4749 Fog 16 1014 100 10000 2.89 65.665 23:38 22.07.2019
4750 Clear 16 1014 93 10000 0.5 60 23:18 22.07.2019
4751 Clear 16 1013 93 10000 2.89 65.665 22:44 22.07.2019
4752 Clear 16 1013 93 10000 2.89 65.665 22:22 22.07.2019
4753 Clouds 17 1014 93 10000 0.5 60 21:43 22.07.2019
4754 Clear 17 1014 93 10000 0.5 60 21:23 22.07.2019
4755 Clear 18 1014 93 10000 0.5 70 20:53 22.07.2019
4756 Clear 18 1014 93 10000 2.1 70 20:33 22.07.2019
4757 Clear 19 1014 93 10000 1.5 60 19:58 22.07.2019
4758 Clear 19 1014 88 10000 1.5 60 19:40 22.07.2019
4759 Clear 19 1014 88 10000 1.5 50 19:21 22.07.2019
4760 Clear 19 1014 94 10000 2.6 60 18:48 22.07.2019
4761 Clear 19 1014 94 10000 2.6 60 18:28 22.07.2019
4762 Clear 19 1014 94 10000 1.5 50 17:58 22.07.2019
4763 Clear 19 1014 94 10000 1.5 60 17:38 22.07.2019
4764 Clouds 20 1014 88 10000 2.6 90 17:20 22.07.2019
4765 Clouds 20 1014 88 10000 1.5 90 16:40 22.07.2019
4766 Clouds 20 1014 88 10000 1.5 90 16:21 22.07.2019
4767 Clouds 20 1014 88 10000 1.5 90 16:21 22.07.2019
4768 Clear 20 1013 94 10000 0.5 200 15:44 22.07.2019
4769 Clear 20 1013 94 10000 0.5 200 15:21 22.07.2019
4770 Clear 22 1013 83 10000 2.6 220 14:44 22.07.2019
4771 Clear 22 1013 83 10000 2.6 220 14:26 22.07.2019
4772 Clear 24 1013 73 10000 3.1 230 13:52 22.07.2019
4773 Clear 24 1012 73 10000 3.1 240 13:33 22.07.2019
4774 Clear 24 1012 69 10000 2.1 250 12:56 22.07.2019
4775 Clear 24 1012 69 10000 3.1 240 12:36 22.07.2019
4776 Clear 24 1011 69 10000 2.6 270 11:57 22.07.2019
4777 Clear 25 1011 65 10000 3.6 290 11:39 22.07.2019
4778 Clear 25 1011 65 10000 3.6 290 11:20 22.07.2019
4779 Clear 26 1011 61 10000 4.6 300 10:41 22.07.2019
4780 Clear 26 1011 61 10000 4.6 300 10:23 22.07.2019
4781 Clear 26 1010 61 10000 5.7 300 09:42 22.07.2019
4782 Clouds 28 1010 57 10000 4.6 340 09:22 22.07.2019
4783 Clouds 29 1010 54 10000 4.6 350 08:43 22.07.2019
4784 Clouds 29 1010 54 10000 4.6 350 08:23 22.07.2019
4785 Clouds 29 1010 57 10000 4.6 330 07:54 22.07.2019
4786 Clouds 29 1011 51 10000 4.1 330 07:31 22.07.2019
4787 Clouds 29 1012 54 10000 4.1 300 06:33 22.07.2019
4788 Clear 27 1014 47 10000 2.1 60 03:46 22.07.2019
4789 Clear 23 1014 78 10000 1 90 01:51 22.07.2019
4790 Clear 19 1013 93 10000 1.5 90 00:50 22.07.2019
4791 Clear 18 1013 93 10000 1.5 90 00:24 22.07.2019
4792 Clear 17 1013 93 10000 1 80 23:54 21.07.2019
4793 Clear 17 1013 93 10000 1 90 23:26 21.07.2019
4794 Clear 17 1013 93 10000 1 70 22:41 21.07.2019
4795 Clear 18 1013 93 10000 1 70 22:21 21.07.2019
4796 Clouds 18 1012 93 10000 1.5 70 21:56 21.07.2019
4797 Clouds 18 1012 88 10000 1.5 60 21:37 21.07.2019
4798 Clouds 18 1012 88 10000 0.5 70 21:18 21.07.2019
4799 Clouds 18 1012 88 10000 0.5 70 21:18 21.07.2019
4800 Clouds 18 1012 94 10000 0.67 154.01 20:43 21.07.2019
4801 Clouds 19 1012 94 10000 0.67 154.01 20:23 21.07.2019
4802 Clouds 19 1012 94 10000 0.67 154.01 19:55 21.07.2019
4803 Clouds 19 1012 94 10000 0.5 140 19:36 21.07.2019
4804 Clouds 19 1012 94 10000 1.5 90 19:18 21.07.2019
4805 Clouds 19 1013 93 10000 2.1 110 18:44 21.07.2019
4806 Clouds 18 1013 93 10000 1.5 100 18:24 21.07.2019
4807 Clouds 19 1013 93 10000 1.37 324.006 17:42 21.07.2019
4808 Clouds 19 1013 93 10000 1.37 324.006 17:20 21.07.2019
4809 Fog 18 1012 93 10000 1.37 324.006 16:45 21.07.2019
4810 Fog 19 1012 93 10000 1.37 324.006 16:25 21.07.2019
4811 Fog 19 1012 94 10000 1.37 324.006 15:54 21.07.2019
4812 Fog 19 1012 94 10000 1.37 324.006 15:36 21.07.2019
4813 Clear 19 1012 94 10000 1 200 15:18 21.07.2019
4814 Clear 20 1012 88 10000 1.5 220 14:41 21.07.2019
4815 Clear 20 1012 83 10000 1 250 14:20 21.07.2019
4816 Clear 21 1011 83 10000 1.5 270 13:44 21.07.2019
4817 Clear 22 1011 83 10000 1.5 270 13:25 21.07.2019
4818 Clear 23 1011 73 10000 2.1 290 12:42 21.07.2019
4819 Clear 23 1011 73 10000 2.1 290 12:24 21.07.2019
4820 Clear 24 1010 69 10000 3.1 320 11:47 21.07.2019
4821 Clear 25 1010 69 10000 3.1 320 11:28 21.07.2019
4822 Clear 26 1010 61 10000 3.6 300 10:55 21.07.2019
4823 Clear 27 1010 51 10000 3.6 320 10:37 21.07.2019
4824 Clear 28 1010 51 10000 4.1 350 10:18 21.07.2019
4825 Clear 29 1010 45 10000 3.1 350 09:36 21.07.2019
4826 Clear 29 1010 48 10000 4.6 340 08:52 21.07.2019
4827 Clear 29 1010 51 10000 4.6 340 08:34 21.07.2019
4828 Clear 29 1010 51 10000 5.1 340 07:59 21.07.2019
4829 Clear 30 1011 51 10000 4.1 300 07:32 21.07.2019
4830 Clouds 30 1012 48 10000 4.1 300 06:42 21.07.2019
4831 Clear 28 1014 42 10000 4.1 340 04:23 21.07.2019
4832 Clouds 24 1014 78 10000 3.6 60 01:57 21.07.2019
4833 Clouds 19 1014 88 10000 1 160 00:48 21.07.2019
4834 Clouds 18 1014 88 10000 1 160 00:22 21.07.2019
4835 Clouds 17 1013 88 10000 1 140 23:54 20.07.2019
4836 Clouds 17 1013 88 10000 0.5 140 23:36 20.07.2019
4837 Clear 17 1013 82 10000 1 150 23:18 20.07.2019
4838 Clear 18 1013 82 10000 2.1 160 22:41 20.07.2019
4839 Clouds 18 1013 82 10000 2.1 160 22:19 20.07.2019
4840 Clouds 18 1013 82 10000 2.1 160 21:44 20.07.2019
4841 Clear 18 1013 82 10000 2.1 160 21:24 20.07.2019
4842 Clear 17 1013 93 10000 1.5 150 20:44 20.07.2019
4843 Clear 17 1013 93 10000 1.5 150 20:23 20.07.2019
4844 Clear 17 1013 88 10000 1 150 19:53 20.07.2019
4845 Clear 19 1013 82 10000 2.1 180 19:34 20.07.2019
4846 Clear 19 1013 82 10000 2.1 170 18:58 20.07.2019
4847 Clear 19 1014 82 10000 5.21 60.652 18:40 20.07.2019
4848 Clear 19 1013 77 10000 3.4 69.791 18:19 20.07.2019
4849 Clear 18 1013 82 10000 3.4 69.791 17:47 20.07.2019
4850 Clear 18 1013 77 10000 3.4 69.791 17:20 20.07.2019
4851 Clear 18 1013 77 10000 3.4 69.791 16:42 20.07.2019
4852 Clear 18 1013 77 10000 3.4 69.791 16:24 20.07.2019
4853 Clear 18 1013 77 10000 3.4 69.791 15:55 20.07.2019
4854 Clear 19 1013 72 10000 3.4 69.791 15:37 20.07.2019
4855 Clear 19 1013 73 10000 1.4 159.415 15:18 20.07.2019
4856 Clear 20 1013 68 10000 1.4 159.415 14:42 20.07.2019
4857 Clear 21 1012 64 10000 1.4 159.415 14:20 20.07.2019
4858 Clear 22 1012 60 10000 2.1 40 13:38 20.07.2019
4859 Clear 22 1012 53 10000 3.6 30 13:19 20.07.2019
4860 Clear 23 1011 50 10000 3.6 30 12:52 20.07.2019
4861 Clear 24 1011 50 10000 3.6 30 12:20 20.07.2019
4862 Clear 24 1011 50 10000 4.1 30 11:52 20.07.2019
4863 Clear 25 1011 47 10000 3.6 20 11:23 20.07.2019
4864 Clear 26 1011 51 10000 5.1 20 10:52 20.07.2019
4865 Clear 28 1011 45 9000 5.1 10 10:26 20.07.2019
4866 Clear 29 1011 48 9000 5.1 10 09:55 20.07.2019
4867 Clear 29 1011 45 9000 5.7 350 09:37 20.07.2019
4868 Clear 30 1011 51 10000 5.1 350 09:18 20.07.2019
4869 Clear 30 1011 48 10000 5.7 340 08:38 20.07.2019
4870 Clear 30 1011 51 10000 5.1 340 08:19 20.07.2019
4871 Clear 31 1012 24 10000 3.6 300 07:18 20.07.2019
4872 Clear 31 1013 33 10000 3.1 70 06:31 20.07.2019
4873 Clouds 28 1015 51 10000 4.1 110 04:31 20.07.2019
4874 Clouds 25 1016 73 10000 2.6 90 02:36 20.07.2019
4875 Clouds 22 1015 88 10000 4.1 120 01:21 20.07.2019
4876 Clouds 19 1015 82 10000 1.5 120 00:45 20.07.2019
4877 Clear 19 1014 82 10000 1 140 00:18 20.07.2019
4878 Clear 18 1014 82 10000 3.76 106.559 23:43 19.07.2019
4879 Clear 18 1014 82 10000 3.76 106.559 23:22 19.07.2019
4880 Clear 18 1014 82 10000 1 150 22:44 19.07.2019
4881 Clear 18 1014 82 10000 1 150 22:25 19.07.2019
4882 Clear 19 1013 82 10000 1.5 170 21:47 19.07.2019
4883 Clear 19 1013 82 10000 1.5 170 21:29 19.07.2019
4884 Clouds 19 1013 82 10000 2.1 150 20:52 19.07.2019
4885 Clouds 19 1013 88 10000 1 140 20:32 19.07.2019
4886 Clouds 20 1014 83 10000 2.6 180 19:55 19.07.2019
4887 Clouds 20 1014 88 10000 2.6 180 19:34 19.07.2019
4888 Clouds 20 1014 88 10000 2.1 250 18:43 19.07.2019
4889 Clouds 20 1014 88 10000 2.91 15.019 18:23 19.07.2019
4890 Clouds 20 1014 88 10000 2.91 15.019 17:55 19.07.2019
4891 Clouds 20 1014 78 10000 2.91 15.019 17:29 19.07.2019
4892 Clear 20 1014 78 10000 2.91 15.019 16:50 19.07.2019
4893 Clear 20 1014 78 10000 2.91 15.019 16:29 19.07.2019
4894 Clear 20 1014 83 10000 2.91 15.019 15:56 19.07.2019
4895 Clear 21 1014 78 10000 2.6 40 15:38 19.07.2019
4896 Clear 21 1014 69 10000 3.6 40 15:20 19.07.2019
4897 Clear 22 1014 64 10000 3.6 40 14:44 19.07.2019
4898 Clear 22 1013 60 10000 3.6 40 14:25 19.07.2019
4899 Clear 22 1013 56 10000 3.6 40 13:46 19.07.2019
4900 Clear 22 1013 56 10000 3.6 40 13:27 19.07.2019
4901 Clear 22 1012 50 10000 3.6 40 12:57 19.07.2019
4902 Clear 23 1012 53 10000 4.6 30 12:37 19.07.2019
4903 Clear 23 1012 50 10000 5.1 30 12:19 19.07.2019
4904 Clear 24 1012 41 10000 4.6 30 11:44 19.07.2019
4905 Clear 25 1011 36 10000 5.7 40 11:18 19.07.2019
4906 Clear 27 1011 34 10000 6.2 30 10:48 19.07.2019
4907 Clear 27 1011 34 10000 6.2 30 10:23 19.07.2019
4908 Clear 28 1011 35 10000 5.7 20 09:59 19.07.2019
4909 Clear 29 1011 37 10000 5.7 20 09:40 19.07.2019
4910 Clear 29 1011 37 10000 5.7 20 09:21 19.07.2019
4911 Clear 29 1011 35 10000 6.7 20 08:48 19.07.2019
4912 Clear 30 1011 30 10000 6.2 20 08:22 19.07.2019
4913 Clear 31 1011 19 10000 3.6 90 07:29 19.07.2019
4914 Clear 31 1012 20 10000 4.1 350 05:57 19.07.2019
4915 Clear 26 1015 41 10000 5.7 110 02:55 19.07.2019
4916 Smoke 20 1014 82 8000 6.2 100 01:20 19.07.2019
4917 Smoke 18 1014 88 8000 6.2 100 00:45 19.07.2019
4918 Smoke 17 1014 88 8000 6.2 100 23:58 18.07.2019
4919 Clouds 17 1014 88 8000 2.6 140 23:39 18.07.2019
4920 Clouds 18 1014 88 8000 2.6 140 23:21 18.07.2019
4921 Clear 18 1013 88 10000 3.1 140 22:41 18.07.2019
4922 Clouds 18 1013 88 10000 3.6 130 22:20 18.07.2019
4923 Clouds 18 1013 82 10000 3.1 140 21:49 18.07.2019
4924 Clouds 18 1013 82 10000 3.1 140 21:30 18.07.2019
4925 Clouds 18 1013 82 10000 2.6 140 20:54 18.07.2019
4926 Clouds 18 1013 77 10000 3.1 140 20:36 18.07.2019
4927 Clouds 18 1013 77 10000 2.6 150 20:18 18.07.2019
4928 Clouds 18 1013 77 10000 2.6 150 19:43 18.07.2019
4929 Clouds 19 1013 82 10000 2.1 160 19:20 18.07.2019
4930 Clouds 19 1014 82 10000 2.6 150 18:43 18.07.2019
4931 Clear 19 1014 82 10000 2.6 150 18:21 18.07.2019
4932 Clouds 19 1014 77 10000 1.5 170 17:44 18.07.2019
4933 Clouds 19 1014 77 10000 1.5 170 17:25 18.07.2019
4934 Clear 19 1014 82 10000 3.96 58.977 16:57 18.07.2019
4935 Clear 19 1014 73 10000 3.96 58.977 16:39 18.07.2019
4936 Clear 19 1014 73 10000 1.5 50 16:19 18.07.2019
4937 Clear 20 1014 73 10000 1.5 50 15:51 18.07.2019
4938 Clear 20 1014 73 10000 1.5 50 15:33 18.07.2019
4939 Clear 20 1014 68 10000 2.6 50 14:53 18.07.2019
4940 Clear 20 1014 68 10000 2.6 50 14:33 18.07.2019
4941 Clear 21 1013 60 10000 3.1 40 13:50 18.07.2019
4942 Clear 21 1013 60 10000 3.1 40 13:27 18.07.2019
4943 Clear 22 1013 44 10000 4.6 40 12:55 18.07.2019
4944 Clear 23 1013 44 10000 4.6 40 12:36 18.07.2019
4945 Clear 23 1012 41 10000 4.6 40 12:18 18.07.2019
4946 Clear 23 1012 41 10000 4.6 40 12:18 18.07.2019
4947 Clear 24 1012 38 10000 5.1 20 11:46 18.07.2019
4948 Clear 25 1012 34 10000 5.7 20 11:22 18.07.2019
4949 Clear 26 1011 34 10000 6.2 20 10:51 18.07.2019
4950 Clear 27 1011 37 10000 5.7 10 09:51 18.07.2019
4951 Clear 28 1011 37 10000 5.7 10 09:27 18.07.2019
4952 Clear 29 1011 26 10000 4.6 10 08:54 18.07.2019
4953 Clear 30 1011 11 10000 3.6 60 08:25 18.07.2019
4954 Clear 31 1012 60 10000 3.6 80 07:59 18.07.2019
4955 Clear 31 1012 60 10000 3.6 80 07:36 18.07.2019
4956 Clear 30 1013 16 10000 5.1 100 06:55 18.07.2019
4957 Clear 30 1013 16 10000 4.6 110 06:30 18.07.2019
4958 Clear 27 1015 26 10000 7.7 90 03:46 18.07.2019
4959 Clear 24 1015 43 10000 6.2 100 02:50 18.07.2019
4960 Clear 22 1015 43 10000 4.1 90 01:36 18.07.2019
4961 Clouds 17 1014 59 8000 3.6 90 00:23 18.07.2019
4962 Clouds 18 1014 59 9000 3.6 110 23:40 17.07.2019
4963 Clouds 17 1013 88 9000 2.1 130 23:18 17.07.2019
4964 Clouds 16 1013 82 10000 2.1 130 22:41 17.07.2019
4965 Clouds 17 1013 82 10000 1.5 130 22:22 17.07.2019
4966 Clouds 17 1013 82 10000 1.5 130 21:58 17.07.2019
4967 Clouds 17 1013 88 10000 1.5 130 21:38 17.07.2019
4968 Clear 17 1013 88 10000 1 140 21:20 17.07.2019
4969 Clouds 17 1013 88 10000 1 140 20:56 17.07.2019
4970 Clouds 17 1013 88 10000 1.5 150 20:56 17.07.2019
4971 Clouds 16 1013 88 10000 1.5 150 20:38 17.07.2019
4972 Clouds 16 1013 88 10000 1.5 150 20:19 17.07.2019
4973 Clouds 16 1013 88 10000 1.5 160 19:42 17.07.2019
4974 Clouds 17 1013 88 10000 4.07 65.146 19:20 17.07.2019
4975 Clouds 18 1013 82 10000 0.5 110 18:45 17.07.2019
4976 Clouds 18 1014 88 10000 1 60 18:21 17.07.2019
4977 Clouds 18 1014 88 10000 1 60 17:59 17.07.2019
4978 Clouds 18 1014 88 10000 1 60 17:41 17.07.2019
4979 Clear 18 1014 88 10000 1 130 17:22 17.07.2019
4980 Clear 20 1014 83 10000 2.6 200 16:41 17.07.2019
4981 Clear 20 1014 73 10000 2.1 190 16:20 17.07.2019
4982 Clear 21 1014 64 10000 1 220 15:51 17.07.2019
4983 Clear 21 1014 64 10000 1 220 15:31 17.07.2019
4984 Clear 21 1014 64 10000 1.89 261.694 14:57 17.07.2019
4985 Clear 20 1014 68 10000 1.89 261.694 14:38 17.07.2019
4986 Clear 20 1013 64 10000 1.89 261.694 14:20 17.07.2019
4987 Clear 21 1013 64 10000 1.89 261.694 13:49 17.07.2019
4988 Clear 21 1013 64 10000 2.69 249.708 13:31 17.07.2019
4989 Clear 22 1013 60 10000 2.1 20 12:56 17.07.2019
4990 Clear 23 1013 57 10000 1 340 12:38 17.07.2019
4991 Clear 23 1012 53 10000 3.1 360 12:19 17.07.2019
4992 Clear 24 1012 50 10000 3.6 360 11:40 17.07.2019
4993 Clear 24 1011 50 10000 4.1 350 11:19 17.07.2019
4994 Clear 26 1011 44 10000 4.1 340 10:45 17.07.2019
4995 Clear 26 1011 42 10000 4.6 340 10:21 17.07.2019
4996 Clear 27 1011 39 10000 4.6 330 09:45 17.07.2019
4997 Clear 28 1011 39 10000 4.6 330 09:27 17.07.2019
4998 Clear 30 1010 16 10000 5.7 310 08:45 17.07.2019
4999 Clear 30 1011 16 10000 4.1 330 08:24 17.07.2019
5000 Clear 31 1011 16 10000 4.1 330 07:58 17.07.2019
5001 Clear 31 1011 17 10000 2.6 110 07:38 17.07.2019
5002 Clear 30 1012 18 10000 4.1 330 07:19 17.07.2019
5003 Clear 29 1012 18 10000 5.1 90 06:45 17.07.2019
5004 Clear 28 1013 17 10000 4.1 80 06:22 17.07.2019
5005 Clear 28 1013 17 10000 4.1 80 06:22 17.07.2019
5006 Clear 28 1013 43 10000 5.1 80 05:33 17.07.2019
5007 Clear 27 1014 43 10000 6.2 80 04:57 17.07.2019
5008 Smoke 27 1015 19 10000 7.2 100 03:52 17.07.2019
5009 Clear 24 1016 25 10000 6.7 90 02:43 17.07.2019
5010 Clear 22 1015 28 10000 4.1 120 01:41 17.07.2019
5011 Clear 21 1015 28 10000 4.1 120 01:21 17.07.2019
5012 Clear 18 1015 48 10000 3.6 120 00:39 17.07.2019
5013 Clear 18 1014 48 10000 3.1 120 00:20 17.07.2019
5014 Clear 18 1014 24 10000 3.6 140 23:45 16.07.2019
5015 Clear 18 1014 24 10000 3.6 140 23:24 16.07.2019
5016 Clear 18 1014 24 10000 3.6 140 23:24 16.07.2019
5017 Clear 19 1014 22 10000 4.6 90 22:44 16.07.2019
5018 Clouds 20 1014 19 10000 4.6 100 22:26 16.07.2019
5019 Clouds 20 1014 19 10000 4.6 100 21:59 16.07.2019
5020 Clouds 20 1014 19 10000 4.6 100 21:59 16.07.2019
5021 Clouds 20 1014 18 10000 4.6 110 21:40 16.07.2019
5022 Clouds 21 1013 17 10000 4.6 110 21:19 16.07.2019
5023 Clouds 21 1013 15 10000 4.6 120 20:41 16.07.2019
5024 Clouds 21 1013 15 10000 4.6 120 20:23 16.07.2019
5025 Clouds 21 1013 17 10000 4.6 120 19:55 16.07.2019
5026 Clouds 21 1013 17 10000 4.6 120 19:33 16.07.2019
5027 Clouds 21 1014 18 10000 4.1 130 18:59 16.07.2019
5028 Clouds 21 1014 21 10000 4.1 130 18:41 16.07.2019
5029 Clouds 21 1014 21 10000 3.6 130 18:21 16.07.2019
5030 Clouds 21 1014 21 10000 3.6 130 17:54 16.07.2019
5031 Clouds 21 1014 26 10000 2.6 140 17:36 16.07.2019
5032 Clear 22 1014 43 10000 2.1 150 16:53 16.07.2019
5033 Clear 22 1014 43 10000 2.1 150 16:28 16.07.2019
5034 Clear 20 1015 77 10000 0.5 110 15:58 16.07.2019
5035 Clear 20 1015 77 10000 0.5 70 15:39 16.07.2019
5036 Clear 20 1015 77 10000 1 60 15:20 16.07.2019
5037 Clear 20 1015 77 10000 1 60 14:56 16.07.2019
5038 Clear 20 1015 73 10000 1 50 14:38 16.07.2019
5039 Clear 21 1014 73 10000 0.5 40 14:19 16.07.2019
5040 Clear 21 1014 73 10000 0.5 350 13:44 16.07.2019
5041 Clear 22 1013 69 10000 1.5 360 13:19 16.07.2019
5042 Clear 24 1013 61 10000 1.5 320 12:44 16.07.2019
5043 Clear 24 1013 57 10000 1.5 350 12:20 16.07.2019
5044 Clear 25 1013 57 10000 1.5 350 11:55 16.07.2019
5045 Clear 25 1012 50 9000 2.1 340 11:36 16.07.2019
5046 Clear 25 1012 50 9000 3.1 340 11:18 16.07.2019
5047 Clear 27 1012 47 10000 3.6 340 10:44 16.07.2019
5048 Clear 28 1012 37 10000 4.6 350 10:20 16.07.2019
5049 Clear 29 1011 23 10000 3.1 10 09:44 16.07.2019
5050 Smoke 30 1011 22 10000 3.6 140 09:21 16.07.2019
5051 Smoke 30 1011 22 10000 3.6 140 08:58 16.07.2019
5052 Clear 30 1012 22 10000 5.1 90 08:40 16.07.2019
5053 Clear 30 1012 20 10000 3.6 150 08:18 16.07.2019
5054 Clear 30 1012 23 10000 3.6 150 07:40 16.07.2019
5055 Clear 30 1013 23 10000 4.1 130 07:18 16.07.2019
5056 Clear 30 1013 23 10000 4.6 120 06:43 16.07.2019
5057 Clear 28 1014 23 10000 5.1 110 05:57 16.07.2019
5058 Clear 27 1014 22 10000 7.2 110 05:31 16.07.2019
5059 Clear 28 1015 22 10000 6.2 120 04:52 16.07.2019
5060 Clear 26 1016 23 10000 8.2 110 03:44 16.07.2019
5061 Clear 24 1017 25 10000 6.2 140 02:53 16.07.2019
5062 Clear 23 1017 25 10000 6.2 140 02:28 16.07.2019
5063 Clear 23 1016 28 10000 4.1 140 01:40 16.07.2019
5064 Clear 21 1016 28 10000 4.1 130 00:39 16.07.2019
5065 Clear 21 1015 26 10000 3.6 140 00:19 16.07.2019
5066 Clear 21 1015 24 10000 4.1 120 23:42 15.07.2019
5067 Clear 21 1015 24 10000 4.1 120 23:23 15.07.2019
5068 Clear 22 1015 23 10000 4.6 100 22:47 15.07.2019
5069 Clouds 22 1015 23 10000 4.1 110 22:22 15.07.2019
5070 Clouds 23 1015 23 10000 4.1 110 21:57 15.07.2019
5071 Clouds 23 1015 23 10000 5.1 110 21:39 15.07.2019
5072 Clouds 22 1014 53 10000 5.7 120 21:19 15.07.2019
5073 Clouds 23 1014 53 10000 4.6 120 20:45 15.07.2019
5074 Clouds 23 1014 53 10000 4.6 120 20:24 15.07.2019
5075 Clouds 23 1014 53 10000 4.6 130 19:58 15.07.2019
5076 Clouds 23 1015 53 10000 4.6 130 19:39 15.07.2019
5077 Clouds 23 1015 23 10000 4.1 130 19:19 15.07.2019
5078 Clouds 23 1015 22 10000 3.6 130 18:46 15.07.2019
5079 Clouds 24 1015 22 10000 4.1 140 18:22 15.07.2019
5080 Clouds 24 1015 22 10000 4.1 140 17:58 15.07.2019
5081 Clouds 24 1015 22 10000 4.1 120 17:39 15.07.2019
5082 Clear 24 1015 23 10000 4.1 130 17:21 15.07.2019
5083 Clear 24 1015 23 10000 4.1 130 16:58 15.07.2019
5084 Clear 24 1015 25 10000 3.1 140 16:37 15.07.2019
5085 Clear 24 1015 23 10000 2.1 150 16:18 15.07.2019
5086 Clear 24 1015 23 10000 2.6 150 15:41 15.07.2019
5087 Clear 24 1015 23 10000 2.6 150 15:41 15.07.2019
5088 Clear 24 1015 23 10000 2.6 150 15:23 15.07.2019
5089 Clear 24 1015 23 10000 2.6 140 14:59 15.07.2019
5090 Clear 24 1015 25 10000 2.6 130 14:38 15.07.2019
5091 Clear 23 1014 25 10000 2.6 130 14:19 15.07.2019
5092 Clear 23 1014 22 10000 2.1 140 13:47 15.07.2019
5093 Clear 24 1013 24 10000 2.1 130 13:19 15.07.2019
5094 Clear 24 1013 29 10000 2.1 130 12:47 15.07.2019
5095 Clear 24 1013 29 10000 2.1 130 12:27 15.07.2019
5096 Clear 26 1013 22 10000 2.6 120 11:57 15.07.2019
5097 Clear 26 1012 20 10000 2.6 110 11:38 15.07.2019
5098 Clear 27 1012 17 10000 3.6 110 11:18 15.07.2019
5099 Clear 28 1012 17 10000 4.1 120 10:40 15.07.2019
5100 Clear 28 1012 17 10000 4.1 120 10:40 15.07.2019
5101 Clear 29 1011 17 10000 4.1 120 10:22 15.07.2019
5102 Clear 29 1011 16 10000 3.1 110 09:42 15.07.2019
5103 Clear 30 1011 16 10000 4.1 110 09:20 15.07.2019
5104 Clear 30 1012 16 10000 5.1 130 08:46 15.07.2019
5105 Clear 29 1012 16 10000 5.1 130 08:25 15.07.2019
5106 Clear 29 1012 16 10000 5.7 150 07:52 15.07.2019
5107 Clear 29 1012 16 10000 5.7 150 07:30 15.07.2019
5108 Clear 28 1013 49 10000 6.2 120 06:41 15.07.2019
5109 Clear 28 1014 17 10000 6.7 120 06:20 15.07.2019
5110 Clear 26 1014 40 10000 6.7 130 05:42 15.07.2019
5111 Clear 26 1015 20 10000 7.7 110 04:46 15.07.2019
5112 Clear 26 1015 20 10000 7.7 110 04:26 15.07.2019
5113 Clear 24 1016 23 10000 8.2 140 03:29 15.07.2019
5114 Clear 22 1017 28 10000 6.7 140 02:23 15.07.2019
5115 Clear 21 1017 32 10000 6.7 140 01:35 15.07.2019
5116 Clear 21 1017 32 10000 6.7 140 01:35 15.07.2019
5117 Clear 20 1016 34 10000 4.6 140 00:53 15.07.2019
5118 Clear 20 1016 34 10000 4.6 140 00:28 15.07.2019
5119 Clear 20 1016 34 10000 5.1 140 23:59 14.07.2019
5120 Clear 20 1016 32 10000 4.6 140 23:40 14.07.2019
5121 Clear 20 1016 32 10000 4.6 130 23:20 14.07.2019
5122 Clear 20 1016 32 10000 4.6 130 23:20 14.07.2019
5123 Clear 20 1016 32 10000 4.6 130 22:57 14.07.2019
5124 Clear 20 1015 32 10000 4.6 130 22:38 14.07.2019
5125 Clouds 21 1015 32 10000 4.6 140 22:20 14.07.2019
5126 Clouds 21 1015 32 10000 4.6 130 21:43 14.07.2019
5127 Clouds 21 1015 32 10000 5.1 140 21:19 14.07.2019
5128 Clouds 21 1015 32 10000 5.1 140 21:19 14.07.2019
5129 Clouds 21 1015 32 10000 5.1 140 20:58 14.07.2019
5130 Clouds 22 1015 30 10000 4.1 140 20:38 14.07.2019
5131 Clouds 22 1015 27 10000 4.6 130 20:20 14.07.2019
5132 Clouds 22 1015 28 10000 5.1 130 19:47 14.07.2019
5133 Clouds 22 1015 28 10000 5.1 130 19:28 14.07.2019
5134 Clouds 22 1015 30 10000 5.1 120 18:58 14.07.2019
5135 Clouds 21 1015 32 10000 4.6 130 18:40 14.07.2019
5136 Clouds 21 1016 32 10000 4.6 140 18:21 14.07.2019
5137 Clouds 21 1016 32 10000 4.6 140 17:57 14.07.2019
5138 Clouds 22 1016 28 10000 4.1 130 17:23 14.07.2019
5139 Clear 22 1016 28 10000 2.6 150 16:52 14.07.2019
5140 Clear 22 1016 28 10000 2.6 150 16:25 14.07.2019
5141 Clear 22 1016 30 10000 3.1 150 15:57 14.07.2019
5142 Clear 22 1016 27 10000 2.6 150 15:37 14.07.2019
5143 Clear 23 1016 27 10000 3.1 150 14:58 14.07.2019
5144 Clear 23 1016 25 10000 3.1 150 14:37 14.07.2019
5145 Clear 23 1015 27 10000 3.1 150 14:19 14.07.2019
5146 Clear 23 1015 23 10000 2.6 140 13:45 14.07.2019
5147 Clear 24 1014 25 10000 2.6 130 13:22 14.07.2019
5148 Clear 23 1014 25 10000 2.6 130 12:55 14.07.2019
5149 Clear 23 1014 33 10000 2.1 110 12:36 14.07.2019
5150 Clear 23 1014 27 10000 2.6 130 12:18 14.07.2019
5151 Clear 25 1013 21 10000 2.1 130 11:43 14.07.2019
5152 Clear 27 1013 18 10000 3.6 130 11:20 14.07.2019
5153 Clear 28 1012 17 10000 3.6 120 10:42 14.07.2019
5154 Clear 29 1012 16 10000 4.1 110 10:20 14.07.2019
5155 Clear 29 1012 15 10000 3.6 130 09:44 14.07.2019
5156 Clear 30 1012 15 10000 3.6 130 09:25 14.07.2019
5157 Clear 30 1012 15 10000 4.1 120 08:45 14.07.2019
5158 Clear 30 1012 15 10000 4.1 120 08:22 14.07.2019
5159 Clear 30 1013 23 10000 5.1 150 07:41 14.07.2019
5160 Clear 29 1013 26 10000 5.1 130 06:59 14.07.2019
5161 Clear 27 1015 28 10000 6.7 130 05:45 14.07.2019
5162 Clear 26 1017 33 10000 10.8 110 03:50 14.07.2019
5163 Clear 25 1017 33 10000 10.8 110 03:32 14.07.2019
5164 Clear 24 1017 35 10000 6.7 130 02:50 14.07.2019
5165 Clear 23 1017 35 10000 9.3 130 02:22 14.07.2019
5166 Clear 21 1017 40 10000 9.3 130 01:34 14.07.2019
5167 Clear 19 1017 42 10000 9.3 130 00:58 14.07.2019
5168 Clear 19 1016 42 10000 4.1 130 00:39 14.07.2019
5169 Clear 18 1016 48 10000 3.6 140 00:20 14.07.2019
5170 Clear 18 1016 45 10000 3.1 150 23:45 13.07.2019
5171 Clear 18 1016 45 10000 3.1 150 23:25 13.07.2019
5172 Clear 18 1015 45 10000 3.1 130 22:56 13.07.2019
5173 Clear 19 1015 42 10000 3.6 120 22:37 13.07.2019
5174 Clear 19 1015 42 10000 3.6 120 22:37 13.07.2019
5175 Clear 19 1015 37 10000 4.1 100 22:19 13.07.2019
5176 Clear 20 1015 37 10000 4.1 100 21:42 13.07.2019
5177 Clouds 20 1015 33 10000 4.1 110 21:19 13.07.2019
5178 Clouds 20 1015 33 10000 4.1 110 21:19 13.07.2019
5179 Clouds 20 1015 40 10000 3.6 120 20:45 13.07.2019
5180 Clouds 20 1015 40 10000 3.6 120 20:26 13.07.2019
5181 Clouds 21 1015 40 10000 3.6 140 19:46 13.07.2019
5182 Clouds 21 1015 40 10000 3.6 140 19:27 13.07.2019
5183 Clouds 21 1015 43 10000 3.1 130 18:44 13.07.2019
5184 Clouds 22 1015 46 10000 3.1 130 18:21 13.07.2019
5185 Clouds 22 1015 60 10000 2.1 210 17:40 13.07.2019
5186 Clear 22 1015 69 10000 2.1 210 17:20 13.07.2019
5187 Clear 22 1015 69 10000 2.1 210 16:57 13.07.2019
5188 Clear 21 1015 78 10000 0.5 220 16:37 13.07.2019
5189 Clear 21 1015 78 10000 0.5 220 16:37 13.07.2019
5190 Clear 21 1015 78 10000 0.5 220 16:19 13.07.2019
5191 Clear 22 1016 69 10000 2.6 240 15:43 13.07.2019
5192 Clear 23 1015 65 10000 2.1 240 15:21 13.07.2019
5193 Clear 23 1015 65 10000 2.1 260 14:44 13.07.2019
5194 Clear 23 1015 61 10000 3.1 250 14:22 13.07.2019
5195 Clear 24 1014 69 10000 3.1 260 13:46 13.07.2019
5196 Clear 23 1014 69 10000 3.1 260 13:24 13.07.2019
5197 Clear 23 1014 73 10000 3.1 270 12:59 13.07.2019
5198 Clear 25 1013 65 10000 2.6 280 12:37 13.07.2019
5199 Clear 25 1013 51 10000 3.6 290 12:18 13.07.2019
5200 Clear 26 1013 44 10000 3.1 320 11:40 13.07.2019
5201 Clear 27 1013 42 10000 2.6 340 11:19 13.07.2019
5202 Clear 30 1012 20 10000 3.1 40 10:44 13.07.2019
5203 Clear 30 1012 20 10000 5.1 340 10:23 13.07.2019
5204 Clear 31 1012 20 10000 5.1 340 09:53 13.07.2019
5205 Clear 31 1012 20 10000 4.6 110 09:31 13.07.2019
5206 Clear 32 1012 19 10000 4.1 10 08:58 13.07.2019
5207 Clear 31 1012 20 10000 4.1 10 08:32 13.07.2019
5208 Clear 32 1012 22 10000 4.1 10 07:56 13.07.2019
5209 Clear 32 1013 20 10000 4.6 120 07:29 13.07.2019
5210 Clear 31 1014 22 10000 6.7 120 06:39 13.07.2019
5211 Clear 30 1014 23 10000 5.1 120 05:57 13.07.2019
5212 Clear 29 1016 30 10000 6.2 110 04:42 13.07.2019
5213 Clear 28 1017 30 10000 5.7 120 04:22 13.07.2019
5214 Clear 28 1017 30 10000 5.7 120 03:55 13.07.2019
5215 Clear 27 1017 34 10000 6.2 110 03:37 13.07.2019
5216 Clear 25 1017 50 10000 4.1 130 01:54 13.07.2019
5217 Clear 24 1016 57 10000 3.1 100 01:36 13.07.2019
5218 Clear 23 1016 73 10000 2.6 90 01:18 13.07.2019
5219 Clear 22 1016 78 10000 2.6 110 00:46 13.07.2019
5220 Fog 20 1016 88 10000 1.5 110 00:18 13.07.2019
5221 Clear 19 1016 94 10000 2.6 100 23:43 12.07.2019
5222 Clear 19 1016 94 10000 2.6 100 23:24 12.07.2019
5223 Clear 21 1016 83 10000 1 90 22:43 12.07.2019
5224 Clouds 21 1016 78 10000 1 80 22:23 12.07.2019
5225 Clouds 22 1016 78 10000 2.1 100 21:42 12.07.2019
5226 Clouds 23 1016 73 10000 1 90 21:22 12.07.2019
5227 Clouds 23 1016 73 10000 1 90 20:54 12.07.2019
5228 Clouds 23 1016 73 10000 1 90 20:54 12.07.2019
5229 Clouds 23 1016 78 10000 0.5 80 20:24 12.07.2019
5230 Clouds 23 1016 78 10000 1.5 120 19:45 12.07.2019
5231 Clouds 24 1016 78 10000 1.5 120 19:27 12.07.2019
5232 Clouds 24 1016 73 10000 1.5 140 18:59 12.07.2019
5233 Clouds 24 1016 73 10000 2.1 130 18:39 12.07.2019
5234 Clouds 24 1017 73 10000 2.1 170 18:20 12.07.2019
5235 Clouds 24 1017 73 10000 2.6 180 17:48 12.07.2019
5236 Clouds 24 1017 73 10000 2.6 180 17:27 12.07.2019
5237 Clear 24 1017 73 10000 1.5 170 16:44 12.07.2019
5238 Clear 24 1017 73 10000 2.6 180 16:21 12.07.2019
5239 Clear 24 1016 73 10000 1.5 190 15:41 12.07.2019
5240 Clear 24 1016 78 10000 2.1 180 15:21 12.07.2019
5241 Clear 24 1016 78 10000 2.1 180 14:56 12.07.2019
5242 Clear 24 1016 65 10000 1 180 14:38 12.07.2019
5243 Clear 24 1015 65 10000 1 140 14:20 12.07.2019
5244 Clear 24 1015 73 10000 2.6 40 13:39 12.07.2019
5245 Clear 24 1014 69 10000 3.1 40 12:59 12.07.2019
5246 Clear 24 1014 69 10000 2.6 30 12:40 12.07.2019
5247 Clear 25 1014 61 10000 2.6 20 12:20 12.07.2019
5248 Clear 26 1013 57 10000 3.1 360 11:44 12.07.2019
5249 Clear 26 1013 57 10000 3.6 360 11:22 12.07.2019
5250 Clear 27 1013 51 10000 3.1 360 10:44 12.07.2019
5251 Clear 28 1013 51 10000 3.1 360 10:24 12.07.2019
5252 Clear 27 1013 61 10000 4.6 340 09:54 12.07.2019
5253 Clear 28 1012 54 10000 3.6 320 09:31 12.07.2019
5254 Clear 29 1012 54 10000 5.1 330 09:00 12.07.2019
5255 Clear 29 1012 48 10000 4.6 320 08:41 12.07.2019
5256 Clear 30 1012 45 10000 4.6 310 08:19 12.07.2019
5257 Clear 30 1013 48 10000 5.7 320 07:46 12.07.2019
5258 Clear 30 1013 48 10000 5.7 320 07:27 12.07.2019
5259 Clear 31 1014 25 10000 4.1 320 06:29 12.07.2019
5260 Clear 31 1015 25 10000 4.1 320 05:48 12.07.2019
5261 Clear 27 1018 47 10000 3.1 100 03:23 12.07.2019
5262 Clear 25 1018 69 10000 1 80 01:46 12.07.2019
5263 Clear 23 1018 69 10000 1 80 01:26 12.07.2019
5264 Clear 19 1017 88 10000 1.5 90 00:31 12.07.2019
5265 Clear 19 1017 88 10000 2.9 100.243 23:50 11.07.2019
5266 Clear 19 1017 88 10000 2.9 100.243 23:27 11.07.2019
5267 Clear 20 1017 88 10000 2.9 100.243 22:59 11.07.2019
5268 Clear 20 1017 88 10000 2.9 100.243 22:39 11.07.2019
5269 Clouds 20 1017 88 10000 2.9 100.243 22:21 11.07.2019
5270 Clouds 20 1017 88 10000 2.9 100.243 21:42 11.07.2019
5271 Clouds 20 1017 88 10000 2.9 100.243 21:42 11.07.2019
5272 Clouds 20 1017 94 10000 0.92 59.09 21:19 11.07.2019
5273 Clouds 20 1017 94 10000 0.92 59.09 20:56 11.07.2019
5274 Clouds 20 1017 94 10000 1 100 20:37 11.07.2019
5275 Clouds 20 1017 94 10000 0.92 59.09 20:18 11.07.2019
5276 Clouds 20 1017 94 10000 0.92 59.09 20:18 11.07.2019
5277 Clouds 19 1017 94 10000 1 230 19:45 11.07.2019
5278 Clouds 19 1017 94 10000 0.92 59.09 19:25 11.07.2019
5279 Clouds 19 1017 94 10000 0.92 59.09 18:53 11.07.2019
5280 Clouds 19 1017 94 10000 0.92 59.09 18:53 11.07.2019
5281 Clouds 19 1017 94 10000 0.92 59.09 18:33 11.07.2019
5282 Clouds 19 1017 94 10000 1.21 53.149 17:59 11.07.2019
5283 Clouds 19 1017 94 10000 0.5 100 17:40 11.07.2019
5284 Clouds 19 1017 94 10000 0.5 100 17:22 11.07.2019
5285 Clear 20 1017 88 10000 1.21 53.149 16:45 11.07.2019
5286 Clear 20 1017 88 10000 1.21 53.149 16:23 11.07.2019
5287 Clear 20 1017 88 10000 2.1 210 15:49 11.07.2019
5288 Clear 20 1017 88 10000 2.1 210 15:30 11.07.2019
5289 Clear 22 1017 78 10000 1.5 230 14:59 11.07.2019
5290 Clear 22 1017 78 10000 2.1 230 14:40 11.07.2019
5291 Clear 22 1017 78 10000 1.5 250 14:20 11.07.2019
5292 Clear 22 1017 78 10000 2.1 250 13:46 11.07.2019
5293 Clear 23 1017 78 10000 2.1 250 13:26 11.07.2019
5294 Clear 24 1016 69 10000 2.6 270 12:45 11.07.2019
5295 Clear 24 1015 69 10000 2.6 290 12:26 11.07.2019
5296 Clear 25 1015 61 10000 3.1 290 11:53 11.07.2019
5297 Clear 26 1015 61 10000 3.1 290 11:31 11.07.2019
5298 Clear 27 1015 51 10000 3.1 340 10:59 11.07.2019
5299 Clear 27 1014 48 10000 3.6 330 10:41 11.07.2019
5300 Clear 27 1014 48 10000 3.6 340 10:18 11.07.2019
5301 Clear 28 1014 51 10000 3.6 340 09:44 11.07.2019
5302 Clear 29 1014 51 10000 4.6 340 09:24 11.07.2019
5303 Clouds 29 1013 51 10000 4.6 320 08:51 11.07.2019
5304 Clouds 29 1013 51 10000 4.6 320 08:24 11.07.2019
5305 Clear 29 1014 54 10000 4.6 310 07:52 11.07.2019
5306 Clear 29 1014 54 10000 4.6 310 07:32 11.07.2019
5307 Clear 29 1015 32 10000 3.1 310 06:35 11.07.2019
5308 Clear 29 1016 32 10000 4.1 330 05:48 11.07.2019
5309 Clear 29 1016 32 10000 4.1 330 05:29 11.07.2019
5310 Clear 29 1017 37 10000 4.1 330 04:53 11.07.2019
5311 Clear 26 1018 61 10000 1.5 70 02:40 11.07.2019
5312 Clear 24 1018 73 10000 1 130 01:27 11.07.2019
5313 Clear 19 1017 88 10000 1.5 130 00:26 11.07.2019
5314 Fog 19 1016 93 10000 1 80 23:37 10.07.2019
5315 Clouds 19 1016 93 8000 1 80 23:18 10.07.2019
5316 Fog 19 1016 93 6000 6.41 105.404 22:42 10.07.2019
5317 Fog 19 1016 93 7000 6.41 105.404 22:19 10.07.2019
5318 Clouds 19 1015 100 10000 1 30 21:44 10.07.2019
5319 Clouds 19 1015 100 10000 1 30 21:26 10.07.2019
5320 Clear 20 1015 94 10000 1 70 20:56 10.07.2019
5321 Clear 20 1015 94 9000 1 70 20:37 10.07.2019
5322 Clear 20 1015 94 9000 1 70 20:37 10.07.2019
5323 Clear 20 1015 94 6000 2.6 50 20:18 10.07.2019
5324 Clear 20 1015 94 10000 1 80 19:42 10.07.2019
5325 Clouds 20 1016 94 10000 1.5 60 19:22 10.07.2019
5326 Clear 21 1016 94 10000 3.6 180 18:48 10.07.2019
5327 Clear 21 1016 94 10000 2.6 180 18:25 10.07.2019
5328 Clear 21 1016 94 10000 2.6 180 17:59 10.07.2019
5329 Clear 22 1016 88 10000 2.6 170 17:40 10.07.2019
5330 Clear 22 1016 88 10000 2.1 170 17:19 10.07.2019
5331 Clear 22 1016 88 10000 1 190 16:22 10.07.2019
5332 Clear 22 1016 88 10000 1 190 15:59 10.07.2019
5333 Clear 22 1016 83 10000 4.3 174.618 15:40 10.07.2019
5334 Clear 22 1016 83 10000 2.1 220 15:19 10.07.2019
5335 Clear 23 1016 78 10000 3.1 240 14:40 10.07.2019
5336 Clear 23 1015 73 10000 2.6 230 14:21 10.07.2019
5337 Clear 24 1015 73 10000 2.1 250 13:44 10.07.2019
5338 Clear 24 1015 69 10000 1.5 260 13:19 10.07.2019
5339 Clear 24 1014 69 10000 1 310 12:55 10.07.2019
5340 Clear 24 1014 69 10000 1 310 12:37 10.07.2019
5341 Clear 24 1014 61 10000 2.1 320 12:18 10.07.2019
5342 Clear 26 1014 57 10000 2.6 340 11:43 10.07.2019
5343 Clear 26 1013 48 10000 3.1 330 11:21 10.07.2019
5344 Clear 27 1013 45 10000 2.6 350 10:44 10.07.2019
5345 Clear 28 1013 39 10000 3.6 350 10:20 10.07.2019
5346 Clear 29 1013 45 10000 4.6 350 09:44 10.07.2019
5347 Clear 29 1013 48 10000 4.6 350 09:21 10.07.2019
5348 Clear 30 1013 51 10000 4.6 350 08:50 10.07.2019
5349 Clear 29 1013 51 10000 4.6 350 08:29 10.07.2019
5350 Clear 29 1013 51 10000 4.6 350 07:54 10.07.2019
5351 Clouds 30 1013 48 10000 3.6 320 07:32 10.07.2019
5352 Clouds 29 1014 58 10000 3.6 300 06:44 10.07.2019
5353 Clouds 28 1014 58 10000 4.1 290 05:59 10.07.2019
5354 Clouds 29 1016 51 10000 2.6 60 04:36 10.07.2019
5355 Clouds 27 1016 65 10000 2.6 30 03:38 10.07.2019
5356 Clear 19 1015 93 10000 5.1 80 00:47 10.07.2019
5357 Clear 18 1015 93 10000 5.1 80 00:26 10.07.2019
5358 Clear 18 1015 93 10000 1 60 23:41 09.07.2019
5359 Clear 18 1014 100 10000 5.1 80 23:21 09.07.2019
5360 Clear 19 1014 94 10000 1.5 50 22:41 09.07.2019
5361 Clouds 19 1014 94 10000 1.5 30 22:22 09.07.2019
5362 Clouds 19 1014 94 10000 1.5 30 21:56 09.07.2019
5363 Clouds 19 1014 94 10000 1 50 21:37 09.07.2019
5364 Clear 19 1014 94 10000 1.5 50 21:19 09.07.2019
5365 Clear 20 1014 94 10000 3.1 50 20:43 09.07.2019
5366 Clear 20 1014 94 10000 2.1 190 20:24 09.07.2019
5367 Clear 21 1014 94 10000 2.1 190 19:40 09.07.2019
5368 Clear 22 1014 94 10000 3.1 190 19:21 09.07.2019
5369 Clear 22 1014 83 10000 3.1 190 18:45 09.07.2019
5370 Clear 22 1014 83 10000 3.6 190 18:23 09.07.2019
5371 Clear 22 1014 83 10000 3.6 180 17:55 09.07.2019
5372 Clear 22 1014 83 10000 3.6 180 17:37 09.07.2019
5373 Clear 22 1014 83 10000 3.1 180 17:18 09.07.2019
5374 Clear 22 1014 83 10000 3.1 190 16:46 09.07.2019
5375 Clear 22 1014 83 10000 2.6 180 16:24 09.07.2019
5376 Clear 23 1014 73 10000 2.6 190 15:49 09.07.2019
5377 Clear 23 1014 73 10000 2.6 190 15:29 09.07.2019
5378 Clear 23 1014 78 10000 1.5 210 14:47 09.07.2019
5379 Clear 23 1014 78 10000 1.5 210 14:47 09.07.2019
5380 Clear 23 1014 78 10000 1.5 210 14:25 09.07.2019
5381 Clear 23 1014 78 10000 1.5 210 13:59 09.07.2019
5382 Clear 23 1014 69 10000 1.5 200 13:40 09.07.2019
5383 Clear 24 1013 61 10000 4.99 231.699 13:21 09.07.2019
5384 Clear 24 1013 65 10000 0.5 300 12:40 09.07.2019
5385 Clear 25 1013 57 10000 1.5 350 12:19 09.07.2019
5386 Clear 25 1013 57 10000 1.5 350 11:57 09.07.2019
5387 Clear 27 1013 54 10000 3.6 10 11:38 09.07.2019
5388 Clear 27 1012 48 10000 3.6 360 11:20 09.07.2019
5389 Clear 27 1012 45 10000 4.6 360 10:49 09.07.2019
5390 Clear 28 1012 45 10000 4.6 360 10:27 09.07.2019
5391 Clear 29 1012 39 10000 4.6 350 09:40 09.07.2019
5392 Clear 30 1012 40 10000 4.6 340 09:21 09.07.2019
5393 Clear 30 1012 40 10000 4.6 340 09:21 09.07.2019
5394 Clear 31 1012 40 10000 5.7 350 08:45 09.07.2019
5395 Clear 31 1012 38 10000 4.6 310 08:22 09.07.2019
5396 Clear 27 1016 34 10000 2.1 70 03:54 05.07.2019
5397 Clear 26 1016 29 10000 2.1 70 03:25 05.07.2019
5398 Clear 24 1016 31 10000 2.6 120 02:59 05.07.2019
5399 Clear 23 1016 37 10000 3.6 130 02:37 05.07.2019
5400 Clear 20 1016 72 10000 2.6 100 01:37 05.07.2019
5401 Clear 17 1016 93 10000 2.1 70 00:57 05.07.2019
5402 Clear 16 1016 93 10000 2.1 110 00:39 05.07.2019
5403 Clear 14 1015 93 10000 1 120 23:51 04.07.2019
5404 Clear 14 1015 93 10000 1 120 23:20 04.07.2019
5405 Clear 14 1015 93 10000 2.6 140 22:44 04.07.2019
5406 Clouds 14 1014 93 10000 1 150 22:24 04.07.2019
5407 Clouds 14 1014 93 10000 1 150 21:57 04.07.2019
5408 Clouds 15 1014 88 10000 5.47 127.972 21:39 04.07.2019
5409 Clouds 15 1015 93 10000 1.5 60 21:20 04.07.2019
5410 Clouds 15 1015 93 10000 1.5 70 20:40 04.07.2019
5411 Clouds 16 1015 88 10000 1.5 140 20:22 04.07.2019
5412 Clouds 16 1015 88 10000 1.5 140 19:56 04.07.2019
5413 Clouds 18 1015 82 10000 2.6 170 19:38 04.07.2019
5414 Clouds 18 1015 82 10000 3.1 180 19:19 04.07.2019
5415 Clouds 19 1015 77 10000 3.1 170 18:42 04.07.2019
5416 Clouds 19 1015 77 10000 2.1 160 18:24 04.07.2019
5417 Clouds 20 1015 73 10000 2.1 160 17:46 04.07.2019
5418 Clear 20 1015 77 10000 2.1 170 17:19 04.07.2019
5419 Clear 20 1015 82 10000 2.1 160 15:58 04.07.2019
5420 Clear 20 1015 77 10000 1 160 15:40 04.07.2019
5421 Clear 20 1015 72 10000 1 190 15:22 04.07.2019
5422 Clear 19 1015 72 10000 1 190 14:55 04.07.2019
5423 Clear 21 1015 64 10000 1.5 190 14:37 04.07.2019
5424 Clear 20 1015 68 10000 2.6 140 14:18 04.07.2019
5425 Clear 20 1015 68 10000 2.6 140 14:18 04.07.2019
5426 Clear 20 1014 68 10000 2.6 140 13:42 04.07.2019
5427 Clear 21 1014 64 10000 2.6 140 13:23 04.07.2019
5428 Clear 21 1014 64 10000 2.6 140 12:57 04.07.2019
5429 Clear 22 1014 60 10000 2.6 170 12:37 04.07.2019
5430 Clear 22 1014 60 10000 2.6 170 12:37 04.07.2019
5431 Clear 23 1014 53 10000 1.5 350 12:19 04.07.2019
5432 Clear 25 1013 50 10000 3.6 10 11:39 04.07.2019
5433 Clear 25 1013 44 10000 4.6 360 11:19 04.07.2019
5434 Clear 27 1013 42 10000 4.1 350 10:40 04.07.2019
5435 Clear 27 1013 39 10000 4.6 340 10:21 04.07.2019
5436 Clear 28 1013 39 10000 5.1 340 09:45 04.07.2019
5437 Clear 28 1013 32 10000 5.1 310 09:26 04.07.2019
5438 Clear 28 1013 32 10000 5.1 310 08:56 04.07.2019
5439 Clear 28 1013 32 10000 5.1 310 08:56 04.07.2019
5440 Clear 30 1013 19 10000 4.1 310 08:25 04.07.2019
5441 Clear 30 1013 17 10000 5.1 350 07:46 04.07.2019
5442 Clear 30 1013 17 10000 5.1 350 07:23 04.07.2019
5443 Clear 29 1014 20 10000 5.1 350 06:55 04.07.2019
5444 Clear 28 1015 25 10000 5.7 100 05:52 04.07.2019
5445 Clear 29 1015 25 10000 5.7 100 05:33 04.07.2019
5446 Clear 24 1017 69 10000 2.6 130 02:43 04.07.2019
5447 Clear 22 1017 77 10000 2.1 130 01:42 04.07.2019
5448 Clear 20 1016 82 10000 0.5 150 01:22 04.07.2019
5449 Clear 18 1016 82 10000 1.5 130 23:58 03.07.2019
5450 Clear 17 1016 93 10000 2.1 130 23:40 03.07.2019
5451 Clear 16 1015 93 10000 1.5 90 23:20 03.07.2019
5452 Clear 16 1015 93 10000 1.5 90 22:44 03.07.2019
5453 Clear 16 1015 93 10000 1.5 90 22:25 03.07.2019
5454 Clear 17 1015 88 10000 0.5 110 21:59 03.07.2019
5455 Clear 16 1015 93 10000 1 120 21:41 03.07.2019
5456 Clouds 17 1015 93 10000 1 120 21:23 03.07.2019
5457 Clouds 18 1015 88 10000 3.18 163.318 20:46 03.07.2019
5458 Clouds 17 1015 88 10000 3.18 163.318 20:24 03.07.2019
5459 Clouds 18 1015 88 10000 1.5 50 19:51 03.07.2019
5460 Clouds 18 1015 88 10000 1.5 50 19:32 03.07.2019
5461 Clouds 20 1015 88 10000 3.1 180 18:49 03.07.2019
5462 Clouds 20 1015 88 10000 3.1 180 18:30 03.07.2019
5463 Clouds 21 1015 78 10000 1.5 190 17:57 03.07.2019
5464 Clouds 21 1015 78 10000 1 210 17:37 03.07.2019
5465 Clear 21 1015 78 10000 1 210 17:18 03.07.2019
5466 Clear 21 1015 78 10000 1.5 200 16:43 03.07.2019
5467 Clear 21 1015 73 10000 2.1 190 16:22 03.07.2019
5468 Clear 21 1015 78 10000 2.1 180 15:49 03.07.2019
5469 Clear 21 1015 78 10000 2.1 180 15:31 03.07.2019
5470 Clear 21 1015 64 10000 2.1 190 14:57 03.07.2019
5471 Clouds 22 1015 60 10000 1.5 220 14:38 03.07.2019
5472 Clouds 22 1015 60 10000 1.5 220 14:38 03.07.2019
5473 Clear 21 1014 64 10000 2.02 231.508 14:18 03.07.2019
5474 Clear 21 1014 60 10000 2.02 231.508 13:40 03.07.2019
5475 Clear 22 1014 60 10000 1 10 13:18 03.07.2019
5476 Clear 22 1013 57 10000 2.6 10 12:43 03.07.2019
5477 Clear 23 1013 57 10000 2.6 360 12:18 03.07.2019
5478 Clear 24 1013 53 10000 3.1 360 11:42 03.07.2019
5479 Clear 25 1013 47 10000 4.1 360 11:21 03.07.2019
5480 Clear 27 1012 47 10000 4.1 350 10:43 03.07.2019
5481 Clear 27 1012 47 10000 4.1 350 10:24 03.07.2019
5482 Clear 28 1012 45 10000 4.6 350 09:55 03.07.2019
5483 Clear 28 1012 39 10000 5.1 350 09:36 03.07.2019
5484 Clear 28 1012 39 10000 4.6 340 09:18 03.07.2019
5485 Clear 30 1012 35 10000 5.7 320 08:41 03.07.2019
5486 Clear 30 1012 35 10000 5.7 320 08:22 03.07.2019
5487 Clear 29 1013 23 10000 3.6 340 07:38 03.07.2019
5488 Clear 30 1013 25 10000 3.6 340 06:56 03.07.2019
5489 Clear 29 1014 26 10000 4.6 120 06:19 03.07.2019
5490 Clear 29 1015 30 10000 5.1 70 05:29 03.07.2019
5491 Clear 28 1016 37 10000 5.7 100 04:27 03.07.2019
5492 Clear 25 1017 53 10000 4.6 70 02:58 03.07.2019
5493 Clear 23 1016 73 10000 2.1 100 01:42 03.07.2019
5494 Clear 22 1016 73 10000 2.1 100 01:21 03.07.2019
5495 Clear 19 1015 93 10000 1.5 100 00:42 03.07.2019
5496 Clear 17 1015 93 10000 1.5 100 23:58 02.07.2019
5497 Clear 17 1015 93 10000 1.5 100 23:37 02.07.2019
5498 Clear 17 1015 93 10000 1.5 100 23:19 02.07.2019
5499 Clear 17 1014 93 10000 1.5 90 22:55 02.07.2019
5500 Clear 17 1014 93 10000 1.5 90 22:36 02.07.2019
5501 Clouds 17 1014 88 10000 1 60 22:18 02.07.2019
5502 Clouds 17 1014 88 10000 0.5 60 21:41 02.07.2019
5503 Clouds 17 1014 88 10000 0.5 60 21:20 02.07.2019
5504 Clouds 19 1014 82 10000 2.1 50 20:57 02.07.2019
5505 Clouds 19 1014 82 10000 2.1 50 20:39 02.07.2019
5506 Clouds 19 1014 82 10000 2.1 50 20:19 02.07.2019
5507 Clouds 18 1014 88 10000 1.5 80 19:42 02.07.2019
5508 Clouds 18 1014 93 10000 1.5 90 19:23 02.07.2019
5509 Clouds 18 1014 93 10000 1.5 70 18:47 02.07.2019
5510 Clouds 18 1014 93 10000 1.5 70 18:18 02.07.2019
5511 Clouds 18 1014 93 10000 1.5 70 18:18 02.07.2019
5512 Clouds 18 1014 88 10000 0.5 80 17:41 02.07.2019
5513 Clear 19 1014 88 10000 1 190 17:22 02.07.2019
5514 Clear 19 1014 82 10000 1.5 190 16:52 02.07.2019
5515 Clear 20 1014 82 10000 1.5 190 16:34 02.07.2019
5516 Clear 20 1014 73 10000 1.5 190 15:46 02.07.2019
5517 Clear 21 1014 73 10000 1 190 15:27 02.07.2019
5518 Clear 21 1014 73 10000 1 190 14:57 02.07.2019
5519 Clear 21 1014 73 10000 1 190 14:57 02.07.2019
5520 Clear 21 1014 73 10000 0.5 180 14:38 02.07.2019
5521 Clear 21 1013 83 10000 1.25 209.385 14:19 02.07.2019
5522 Clear 22 1013 69 10000 1.5 20 13:38 02.07.2019
5523 Clear 22 1013 69 10000 1.5 20 13:18 02.07.2019
5524 Clear 23 1012 64 10000 3.1 20 12:44 02.07.2019
5525 Clear 24 1012 64 10000 3.1 20 12:22 02.07.2019
5526 Clear 24 1012 61 10000 4.6 360 11:44 02.07.2019
5527 Clear 25 1012 61 10000 4.1 10 11:23 02.07.2019
5528 Clear 26 1011 54 10000 4.6 360 10:54 02.07.2019
5529 Clear 27 1011 54 10000 5.1 350 10:26 02.07.2019
5530 Clear 28 1011 48 10000 5.7 350 09:51 02.07.2019
5531 Clear 29 1011 48 10000 5.7 340 09:22 02.07.2019
5532 Clear 29 1011 19 10000 6.7 340 08:56 02.07.2019
5533 Clear 31 1011 19 10000 6.7 340 08:36 02.07.2019
5534 Clear 31 1012 23 10000 4.1 320 07:58 02.07.2019
5535 Clear 31 1012 23 10000 4.1 320 07:21 02.07.2019
5536 Clear 31 1012 23 10000 4.1 320 07:21 02.07.2019
5537 Clear 31 1013 25 10000 4.6 120 06:55 02.07.2019
5538 Clear 30 1013 25 10000 4.6 120 06:36 02.07.2019
5539 Clear 30 1014 30 10000 4.1 80 05:26 02.07.2019
5540 Clear 26 1015 54 10000 3.6 90 02:37 02.07.2019
5541 -273 0 0 0 0 0 00:26 02.07.2019
5542 Clear 18 1014 93 10000 5.2 116.999 23:30 01.07.2019
5543 Haze 18 1013 93 10000 2.6 140 22:54 01.07.2019
5544 Clear 19 1013 88 4800 0.5 150 22:28 01.07.2019
5545 Clear 19 1013 88 4800 0.5 150 21:56 01.07.2019
5546 Clear 19 1013 88 4800 1 160 21:37 01.07.2019
5547 Clouds 19 1013 88 5000 1.5 150 21:19 01.07.2019
5548 Clouds 20 1013 88 6000 2.1 160 20:45 01.07.2019
5549 Clouds 20 1013 83 6000 2.1 170 20:20 01.07.2019
5550 Clouds 20 1013 83 6000 2.1 170 19:44 01.07.2019
5551 Clouds 21 1013 83 7000 1.5 180 19:25 01.07.2019
5552 Clouds 20 1013 83 8000 3.27 112.419 18:56 01.07.2019
5553 Clouds 20 1013 83 8000 3.27 112.419 18:37 01.07.2019
5554 Clouds 20 1013 83 9000 2.23 87.326 18:19 01.07.2019
5555 Clouds 21 1013 77 10000 0.5 360 17:43 01.07.2019
5556 Clouds 21 1013 77 10000 0.5 360 17:23 01.07.2019
5557 Clear 21 1014 73 10000 1.5 10 16:48 01.07.2019
5558 Clear 22 1014 73 10000 1.5 10 16:27 01.07.2019
5559 Clear 22 1014 73 10000 0.5 90 15:58 01.07.2019
5560 Clear 22 1014 69 10000 2.23 87.326 15:40 01.07.2019
5561 Clear 23 1014 61 10000 1.5 190 15:22 01.07.2019
5562 Clear 24 1013 61 10000 1.5 170 14:44 01.07.2019
5563 Smoke 23 1013 64 10000 1.5 0 14:20 01.07.2019
5564 Clear 23 1012 61 10000 1.5 30 13:45 01.07.2019
5565 Smoke 24 1012 61 10000 1.5 0 13:23 01.07.2019
5566 Clear 24 1012 54 10000 2.1 20 12:56 01.07.2019
5567 Clear 25 1012 54 10000 2.1 20 12:37 01.07.2019
5568 Clear 25 1012 54 10000 2.1 20 12:37 01.07.2019
5569 Smoke 25 1012 57 10000 1.5 0 12:18 01.07.2019
5570 Clear 26 1011 51 10000 3.6 10 11:43 01.07.2019
5571 Clear 27 1011 48 10000 4.1 360 11:21 01.07.2019
5572 Clear 28 1011 45 10000 4.6 350 10:47 01.07.2019
5573 Clear 28 1011 45 10000 4.6 350 10:24 01.07.2019
5574 Smoke 29 1011 42 10000 1.5 0 09:58 01.07.2019
5575 Smoke 30 1011 43 10000 1.5 0 09:40 01.07.2019
5576 Clear 31 1011 26 10000 3.1 140 09:21 01.07.2019
5577 Clear 32 1011 29 10000 5.1 110 08:37 01.07.2019
5578 Dust 32 1011 29 10000 4.6 90 07:48 01.07.2019
5579 Dust 32 1011 29 10000 4.6 90 07:27 01.07.2019
5580 Clear 31 1013 33 10000 4.1 20 06:20 01.07.2019
5581 Clear 26 1015 69 10000 2.6 90 01:43 01.07.2019
5582 Clouds 23 1015 83 10000 2.6 90 00:48 01.07.2019
5583 Clouds 22 1015 83 10000 2.6 90 00:29 01.07.2019
5584 Clear 21 1014 83 10000 1.5 80 23:56 30.06.2019
5585 Clear 21 1014 83 10000 1 70 23:21 30.06.2019
5586 Clear 21 1014 83 10000 1.5 60 22:49 30.06.2019
5587 Clouds 21 1013 83 10000 1.5 70 22:21 30.06.2019
5588 Clouds 22 1013 78 10000 7.26 89.574 21:42 30.06.2019
5589 Clouds 22 1013 83 10000 0.5 70 21:22 30.06.2019
5590 Clouds 22 1013 83 10000 0.5 70 20:57 30.06.2019
5591 Clouds 22 1013 78 10000 0.5 140 20:39 30.06.2019
5592 Clouds 22 1013 78 10000 1 100 20:21 30.06.2019
5593 Clouds 22 1013 83 10000 1.5 150 19:44 30.06.2019
5594 Clouds 22 1014 83 10000 1.5 150 19:25 30.06.2019
5595 Clouds 23 1014 83 10000 1.5 160 18:39 30.06.2019
5596 Clouds 23 1014 83 10000 3.6 160 18:20 30.06.2019
5597 Clouds 23 1014 78 10000 3.6 180 17:40 30.06.2019
5598 Clear 23 1014 83 10000 3.1 190 17:18 30.06.2019
5599 Clear 23 1014 83 10000 3.1 180 16:50 30.06.2019
5600 Clear 23 1014 83 10000 3.1 180 16:31 30.06.2019
5601 Clear 24 1013 73 10000 3.6 180 15:38 30.06.2019
5602 Clear 24 1013 78 10000 2.1 190 15:19 30.06.2019
5603 Clear 24 1013 78 10000 2.1 190 14:56 30.06.2019
5604 Clear 24 1013 73 10000 0.5 320 14:38 30.06.2019
5605 Clear 25 1013 69 10000 1 210 13:57 30.06.2019
5606 Clear 24 1012 69 10000 0.5 360 13:38 30.06.2019
5607 Clear 25 1012 65 10000 1 350 13:18 30.06.2019
5608 Clear 25 1012 61 10000 1 340 12:44 30.06.2019
5609 Clear 26 1011 57 10000 1.5 360 12:21 30.06.2019
5610 Clear 27 1011 51 10000 1.5 280 11:47 30.06.2019
5611 Clear 27 1011 54 10000 2.1 350 11:22 30.06.2019
5612 Clear 28 1011 54 10000 2.1 350 10:56 30.06.2019
5613 Clear 28 1010 51 10000 2.6 330 10:37 30.06.2019
5614 Clear 29 1010 48 10000 3.6 340 10:18 30.06.2019
5615 Clear 31 1010 48 10000 4.6 350 09:43 30.06.2019
5616 Clear 31 1010 45 10000 5.1 350 09:22 30.06.2019
5617 Clear 32 1010 33 10000 3.1 360 08:42 30.06.2019
5618 Clear 33 1010 33 10000 3.1 360 08:23 30.06.2019
5619 Clear 33 1011 33 10000 5.1 50 07:52 30.06.2019
5620 Clear 33 1011 33 10000 5.1 50 07:26 30.06.2019
5621 Clear 32 1012 33 10000 6.2 70 06:39 30.06.2019
5622 Clouds 31 1014 37 10000 7.2 90 04:48 30.06.2019
5623 Clouds 27 1014 47 10000 6.7 100 02:41 30.06.2019
5624 Clouds 23 1014 73 10000 6.7 100 01:24 30.06.2019
5625 Clouds 20 1014 83 10000 2.1 130 00:26 30.06.2019
5626 Clouds 20 1014 83 10000 2.1 130 00:26 30.06.2019
5627 Fog 19 1013 83 10000 2.6 140 23:53 29.06.2019
5628 Clear 19 1013 83 10000 2.1 140 23:24 29.06.2019
5629 Clear 19 1013 88 10000 5.72 97.882 22:56 29.06.2019
5630 Clear 18 1013 88 10000 5.72 97.882 22:25 29.06.2019
5631 Clouds 19 1013 83 0 2.6 130 21:59 29.06.2019
5632 Clouds 19 1013 83 0 2.6 140 21:40 29.06.2019
5633 Clouds 20 1013 88 0 2.6 140 21:20 29.06.2019
5634 Clouds 20 1014 88 0 2.6 140 20:40 29.06.2019
5635 Clouds 20 1014 88 0 2.6 140 20:40 29.06.2019
5636 Clouds 19 1014 88 0 1.5 110 20:22 29.06.2019
5637 Clouds 19 1014 88 0 0.5 60 19:48 29.06.2019
5638 Clouds 19 1014 94 0 1.5 60 19:23 29.06.2019
5639 Clouds 19 1014 94 0 1.5 110 18:49 29.06.2019
5640 Clouds 19 1014 94 0 1.5 110 18:26 29.06.2019
5641 Clouds 21 1014 88 0 1.5 80 17:42 29.06.2019
5642 Clear 21 1014 88 10000 1 190 17:22 29.06.2019
5643 Clear 22 1014 88 10000 1 190 16:57 29.06.2019
5644 Clear 22 1014 88 10000 2.6 190 16:36 29.06.2019
5645 Clear 22 1014 83 10000 2.6 190 15:50 29.06.2019
5646 Clear 22 1014 83 10000 2.6 190 15:30 29.06.2019
5647 Clear 22 1014 83 10000 2.1 190 14:44 29.06.2019
5648 Clear 23 1014 83 10000 2.1 190 14:25 29.06.2019
5649 Clear 22 1013 73 10000 1 20 13:47 29.06.2019
5650 -273 0 0 0 0 0 13:26 29.06.2019
5651 Clear 23 1013 73 10000 2.1 10 12:52 29.06.2019
5652 Clear 23 1013 73 10000 2.1 10 12:34 29.06.2019
5653 Clear 24 1012 65 10000 3.1 250 11:54 29.06.2019
5654 Clear 25 1012 61 10000 3.1 250 11:34 29.06.2019
5655 Clear 27 1012 57 10000 3.1 250 10:57 29.06.2019
5656 Clear 27 1011 51 10000 3.6 10 10:39 29.06.2019
5657 Clear 28 1011 45 10000 3.1 250 10:20 29.06.2019
5658 Clear 29 1011 42 10000 4.1 350 09:45 29.06.2019
5659 Clear 31 1011 27 10000 4.1 340 08:51 29.06.2019
5660 Clear 32 1011 29 10000 4.1 340 08:22 29.06.2019
5661 Clear 31 1012 29 10000 5.1 130 07:44 29.06.2019
5662 Clear 31 1013 31 10000 6.2 80 06:47 29.06.2019
5663 Clear 31 1013 33 10000 4.1 340 06:24 29.06.2019
5664 Clear 31 1013 33 10000 4.1 340 06:24 29.06.2019
5665 Clear 26 1015 57 10000 4.1 60 02:52 29.06.2019
5666 Clear 20 1015 77 10000 2.1 90 01:22 29.06.2019
5667 Clear 18 1015 88 10000 2.1 90 00:31 29.06.2019
5668 Clear 18 1014 88 10000 2.1 120 23:37 28.06.2019
5669 Clear 18 1014 88 10000 2.1 120 23:37 28.06.2019
5670 Clear 18 1014 88 10000 3.1 100 23:19 28.06.2019
5671 Clear 18 1014 83 10000 3.6 180 22:45 28.06.2019
5672 Clear 19 1014 83 10000 3.1 180 21:58 28.06.2019
5673 Clear 20 1014 83 10000 4.1 190 21:27 28.06.2019
5674 Clear 20 1014 83 10000 4.1 190 21:26 28.06.2019
5675 Clear 20 1014 83 10000 3.6 180 20:49 28.06.2019
5676 Clear 20 1014 83 10000 3.6 180 20:30 28.06.2019
5677 Clear 20 1014 83 10000 3.6 180 19:57 28.06.2019
5678 Clear 20 1014 83 10000 4.1 180 19:37 28.06.2019
5679 Clear 21 1014 88 10000 4.1 190 19:18 28.06.2019
5680 Clear 21 1015 88 10000 3.6 190 18:41 28.06.2019
5681 Clear 21 1015 83 10000 2.6 200 18:21 28.06.2019
5682 Clear 21 1015 78 10000 3.1 200 17:38 28.06.2019
5683 Clear 21 1015 78 10000 3.1 200 17:18 28.06.2019
5684 Clear 21 1016 78 10000 2.6 210 16:41 28.06.2019
5685 Clear 21 1016 78 10000 2.6 210 16:18 28.06.2019
5686 Clear 22 1016 73 10000 2.1 220 15:39 28.06.2019
5687 Clear 22 1016 73 10000 2.1 230 15:18 28.06.2019
5688 Clear 22 1015 69 10000 2.6 230 14:39 28.06.2019
5689 Clear 22 1015 69 10000 2.6 230 14:20 28.06.2019
5690 Clear 23 1015 64 10000 2.1 240 13:45 28.06.2019
5691 Clear 23 1015 64 10000 2.1 240 13:25 28.06.2019
5692 Clear 23 1014 64 10000 2.1 250 12:50 28.06.2019
5693 Clear 23 1014 64 10000 2.1 250 12:31 28.06.2019
5694 Clear 24 1013 57 10000 2.1 290 11:29 28.06.2019
5695 Clear 26 1012 47 10000 2.6 340 10:47 28.06.2019
5696 Clear 27 1012 42 10000 2.1 340 10:23 28.06.2019
5697 Clear 28 1012 42 10000 2.1 340 10:00 28.06.2019
5698 Clear 27 1012 44 10000 3.6 350 09:41 28.06.2019
5699 Clear 28 1012 42 10000 3.6 350 09:22 28.06.2019
5700 Clear 28 1012 44 10000 3.6 330 08:42 28.06.2019
5701 Clear 28 1012 44 10000 3.6 330 08:23 28.06.2019
5702 Clear 28 1013 45 10000 4.1 340 07:42 28.06.2019
5703 Clear 29 1014 42 10000 3.1 310 06:49 28.06.2019
5704 Clouds 26 1016 44 10000 3.6 90 03:57 28.06.2019
5705 Clear 17 1015 82 9000 6.2 90 00:46 28.06.2019
5706 Clear 15 1015 82 10000 1 160 00:19 28.06.2019
5707 Clear 16 1015 82 10000 2.1 150 23:43 27.06.2019
5708 Clear 16 1014 82 10000 2.6 160 23:22 27.06.2019
5709 Clear 16 1014 88 10000 2.6 160 22:43 27.06.2019
5710 Clear 16 1014 88 10000 2.6 160 22:25 27.06.2019
5711 Clouds 16 1014 88 10000 2.6 150 21:58 27.06.2019
5712 Clouds 16 1014 82 10000 2.6 160 21:39 27.06.2019
5713 Clear 16 1014 82 10000 2.1 160 21:20 27.06.2019
5714 Clear 16 1014 82 10000 2.74 92.13 20:46 27.06.2019
5715 Clear 16 1014 82 10000 2.74 92.13 20:28 27.06.2019
5716 Clear 16 1015 82 10000 0.5 140 19:49 27.06.2019
5717 Clear 17 1015 82 10000 0.5 140 19:29 27.06.2019
5718 Clear 18 1015 82 10000 1.5 130 18:52 27.06.2019
5719 Clear 18 1015 82 10000 1.5 130 18:30 27.06.2019
5720 Clear 19 1015 77 10000 3.1 140 17:55 27.06.2019
5721 Clear 18 1015 77 10000 2.61 135.31 17:36 27.06.2019
5722 Clear 18 1015 82 10000 0.5 170 17:18 27.06.2019
5723 Clear 18 1015 72 10000 2.1 180 16:38 27.06.2019
5724 Clear 19 1015 72 10000 2.1 170 16:19 27.06.2019
5725 Clear 19 1015 64 10000 2.6 200 15:45 27.06.2019
5726 Clear 19 1015 64 10000 2.6 200 15:24 27.06.2019
5727 Clear 18 1014 68 10000 2.1 50 14:47 27.06.2019
5728 Clear 19 1014 68 10000 2.1 50 14:28 27.06.2019
5729 Clear 20 1013 64 10000 2.6 50 13:50 27.06.2019
5730 Clear 20 1013 64 10000 2.6 50 13:31 27.06.2019
5731 Clear 22 1013 64 10000 2.6 40 12:57 27.06.2019
5732 Clear 23 1013 60 10000 2.6 20 12:38 27.06.2019
5733 Clear 23 1012 57 10000 3.1 10 12:18 27.06.2019
5734 Clear 24 1012 47 10000 3.1 20 11:42 27.06.2019
5735 Clear 25 1011 42 10000 4.1 10 11:21 27.06.2019
5736 Clear 26 1011 42 10000 4.6 360 10:46 27.06.2019
5737 Clear 27 1011 37 10000 3.1 330 10:22 27.06.2019
5738 Clear 28 1011 35 10000 4.6 320 09:55 27.06.2019
5739 Clear 29 1011 17 10000 2.6 300 09:22 27.06.2019
5740 Clear 30 1011 17 10000 2.6 300 08:55 27.06.2019
5741 Clear 30 1011 16 10000 2.6 100 08:37 27.06.2019
5742 Clear 30 1011 17 10000 3.1 160 08:19 27.06.2019
5743 Clear 30 1012 17 10000 5.7 100 07:31 27.06.2019
5744 Clear 29 1012 20 10000 3.6 110 06:54 27.06.2019
5745 Clear 28 1013 24 10000 6.2 110 06:24 27.06.2019
5746 Clear 25 1016 41 10000 3.6 80 03:21 27.06.2019
5747 Clear 22 1016 43 10000 4.1 90 02:30 27.06.2019
5748 Clear 19 1016 52 10000 2.6 90 01:18 27.06.2019
5749 Clear 15 1015 67 10000 2.1 80 00:42 27.06.2019
5750 Smoke 15 1015 59 8000 3.1 100 00:19 27.06.2019
5751 Clear 14 1015 63 10000 3.1 100 23:42 26.06.2019
5752 Clear 13 1015 87 10000 1.5 130 23:22 26.06.2019
5753 Clear 14 1015 87 10000 1.5 120 22:46 26.06.2019
5754 Clear 13 1015 87 10000 1.5 120 22:27 26.06.2019
5755 Clear 14 1014 82 10000 1 130 21:59 26.06.2019
5756 Clear 14 1014 82 10000 3.1 150 21:39 26.06.2019
5757 Clear 14 1014 87 10000 1 160 21:19 26.06.2019
5758 Clear 13 1014 87 10000 1 160 21:19 26.06.2019
5759 Clear 14 1014 93 10000 0.5 170 20:49 26.06.2019
5760 Clear 14 1014 93 10000 0.5 170 20:30 26.06.2019
5761 Clouds 15 1015 87 10000 1 70 19:50 26.06.2019
5762 Clouds 15 1015 87 10000 1 70 19:31 26.06.2019
5763 Clear 15 1015 87 10000 1.5 50 18:58 26.06.2019
5764 Clear 16 1015 88 10000 2.6 20 18:39 26.06.2019
5765 Clear 16 1015 93 10000 2.1 200 18:19 26.06.2019
5766 Clear 16 1015 93 10000 2.1 200 18:19 26.06.2019
5767 Clear 17 1015 82 10000 2.1 200 17:46 26.06.2019
5768 Clear 18 1015 82 10000 2.1 200 17:27 26.06.2019
5769 Clear 18 1015 82 10000 2.1 200 17:27 26.06.2019
5770 Clear 18 1015 82 10000 2.1 200 17:27 26.06.2019
5771 Clear 16 1015 82 10000 1.5 220 16:52 26.06.2019
5772 Clear 17 1015 82 10000 1.5 220 16:29 26.06.2019
5773 Clear 17 1015 82 10000 1.5 220 16:29 26.06.2019
5774 Clear 16 1015 77 10000 1 230 15:53 26.06.2019
5775 Clear 16 1015 77 10000 1 230 15:28 26.06.2019
5776 Clear 17 1015 68 10000 1.5 220 14:57 26.06.2019
5777 Clear 18 1015 60 10000 0.5 360 14:37 26.06.2019
5778 Clear 18 1014 64 10000 0.5 30 14:18 26.06.2019
5779 Clear 19 1014 64 10000 1.5 30 13:39 26.06.2019
5780 Clear 19 1014 64 10000 1.5 30 13:18 26.06.2019
5781 Clear 21 1014 64 10000 2.1 10 12:40 26.06.2019
5782 Clear 21 1013 56 10000 1.5 360 12:19 26.06.2019
5783 Clear 22 1013 47 10000 3.1 360 11:37 26.06.2019
5784 Clear 23 1013 38 10000 4.1 360 11:18 26.06.2019
5785 Clear 25 1012 34 10000 4.1 340 10:39 26.06.2019
5786 Clear 26 1012 32 10000 4.6 350 10:20 26.06.2019
5787 Clear 27 1012 30 10000 4.6 330 09:36 26.06.2019
5788 Clear 29 1012 9 10000 3.6 350 09:18 26.06.2019
5789 Clear 29 1013 9 10000 3.6 350 08:23 26.06.2019
5790 Clear 29 1013 9 10000 3.6 350 07:59 26.06.2019
5791 Clear 29 1013 7 10000 3.6 350 07:41 26.06.2019
5792 Clear 29 1014 8 10000 4.6 90 06:33 26.06.2019
5793 Clear 24 1017 11 10000 4.6 140 03:34 26.06.2019
5794 Clear 15 1017 31 10000 4.1 130 00:42 26.06.2019
5795 Clear 13 1016 38 10000 3.1 140 00:18 26.06.2019
5796 Clear 14 1016 44 10000 3.1 140 23:39 25.06.2019
5797 Clear 15 1016 41 10000 4.1 130 23:20 25.06.2019
5798 Clear 15 1016 39 10000 4.1 130 22:42 25.06.2019
5799 Clear 15 1016 39 10000 4.1 130 22:23 25.06.2019
5800 Clouds 16 1015 51 10000 2.6 150 21:47 25.06.2019
5801 Clouds 16 1015 51 10000 2.6 150 21:27 25.06.2019
5802 Clouds 15 1015 59 10000 2.6 140 20:59 25.06.2019
5803 Clouds 15 1015 72 10000 3.1 150 20:37 25.06.2019
5804 Clouds 15 1016 77 10000 2.6 150 20:18 25.06.2019
5805 Clouds 15 1016 77 10000 2.6 150 20:18 25.06.2019
5806 Clouds 15 1016 77 10000 2.6 150 19:45 25.06.2019
5807 Clouds 16 1016 82 10000 3.1 150 19:22 25.06.2019
5808 Clouds 15 1016 88 10000 1.5 150 18:43 25.06.2019
5809 Clouds 15 1016 93 10000 1.5 150 18:25 25.06.2019
5810 -273 0 0 0 0 0 17:49 25.06.2019
5811 Clouds 15 1016 93 10000 1.5 170 17:49 25.06.2019
5812 Clouds 15 1016 93 10000 1.5 170 17:28 25.06.2019
5813 -273 0 0 0 0 0 17:28 25.06.2019
5814 -273 0 0 0 0 0 17:28 25.06.2019
5815 Clear 16 1016 82 10000 1 190 16:55 25.06.2019
5816 Clear 18 1016 82 10000 1.5 210 16:37 25.06.2019
5817 Clear 18 1016 77 10000 2.1 200 16:19 25.06.2019
5818 Clear 18 1017 68 10000 1.5 190 15:40 25.06.2019
5819 Clear 18 1017 72 10000 1.5 190 15:20 25.06.2019
5820 Clear 19 1016 68 10000 1.5 170 14:51 25.06.2019
5821 Clear 19 1016 68 10000 1.5 170 14:51 25.06.2019
5822 Clear 19 1016 68 10000 1.5 170 14:32 25.06.2019
5823 Clear 19 1016 68 10000 0.5 350 13:43 25.06.2019
5824 Smoke 19 1016 60 10000 2.6 130 13:24 25.06.2019
5825 Clear 20 1015 56 10000 1.5 350 12:43 25.06.2019
5826 Smoke 21 1015 53 10000 2.6 130 12:24 25.06.2019
5827 Clear 22 1015 49 10000 3.1 360 11:48 25.06.2019
5828 Clear 23 1015 49 10000 3.1 360 11:26 25.06.2019
5829 Clear 24 1014 44 10000 3.1 360 10:59 25.06.2019
5830 Clear 25 1014 38 10000 3.1 350 10:38 25.06.2019
5831 Clear 25 1014 36 10000 4.1 340 10:19 25.06.2019
5832 Clear 27 1014 30 10000 4.1 350 09:40 25.06.2019
5833 Clear 27 1014 28 10000 4.1 330 09:22 25.06.2019
5834 Clear 27 1014 28 10000 4.1 330 09:00 25.06.2019
5835 Clear 29 1014 23 10000 4.6 310 08:31 25.06.2019
5836 Clear 30 1014 9 10000 3.6 350 07:58 25.06.2019
5837 Clear 29 1015 10 10000 3.6 350 07:36 25.06.2019
5838 Clear 29 1016 11 10000 3.1 120 06:52 25.06.2019
5839 Clear 28 1016 11 10000 3.1 120 06:25 25.06.2019
5840 Clear 22 1018 21 10000 4.6 130 02:45 25.06.2019
5841 Clear 18 1018 25 10000 4.1 140 01:26 25.06.2019
5842 Clear 15 1018 41 10000 3.6 140 00:28 25.06.2019
5843 Clear 14 1017 54 10000 3.6 150 23:53 24.06.2019
5844 Clear 13 1017 54 10000 3.6 150 23:33 24.06.2019
5845 Clear 14 1016 72 10000 3.6 160 22:59 24.06.2019
5846 Clear 13 1016 76 10000 2.6 150 22:38 24.06.2019
5847 Clear 13 1016 87 10000 1.5 130 22:18 24.06.2019
5848 Clear 11 1016 87 10000 1.5 90 21:38 24.06.2019
5849 Clear 14 1016 87 10000 1.5 90 21:18 24.06.2019
5850 Clear 13 1016 87 10000 1.5 90 20:54 24.06.2019
5851 Clear 13 1016 93 10000 1.5 100 20:36 24.06.2019
5852 Clear 13 1016 87 10000 1.5 100 20:18 24.06.2019
5853 Clear 12 1016 87 10000 1.5 110 19:41 24.06.2019
5854 Clear 13 1016 87 10000 1.5 130 19:21 24.06.2019
5855 Clear 14 1016 93 10000 1 120 18:43 24.06.2019
5856 Clear 16 1016 82 10000 1 130 18:24 24.06.2019
5857 Clear 15 1017 82 10000 1.5 130 17:42 24.06.2019
5858 Clear 15 1017 82 10000 1.5 130 17:24 24.06.2019
5859 Clear 14 1016 82 10000 0.5 140 16:45 24.06.2019
5860 Clear 15 1016 72 10000 1 190 16:20 24.06.2019
5861 Clear 17 1017 63 10000 1 110 15:46 24.06.2019
5862 Clear 19 1017 63 10000 1 110 15:27 24.06.2019
5863 Clear 17 1016 72 10000 0.5 30 14:42 24.06.2019
5864 Clear 17 1016 72 10000 1.5 20 14:24 24.06.2019
5865 Clear 17 1016 68 10000 1 360 13:45 24.06.2019
5866 Smoke 17 1016 63 10000 2.6 140 13:23 24.06.2019
5867 Smoke 19 1015 60 10000 2.6 140 12:42 24.06.2019
5868 Smoke 20 1015 53 10000 2.6 140 12:21 24.06.2019
5869 Smoke 21 1015 43 10000 2.6 140 11:46 24.06.2019
5870 Smoke 22 1015 43 10000 2.6 140 11:27 24.06.2019
5871 Clear 23 1015 41 10000 3.6 360 10:55 24.06.2019
5872 Clear 25 1014 33 10000 4.1 350 10:34 24.06.2019
5873 Smoke 26 1014 34 10000 4.6 350 09:59 24.06.2019
5874 Clear 27 1014 30 10000 5.1 340 09:41 24.06.2019
5875 Smoke 28 1014 7 10000 5.1 320 09:19 24.06.2019
5876 Smoke 29 1014 8 10000 3.6 350 08:50 24.06.2019
5877 Smoke 30 1014 7 10000 3.6 350 08:18 24.06.2019
5878 Clear 29 1014 7 10000 4.1 100 07:41 24.06.2019
5879 Clear 29 1014 8 10000 4.1 110 07:22 24.06.2019
5880 Clear 28 1015 10 10000 4.1 100 06:24 24.06.2019
5881 Clear 27 1016 13 10000 4.6 80 05:41 24.06.2019
5882 Clear 26 1017 10 10000 6.2 100 04:43 24.06.2019
5883 Clear 25 1017 16 10000 6.2 100 03:49 24.06.2019
5884 Clear 23 1017 21 10000 4.1 130 02:48 24.06.2019
5885 Clear 20 1017 24 10000 4.1 130 01:55 24.06.2019
5886 Clear 20 1017 24 10000 4.1 130 01:33 24.06.2019
5887 Clear 15 1016 31 10000 3.1 130 00:55 24.06.2019
5888 Clear 15 1016 29 10000 3.6 120 00:21 24.06.2019
5889 Clear 15 1016 27 10000 3.6 130 23:56 23.06.2019
5890 Clear 15 1016 27 10000 3.6 130 23:37 23.06.2019
5891 Clear 16 1015 19 10000 3.6 90 23:18 23.06.2019
5892 Clear 17 1015 19 10000 3.6 100 22:41 23.06.2019
5893 Clear 17 1015 23 10000 3.6 110 22:20 23.06.2019
5894 Clear 15 1015 25 10000 2.6 120 21:42 23.06.2019
5895 Clear 17 1015 27 10000 2.6 110 21:22 23.06.2019
5896 Clear 17 1015 25 10000 2.6 130 20:51 23.06.2019
5897 Clear 17 1015 25 10000 2.6 130 20:31 23.06.2019
5898 Clear 16 1015 25 10000 3.6 130 19:55 23.06.2019
5899 Clear 15 1015 24 10000 3.6 120 19:37 23.06.2019
5900 Clear 15 1015 38 10000 3.6 120 19:19 23.06.2019
5901 Clear 17 1015 39 10000 3.6 130 18:43 23.06.2019
5902 Clear 17 1015 63 10000 2.1 140 18:19 23.06.2019
5903 Clear 17 1015 77 10000 2.6 150 17:41 23.06.2019
5904 Clear 17 1015 82 10000 2.6 180 17:22 23.06.2019
5905 Clear 18 1015 77 10000 3.1 180 16:45 23.06.2019
5906 Clear 18 1015 77 10000 3.1 180 16:25 23.06.2019
5907 Clear 18 1015 68 10000 2.6 170 15:45 23.06.2019
5908 Clear 20 1015 68 10000 2.6 170 15:25 23.06.2019
5909 Clear 19 1014 77 10000 1 140 14:59 23.06.2019
5910 Clear 19 1014 77 10000 1 100 14:38 23.06.2019
5911 Clear 20 1014 72 10000 2.74 184.039 14:20 23.06.2019
5912 Clear 19 1014 72 10000 1.5 150 13:42 23.06.2019
5913 Clear 19 1013 72 10000 1.5 150 13:21 23.06.2019
5914 Clear 19 1013 72 10000 1.5 150 12:58 23.06.2019
5915 Clear 20 1013 68 10000 2.6 150 12:39 23.06.2019
5916 Clear 21 1013 60 10000 2.6 150 12:19 23.06.2019
5917 Clear 22 1012 47 10000 2.1 340 11:45 23.06.2019
5918 Clear 23 1012 41 10000 2.6 330 11:25 23.06.2019
5919 Clear 25 1012 36 10000 2.6 320 10:48 23.06.2019
5920 Clear 27 1012 36 10000 3.1 320 10:21 23.06.2019
5921 Clear 27 1012 36 10000 3.1 320 09:57 23.06.2019
5922 Clear 29 1011 22 10000 3.6 290 09:22 23.06.2019
5923 Clear 30 1012 18 10000 3.6 110 08:47 23.06.2019
5924 Clear 30 1012 16 10000 2.6 320 08:27 23.06.2019
5925 Clear 30 1012 16 10000 2.6 320 07:56 23.06.2019
5926 Clear 30 1012 16 10000 2.6 320 07:38 23.06.2019
5927 Clear 29 1013 17 10000 3.6 100 07:18 23.06.2019
5928 Clear 29 1013 18 10000 4.1 110 06:43 23.06.2019
5929 Clear 28 1014 19 10000 5.1 90 05:42 23.06.2019
5930 Clear 22 1016 24 10000 7.7 110 02:32 23.06.2019
5931 Clear 20 1016 32 10000 6.7 110 01:39 23.06.2019
5932 Clear 18 1015 36 10000 6.7 110 00:58 23.06.2019
5933 Clear 16 1015 36 10000 6.7 110 00:27 23.06.2019
5934 Clear 16 1014 36 10000 4.1 130 23:43 22.06.2019
5935 Clear 16 1014 36 10000 4.1 130 23:24 22.06.2019
5936 Clear 17 1014 36 10000 5.1 130 22:46 22.06.2019
5937 Clear 17 1014 36 10000 5.1 130 22:25 22.06.2019
5938 Clouds 18 1014 28 10000 4.1 120 21:42 22.06.2019
5939 Clouds 19 1014 28 10000 3.6 120 21:20 22.06.2019
5940 Clouds 19 1013 30 10000 3.6 120 20:56 22.06.2019
5941 Clouds 19 1013 30 10000 3.6 120 20:38 22.06.2019
5942 Clouds 19 1014 32 10000 3.6 130 20:19 22.06.2019
5943 Clouds 19 1014 30 10000 3.6 130 19:40 22.06.2019
5944 Clouds 19 1014 30 10000 4.6 130 19:19 22.06.2019
5945 Clouds 20 1014 30 10000 3.6 140 18:42 22.06.2019
5946 Clouds 20 1014 34 10000 3.1 140 18:22 22.06.2019
5947 Clouds 20 1014 37 10000 3.1 150 17:44 22.06.2019
5948 Clouds 20 1014 37 10000 3.1 150 17:25 22.06.2019
5949 Clear 20 1014 37 10000 3.1 150 16:42 22.06.2019
5950 Clear 21 1014 35 10000 2.6 150 16:22 22.06.2019
5951 Clear 21 1014 35 10000 1.5 160 15:45 22.06.2019
5952 Clear 20 1014 35 10000 1.5 160 15:27 22.06.2019
5953 Clear 20 1014 35 10000 1.5 160 15:27 22.06.2019
5954 Clear 19 1014 77 10000 1.8 218.311 14:51 22.06.2019
5955 Clear 20 1014 77 10000 1.8 218.311 14:31 22.06.2019
5956 Clear 20 1013 72 10000 1.8 218.311 13:57 22.06.2019
5957 Clear 20 1013 72 10000 1.8 218.311 13:39 22.06.2019
5958 Clear 20 1013 68 10000 2.6 150 13:18 22.06.2019
5959 Clear 21 1012 64 10000 2.6 150 12:43 22.06.2019
5960 Clear 22 1012 57 10000 1 330 12:19 22.06.2019
5961 Clear 24 1012 50 10000 2.1 340 11:41 22.06.2019
5962 Clear 25 1011 39 10000 2.6 340 11:19 22.06.2019
5963 Clear 28 1011 23 10000 2.1 310 10:22 22.06.2019
5964 Clear 29 1011 23 10000 2.1 310 09:58 22.06.2019
5965 Clear 30 1010 25 10000 2.6 300 09:35 22.06.2019
5966 Clear 30 1011 22 10000 3.1 300 08:49 22.06.2019
5967 Clear 30 1011 22 10000 3.1 300 08:31 22.06.2019
5968 Clear 30 1011 21 10000 3.1 120 07:52 22.06.2019
5969 Clear 30 1012 21 10000 3.1 130 07:23 22.06.2019
5970 Clear 30 1012 21 10000 3.6 130 06:40 22.06.2019
5971 Clear 26 1015 29 10000 7.2 110 03:42 22.06.2019
5972 Clear 22 1016 35 10000 4.1 140 02:24 22.06.2019
5973 Clear 18 1015 39 10000 4.1 110 00:54 22.06.2019
5974 Clear 18 1015 39 10000 4.1 110 00:30 22.06.2019
5975 Clear 18 1015 34 10000 4.6 100 23:50 21.06.2019
5976 Clear 18 1015 34 10000 4.6 90 23:23 21.06.2019
5977 Clear 18 1015 34 10000 4.6 90 22:57 21.06.2019
5978 Clear 18 1015 32 10000 4.6 90 22:39 21.06.2019
5979 Clouds 18 1014 32 10000 4.1 90 22:19 21.06.2019
5980 Clouds 18 1014 32 10000 4.1 90 21:39 21.06.2019
5981 Clouds 18 1014 28 10000 4.1 90 21:20 21.06.2019
5982 Clouds 18 1014 26 10000 3.6 90 20:48 21.06.2019
5983 Clouds 19 1014 26 10000 3.6 90 20:26 21.06.2019
5984 Clouds 19 1014 28 10000 3.1 110 19:48 21.06.2019
5985 Clouds 19 1014 28 10000 3.6 120 19:21 21.06.2019
5986 Clouds 18 1014 34 10000 2.6 120 18:41 21.06.2019
5987 Clear 19 1014 40 10000 2.6 130 18:22 21.06.2019
5988 Clear 20 1014 52 10000 2.6 140 17:31 21.06.2019
5989 Clear 17 1014 60 10000 2.6 150 16:56 21.06.2019
5990 Clear 17 1014 72 10000 2.1 180 16:36 21.06.2019
5991 Clear 17 1014 82 10000 8.38 103.958 16:18 21.06.2019
5992 Clear 18 1014 72 10000 1 220 15:37 21.06.2019
5993 Clear 19 1014 77 10000 0.5 80 14:57 21.06.2019
5994 Clear 19 1013 77 10000 1.5 80 14:38 21.06.2019
5995 Clear 20 1013 72 10000 1 60 14:20 21.06.2019
5996 Clear 20 1013 72 10000 3.17 189.979 13:39 21.06.2019
5997 Clear 20 1013 68 10000 3.26 190.046 13:21 21.06.2019
5998 Clear 21 1012 64 10000 3.1 140 12:50 21.06.2019
5999 Clear 22 1012 57 10000 3.1 140 12:23 21.06.2019
6000 Clear 22 1012 57 10000 3.1 140 12:23 21.06.2019
6001 Clear 23 1012 57 10000 3.1 140 11:55 21.06.2019
6002 Clear 23 1011 50 10000 2.1 350 11:37 21.06.2019
6003 Clear 24 1011 44 10000 3.1 140 11:19 21.06.2019
6004 Clear 27 1011 30 10000 2.6 350 10:42 21.06.2019
6005 Clear 28 1011 20 10000 2.6 140 10:20 21.06.2019
6006 Clear 30 1011 17 10000 3.1 340 09:43 21.06.2019
6007 Clear 29 1011 19 10000 3.1 340 09:23 21.06.2019
6008 Clear 30 1011 20 10000 3.1 340 08:56 21.06.2019
6009 Clear 30 1011 20 10000 3.1 340 08:37 21.06.2019
6010 Clear 30 1011 20 10000 3.1 340 08:18 21.06.2019
6011 Clear 30 1011 17 10000 3.1 340 07:42 21.06.2019
6012 Clear 29 1012 20 10000 3.6 130 07:19 21.06.2019
6013 Clear 29 1013 18 10000 4.6 120 06:28 21.06.2019
6014 Clear 28 1014 21 10000 4.6 90 05:35 21.06.2019
6015 Clear 27 1015 21 10000 7.2 110 04:48 21.06.2019
6016 Clear 26 1015 23 10000 7.2 110 03:47 21.06.2019
6017 Clear 24 1015 23 10000 7.2 110 03:24 21.06.2019
6018 Clear 21 1016 28 10000 4.6 130 02:26 21.06.2019
6019 Clear 21 1016 28 10000 5.1 110 01:30 21.06.2019
6020 Clear 18 1015 31 10000 4.1 120 00:36 21.06.2019
6021 Clear 17 1015 44 10000 4.6 130 23:57 20.06.2019
6022 Clear 17 1015 44 10000 4.6 130 23:39 20.06.2019
6023 Clear 17 1014 44 10000 4.6 130 23:19 20.06.2019
6024 Clear 18 1014 31 10000 4.6 130 22:41 20.06.2019
6025 Clear 18 1014 32 10000 3.6 130 22:23 20.06.2019
6026 Clear 18 1014 32 10000 3.6 130 22:23 20.06.2019
6027 Clear 18 1014 32 10000 3.6 130 21:56 20.06.2019
6028 Clear 19 1014 34 10000 4.6 130 21:37 20.06.2019
6029 Clouds 19 1014 32 10000 4.6 140 21:19 20.06.2019
6030 Clouds 19 1014 32 10000 4.6 140 21:19 20.06.2019
6031 Clouds 20 1015 28 10000 4.6 130 20:41 20.06.2019
6032 Clouds 19 1015 34 10000 3.6 130 20:23 20.06.2019
6033 Clouds 20 1015 35 10000 4.6 130 19:46 20.06.2019
6034 Clouds 20 1015 33 10000 3.1 140 19:19 20.06.2019
6035 Clouds 20 1015 33 10000 3.1 140 18:58 20.06.2019
6036 Clouds 20 1015 56 10000 3.1 140 18:40 20.06.2019
6037 Clouds 20 1015 77 10000 2.6 150 18:21 20.06.2019
6038 Clear 19 1015 88 10000 2.1 160 17:47 20.06.2019
6039 Clear 19 1015 88 10000 2.1 160 17:29 20.06.2019
6040 Clear 18 1015 88 10000 1.5 170 16:44 20.06.2019
6041 Clear 18 1015 82 10000 0.5 190 16:20 20.06.2019
6042 Clear 19 1015 82 10000 0.5 190 15:57 20.06.2019
6043 Clear 19 1015 82 10000 9.02 113.465 15:38 20.06.2019
6044 Clear 19 1015 77 10000 1 190 15:19 20.06.2019
6045 Clear 20 1015 64 10000 1 210 14:44 20.06.2019
6046 Clear 21 1014 73 10000 7.04 154.363 14:22 20.06.2019
6047 Clear 21 1014 68 10000 0.5 330 13:40 20.06.2019
6048 Clear 21 1014 60 10000 1.5 270 13:19 20.06.2019
6049 Clear 21 1013 60 10000 2.1 360 12:46 20.06.2019
6050 Clear 22 1013 57 10000 1 350 12:23 20.06.2019
6051 Clear 24 1012 53 10000 2.1 10 11:48 20.06.2019
6052 Clear 24 1012 53 10000 2.1 10 11:29 20.06.2019
6053 Clear 26 1012 39 10000 3.1 350 10:57 20.06.2019
6054 Clear 27 1012 39 10000 3.1 350 10:39 20.06.2019
6055 Clear 28 1012 32 10000 5.1 350 10:20 20.06.2019
6056 Clear 30 1011 23 10000 2.1 310 09:40 20.06.2019
6057 Clear 31 1012 22 10000 3.1 310 09:21 20.06.2019
6058 Smoke 31 1012 20 10000 2.6 10 08:46 20.06.2019
6059 Smoke 31 1012 20 10000 2.6 10 08:27 20.06.2019
6060 Clear 31 1012 20 10000 3.6 150 07:53 20.06.2019
6061 Clear 30 1012 20 10000 3.6 150 07:28 20.06.2019
6062 Clear 29 1014 20 10000 4.6 130 06:28 20.06.2019
6063 Clear 27 1015 21 10000 5.7 120 04:54 20.06.2019
6064 Clear 26 1016 39 10000 7.7 110 03:32 20.06.2019
6065 Clear 18 1016 31 10000 5.1 130 00:34 20.06.2019
6066 Clear 17 1015 43 10000 4.6 140 23:58 19.06.2019
6067 Clear 17 1015 43 10000 4.6 140 23:39 19.06.2019
6068 Clear 18 1015 25 10000 5.1 140 23:21 19.06.2019
6069 Clear 18 1015 43 10000 4.6 130 22:46 19.06.2019
6070 Clouds 18 1015 29 10000 4.6 140 22:18 19.06.2019
6071 Clouds 18 1014 36 10000 3.6 130 21:46 19.06.2019
6072 Clouds 17 1014 36 10000 3.6 130 21:25 19.06.2019
6073 Clouds 18 1014 28 10000 3.6 130 20:56 19.06.2019
6074 Clouds 18 1014 34 10000 3.1 120 20:37 19.06.2019
6075 Clouds 18 1014 37 10000 3.1 140 20:19 19.06.2019
6076 Clouds 19 1014 32 10000 3.1 140 19:40 19.06.2019
6077 Clouds 19 1014 34 10000 2.6 150 19:20 19.06.2019
6078 Clouds 20 1014 32 10000 2.6 150 18:48 19.06.2019
6079 Clouds 20 1014 35 10000 3.6 140 18:21 19.06.2019
6080 Clouds 21 1014 35 10000 3.1 150 17:38 19.06.2019
6081 Clear 21 1014 37 10000 3.1 150 17:18 19.06.2019
6082 Clear 21 1014 64 10000 2.6 150 16:40 19.06.2019
6083 Clear 21 1014 77 10000 1 170 16:21 19.06.2019
6084 Clear 20 1014 73 10000 8.06 112.821 15:53 19.06.2019
6085 Clear 20 1014 73 10000 1.57 138.876 15:27 19.06.2019
6086 Smoke 20 1014 77 10000 1.57 138.876 14:57 19.06.2019
6087 Smoke 20 1014 77 10000 1.57 138.876 14:57 19.06.2019
6088 Smoke 21 1014 73 10000 1.57 138.876 14:38 19.06.2019
6089 Smoke 21 1013 73 10000 0.5 30 14:20 19.06.2019
6090 Smoke 21 1013 73 10000 1 360 13:43 19.06.2019
6091 Smoke 21 1013 68 10000 1 10 13:24 19.06.2019
6092 Smoke 22 1013 60 10000 1.5 360 12:44 19.06.2019
6093 Smoke 23 1012 57 10000 1.5 350 12:22 19.06.2019
6094 Smoke 23 1012 57 10000 1.5 350 11:56 19.06.2019
6095 Clear 24 1012 50 10000 2.6 350 11:37 19.06.2019
6096 Clear 24 1011 42 10000 3.1 360 11:19 19.06.2019
6097 Clear 27 1011 21 10000 1 310 10:43 19.06.2019
6098 Clear 27 1011 21 10000 1 310 10:43 19.06.2019
6099 Clear 28 1011 55 10000 3.1 190 10:24 19.06.2019
6100 Clear 30 1011 15 10000 4.1 180 09:42 19.06.2019
6101 Clear 29 1011 52 10000 4.1 210 09:22 19.06.2019
6102 Clear 30 1011 50 10000 3.6 190 08:51 19.06.2019
6103 Clear 30 1011 50 10000 3.6 190 08:29 19.06.2019
6104 Clear 30 1012 17 10000 3.1 150 07:49 19.06.2019
6105 Clear 30 1012 17 10000 3.1 150 07:30 19.06.2019
6106 Clear 30 1012 18 10000 3.6 160 06:55 19.06.2019
6107 Clear 30 1012 21 10000 3.6 140 06:30 19.06.2019
6108 Clear 28 1014 26 10000 3.6 110 05:50 19.06.2019
6109 Clear 27 1015 26 10000 5.1 110 04:41 19.06.2019
6110 Clear 25 1015 25 10000 7.2 110 03:37 19.06.2019
6111 Clear 23 1016 33 10000 5.1 110 02:30 19.06.2019
6112 Clear 21 1016 42 10000 4.1 130 01:27 19.06.2019
6113 Clear 20 1016 42 10000 3.1 130 00:52 19.06.2019
6114 Clear 19 1016 42 10000 3.1 130 00:34 19.06.2019
6115 Fog 18 1015 42 10000 3.1 120 23:58 18.06.2019
6116 Fog 18 1015 42 10000 3.1 120 23:30 18.06.2019
6117 Clear 19 1015 42 10000 4.1 130 22:55 18.06.2019
6118 Clear 18 1015 40 10000 4.1 110 22:37 18.06.2019
6119 Clouds 18 1014 45 10000 2.6 70 22:18 18.06.2019
6120 Clouds 18 1014 45 10000 2.6 70 21:43 18.06.2019
6121 Clouds 20 1014 37 10000 3.1 120 21:21 18.06.2019
6122 Clouds 20 1014 37 10000 3.1 120 21:21 18.06.2019
6123 Clouds 19 1014 40 10000 3.1 130 20:44 18.06.2019
6124 Clouds 20 1014 40 10000 3.1 130 20:26 18.06.2019
6125 Clouds 20 1014 43 10000 3.6 130 19:56 18.06.2019
6126 Clouds 20 1014 43 10000 3.6 140 19:38 18.06.2019
6127 Clouds 21 1014 33 10000 3.6 130 19:19 18.06.2019
6128 Clouds 21 1014 35 10000 3.1 130 18:45 18.06.2019
6129 Clouds 21 1014 38 10000 2.6 130 18:24 18.06.2019
6130 Clouds 22 1014 40 10000 3.1 130 17:42 18.06.2019
6131 Clear 21 1014 40 10000 2.6 140 17:20 18.06.2019
6132 Clear 21 1014 38 10000 2.1 150 16:47 18.06.2019
6133 Clear 21 1014 41 10000 1.5 170 16:27 18.06.2019
6134 Clear 22 1014 41 10000 1.5 170 15:58 18.06.2019
6135 Clear 22 1014 43 10000 1.5 150 15:37 18.06.2019
6136 Clear 24 1014 38 10000 2.6 120 15:19 18.06.2019
6137 Smoke 23 1014 56 10000 2.6 110 14:45 18.06.2019
6138 Smoke 23 1013 64 10000 2.6 90 14:22 18.06.2019
6139 Smoke 22 1013 64 10000 2.6 90 13:58 18.06.2019
6140 Smoke 23 1013 57 10000 2.6 70 13:38 18.06.2019
6141 Smoke 23 1013 53 10000 3.1 50 13:20 18.06.2019
6142 Smoke 24 1012 44 10000 2.6 50 12:43 18.06.2019
6143 Clear 26 1012 30 10000 3.1 110 12:25 18.06.2019
6144 Clear 27 1012 25 10000 3.6 100 11:45 18.06.2019
6145 Clear 28 1011 22 10000 4.1 100 11:23 18.06.2019
6146 Clear 29 1011 22 10000 4.1 100 10:57 18.06.2019
6147 Clear 30 1011 22 10000 4.6 120 10:37 18.06.2019
6148 Clear 30 1011 19 10000 5.7 110 10:18 18.06.2019
6149 Clear 31 1011 21 10000 4.6 140 09:47 18.06.2019
6150 Clear 32 1011 21 10000 6.2 110 09:22 18.06.2019
6151 Clear 32 1011 22 10000 7.2 110 08:43 18.06.2019
6152 Clear 32 1011 22 10000 7.2 110 08:43 18.06.2019
6153 Clear 32 1011 21 10000 6.2 110 08:21 18.06.2019
6154 Clear 32 1012 21 10000 6.7 140 07:41 18.06.2019
6155 Clear 32 1012 23 10000 4.6 120 07:21 18.06.2019
6156 Clear 31 1013 25 10000 5.7 140 06:43 18.06.2019
6157 Clear 30 1014 32 10000 6.7 90 05:20 18.06.2019
6158 Clear 27 1016 47 10000 4.6 120 02:53 18.06.2019
6159 Clear 24 1016 64 10000 3.1 140 01:55 18.06.2019
6160 Clear 23 1015 78 10000 2.6 140 01:25 18.06.2019
6161 Clear 21 1015 83 10000 2.6 140 00:55 18.06.2019
6162 Clear 20 1015 83 10000 2.6 140 00:27 18.06.2019
6163 Clear 19 1014 88 10000 1.5 150 23:41 17.06.2019
6164 Clear 19 1014 88 10000 1 150 23:20 17.06.2019
6165 Clear 19 1014 88 10000 1 150 22:56 17.06.2019
6166 Clear 20 1014 83 10000 1.5 170 22:37 17.06.2019
6167 Clouds 20 1014 83 10000 2.6 150 22:19 17.06.2019
6168 Clouds 20 1014 78 10000 2.1 160 21:42 17.06.2019
6169 Clouds 21 1014 78 10000 1.5 140 21:21 17.06.2019
6170 Clouds 20 1014 83 10000 2.1 140 20:38 17.06.2019
6171 Clouds 20 1015 88 10000 1.5 130 20:20 17.06.2019
6172 Clouds 20 1015 88 10000 1.22 84.571 19:43 17.06.2019
6173 Clouds 20 1015 88 10000 1.22 84.571 19:24 17.06.2019
6174 Clouds 20 1015 83 10000 1.22 84.571 18:58 17.06.2019
6175 Clouds 21 1015 83 10000 1.22 84.571 18:38 17.06.2019
6176 Clouds 22 1015 83 10000 1.5 160 18:18 17.06.2019
6177 Clouds 22 1015 83 10000 1.5 160 17:47 17.06.2019
6178 Clouds 22 1015 83 10000 1.5 160 17:29 17.06.2019
6179 Clear 22 1015 73 10000 1.5 190 16:55 17.06.2019
6180 Clear 24 1015 73 10000 1.5 190 16:36 17.06.2019
6181 Clear 23 1015 73 10000 1 180 16:18 17.06.2019
6182 Clear 23 1015 73 10000 2.59 73.229 15:40 17.06.2019
6183 Clear 23 1014 73 10000 0.5 60 15:20 17.06.2019
6184 Clear 23 1014 73 10000 3.1 40 14:55 17.06.2019
6185 Clear 23 1014 73 10000 3.1 40 14:34 17.06.2019
6186 Clear 24 1014 69 10000 4.1 40 13:58 17.06.2019
6187 Clear 24 1014 65 10000 3.6 40 13:39 17.06.2019
6188 Clear 24 1013 65 10000 3.6 40 13:20 17.06.2019
6189 Clear 25 1013 61 10000 4.1 30 12:38 17.06.2019
6190 Clear 25 1012 57 10000 4.1 30 12:18 17.06.2019
6191 Clear 26 1012 57 10000 5.1 30 11:39 17.06.2019
6192 Clear 26 1011 51 10000 5.7 30 11:20 17.06.2019
6193 Clear 28 1011 48 10000 5.1 350 10:46 17.06.2019
6194 Clear 28 1011 48 10000 5.1 350 10:46 17.06.2019
6195 Clear 28 1011 48 10000 5.1 350 10:28 17.06.2019
6196 Clear 30 1011 27 10000 4.1 350 09:56 17.06.2019
6197 Clear 31 1011 25 10000 4.6 80 09:33 17.06.2019
6198 Clear 32 1011 25 10000 7.2 80 08:48 17.06.2019
6199 Clear 32 1011 24 10000 7.7 80 08:25 17.06.2019
6200 Clear 32 1011 24 10000 7.7 80 07:57 17.06.2019
6201 Clear 32 1011 25 10000 7.2 90 07:32 17.06.2019
6202 Clear 32 1012 27 10000 7.2 90 06:53 17.06.2019
6203 Clear 32 1013 31 10000 7.2 80 06:18 17.06.2019
6204 Clear 31 1014 33 10000 7.2 110 05:26 17.06.2019
6205 Clouds 30 1015 37 10000 6.2 100 04:23 17.06.2019
6206 Clouds 29 1015 58 10000 2.6 140 03:31 17.06.2019
6207 Clouds 27 1016 74 10000 3.1 160 02:44 17.06.2019
6208 Clouds 26 1016 83 10000 2.6 160 02:26 17.06.2019
6209 Rain 24 1015 88 10000 2.1 170 01:36 17.06.2019
6210 Clouds 23 1015 94 10000 2.1 170 00:57 17.06.2019
6211 Clouds 22 1015 94 10000 2.1 170 00:37 17.06.2019
6212 Fog 21 1014 94 10000 2.1 160 00:18 17.06.2019
6213 Fog 21 1014 94 10000 2.1 160 23:39 16.06.2019
6214 Fog 21 1014 100 10000 2.1 160 23:20 16.06.2019
6215 Fog 21 1014 88 10000 2.1 170 22:45 16.06.2019
6216 Clear 20 1014 94 10000 2.52 144.37 22:20 16.06.2019
6217 Clear 20 1014 94 10000 2.52 144.37 21:58 16.06.2019
6218 Clear 20 1014 94 10000 2.52 144.37 21:40 16.06.2019
6219 Clear 20 1014 94 10000 1.41 105.055 21:20 16.06.2019
6220 Clear 20 1014 94 10000 0.73 195.324 20:40 16.06.2019
6221 Clear 20 1014 94 10000 0.5 20 20:19 16.06.2019
6222 Clear 20 1014 94 10000 0.5 20 19:58 16.06.2019
6223 Clear 21 1014 94 10000 1.5 20 19:39 16.06.2019
6224 Clear 21 1014 94 10000 2.1 30 19:21 16.06.2019
6225 Clear 21 1014 94 10000 2.1 30 19:21 16.06.2019
6226 Clear 22 1014 88 10000 1 90 18:57 16.06.2019
6227 Clear 22 1014 88 10000 1 90 18:36 16.06.2019
6228 Clear 22 1014 88 10000 1.5 150 18:18 16.06.2019
6229 Clear 22 1014 94 10000 1.5 140 17:42 16.06.2019
6230 Clear 22 1014 88 10000 1 120 17:21 16.06.2019
6231 Clear 22 1014 88 10000 2.6 170 16:56 16.06.2019
6232 Clear 23 1014 88 10000 2.6 170 16:38 16.06.2019
6233 Clear 23 1014 88 10000 3.1 180 16:19 16.06.2019
6234 Clear 23 1014 88 10000 2.1 190 15:41 16.06.2019
6235 Clear 23 1014 83 10000 1.5 200 15:23 16.06.2019
6236 Clear 24 1014 78 10000 2.1 200 14:43 16.06.2019
6237 Clear 24 1013 73 10000 2.1 230 14:23 16.06.2019
6238 Clear 25 1013 69 10000 2.1 240 13:52 16.06.2019
6239 Clear 25 1013 69 10000 2.1 240 13:26 16.06.2019
6240 Clear 25 1012 65 10000 2.1 290 12:57 16.06.2019
6241 Clear 25 1012 69 10000 2.6 260 12:57 16.06.2019
6242 Clear 25 1012 65 10000 2.1 290 12:38 16.06.2019
6243 Clear 25 1012 61 10000 2.1 290 12:18 16.06.2019
6244 Clear 26 1011 57 10000 2.1 310 11:44 16.06.2019
6245 Clear 26 1011 54 10000 2.6 340 11:19 16.06.2019
6246 Clear 28 1011 54 10000 3.6 340 10:45 16.06.2019
6247 Clear 29 1011 54 10000 4.1 350 10:21 16.06.2019
6248 Clear 29 1011 54 10000 4.6 340 09:48 16.06.2019
6249 Clear 30 1011 54 10000 4.6 340 09:26 16.06.2019
6250 Clear 30 1011 54 10000 4.6 350 08:59 16.06.2019
6251 Clear 31 1011 51 10000 4.6 330 08:38 16.06.2019
6252 Clear 31 1011 51 10000 5.1 340 08:18 16.06.2019
6253 Clear 30 1011 54 10000 4.6 320 07:44 16.06.2019
6254 Clear 30 1012 58 10000 5.7 330 06:59 16.06.2019
6255 Clear 31 1012 38 10000 3.6 290 06:37 16.06.2019
6256 Clouds 31 1013 45 10000 4.6 100 05:47 16.06.2019
6257 Clouds 30 1014 51 10000 3.6 110 04:49 16.06.2019
6258 Clouds 28 1015 58 10000 3.6 70 03:57 16.06.2019
6259 Clouds 28 1015 58 10000 3.6 70 03:57 16.06.2019
6260 Clouds 28 1015 58 10000 4.1 70 03:57 16.06.2019
6261 Clouds 28 1015 58 10000 4.1 70 03:32 16.06.2019
6262 Clouds 27 1015 65 10000 1.5 100 02:26 16.06.2019
6263 Clouds 25 1015 73 10000 1.5 130 01:42 16.06.2019
6264 Clouds 24 1014 88 10000 1.5 110 01:24 16.06.2019
6265 Clouds 21 1014 88 10000 1 130 00:40 16.06.2019
6266 Clouds 21 1014 88 10000 1 130 00:40 16.06.2019
6267 Clouds 20 1014 94 10000 1.5 80 00:20 16.06.2019
6268 Clouds 19 1013 94 10000 2.96 118.14 23:43 15.06.2019
6269 Clouds 19 1013 94 10000 2.96 118.14 23:25 15.06.2019
6270 Clear 19 1013 94 10000 2.96 118.14 22:50 15.06.2019
6271 Clear 19 1013 94 10000 2.96 118.14 22:27 15.06.2019
6272 Clear 19 1013 94 10000 0.5 120 21:50 15.06.2019
6273 Clouds 19 1013 94 10000 0.5 120 21:29 15.06.2019
6274 Clouds 20 1013 88 10000 0.5 170 20:59 15.06.2019
6275 Clouds 21 1013 88 10000 0.5 150 20:40 15.06.2019
6276 Clouds 21 1013 88 10000 1.5 150 20:19 15.06.2019
6277 Clouds 21 1013 88 10000 1.5 150 19:42 15.06.2019
6278 Clouds 20 1013 94 10000 1 130 19:23 15.06.2019
6279 Clouds 21 1014 88 10000 1.5 180 18:40 15.06.2019
6280 Clouds 21 1014 83 10000 1.5 180 18:21 15.06.2019
6281 Clouds 22 1013 83 10000 1.5 190 17:43 15.06.2019
6282 Clouds 22 1013 83 10000 1.5 190 17:43 15.06.2019
6283 Clear 21 1014 94 10000 0.5 200 17:23 15.06.2019
6284 Clear 20 1014 88 10000 0.5 200 16:48 15.06.2019
6285 Clear 22 1013 83 10000 1 210 16:20 15.06.2019
6286 Clear 22 1014 83 10000 1.5 210 15:44 15.06.2019
6287 Clear 22 1013 78 10000 2.6 200 15:23 15.06.2019
6288 Clear 23 1013 73 10000 0.5 230 14:43 15.06.2019
6289 Clear 22 1013 73 10000 1.72 314.929 14:19 15.06.2019
6290 Clear 22 1013 73 10000 1.72 314.929 13:58 15.06.2019
6291 Clear 22 1013 73 10000 1 250 13:40 15.06.2019
6292 Clear 23 1012 69 10000 1 280 13:18 15.06.2019
6293 Clear 23 1012 65 10000 1.5 30 12:47 15.06.2019
6294 Clear 24 1012 61 10000 2.1 10 12:25 15.06.2019
6295 Clear 24 1011 57 10000 2.6 10 11:51 15.06.2019
6296 Clear 25 1011 57 10000 2.6 10 11:32 15.06.2019
6297 Clear 27 1011 54 10000 5.7 10 10:47 15.06.2019
6298 Clear 27 1011 54 10000 5.7 10 10:26 15.06.2019
6299 Clear 28 1011 51 10000 4.6 360 09:59 15.06.2019
6300 Clear 28 1011 51 10000 4.6 350 09:39 15.06.2019
6301 Clear 29 1011 45 10000 5.1 350 09:20 15.06.2019
6302 Clear 30 1011 48 10000 4.6 350 08:44 15.06.2019
6303 Clear 30 1011 48 10000 4.6 350 08:25 15.06.2019
6304 Clear 31 1011 35 10000 3.6 320 07:41 15.06.2019
6305 Clear 31 1012 33 10000 3.1 150 07:20 15.06.2019
6306 Clear 31 1012 33 10000 3.1 150 07:20 15.06.2019
6307 Clear 31 1012 33 10000 3.6 120 06:38 15.06.2019
6308 Clear 31 1013 40 10000 5.1 70 05:46 15.06.2019
6309 Clouds 30 1014 37 10000 4.1 90 05:18 15.06.2019
6310 Clouds 30 1014 39 10000 4.6 70 04:34 15.06.2019
6311 Clouds 28 1015 48 10000 4.6 90 03:38 15.06.2019
6312 Clear 27 1015 65 10000 2.1 130 02:47 15.06.2019
6313 Clear 26 1015 69 10000 2.1 150 01:59 15.06.2019
6314 Clear 25 1014 78 10000 1.5 170 01:28 15.06.2019
6315 Clouds 22 1014 94 10000 1 120 00:44 15.06.2019
6316 Clouds 22 1014 94 10000 1 120 00:44 15.06.2019
6317 Fog 21 1014 94 10000 0.5 120 00:26 15.06.2019
6318 Fog 21 1013 94 10000 1 140 23:52 14.06.2019
6319 Fog 21 1013 94 10000 2.1 160 23:25 14.06.2019
6320 Fog 21 1013 100 10000 1.5 150 22:43 14.06.2019
6321 Clear 21 1013 94 10000 1.5 140 22:23 14.06.2019
6322 Clear 21 1013 94 10000 1.5 140 22:23 14.06.2019
6323 Clear 21 1013 94 10000 1.5 140 21:57 14.06.2019
6324 Clear 21 1012 94 10000 0.5 150 21:38 14.06.2019
6325 Clear 20 1012 94 10000 1.5 160 21:20 14.06.2019
6326 Clear 21 1012 88 10000 0.5 210 20:41 14.06.2019
6327 Clear 21 1012 94 10000 1 210 20:18 14.06.2019
6328 Clear 21 1012 94 10000 0.5 200 19:44 14.06.2019
6329 Clear 21 1013 94 10000 0.5 200 19:23 14.06.2019
6330 Clear 22 1013 94 10000 0.5 200 18:58 14.06.2019
6331 Clear 22 1013 88 10000 1 200 18:40 14.06.2019
6332 Clear 22 1013 88 10000 1.5 200 18:22 14.06.2019
6333 Clear 22 1013 88 10000 1.5 210 17:46 14.06.2019
6334 Clear 22 1013 88 10000 1.5 210 17:27 14.06.2019
6335 Clear 22 1013 88 10000 1 220 16:56 14.06.2019
6336 Clear 22 1013 88 10000 1 220 16:38 14.06.2019
6337 Clear 22 1013 83 10000 1.5 220 16:18 14.06.2019
6338 Clear 23 1013 83 10000 1 240 15:39 14.06.2019
6339 Clear 23 1013 78 10000 1.5 260 15:21 14.06.2019
6340 Clear 23 1012 83 10000 1.5 270 14:54 14.06.2019
6341 Clear 23 1012 83 10000 1.5 270 14:33 14.06.2019
6342 Clear 23 1012 83 10000 1.5 270 14:32 14.06.2019
6343 Clear 24 1012 78 10000 1.5 240 13:56 14.06.2019
6344 Clear 24 1012 78 10000 1.5 240 13:56 14.06.2019
6345 Clear 24 1012 78 10000 1.5 240 13:56 14.06.2019
6346 Clear 24 1012 78 10000 1.5 240 13:56 14.06.2019
6347 Clear 24 1012 78 10000 1.5 270 13:37 14.06.2019
6348 Clear 24 1012 73 10000 1.5 270 13:19 14.06.2019
6349 Clear 25 1011 69 10000 2.1 290 12:41 14.06.2019
6350 Clear 25 1011 69 10000 2.6 300 12:23 14.06.2019
6351 Clear 26 1010 61 10000 3.6 310 11:47 14.06.2019
6352 Clear 26 1010 61 10000 3.6 350 11:24 14.06.2019
6353 Clear 27 1010 61 10000 3.6 350 10:58 14.06.2019
6354 Clear 28 1009 58 10000 4.1 350 10:39 14.06.2019
6355 Clouds 28 1009 54 10000 4.6 340 10:18 14.06.2019
6356 Clouds 29 1009 51 10000 4.6 340 09:39 14.06.2019
6357 Clear 30 1009 45 10000 5.1 340 09:20 14.06.2019
6358 Clear 31 1009 33 10000 3.1 300 08:45 14.06.2019
6359 Clear 32 1010 35 10000 2.6 150 08:18 14.06.2019
6360 Clear 32 1010 35 10000 4.6 120 07:48 14.06.2019
6361 Clouds 32 1011 38 10000 4.1 140 07:20 14.06.2019
6362 Clouds 31 1011 38 10000 3.6 120 06:33 14.06.2019
6363 Clouds 31 1012 42 10000 4.6 100 05:55 14.06.2019
6364 Clouds 30 1013 45 10000 5.1 60 05:00 14.06.2019
6365 Clouds 29 1014 45 10000 4.6 90 04:37 14.06.2019
6366 Clouds 29 1015 51 10000 4.6 90 03:51 14.06.2019
6367 Clouds 28 1015 51 10000 4.6 90 03:25 14.06.2019
6368 Clouds 28 1015 51 10000 4.6 90 03:25 14.06.2019
6369 Clouds 28 1015 51 10000 4.6 90 03:25 14.06.2019
6370 Clouds 27 1015 69 10000 2.1 130 02:48 14.06.2019
6371 Clouds 26 1015 78 10000 2.1 160 02:25 14.06.2019
6372 Fog 22 1013 94 10000 0.5 160 00:51 14.06.2019
6373 Fog 20 1013 94 10000 1 150 00:23 14.06.2019
6374 Fog 20 1013 94 10000 1 120 23:56 13.06.2019
6375 Fog 20 1013 94 10000 1 120 23:27 13.06.2019
6376 Fog 20 1012 100 10000 3.76 127.053 22:59 13.06.2019
6377 Fog 20 1012 88 10000 3.76 127.053 22:39 13.06.2019
6378 Clouds 20 1012 94 10000 0.5 130 22:21 13.06.2019
6379 Clouds 21 1012 94 10000 1 150 21:40 13.06.2019
6380 Clouds 20 1012 94 10000 0.5 130 21:20 13.06.2019
6381 Clouds 20 1012 94 10000 0.5 130 21:20 13.06.2019
6382 Clouds 20 1012 94 10000 0.5 130 21:20 13.06.2019
6383 Clouds 21 1012 94 10000 0.5 130 20:55 13.06.2019
6384 Clouds 21 1012 94 10000 1.5 130 20:36 13.06.2019
6385 Clouds 21 1013 94 10000 1 140 20:18 13.06.2019
6386 Clouds 21 1013 94 10000 1.5 160 19:41 13.06.2019
6387 Clouds 22 1013 94 10000 1 170 19:22 13.06.2019
6388 Clouds 22 1014 88 10000 1.5 180 18:56 13.06.2019
6389 Clouds 22 1014 88 10000 1.5 180 18:38 13.06.2019
6390 Clouds 22 1014 83 10000 1.5 180 18:20 13.06.2019
6391 Clouds 22 1014 83 10000 1.5 180 17:41 13.06.2019
6392 Clouds 22 1014 83 10000 1.5 170 17:20 13.06.2019
6393 Clear 22 1014 83 10000 1.5 140 16:48 13.06.2019
6394 Clear 22 1014 78 10000 1 160 16:21 13.06.2019
6395 Clear 23 1014 78 10000 1 160 15:57 13.06.2019
6396 Clear 23 1014 78 10000 0.5 170 15:38 13.06.2019
6397 Clear 24 1014 73 10000 1.5 180 15:18 13.06.2019
6398 Clear 23 1013 78 10000 1 130 14:44 13.06.2019
6399 Clear 23 1013 78 10000 1 130 14:25 13.06.2019
6400 Clear 24 1012 73 10000 2.1 60 13:46 13.06.2019
6401 Clear 24 1012 73 10000 3.6 40 13:21 13.06.2019
6402 Clear 25 1011 65 10000 3.6 30 12:44 13.06.2019
6403 Clear 25 1011 69 10000 4.1 30 12:24 13.06.2019
6404 Clear 26 1011 69 10000 4.1 30 11:59 13.06.2019
6405 Clear 26 1011 65 10000 4.1 30 11:41 13.06.2019
6406 Clouds 27 1010 65 10000 4.1 50 11:22 13.06.2019
6407 Clear 28 1010 58 10000 5.1 10 10:46 13.06.2019
6408 Clear 28 1010 58 10000 5.1 10 10:27 13.06.2019
6409 Clouds 29 1010 58 10000 3.6 50 09:48 13.06.2019
6410 Clouds 30 1010 58 10000 3.6 50 09:25 13.06.2019
6411 Clouds 30 1010 55 10000 3.6 50 09:25 13.06.2019
6412 Clear 31 1010 52 10000 4.6 340 08:50 13.06.2019
6413 Clear 31 1010 52 10000 4.6 340 08:30 13.06.2019
6414 Clear 31 1010 55 10000 4.6 330 07:59 13.06.2019
6415 Clear 31 1011 58 10000 5.1 330 07:31 13.06.2019
6416 Clear 32 1012 43 10000 4.1 70 06:53 13.06.2019
6417 Clear 31 1012 40 10000 5.1 30 06:24 13.06.2019
6418 Clear 31 1012 40 10000 5.1 30 05:58 13.06.2019
6419 Clear 32 1013 40 10000 5.7 60 05:38 13.06.2019
6420 Clouds 31 1014 45 10000 4.1 80 05:18 13.06.2019
6421 Clouds 27 1015 69 10000 3.1 80 03:44 13.06.2019
6422 Clouds 24 1015 94 6000 2.1 130 01:55 13.06.2019
6423 Clouds 22 1014 94 10000 2.6 150 00:30 13.06.2019
6424 Clouds 22 1013 94 10000 2.6 110 23:26 12.06.2019
6425 Clouds 22 1013 94 10000 2.6 110 22:59 12.06.2019
6426 Clouds 22 1013 88 10000 2.1 160 22:40 12.06.2019
6427 Clouds 22 1013 88 10000 1.5 150 22:21 12.06.2019
6428 Clouds 22 1012 88 10000 1.5 140 21:43 12.06.2019
6429 Clouds 22 1012 88 10000 1.5 140 21:25 12.06.2019
6430 Clouds 22 1012 88 10000 2.1 60 20:49 12.06.2019
6431 Clouds 22 1012 88 10000 2.1 60 20:29 12.06.2019
6432 Clouds 22 1012 94 10000 2.1 60 19:57 12.06.2019
6433 Clouds 22 1013 94 10000 1.5 70 19:38 12.06.2019
6434 Clouds 22 1013 94 10000 2.1 60 19:20 12.06.2019
6435 Clouds 23 1013 88 10000 2.6 30 18:47 12.06.2019
6436 Clouds 23 1013 88 10000 2.6 30 18:27 12.06.2019
6437 Clouds 24 1013 83 10000 2.1 20 17:47 12.06.2019
6438 Clear 24 1013 88 10000 2.1 20 17:23 12.06.2019
6439 Clear 23 1013 83 10000 2.1 20 16:44 12.06.2019
6440 Clear 24 1013 83 10000 2.1 20 16:25 12.06.2019
6441 Clear 24 1013 78 10000 2.6 20 15:59 12.06.2019
6442 Clear 24 1013 78 10000 3.1 20 15:36 12.06.2019
6443 Clear 25 1013 78 10000 3.6 40 14:59 12.06.2019
6444 Clear 25 1013 78 10000 3.6 40 14:35 12.06.2019
6445 Clear 25 1013 74 10000 4.6 30 13:59 12.06.2019
6446 Clear 25 1013 74 10000 4.1 40 13:41 12.06.2019
6447 Clear 25 1012 69 10000 5.1 40 13:19 12.06.2019
6448 Clear 26 1012 65 10000 5.1 30 12:44 12.06.2019
6449 Clear 26 1012 65 10000 5.7 30 12:22 12.06.2019
6450 -273 0 0 0 0 0 11:59 12.06.2019
6451 Clear 27 1012 65 10000 5.7 30 11:39 12.06.2019
6452 Clouds 27 1012 65 0 5.36 30 11:21 12.06.2019
6453 Clear 28 1012 58 10000 5.7 20 10:44 12.06.2019
6454 Clouds 29 1011 55 10000 7.2 20 10:21 12.06.2019
6455 Clouds 30 1011 52 10000 6.7 20 09:43 12.06.2019
6456 Clear 31 1011 49 10000 6.2 20 09:23 12.06.2019
6457 Clouds 32 1011 46 10000 3.6 50 08:47 12.06.2019
6458 Clear 32 1012 41 10000 3.6 70 08:20 12.06.2019
6459 Clear 32 1012 43 10000 3.6 80 07:37 12.06.2019
6460 Clear 32 1013 40 10000 3.6 60 06:53 12.06.2019
6461 Clouds 32 1014 43 10000 6.2 30 05:27 12.06.2019
6462 Clouds 31 1015 51 10000 5.1 90 04:29 12.06.2019
6463 Clear 26 1015 78 10000 2.6 80 01:27 12.06.2019
6464 Clear 23 1014 88 10000 1.5 90 00:38 12.06.2019
6465 Clear 22 1014 83 10000 1 120 23:47 11.06.2019
6466 Clear 23 1014 83 10000 1 120 23:29 11.06.2019
6467 Clouds 23 1014 83 10000 1 110 22:44 11.06.2019
6468 Clouds 23 1014 83 10000 1.5 140 22:19 11.06.2019
6469 Clouds 24 1014 83 10000 1.5 140 21:57 11.06.2019
6470 Clouds 23 1014 83 10000 1 150 21:38 11.06.2019
6471 Clouds 23 1013 83 10000 1.5 150 21:20 11.06.2019
6472 Clouds 23 1014 83 10000 2.1 150 20:48 11.06.2019
6473 Clouds 23 1014 88 10000 2.1 140 20:26 11.06.2019
6474 Clouds 23 1014 88 10000 3.1 170 19:55 11.06.2019
6475 Clouds 23 1014 88 10000 3.1 170 19:33 11.06.2019
6476 -273 0 0 0 0 0 18:58 11.06.2019
6477 Clouds 24 1014 88 10000 3.1 160 18:57 11.06.2019
6478 Clouds 24 1014 88 10000 3.1 180 18:23 11.06.2019
6479 Clouds 24 1014 88 10000 2.1 180 17:42 11.06.2019
6480 Clear 24 1014 83 10000 2.1 180 17:24 11.06.2019
6481 Clear 24 1014 83 10000 2.1 180 16:59 11.06.2019
6482 Clear 25 1014 78 10000 1.5 180 16:40 11.06.2019
6483 Clear 24 1014 83 10000 1 30 16:22 11.06.2019
6484 Clear 24 1014 83 10000 2.1 20 15:42 11.06.2019
6485 Clear 25 1014 74 10000 1.5 30 15:24 11.06.2019
6486 Clear 25 1014 74 10000 1.5 30 14:54 11.06.2019
6487 Clear 25 1013 74 10000 1.5 30 14:23 11.06.2019
6488 Clear 25 1013 74 10000 1.5 30 14:23 11.06.2019
6489 Clear 25 1013 74 10000 3.1 30 13:56 11.06.2019
6490 Clear 25 1013 74 10000 3.1 30 13:36 11.06.2019
6491 Clear 26 1013 69 10000 3.1 20 13:18 11.06.2019
6492 Clear 26 1012 69 10000 2.6 20 12:40 11.06.2019
6493 Clear 26 1012 65 10000 3.6 10 12:21 11.06.2019
6494 Clear 28 1011 58 10000 4.1 20 11:40 11.06.2019
6495 Clear 28 1011 55 10000 5.1 20 11:20 11.06.2019
6496 Clear 30 1011 58 10000 6.2 20 10:47 11.06.2019
6497 Clear 30 1011 58 10000 6.2 20 10:26 11.06.2019
6498 Clear 32 1010 33 10000 2.6 320 09:50 11.06.2019
6499 Clear 33 1010 33 10000 2.6 320 09:25 11.06.2019
6500 Clouds 34 1011 36 10000 4.6 350 08:47 11.06.2019
6501 Clouds 33 1011 36 10000 4.6 350 08:29 11.06.2019
6502 Clear 33 1011 36 10000 3.1 100 07:55 11.06.2019
6503 Clear 33 1011 36 10000 3.1 100 07:29 11.06.2019
6504 Clouds 33 1012 38 10000 4.6 350 06:50 11.06.2019
6505 Clear 31 1014 45 10000 7.2 80 04:56 11.06.2019
6506 Clear 30 1015 48 10000 5.7 90 03:47 11.06.2019
6507 Clear 26 1014 69 10000 3.6 110 01:41 11.06.2019
6508 Clear 24 1014 88 10000 1.5 150 00:48 11.06.2019
6509 Clouds 22 1013 88 10000 1.5 130 23:56 10.06.2019
6510 Clouds 22 1013 88 10000 1.5 130 23:38 10.06.2019
6511 Clouds 22 1013 88 10000 2.1 150 22:58 10.06.2019
6512 Clear 22 1013 88 10000 2.1 160 22:40 10.06.2019
6513 Clouds 22 1013 88 10000 1.5 170 22:22 10.06.2019
6514 Clouds 22 1012 88 10000 0.5 160 21:41 10.06.2019
6515 Clouds 23 1012 88 10000 1 60 21:23 10.06.2019
6516 Clouds 22 1012 88 10000 1 150 20:48 10.06.2019
6517 Clouds 22 1012 88 10000 1 150 20:26 10.06.2019
6518 Clouds 23 1012 88 10000 2.6 190 19:58 10.06.2019
6519 Clouds 23 1013 88 10000 2.6 190 19:39 10.06.2019
6520 Clouds 24 1013 78 10000 2.6 190 19:21 10.06.2019
6521 Clouds 24 1013 83 10000 4.99 110.987 18:55 10.06.2019
6522 Clouds 23 1013 83 10000 4.99 110.987 18:37 10.06.2019
6523 Clouds 24 1013 78 10000 1.5 180 18:18 10.06.2019
6524 Clouds 24 1013 83 10000 1.5 270 17:40 10.06.2019
6525 Clear 24 1013 73 10000 1.5 30 17:22 10.06.2019
6526 Clear 24 1013 73 10000 2.6 30 16:46 10.06.2019
6527 Clear 24 1013 73 10000 2.6 30 16:28 10.06.2019
6528 Clear 24 1012 78 10000 3.1 50 15:46 10.06.2019
6529 Clear 24 1012 78 10000 3.1 50 15:46 10.06.2019
6530 Clear 25 1012 78 10000 2.6 30 15:24 10.06.2019
6531 Clear 25 1012 78 10000 2.6 30 14:59 10.06.2019
6532 Clear 25 1012 78 10000 2.6 40 14:39 10.06.2019
6533 Clear 26 1012 74 10000 3.1 30 14:21 10.06.2019
6534 Clear 25 1011 74 10000 2.6 40 13:43 10.06.2019
6535 Clear 25 1011 69 10000 3.6 40 13:23 10.06.2019
6536 Clear 26 1010 69 10000 4.6 40 12:45 10.06.2019
6537 Clear 26 1010 69 10000 4.6 40 12:27 10.06.2019
6538 Clear 27 1010 65 10000 4.6 30 11:49 10.06.2019
6539 Clear 27 1010 65 10000 4.6 30 11:30 10.06.2019
6540 Clear 28 1009 62 10000 4.1 20 10:58 10.06.2019
6541 Clear 29 1009 55 10000 5.1 20 10:38 10.06.2019
6542 Clear 29 1009 58 10000 5.1 10 10:18 10.06.2019
6543 Clear 30 1008 55 10000 5.1 350 09:47 10.06.2019
6544 Clear 30 1008 55 10000 5.1 350 09:28 10.06.2019
6545 Clouds 31 1009 58 10000 5.7 350 08:46 10.06.2019
6546 Clouds 31 1009 58 10000 5.7 350 08:26 10.06.2019
6547 Clouds 34 1009 33 10000 4.1 340 07:26 10.06.2019
6548 Clouds 31 1012 48 10000 4.6 90 04:41 10.06.2019
6549 Clear 26 1013 69 10000 2.6 100 02:18 10.06.2019
6550 Clear 25 1012 73 10000 2.1 100 01:28 10.06.2019
6551 Clear 23 1012 78 10000 1.5 100 00:59 10.06.2019
6552 Clear 22 1012 83 10000 3.1 130 00:24 10.06.2019
6553 Clouds 21 1012 83 10000 2.6 140 23:45 09.06.2019
6554 Clear 22 1011 83 10000 3.1 160 23:21 09.06.2019
6555 Clear 22 1011 83 10000 3.1 160 23:21 09.06.2019
6556 Clouds 22 1011 83 10000 2.1 170 22:45 09.06.2019
6557 Clouds 22 1011 83 10000 2.1 170 22:25 09.06.2019
6558 Clouds 22 1011 88 10000 3.1 180 21:46 09.06.2019
6559 Clouds 22 1011 88 10000 3.1 180 21:27 09.06.2019
6560 Clouds 22 1012 88 10000 3.6 180 20:45 09.06.2019
6561 Clouds 22 1012 88 10000 3.1 190 20:24 09.06.2019
6562 Clouds 23 1012 88 10000 3.1 190 19:59 09.06.2019
6563 Clouds 23 1012 88 10000 3.1 190 19:41 09.06.2019
6564 Clouds 23 1013 88 10000 3.1 190 19:18 09.06.2019
6565 Clouds 23 1013 88 10000 2.6 190 18:43 09.06.2019
6566 Clouds 24 1013 88 10000 2.6 200 18:24 09.06.2019
6567 Clouds 24 1013 88 10000 3.1 190 17:48 09.06.2019
6568 Clouds 24 1013 88 10000 3.1 190 17:29 09.06.2019
6569 Clear 24 1013 78 10000 2.6 210 16:57 09.06.2019
6570 Clear 24 1014 88 10000 1.5 220 16:38 09.06.2019
6571 Clear 24 1014 88 10000 1.5 230 16:19 09.06.2019
6572 Clear 24 1014 88 10000 4.85 169.274 15:48 09.06.2019
6573 Clear 25 1014 83 10000 1 210 15:28 09.06.2019
6574 Clear 25 1013 83 10000 0.5 300 14:51 09.06.2019
6575 Clear 25 1013 83 10000 0.5 300 14:51 09.06.2019
6576 Clear 25 1013 83 10000 0.5 300 14:33 09.06.2019
6577 Clear 25 1013 78 10000 1.5 330 13:57 09.06.2019
6578 Clear 25 1013 78 10000 1.5 330 13:38 09.06.2019
6579 Clear 25 1012 78 10000 1.5 340 12:55 09.06.2019
6580 Clear 25 1012 78 10000 1.5 340 12:34 09.06.2019
6581 Clear 28 1012 65 10000 2.1 340 11:49 09.06.2019
6582 Clear 28 1012 65 10000 2.1 340 11:30 09.06.2019
6583 Clear 29 1011 55 10000 2.1 340 10:47 09.06.2019
6584 -273 0 0 0 0 0 10:28 09.06.2019
6585 -273 0 0 0 0 0 10:28 09.06.2019
6586 -273 0 0 0 0 0 09:58 09.06.2019
6587 Clear 30 1011 55 10000 3.1 350 09:38 09.06.2019
6588 Clear 30 1011 55 10000 3.1 350 09:38 09.06.2019
6589 Clouds 30 1011 55 10000 4.6 340 09:19 09.06.2019
6590 Clouds 31 1011 52 10000 4.1 350 08:43 09.06.2019
6591 Clouds 31 1011 48 10000 4.6 10 07:51 09.06.2019
6592 Clouds 32 1012 48 10000 4.6 100 06:40 09.06.2019
6593 Clouds 31 1013 51 10000 4.1 70 05:52 09.06.2019
6594 Clear 27 1014 57 10000 5.7 120 02:55 09.06.2019
6595 Clear 25 1014 78 10000 3.6 130 01:37 09.06.2019
6596 Clouds 23 1014 78 10000 3.1 140 01:19 09.06.2019
6597 Clouds 22 1014 78 10000 3.6 140 00:29 09.06.2019
6598 Clouds 22 1013 73 10000 4.6 120 23:41 08.06.2019
6599 Clouds 23 1013 73 10000 4.6 110 23:22 08.06.2019
6600 Clouds 23 1013 73 10000 4.1 100 22:55 08.06.2019
6601 Clouds 23 1013 73 10000 4.1 100 22:36 08.06.2019
6602 Clouds 23 1013 73 10000 4.1 100 22:18 08.06.2019
6603 Clouds 23 1012 73 10000 4.1 110 21:40 08.06.2019
6604 Clouds 23 1012 69 10000 5.7 110 21:21 08.06.2019
6605 Clouds 23 1012 69 10000 4.1 120 20:45 08.06.2019
6606 Clouds 23 1012 69 10000 4.1 120 20:25 08.06.2019
6607 Clouds 23 1012 69 10000 3.6 120 19:56 08.06.2019
6608 Clouds 23 1012 73 10000 3.1 110 19:37 08.06.2019
6609 Clouds 23 1012 73 10000 3.1 120 19:19 08.06.2019
6610 Clouds 23 1012 73 10000 2.6 110 18:41 08.06.2019
6611 Clouds 23 1012 83 10000 2.1 150 18:23 08.06.2019
6612 Clouds 23 1012 83 10000 2.6 140 17:45 08.06.2019
6613 Clear 23 1012 83 10000 3.6 140 17:22 08.06.2019
6614 Clear 23 1012 88 10000 3.6 170 16:53 08.06.2019
6615 Clear 23 1012 88 10000 3.6 170 16:34 08.06.2019
6616 Clear 23 1012 83 10000 2.1 220 15:52 08.06.2019
6617 Clear 24 1012 83 10000 2.1 220 15:33 08.06.2019
6618 Clear 24 1012 83 10000 2.1 210 14:48 08.06.2019
6619 Clear 24 1012 83 10000 2.1 210 14:29 08.06.2019
6620 Clear 24 1012 78 10000 2.1 230 13:49 08.06.2019
6621 Clear 25 1011 69 10000 0.5 350 12:53 08.06.2019
6622 Clear 25 1011 69 10000 0.5 350 12:33 08.06.2019
6623 Clear 26 1011 65 10000 2.6 340 11:51 08.06.2019
6624 Clear 26 1011 65 10000 2.6 340 11:27 08.06.2019
6625 Clear 27 1011 61 10000 3.6 300 10:48 08.06.2019
6626 Clear 28 1011 61 10000 3.6 300 10:26 08.06.2019
6627 Clear 29 1011 51 10000 3.1 300 09:57 08.06.2019
6628 Clear 30 1011 51 10000 2.1 320 09:33 08.06.2019
6629 Clouds 30 1011 51 10000 4.6 340 08:48 08.06.2019
6630 Clouds 30 1012 55 10000 4.6 330 08:20 08.06.2019
6631 Clouds 31 1013 48 10000 4.1 350 06:53 08.06.2019
6632 Clouds 31 1013 48 10000 4.1 350 06:34 08.06.2019
6633 Clear 28 1016 54 10000 5.1 110 03:36 08.06.2019
6634 Clear 25 1016 57 10000 6.2 100 02:20 08.06.2019
6635 Clear 21 1016 56 10000 3.6 130 00:31 08.06.2019
6636 Clear 20 1016 56 10000 3.6 130 23:58 07.06.2019
6637 Clear 20 1015 52 10000 4.1 120 23:21 07.06.2019
6638 Clear 20 1015 49 10000 4.1 110 22:51 07.06.2019
6639 Clear 20 1015 49 10000 4.1 110 22:32 07.06.2019
6640 Clouds 20 1015 46 10000 3.6 120 21:55 07.06.2019
6641 Clouds 20 1015 43 10000 3.6 120 21:36 07.06.2019
6642 Clouds 20 1014 37 10000 4.1 120 21:18 07.06.2019
6643 Clouds 21 1014 40 10000 4.1 130 20:42 07.06.2019
6644 Clouds 21 1014 37 10000 4.1 140 20:22 07.06.2019
6645 Clouds 21 1015 40 10000 4.1 130 19:39 07.06.2019
6646 Clouds 21 1015 35 10000 4.1 130 19:19 07.06.2019
6647 Clouds 21 1015 37 10000 3.6 140 18:41 07.06.2019
6648 Clouds 21 1015 37 10000 3.6 140 18:41 07.06.2019
6649 Clouds 22 1015 37 10000 3.6 140 18:22 07.06.2019
6650 Clouds 23 1015 38 10000 3.6 140 17:43 07.06.2019
6651 Clear 23 1015 40 10000 2.6 140 17:20 07.06.2019
6652 Clear 21 1015 53 10000 2.6 160 16:41 07.06.2019
6653 Clear 20 1015 64 10000 2.1 160 16:18 07.06.2019
6654 Clear 20 1015 64 10000 2.1 160 15:40 07.06.2019
6655 Clear 21 1015 73 10000 2.17 135.936 15:20 07.06.2019
6656 Clear 22 1015 68 10000 2.17 135.936 14:39 07.06.2019
6657 Clear 22 1015 68 10000 2.17 135.936 14:39 07.06.2019
6658 Clear 22 1014 68 10000 2.17 135.936 14:20 07.06.2019
6659 Clear 22 1014 68 10000 0.5 40 13:28 07.06.2019
6660 Clear 23 1014 60 10000 1 350 12:54 07.06.2019
6661 Clear 24 1014 60 10000 1 350 12:29 07.06.2019
6662 Clear 25 1013 57 10000 1 330 11:58 07.06.2019
6663 Clear 25 1013 57 10000 2.1 330 11:38 07.06.2019
6664 Clear 26 1013 54 10000 2.6 330 11:20 07.06.2019
6665 Clear 26 1012 44 10000 3.6 330 10:42 07.06.2019
6666 Clear 27 1012 28 10000 2.6 10 10:21 07.06.2019
6667 Clear 29 1012 28 10000 3.1 100 09:48 07.06.2019
6668 Clear 30 1012 28 10000 4.1 110 09:24 07.06.2019
6669 Clear 30 1012 27 10000 3.6 70 08:48 07.06.2019
6670 Clear 30 1012 27 10000 3.6 70 08:27 07.06.2019
6671 Clear 30 1013 26 10000 4.1 90 07:51 07.06.2019
6672 Clear 30 1013 25 10000 5.1 90 07:22 07.06.2019
6673 Clear 30 1014 24 10000 5.7 130 06:48 07.06.2019
6674 Clear 29 1015 23 10000 5.7 110 06:23 07.06.2019
6675 Clear 28 1015 24 10000 4.6 110 05:44 07.06.2019